
Distance (Route):
Temperature : 16.4°C
Humidity : 69.1%
Pressure : 0hPa| Receiver | Frames | First received | Last received |
|---|---|---|---|
| PETON7-10 | 370 | 2026-09-03 23:22:19 | 2026-09-04 01:09:12 |
| OE5MMP-10 | 240 | 2026-09-04 00:01:54 | 2026-09-04 00:58:14 |
| POL2MAQ | 191 | 2026-09-03 23:28:17 | 2026-09-04 01:06:24 |
| OE5DRO-10 | 191 | 2026-09-03 23:38:45 | 2026-09-04 01:03:55 |
| PG1ADW-2 | 190 | 2026-09-03 23:39:32 | 2026-09-04 01:03:30 |
| DO3MHA-11 | 154 | 2026-09-03 23:56:51 | 2026-09-04 00:59:15 |
| OE3OSB-13 | 147 | 2026-09-03 23:25:05 | 2026-09-04 01:09:11 |
| HA6NAB-11 | 147 | 2026-09-03 23:42:10 | 2026-09-04 01:05:33 |
| OE5DXL-15 | 122 | 2026-09-03 23:41:34 | 2026-09-04 01:02:29 |
| OE3JTB-15 | 121 | 2026-09-03 23:19:21 | 2026-09-04 01:10:13 |
| OK1ALN | 100 | 2026-09-04 00:06:23 | 2026-09-04 00:57:35 |
| S52SK | 68 | 2026-09-03 23:39:29 | 2026-09-04 01:05:06 |
| OK1SLM-15 | 32 | 2026-09-04 00:35:26 | 2026-09-04 00:54:34 |
| SP9KGR-15 | 31 | 2026-09-04 00:40:25 | 2026-09-04 00:54:43 |
| ATIDSZ-14 | 20 | 2026-09-04 01:00:31 | 2026-09-04 01:08:45 |
| NBG1-10 | 17 | 2026-09-04 00:12:15 | 2026-09-04 00:56:21 |
| GYPAP8-17 | 17 | 2026-09-04 00:21:21 | 2026-09-04 00:54:48 |
| SP3BTT-10 | 10 | 2026-09-04 00:42:42 | 2026-09-04 00:53:44 |
| POL1PZ | 5 | 2026-09-03 23:28:47 | 2026-09-03 23:30:36 |
| SP3WXH-11 | 5 | 2026-09-04 00:52:28 | 2026-09-04 00:57:39 |
| SQ9EZE-14 | 4 | 2026-09-04 00:24:57 | 2026-09-04 00:43:43 |
| Receiver | Date | Latitude | Longitude | Direction | Speed | Altitude | Climb | Temperature | Humidity | Pressure | Voltage | Killtimer | Uptime | BKT | XDATA |
|---|---|---|---|---|---|---|---|---|---|---|---|---|---|---|---|
| OE3JTB-15 | 2026-09-04 01:10:13 | 48.73342 | 17.96996 | 163° | 15km/h | 765m | -16.8m/s | 16.4°C | 69.1% | 0hPa | 2.6V | 00:00:00 | 00:00:00 | 00:00:00 | |
| OE3JTB-15 | 2026-09-04 01:10:11 | 48.73349 | 17.96991 | 142° | 15km/h | 798m | -15.9m/s | 16.1°C | 70.3% | 0hPa | 2.6V | 00:00:00 | 02:16:25 | 00:00:00 | |
| OE3JTB-15 | 2026-09-04 01:10:09 | 48.73353 | 17.96983 | 133° | 11km/h | 829m | -15.9m/s | 15.8°C | 71.4% | 0hPa | 2.6V | 00:00:00 | 00:00:00 | 00:00:00 | |
| OE3JTB-15 | 2026-09-04 01:10:07 | 48.73359 | 17.96977 | 148° | 18km/h | 860m | -15.6m/s | 15.5°C | 72.6% | 0hPa | 2.7V | 00:00:00 | 00:00:00 | 00:00:00 | |
| OE3JTB-15 | 2026-09-04 01:10:05 | 48.73366 | 17.96968 | 140° | 16km/h | 891m | -15.4m/s | 15.2°C | 73.7% | 0hPa | 2.7V | 00:00:00 | 02:16:19 | 00:00:00 | |
| OE3JTB-15 | 2026-09-04 01:10:03 | 48.73373 | 17.96962 | 144° | 16km/h | 920m | -16.2m/s | 15.0°C | 74.8% | 0hPa | 2.7V | 00:00:00 | 00:00:00 | 00:00:00 | |
| OE3JTB-15 | 2026-09-04 01:10:01 | 48.73381 | 17.96953 | 143° | 24km/h | 952m | -15.1m/s | 14.7°C | 75.8% | 0hPa | 2.7V | 00:00:00 | 00:00:00 | 00:00:00 | |
| OE3JTB-15 | 2026-09-04 01:09:59 | 48.73392 | 17.96943 | 155° | 27km/h | 982m | -16.3m/s | 14.7°C | 75.8% | 0hPa | 2.7V | 00:00:00 | 02:16:13 | 00:00:00 | |
| OE3JTB-15 | 2026-09-04 01:09:57 | 48.73405 | 17.96934 | 154° | 29km/h | 1013m | -16.3m/s | 14.5°C | 76.5% | 0hPa | 2.7V | 08:14:00 | 00:00:00 | 00:00:00 | |
| OE3JTB-15 | 2026-09-04 01:09:55 | 48.73418 | 17.96924 | 158° | 29km/h | 1045m | -16.5m/s | 14.3°C | 77.5% | 0hPa | 2.7V | 00:00:00 | 00:00:00 | 00:00:00 | |
| OE3JTB-15 | 2026-09-04 01:09:53 | 48.73432 | 17.96912 | 147° | 35km/h | 1077m | -16.3m/s | 14.1°C | 77.9% | 0hPa | 2.7V | 00:00:00 | 02:16:07 | 00:00:00 | |
| OE3JTB-15 | 2026-09-04 01:09:51 | 48.73447 | 17.96898 | 144° | 35km/h | 1108m | -15.7m/s | 14.0°C | 77.3% | 0hPa | 2.7V | 00:00:00 | 00:00:00 | 00:00:00 | |
| OE3JTB-15 | 2026-09-04 01:09:49 | 48.73462 | 17.96881 | 144° | 38km/h | 1139m | -16.3m/s | 13.8°C | 77.8% | 0hPa | 2.7V | 00:00:00 | 00:00:00 | 00:00:00 | |
| OE3JTB-15 | 2026-09-04 01:09:47 | 48.73477 | 17.96863 | 142° | 38km/h | 1171m | -16.5m/s | 13.6°C | 78.0% | 0hPa | 2.7V | 00:00:00 | 02:16:01 | 00:00:00 | |
| OE3JTB-15 | 2026-09-04 01:09:45 | 48.73493 | 17.96843 | 140° | 40km/h | 1203m | -17.0m/s | 13.4°C | 78.6% | 0hPa | 2.7V | 00:00:00 | 00:00:00 | 00:00:00 | |
| OE3JTB-15 | 2026-09-04 01:09:43 | 48.73508 | 17.96822 | 137° | 44km/h | 1236m | -16.1m/s | 13.2°C | 79.6% | 0hPa | 2.7V | 00:00:00 | 00:00:00 | 00:00:00 | |
| OE3JTB-15 | 2026-09-04 01:09:41 | 48.73525 | 17.96800 | 133° | 42km/h | 1268m | -16.5m/s | 12.9°C | 80.8% | 0hPa | 2.7V | 00:00:00 | 02:15:55 | 00:00:00 | |
| OE3JTB-15 | 2026-09-04 01:09:39 | 48.73540 | 17.96777 | 132° | 44km/h | 1300m | -16.2m/s | 12.6°C | 81.6% | 0hPa | 2.7V | 08:14:00 | 00:00:00 | 00:00:00 | |
| OE3JTB-15 | 2026-09-04 01:09:37 | 48.73555 | 17.96753 | 134° | 42km/h | 1332m | -16.6m/s | 12.4°C | 82.8% | 0hPa | 2.7V | 00:00:00 | 00:00:00 | 00:00:00 | |
| OE3JTB-15 | 2026-09-04 01:09:35 | 48.73570 | 17.96730 | 136° | 42km/h | 1365m | -16.3m/s | 12.1°C | 83.9% | 0hPa | 2.7V | 00:00:00 | 02:15:49 | 00:00:00 | |
| OE3JTB-15 | 2026-09-04 01:09:33 | 48.73584 | 17.96706 | 135° | 44km/h | 1397m | -16.4m/s | 11.9°C | 84.2% | 0hPa | 2.7V | 00:00:00 | 00:00:00 | 00:00:00 | |
| OE3JTB-15 | 2026-09-04 01:09:31 | 48.73599 | 17.96681 | 130° | 44km/h | 1429m | -16.3m/s | 11.7°C | 85.2% | 0hPa | 2.7V | 00:00:00 | 00:00:00 | 00:00:00 | |
| OE3JTB-15 | 2026-09-04 01:09:29 | 48.73614 | 17.96656 | 132° | 46km/h | 1461m | -17.0m/s | 11.6°C | 86.1% | 0hPa | 2.7V | 00:00:00 | 02:15:43 | 00:00:00 | |
| OE3JTB-15 | 2026-09-04 01:09:27 | 48.73630 | 17.96630 | 134° | 44km/h | 1494m | -16.4m/s | 11.4°C | 87.0% | 0hPa | 2.7V | 00:00:00 | 00:00:00 | 00:00:00 | |
| OE3JTB-15 | 2026-09-04 01:09:25 | 48.73645 | 17.96605 | 135° | 46km/h | 1527m | -16.7m/s | 11.0°C | 88.5% | 0hPa | 2.7V | 00:00:00 | 00:00:00 | 00:00:00 | |
| OE3JTB-15 | 2026-09-04 01:09:23 | 48.73661 | 17.96580 | 136° | 46km/h | 1560m | -16.9m/s | 10.7°C | 89.7% | 0hPa | 2.7V | 00:00:00 | 02:15:37 | 00:00:00 | |
| OE3JTB-15 | 2026-09-04 01:09:19 | 48.73695 | 17.96529 | 133° | 51km/h | 1626m | -16.2m/s | 10.2°C | 93.0% | 0hPa | 2.7V | 00:00:00 | 00:00:00 | 00:00:00 | |
| OE3JTB-15 | 2026-09-04 01:09:17 | 48.73714 | 17.96503 | 140° | 49km/h | 1658m | -16.5m/s | 9.9°C | 94.4% | 0hPa | 2.7V | 00:00:00 | 02:15:31 | 00:00:00 | |
| OE3JTB-15 | 2026-09-04 01:09:15 | 48.73732 | 17.96477 | 135° | 51km/h | 1691m | -16.9m/s | 9.6°C | 95.7% | 0hPa | 2.7V | 00:00:00 | 00:00:00 | 00:00:00 | |
| OE3JTB-15 | 2026-09-04 01:09:13 | 48.73751 | 17.96448 | 134° | 53km/h | 1724m | -17.1m/s | 9.4°C | 95.8% | 0hPa | 2.7V | 00:00:00 | 00:00:00 | 00:00:00 | |
| PETON7-10 | 2026-09-04 01:09:12 | 48.73760 | 17.96433 | 136° | 53km/h | 1740m | -17.1m/s | 9.2°C | 96.0% | 0hPa | 2.7V | 00:00:00 | 02:15:26 | 00:00:00 | |
| OE3OSB-13 | 2026-09-04 01:09:11 | 48.73769 | 17.96419 | 135° | 51km/h | 1757m | -17.4m/s | 9.2°C | 93.4% | -1.0hPa | 2.7V | 00:00:00 | 00:00:00 | 00:00:00 | |
| OE3JTB-15 | 2026-09-04 01:09:11 | 48.73769 | 17.96419 | 136° | 53km/h | 1757m | -17.4m/s | 9.1°C | 96.5% | 0hPa | 2.7V | 00:00:00 | 02:15:25 | 00:00:00 | |
| OE3JTB-15 | 2026-09-04 01:09:09 | 48.73788 | 17.96390 | 136° | 53km/h | 1790m | -16.9m/s | 8.9°C | 97.4% | 0hPa | 2.7V | 00:00:00 | 00:00:00 | 00:00:00 | |
| OE3JTB-15 | 2026-09-04 01:09:07 | 48.73808 | 17.96362 | 138° | 53km/h | 1823m | -16.5m/s | 8.7°C | 95.9% | 0hPa | 2.5V | 00:00:00 | 00:00:00 | 00:00:00 | |
| PETON7-10 | 2026-09-04 01:09:06 | 48.73818 | 17.96348 | 138° | 55km/h | 1839m | -16.7m/s | 8.5°C | 96.4% | 0hPa | 2.5V | 00:00:00 | 00:00:00 | 00:00:00 | |
| OE3JTB-15 | 2026-09-04 01:09:05 | 48.73828 | 17.96334 | 137° | 55km/h | 1855m | -15.9m/s | 8.4°C | 97.1% | 0hPa | 2.7V | 00:00:00 | 02:15:19 | 00:00:00 | |
| OE3JTB-15 | 2026-09-04 01:09:03 | 48.73848 | 17.96305 | 141° | 55km/h | 1887m | -16.7m/s | 8.1°C | 98.3% | 0hPa | 2.7V | 08:15:00 | 00:00:00 | 00:00:00 | |
| OE3JTB-15 | 2026-09-04 01:09:01 | 48.73869 | 17.96276 | 137° | 53km/h | 1920m | -17.0m/s | 7.9°C | 0% | 0hPa | 2.7V | 00:00:00 | 00:00:00 | 00:00:00 | |
| PETON7-10 | 2026-09-04 01:09:01 | 48.73869 | 17.96276 | 137° | 55km/h | 1920m | -17.0m/s | 7.9°C | 0% | 0hPa | 2.7V | 00:00:00 | 00:00:00 | 00:00:00 | |
| OE3JTB-15 | 2026-09-04 01:08:59 | 48.73888 | 17.96248 | 135° | 55km/h | 1955m | -17.3m/s | 7.6°C | 0% | 0hPa | 2.7V | 00:00:00 | 02:15:13 | 00:00:00 | |
| OE3JTB-15 | 2026-09-04 01:08:57 | 48.73908 | 17.96218 | 136° | 57km/h | 1989m | -18.0m/s | 7.3°C | 0% | 0hPa | 2.7V | 00:00:00 | 00:00:00 | 00:00:00 | |
| PETON7-10 | 2026-09-04 01:08:55 | 48.73928 | 17.96186 | 135° | 57km/h | 2023m | -17.5m/s | 7.1°C | 0% | 0hPa | 2.5V | 00:00:00 | 02:15:09 | 00:00:00 | |
| PETON7-10 | 2026-09-04 01:08:48 | 48.73997 | 17.96071 | 132° | 57km/h | 2144m | -17.8m/s | 6.7°C | 0% | 0hPa | 2.5V | 00:00:00 | 00:00:00 | 00:00:00 | |
| ATIDSZ-14 | 2026-09-04 01:08:45 | 48.74017 | 17.96038 | 134° | 57km/h | 2178m | -17.7m/s | 6.6°C | 0% | 0hPa | 2.6V | 08:16:00 | 00:00:00 | 00:00:00 | |
| OE3OSB-13 | 2026-09-04 01:08:40 | 48.74085 | 17.95925 | 133° | 55km/h | 2298m | -17.7m/s | 5.9°C | 100.0% | -1.0hPa | 2.6V | 00:00:00 | 00:00:00 | 00:00:00 | |
| OE3JTB-15 | 2026-09-04 01:08:39 | 48.74084 | 17.95925 | 134° | 53km/h | 2298m | -17.6m/s | 5.9°C | 0% | 0hPa | 2.6V | 00:00:00 | 00:00:00 | 00:00:00 | |
| PETON7-10 | 2026-09-04 01:08:38 | 48.74095 | 17.95910 | 136° | 53km/h | 2316m | -17.2m/s | 5.8°C | 0% | 0hPa | 2.6V | 00:00:00 | 00:00:00 | 00:00:00 | |
| OE3JTB-15 | 2026-09-04 01:08:30 | 48.74166 | 17.95788 | 126° | 57km/h | 2451m | -17.5m/s | 5.2°C | 0% | 0hPa | 2.6V | 00:00:00 | 00:00:00 | 00:00:00 | |
| PETON7-10 | 2026-09-04 01:08:28 | 48.74181 | 17.95754 | 122° | 58km/h | 2484m | -16.5m/s | 5.1°C | 0% | 0hPa | 2.6V | 00:00:00 | 02:14:42 | 00:00:00 | |
| ATIDSZ-14 | 2026-09-04 01:08:22 | 48.74218 | 17.95664 | 122° | 55km/h | 2567m | -18.0m/s | 4.8°C | 0% | 0hPa | 2.6V | 08:16:00 | 00:00:00 | 00:00:00 | |
| PETON7-10 | 2026-09-04 01:08:13 | 48.74292 | 17.95464 | 118° | 60km/h | 2733m | -17.0m/s | 4.0°C | 0% | 0hPa | 2.6V | 08:15:00 | 00:00:00 | 00:00:00 | |
| OE3JTB-15 | 2026-09-04 01:08:11 | 48.74306 | 17.95422 | 117° | 58km/h | 2765m | -17.0m/s | 4.0°C | 99.4% | 0hPa | 2.6V | 00:00:00 | 02:14:25 | 00:00:00 | |
| OE3OSB-13 | 2026-09-04 01:08:09 | 48.74326 | 17.95361 | 116° | 60km/h | 2815m | -16.7m/s | 3.7°C | 95.3% | -1.0hPa | 2.6V | 00:00:00 | 00:00:00 | 00:00:00 | |
| ATIDSZ-14 | 2026-09-04 01:08:01 | 48.74366 | 17.95237 | 116° | 57km/h | 2913m | -17.1m/s | 3.0°C | 97.4% | 0hPa | 2.6V | 08:16:00 | 00:00:00 | 00:00:00 | |
| PETON7-10 | 2026-09-04 01:07:57 | 48.74399 | 17.95134 | 115° | 51km/h | 2995m | -17.2m/s | 2.5°C | 0% | 0hPa | 2.6V | 00:00:00 | 00:00:00 | 00:00:00 | |
| OE3JTB-15 | 2026-09-04 01:07:52 | 48.74429 | 17.95042 | 115° | 51km/h | 3077m | -17.2m/s | 2.1°C | 0% | 0hPa | 2.6V | 08:16:00 | 00:00:00 | 00:00:00 | |
| PETON7-10 | 2026-09-04 01:07:42 | 48.74486 | 17.94868 | 114° | 53km/h | 3241m | -16.9m/s | 1.2°C | 0% | 0hPa | 2.6V | 00:00:00 | 02:13:56 | 00:00:00 | |
| ATIDSZ-14 | 2026-09-04 01:07:41 | 48.74486 | 17.94868 | 114° | 53km/h | 3241m | -16.9m/s | 1.2°C | 0% | 0hPa | 2.6V | 08:16:00 | 00:00:00 | 00:00:00 | |
| OE3OSB-13 | 2026-09-04 01:07:38 | 48.74514 | 17.94775 | 114° | 49km/h | 3324m | -17.1m/s | 0.7°C | 100.0% | -1.0hPa | 2.6V | 00:00:00 | 00:00:00 | 00:00:00 | |
| OE3JTB-15 | 2026-09-04 01:07:33 | 48.74534 | 17.94703 | 116° | 53km/h | 3392m | -16.5m/s | 0.2°C | 0% | 0hPa | 2.6V | 00:00:00 | 00:00:00 | 00:00:00 | |
| PETON7-10 | 2026-09-04 01:07:27 | 48.74575 | 17.94594 | 125° | 55km/h | 3493m | -17.3m/s | 0.9°C | 86.9% | 0hPa | 2.6V | 00:00:00 | 00:00:00 | 00:00:00 | |
| ATIDSZ-14 | 2026-09-04 01:07:21 | 48.74612 | 17.94510 | 123° | 53km/h | 3578m | -17.1m/s | 0.4°C | 82.4% | 0hPa | 2.5V | 08:16:00 | 00:00:00 | 00:00:00 | |
| OE3JTB-15 | 2026-09-04 01:07:14 | 48.74675 | 17.94374 | 125° | 68km/h | 3712m | -17.4m/s | -0.7°C | 86.7% | 0hPa | 2.5V | 00:00:00 | 02:13:28 | 00:00:00 | |
| PETON7-10 | 2026-09-04 01:07:12 | 48.74693 | 17.94335 | 124° | 66km/h | 3747m | -17.8m/s | -0.9°C | 86.0% | 0hPa | 2.5V | 00:00:00 | 00:00:00 | 00:00:00 | |
| OE3OSB-13 | 2026-09-04 01:07:07 | 48.74750 | 17.94212 | 125° | 64km/h | 3850m | -17.5m/s | -1.7°C | 89.3% | -1.0hPa | 2.5V | 00:00:00 | 00:00:00 | 00:00:00 | |
| ATIDSZ-14 | 2026-09-04 01:07:00 | 48.74799 | 17.94108 | 127° | 66km/h | 3936m | -18.1m/s | -2.5°C | 93.2% | 0hPa | 2.5V | 08:17:00 | 00:00:00 | 00:00:00 | |
| PETON7-10 | 2026-09-04 01:06:57 | 48.74839 | 17.94024 | 124° | 68km/h | 4007m | -18.0m/s | -3.2°C | 0% | 0hPa | 2.5V | 00:00:00 | 02:13:11 | 00:00:00 | |
| OE3JTB-15 | 2026-09-04 01:06:45 | 48.74951 | 17.93767 | 126° | 71km/h | 4215m | -17.7m/s | -3.6°C | 24.3% | 0hPa | 2.5V | 00:00:00 | 00:00:00 | 00:00:00 | |
| PETON7-10 | 2026-09-04 01:06:42 | 48.74983 | 17.93704 | 129° | 71km/h | 4268m | -17.5m/s | -3.3°C | 11.6% | 0hPa | 2.6V | 00:00:00 | 00:00:00 | 00:00:00 | |
| ATIDSZ-14 | 2026-09-04 01:06:40 | 48.74994 | 17.93682 | 127° | 71km/h | 4285m | -17.6m/s | -3.4°C | 11.4% | 0hPa | 2.6V | 08:17:00 | 00:00:00 | 00:00:00 | |
| OE3OSB-13 | 2026-09-04 01:06:37 | 48.75060 | 17.93553 | 126° | 69km/h | 4391m | -18.3m/s | -4.2°C | 13.8% | -1.0hPa | 2.6V | 00:00:00 | 00:00:00 | 00:00:00 | |
| PETON7-10 | 2026-09-04 01:06:27 | 48.75150 | 17.93383 | 130° | 73km/h | 4532m | -17.7m/s | -5.2°C | 16.2% | 0hPa | 2.6V | 00:00:00 | 00:00:00 | 00:00:00 | |
| POL2MAQ | 2026-09-04 01:06:24 | 48.75174 | 17.93341 | 131° | 75km/h | 4567m | -18.4m/s | -5.6°C | 16.0% | 0hPa | 2.6V | 08:17:00 | 00:00:00 | 00:00:00 | |
| ATIDSZ-14 | 2026-09-04 01:06:19 | 48.75235 | 17.93230 | 131° | 75km/h | 4656m | -18.0m/s | -6.1°C | 22.1% | 0hPa | 2.6V | 08:18:00 | 00:00:00 | 00:00:00 | |
| OE3JTB-15 | 2026-09-04 01:06:16 | 48.75282 | 17.93143 | 129° | 71km/h | 4725m | -19.0m/s | -6.6°C | 30.2% | 0hPa | 2.6V | 00:00:00 | 00:00:00 | 00:00:00 | |
| PETON7-10 | 2026-09-04 01:06:12 | 48.75327 | 17.93061 | 129° | 71km/h | 4798m | -18.9m/s | -7.1°C | 31.0% | 0hPa | 2.6V | 00:00:00 | 02:12:26 | 00:00:00 | |
| OE3OSB-13 | 2026-09-04 01:06:05 | 48.75414 | 17.92892 | 127° | 66km/h | 4943m | -19.6m/s | -8.3°C | 50.1% | -1.0hPa | 2.6V | 00:00:00 | 00:00:00 | 00:00:00 | |
| POL2MAQ | 2026-09-04 01:06:03 | 48.75414 | 17.92892 | 128° | 68km/h | 4943m | -19.6m/s | -8.3°C | 50.2% | 0hPa | 2.6V | 08:18:00 | 00:00:00 | 00:00:00 | |
| PETON7-10 | 2026-09-04 01:05:57 | 48.75492 | 17.92737 | 129° | 73km/h | 5073m | -19.5m/s | -8.8°C | 59.6% | 0hPa | 2.6V | 08:18:00 | 00:00:00 | 00:00:00 | |
| OE3JTB-15 | 2026-09-04 01:05:47 | 48.75612 | 17.92522 | 133° | 80km/h | 5269m | -19.3m/s | -10.0°C | 41.7% | 0hPa | 2.6V | 00:00:00 | 02:12:01 | 00:00:00 | |
| PETON7-10 | 2026-09-04 01:05:42 | 48.75677 | 17.92423 | 137° | 78km/h | 5361m | -19.2m/s | -10.9°C | 43.3% | 0hPa | 2.6V | 00:00:00 | 00:00:00 | 00:00:00 | |
| ATIDSZ-14 | 2026-09-04 01:05:39 | 48.75704 | 17.92384 | 137° | 75km/h | 5398m | -18.8m/s | -11.3°C | 41.9% | 0hPa | 2.6V | 08:18:00 | 00:00:00 | 00:00:00 | |
| HA6NAB-11 | 2026-09-04 01:05:33 | 48.75788 | 17.92260 | 135° | 80km/h | 5507m | -19.9m/s | -11.1°C | 64.2% | 0hPa | 2.6V | 08:18:00 | 00:00:00 | 00:00:00 | |
| PETON7-10 | 2026-09-04 01:05:27 | 48.75892 | 17.92101 | 134° | 93km/h | 5657m | -21.3m/s | -11.3°C | 68.2% | 0hPa | 2.6V | 00:00:00 | 02:11:41 | 00:00:00 | |
| HA6NAB-11 | 2026-09-04 01:05:22 | 48.75953 | 17.92007 | 134° | 88km/h | 5737m | -20.5m/s | -11.7°C | 60.8% | 0hPa | 2.6V | 00:00:00 | 00:00:00 | 00:00:00 | |
| OE3JTB-15 | 2026-09-04 01:05:18 | 48.76038 | 17.91882 | 138° | 102km/h | 5835m | -20.6m/s | -11.1°C | 76.3% | 0hPa | 2.6V | 00:00:00 | 00:00:00 | 00:00:00 | |
| HA6NAB-11 | 2026-09-04 01:05:16 | 48.76057 | 17.91856 | 140° | 102km/h | 5855m | -20.9m/s | -11.1°C | 70.9% | 0hPa | 2.6V | 00:00:00 | 00:00:00 | 00:00:00 | |
| PETON7-10 | 2026-09-04 01:05:12 | 48.76157 | 17.91732 | 142° | 100km/h | 5957m | -21.6m/s | -11.6°C | 75.1% | 0hPa | 2.6V | 00:00:00 | 00:00:00 | 00:00:00 | |
| HA6NAB-11 | 2026-09-04 01:05:10 | 48.76177 | 17.91708 | 144° | 100km/h | 5977m | -21.6m/s | -11.8°C | 70.7% | 0hPa | 2.5V | 00:00:00 | 00:00:00 | 00:00:00 | |
| S52SK | 2026-09-04 01:05:06 | 48.76260 | 17.91612 | 144° | 106km/h | 6059m | -21.2m/s | -12.5°C | 72.3% | 0hPa | 2.5V | 00:00:00 | 00:00:00 | 00:00:00 | |
| HA6NAB-11 | 2026-09-04 01:05:04 | 48.76302 | 17.91568 | 145° | 99km/h | 6102m | -22.1m/s | -12.8°C | 70.3% | 0hPa | 2.5V | 00:00:00 | 00:00:00 | 00:00:00 | |
| POL2MAQ | 2026-09-04 01:05:02 | 48.76363 | 17.91502 | 146° | 99km/h | 6167m | -23.0m/s | -13.2°C | 69.8% | 0hPa | 2.5V | 08:19:00 | 00:00:00 | 00:00:00 | |
| S52SK | 2026-09-04 01:05:00 | 48.76384 | 17.91480 | 146° | 99km/h | 6190m | -22.9m/s | -13.4°C | 69.9% | 0hPa | 2.5V | 00:00:00 | 00:00:00 | 00:00:00 | |
| PETON7-10 | 2026-09-04 01:04:57 | 48.76467 | 17.91394 | 147° | 106km/h | 6278m | -22.6m/s | -13.9°C | 75.1% | 0hPa | 2.5V | 00:00:00 | 00:00:00 | 00:00:00 | |
| S52SK | 2026-09-04 01:04:55 | 48.76488 | 17.91373 | 148° | 99km/h | 6301m | -23.3m/s | -14.1°C | 71.2% | 0hPa | 2.5V | 00:00:00 | 00:00:00 | 00:00:00 | |
| S52SK | 2026-09-04 01:04:50 | 48.76599 | 17.91264 | 147° | 108km/h | 6410m | -22.2m/s | -14.9°C | 75.8% | 0hPa | 2.5V | 00:00:00 | 00:00:00 | 00:00:00 | |
| OE3JTB-15 | 2026-09-04 01:04:49 | 48.76646 | 17.91219 | 147° | 110km/h | 6451m | -21.8m/s | -15.1°C | 79.9% | 0hPa | 2.5V | 00:00:00 | 00:00:00 | 00:00:00 | |
| PETON7-10 | 2026-09-04 01:04:42 | 48.76808 | 17.91060 | 146° | 110km/h | 6598m | -21.9m/s | -16.5°C | 85.0% | 0hPa | 2.5V | 00:00:00 | 02:10:56 | 00:00:00 | |
| POL2MAQ | 2026-09-04 01:04:41 | 48.76808 | 17.91060 | 147° | 111km/h | 6598m | -21.9m/s | -16.5°C | 78.6% | 0hPa | 2.5V | 08:19:00 | 00:00:00 | 00:00:00 | |
| ATIDSZ-14 | 2026-09-04 01:04:36 | 48.76926 | 17.90942 | 148° | 111km/h | 6706m | -22.4m/s | -17.3°C | 79.5% | 0hPa | 2.5V | 08:20:00 | 00:00:00 | 00:00:00 | |
| OE3OSB-13 | 2026-09-04 01:04:31 | 48.77065 | 17.90802 | 145° | 110km/h | 6833m | -21.6m/s | -18.3°C | 83.8% | -1.0hPa | 2.5V | 00:00:00 | 00:00:00 | 00:00:00 | |
| PETON7-10 | 2026-09-04 01:04:27 | 48.77157 | 17.90707 | 146° | 110km/h | 6919m | -22.1m/s | -18.9°C | 90.5% | 0hPa | 2.5V | 00:00:00 | 00:00:00 | 00:00:00 | |
| HA6NAB-11 | 2026-09-04 01:04:21 | 48.77273 | 17.90592 | 149° | 110km/h | 7024m | -21.6m/s | -19.7°C | 83.7% | 0hPa | 2.5V | 00:00:00 | 00:00:00 | 00:00:00 | |
| OE3JTB-15 | 2026-09-04 01:04:20 | 48.77320 | 17.90545 | 148° | 115km/h | 7066m | -21.8m/s | -19.9°C | 88.2% | 0hPa | 2.5V | 00:00:00 | 02:10:34 | 00:00:00 | |
| HA6NAB-11 | 2026-09-04 01:04:15 | 48.77414 | 17.90454 | 148° | 111km/h | 7148m | -21.4m/s | -20.5°C | 79.1% | 0hPa | 2.5V | 00:00:00 | 00:00:00 | 00:00:00 | |
| PETON7-10 | 2026-09-04 01:04:12 | 48.77512 | 17.90368 | 151° | 117km/h | 7231m | -21.4m/s | -20.9°C | 81.1% | 0hPa | 2.5V | 00:00:00 | 00:00:00 | 00:00:00 | |
| HA6NAB-11 | 2026-09-04 01:04:10 | 48.77538 | 17.90346 | 152° | 117km/h | 7252m | -21.8m/s | -21.2°C | 76.4% | 0hPa | 2.5V | 00:00:00 | 00:00:00 | 00:00:00 | |
| HA6NAB-11 | 2026-09-04 01:04:05 | 48.77669 | 17.90242 | 154° | 117km/h | 7359m | -21.9m/s | -22.1°C | 76.8% | 0hPa | 2.5V | 00:00:00 | 00:00:00 | 00:00:00 | |
| POL2MAQ | 2026-09-04 01:04:00 | 48.77828 | 17.90118 | 153° | 119km/h | 7486m | -22.0m/s | -23.2°C | 77.6% | 0hPa | 2.5V | 08:20:00 | 00:00:00 | 00:00:00 | |
| HA6NAB-11 | 2026-09-04 01:03:59 | 48.77828 | 17.90118 | 153° | 119km/h | 7486m | -22.0m/s | -23.2°C | 77.4% | 0hPa | 2.5V | 00:00:00 | 00:00:00 | 00:00:00 | |
| PETON7-10 | 2026-09-04 01:03:57 | 48.77907 | 17.90055 | 152° | 117km/h | 7551m | -21.2m/s | -23.9°C | 89.9% | 0hPa | 2.5V | 00:00:00 | 02:10:11 | 00:00:00 | |
| OE5DRO-10 | 2026-09-04 01:03:55 | 48.77960 | 17.90013 | 153° | 117km/h | 7593m | -21.2m/s | -24.3°C | 0% | 0hPa | 2.5V | 00:00:00 | 00:00:00 | 00:00:00 | |
| ATIDSZ-14 | 2026-09-04 01:03:54 | 48.77960 | 17.90013 | 154° | 117km/h | 7593m | -21.2m/s | -24.3°C | 86.8% | 0hPa | 2.5V | 08:20:00 | 00:00:00 | 00:00:00 | |
| OE3JTB-15 | 2026-09-04 01:03:51 | 48.78065 | 17.89927 | 152° | 120km/h | 7679m | -21.6m/s | -25.0°C | 0% | 0hPa | 2.5V | 08:20:00 | 00:00:00 | 00:00:00 | |
| PETON7-10 | 2026-09-04 01:03:42 | 48.78301 | 17.89740 | 153° | 120km/h | 7872m | -21.5m/s | -26.8°C | 0% | 0hPa | 2.5V | 08:20:00 | 00:00:00 | 00:00:00 | |
| POL2MAQ | 2026-09-04 01:03:38 | 48.78380 | 17.89682 | 155° | 117km/h | 7935m | -22.0m/s | -25.8°C | 59.3% | 0hPa | 2.5V | 08:21:00 | 00:00:00 | 00:00:00 | |
| OE5DRO-10 | 2026-09-04 01:03:36 | 48.78462 | 17.89624 | 156° | 124km/h | 7998m | -21.8m/s | -25.5°C | 54.7% | 0hPa | 2.5V | 00:00:00 | 00:00:00 | 00:00:00 | |
| ATIDSZ-14 | 2026-09-04 01:03:34 | 48.78489 | 17.89605 | 155° | 119km/h | 8019m | -21.9m/s | -25.6°C | 48.9% | 0hPa | 2.5V | 08:21:00 | 00:00:00 | 00:00:00 | |
| PG1ADW-2 | 2026-09-04 01:03:30 | 48.78628 | 17.89501 | 154° | 128km/h | 8125m | -21.7m/s | -26.4°C | 53.4% | 0hPa | 2.5V | 00:00:00 | 00:00:00 | 00:00:00 | |
| OE3OSB-13 | 2026-09-04 01:03:29 | 48.78656 | 17.89479 | 152° | 124km/h | 8145m | -21.5m/s | -26.6°C | 47.2% | -1.0hPa | 2.5V | 00:00:00 | 00:00:00 | 00:00:00 | |
| PETON7-10 | 2026-09-04 01:03:27 | 48.78713 | 17.89434 | 153° | 128km/h | 8187m | -21.6m/s | -26.9°C | 52.4% | 0hPa | 2.5V | 00:00:00 | 00:00:00 | 00:00:00 | |
| OE3JTB-15 | 2026-09-04 01:03:22 | 48.78855 | 17.89323 | 153° | 126km/h | 8296m | -22.1m/s | -27.6°C | 49.3% | 0hPa | 2.5V | 00:00:00 | 00:00:00 | 00:00:00 | |
| OE5DRO-10 | 2026-09-04 01:03:17 | 48.78999 | 17.89209 | 152° | 126km/h | 8402m | -22.3m/s | -28.4°C | 49.5% | 0hPa | 2.5V | 00:00:00 | 00:00:00 | 00:00:00 | |
| ATIDSZ-14 | 2026-09-04 01:03:13 | 48.79085 | 17.89138 | 153° | 130km/h | 8467m | -21.3m/s | -29.1°C | 42.5% | 0hPa | 2.6V | 08:21:00 | 00:00:00 | 00:00:00 | |
| PETON7-10 | 2026-09-04 01:03:12 | 48.79142 | 17.89092 | 150° | 126km/h | 8508m | -22.3m/s | -29.4°C | 47.0% | 0hPa | 2.6V | 00:00:00 | 02:09:26 | 00:00:00 | |
| PG1ADW-2 | 2026-09-04 01:03:10 | 48.79199 | 17.89044 | 151° | 126km/h | 8551m | -22.1m/s | -29.7°C | 45.3% | 0hPa | 2.6V | 00:00:00 | 02:09:24 | 00:00:00 | |
| OE5DRO-10 | 2026-09-04 01:02:58 | 48.79534 | 17.88772 | 153° | 130km/h | 8808m | -22.5m/s | -32.0°C | 49.3% | 0hPa | 2.6V | 00:00:00 | 00:00:00 | 00:00:00 | |
| PETON7-10 | 2026-09-04 01:02:57 | 48.79562 | 17.88749 | 152° | 130km/h | 8830m | -22.6m/s | -32.2°C | 50.1% | 0hPa | 2.6V | 00:00:00 | 00:00:00 | 00:00:00 | |
| ATIDSZ-14 | 2026-09-04 01:02:53 | 48.79647 | 17.88682 | 154° | 126km/h | 8896m | -22.3m/s | -32.9°C | 46.1% | 0hPa | 2.6V | 08:21:00 | 00:00:00 | 00:00:00 | |
| PG1ADW-2 | 2026-09-04 01:02:50 | 48.79764 | 17.88595 | 154° | 135km/h | 8984m | -22.5m/s | -33.6°C | 54.7% | 0hPa | 2.6V | 00:00:00 | 00:00:00 | 00:00:00 | |
| PETON7-10 | 2026-09-04 01:02:42 | 48.80006 | 17.88430 | 157° | 139km/h | 9155m | -22.4m/s | -35.2°C | 56.9% | 0hPa | 2.6V | 00:00:00 | 00:00:00 | 00:00:00 | |
| OE5DRO-10 | 2026-09-04 01:02:39 | 48.80099 | 17.88371 | 159° | 142km/h | 9221m | -22.4m/s | -35.8°C | 54.8% | 0hPa | 2.6V | 00:00:00 | 00:00:00 | 00:00:00 | |
| POL2MAQ | 2026-09-04 01:02:37 | 48.80164 | 17.88335 | 161° | 135km/h | 9263m | -22.4m/s | -36.1°C | 47.0% | 0hPa | 2.6V | 08:21:00 | 00:00:00 | 00:00:00 | |
| ATIDSZ-14 | 2026-09-04 01:02:33 | 48.80262 | 17.88280 | 160° | 141km/h | 9329m | -22.7m/s | -36.6°C | 47.2% | 0hPa | 2.6V | 08:21:00 | 00:00:00 | 00:00:00 | |
| PG1ADW-2 | 2026-09-04 01:02:30 | 48.80396 | 17.88204 | 160° | 150km/h | 9416m | -22.9m/s | -37.4°C | 59.8% | 0hPa | 2.6V | 00:00:00 | 00:00:00 | 00:00:00 | |
| OE5DXL-15 | 2026-09-04 01:02:29 | 48.80430 | 17.88186 | 161° | 157km/h | 9439m | -23.6m/s | -37.5°C | 61.1% | 0hPa | 2.6V | 00:00:00 | 00:00:00 | 00:00:00 | |
| PETON7-10 | 2026-09-04 01:02:27 | 48.80499 | 17.88146 | 159° | 151km/h | 9484m | -22.9m/s | -37.9°C | 62.9% | 0hPa | 2.6V | 00:00:00 | 02:08:41 | 00:00:00 | |
| OE3JTB-15 | 2026-09-04 01:02:24 | 48.80603 | 17.88084 | 159° | 155km/h | 9552m | -23.5m/s | -38.6°C | 66.6% | 0hPa | 2.6V | 00:00:00 | 00:00:00 | 00:00:00 | |
| OE5DRO-10 | 2026-09-04 01:02:20 | 48.80744 | 17.87998 | 158° | 157km/h | 9646m | -23.7m/s | -39.3°C | 69.2% | 0hPa | 2.5V | 08:21:00 | 00:00:00 | 00:00:00 | |
| POL2MAQ | 2026-09-04 01:02:16 | 48.80851 | 17.87930 | 159° | 151km/h | 9714m | -23.6m/s | -40.0°C | 61.3% | 0hPa | 2.6V | 08:21:00 | 00:00:00 | 00:00:00 | |
| ATIDSZ-14 | 2026-09-04 01:02:13 | 48.80958 | 17.87861 | 159° | 153km/h | 9783m | -23.4m/s | -40.7°C | 61.9% | 0hPa | 2.6V | 08:21:00 | 00:00:00 | 00:00:00 | |
| PETON7-10 | 2026-09-04 01:02:12 | 48.81031 | 17.87816 | 158° | 157km/h | 9827m | -23.3m/s | -41.0°C | 71.3% | 0hPa | 2.6V | 00:00:00 | 00:00:00 | 00:00:00 | |
| PG1ADW-2 | 2026-09-04 01:02:10 | 48.81104 | 17.87769 | 158° | 157km/h | 9872m | -23.1m/s | -41.4°C | 70.9% | 0hPa | 2.6V | 00:00:00 | 00:00:00 | 00:00:00 | |
| HA6NAB-11 | 2026-09-04 01:02:04 | 48.81288 | 17.87656 | 159° | 161km/h | 9983m | -23.4m/s | -42.4°C | 60.9% | 0hPa | 2.6V | 00:00:00 | 00:00:00 | 00:00:00 | |
| OE3OSB-13 | 2026-09-04 01:01:56 | 48.81623 | 17.87452 | 158° | 157km/h | 10187m | -26.1m/s | -44.1°C | 57.7% | -1.0hPa | 2.6V | 00:00:00 | 00:00:00 | 00:00:00 | |
| OE3JTB-15 | 2026-09-04 01:01:55 | 48.81661 | 17.87430 | 159° | 153km/h | 10215m | -28.8m/s | -44.3°C | 67.7% | 0hPa | 2.6V | 00:00:00 | 00:00:00 | 00:00:00 | |
| HA6NAB-11 | 2026-09-04 01:01:54 | 48.81661 | 17.87430 | 159° | 159km/h | 10215m | -28.9m/s | -44.3°C | 57.5% | 0hPa | 2.6V | 00:00:00 | 00:00:00 | 00:00:00 | |
| ATIDSZ-14 | 2026-09-04 01:01:52 | 48.81735 | 17.87387 | 161° | 155km/h | 10271m | -29.0m/s | -44.8°C | 57.8% | 0hPa | 2.6V | 00:00:00 | 00:00:00 | 00:00:00 | |
| PG1ADW-2 | 2026-09-04 01:01:50 | 48.81847 | 17.87325 | 161° | 153km/h | 10357m | -29.2m/s | -45.5°C | 68.8% | 0hPa | 2.6V | 00:00:00 | 02:08:04 | 00:00:00 | |
| HA6NAB-11 | 2026-09-04 01:01:48 | 48.81884 | 17.87306 | 162° | 153km/h | 10385m | -28.8m/s | -45.8°C | 58.1% | 0hPa | 2.6V | 00:00:00 | 00:00:00 | 00:00:00 | |
| OE5DXL-15 | 2026-09-04 01:01:46 | 48.81993 | 17.87248 | 161° | 155km/h | 10471m | -29.0m/s | -46.4°C | 67.4% | 0hPa | 2.6V | 00:00:00 | 00:00:00 | 00:00:00 | |
| HA6NAB-11 | 2026-09-04 01:01:43 | 48.82067 | 17.87210 | 162° | 157km/h | 10531m | -28.8m/s | -47.0°C | 54.7% | 0hPa | 2.6V | 00:00:00 | 00:00:00 | 00:00:00 | |
| PETON7-10 | 2026-09-04 01:01:42 | 48.82142 | 17.87174 | 162° | 151km/h | 10589m | -29.1m/s | -47.4°C | 63.1% | 0hPa | 2.6V | 00:00:00 | 02:07:56 | 00:00:00 | |
| OE5DRO-10 | 2026-09-04 01:01:41 | 48.82179 | 17.87155 | 162° | 153km/h | 10618m | -28.5m/s | -47.7°C | 62.2% | 0hPa | 2.6V | 00:00:00 | 00:00:00 | 00:00:00 | |
| POL2MAQ | 2026-09-04 01:01:35 | 48.82364 | 17.87069 | 163° | 150km/h | 10760m | -28.9m/s | -49.0°C | 48.3% | 0hPa | 2.6V | 08:22:00 | 00:00:00 | 00:00:00 | |
| ATIDSZ-14 | 2026-09-04 01:01:32 | 48.82473 | 17.87017 | 164° | 151km/h | 10845m | -29.2m/s | -49.8°C | 47.0% | 0hPa | 2.6V | 00:00:00 | 00:00:00 | 00:00:00 | |
| PG1ADW-2 | 2026-09-04 01:01:30 | 48.82584 | 17.86969 | 166° | 157km/h | 10931m | -29.8m/s | -50.5°C | 55.6% | 0hPa | 2.6V | 00:00:00 | 00:00:00 | 00:00:00 | |
| PETON7-10 | 2026-09-04 01:01:27 | 48.82697 | 17.86927 | 167° | 157km/h | 11019m | -30.2m/s | -51.2°C | 53.7% | 0hPa | 2.6V | 08:22:00 | 00:00:00 | 00:00:00 | |
| OE3JTB-15 | 2026-09-04 01:01:24 | 48.82812 | 17.86888 | 169° | 159km/h | 11112m | -30.9m/s | -51.9°C | 52.4% | 0hPa | 2.5V | 00:00:00 | 02:07:38 | 00:00:00 | |
| OE5DRO-10 | 2026-09-04 01:01:22 | 48.82890 | 17.86864 | 169° | 161km/h | 11175m | -31.1m/s | -52.4°C | 51.5% | 0hPa | 2.5V | 00:00:00 | 00:00:00 | 00:00:00 | |
| OE5DXL-15 | 2026-09-04 01:01:16 | 48.83125 | 17.86792 | 170° | 162km/h | 11362m | -30.6m/s | -54.0°C | 49.3% | 0hPa | 2.5V | 00:00:00 | 00:00:00 | 00:00:00 | |
| POL2MAQ | 2026-09-04 01:01:15 | 48.83125 | 17.86792 | 170° | 159km/h | 11362m | -30.7m/s | -54.1°C | 39.1% | 0hPa | 2.5V | 08:22:00 | 00:00:00 | 00:00:00 | |
| PETON7-10 | 2026-09-04 01:01:12 | 48.83285 | 17.86745 | 169° | 162km/h | 11484m | -30.5m/s | -55.1°C | 47.7% | 0hPa | 2.5V | 00:00:00 | 00:00:00 | 00:00:00 | |
| PG1ADW-2 | 2026-09-04 01:01:10 | 48.83366 | 17.86720 | 169° | 164km/h | 11544m | -30.6m/s | -55.6°C | 47.1% | 0hPa | 2.5V | 00:00:00 | 00:00:00 | 00:00:00 | |
| OE5DRO-10 | 2026-09-04 01:01:03 | 48.83647 | 17.86630 | 168° | 162km/h | 11742m | -26.2m/s | -57.5°C | 46.1% | 0hPa | 2.5V | 00:00:00 | 00:00:00 | 00:00:00 | |
| OE3OSB-13 | 2026-09-04 01:00:54 | 48.84057 | 17.86509 | 168° | 162km/h | 11994m | -25.4m/s | -59.9°C | 31.6% | -1.0hPa | 2.5V | 00:00:00 | 00:00:00 | 00:00:00 | |
| ATIDSZ-14 | 2026-09-04 01:00:52 | 48.84057 | 17.86509 | 170° | 164km/h | 11995m | -25.4m/s | -59.9°C | 31.9% | 0hPa | 2.5V | 08:23:00 | 00:00:00 | 00:00:00 | |
| PG1ADW-2 | 2026-09-04 01:00:50 | 48.84179 | 17.86474 | 170° | 150km/h | 12070m | -25.3m/s | -60.2°C | 41.2% | 0hPa | 2.5V | 08:23:00 | 00:00:00 | 00:00:00 | |
| OE5DXL-15 | 2026-09-04 01:00:46 | 48.84340 | 17.86430 | 170° | 148km/h | 12173m | -26.1m/s | -60.9°C | 40.4% | 0hPa | 2.6V | 00:00:00 | 00:00:00 | 00:00:00 | |
| OE5DRO-10 | 2026-09-04 01:00:44 | 48.84417 | 17.86409 | 170° | 144km/h | 12224m | -26.2m/s | -61.1°C | 39.8% | 0hPa | 2.6V | 00:00:00 | 00:00:00 | 00:00:00 | |
| PETON7-10 | 2026-09-04 01:00:42 | 48.84493 | 17.86385 | 167° | 144km/h | 12276m | -26.1m/s | -61.3°C | 39.0% | 0hPa | 2.6V | 00:00:00 | 00:00:00 | 00:00:00 | |
| POL2MAQ | 2026-09-04 01:00:34 | 48.84742 | 17.86288 | 163° | 142km/h | 12454m | -25.8m/s | -62.4°C | 24.5% | 0hPa | 2.5V | 08:23:00 | 00:00:00 | 00:00:00 | |
| S52SK | 2026-09-04 01:00:33 | 48.84776 | 17.86272 | 164° | 139km/h | 12479m | -26.1m/s | -62.6°C | 23.9% | 0hPa | 2.5V | 00:00:00 | 00:00:00 | 00:00:00 | |
| ATIDSZ-14 | 2026-09-04 01:00:31 | 48.84843 | 17.86239 | 162° | 141km/h | 12530m | -26.0m/s | 0°C | 0% | 0hPa | 2.5V | 08:23:00 | 00:00:00 | 00:00:00 | |
| PG1ADW-2 | 2026-09-04 01:00:30 | 48.84910 | 17.86202 | 158° | 142km/h | 12582m | -26.9m/s | -63.0°C | 29.1% | 0hPa | 2.5V | 00:00:00 | 02:06:44 | 00:00:00 | |
| PETON7-10 | 2026-09-04 01:00:27 | 48.85010 | 17.86133 | 154° | 144km/h | 12661m | -27.5m/s | -63.0°C | 24.4% | 0hPa | 2.5V | 00:00:00 | 00:00:00 | 00:00:00 | |
| OE5DRO-10 | 2026-09-04 01:00:25 | 48.85079 | 17.86082 | 153° | 135km/h | 12717m | -27.8m/s | -62.7°C | 21.4% | 0hPa | 2.5V | 00:00:00 | 00:00:00 | 00:00:00 | |
| OE3OSB-13 | 2026-09-04 01:00:23 | 48.85183 | 17.85998 | 152° | 157km/h | 12800m | -28.8m/s | -61.7°C | 10.0% | -1.0hPa | 2.5V | 00:00:00 | 00:00:00 | 00:00:00 | |
| OE3JTB-15 | 2026-09-04 01:00:19 | 48.85320 | 17.85901 | 157° | 113km/h | 12914m | -28.4m/s | -60.3°C | 13.2% | 0hPa | 2.5V | 00:00:00 | 00:00:00 | 00:00:00 | |
| OE5DXL-15 | 2026-09-04 01:00:17 | 48.85384 | 17.85859 | 157° | 106km/h | 12970m | -28.6m/s | -60.5°C | 12.5% | 0hPa | 2.5V | 00:00:00 | 00:00:00 | 00:00:00 | |
| POL2MAQ | 2026-09-04 01:00:13 | 48.85445 | 17.85820 | 157° | 128km/h | 13027m | -28.9m/s | -60.6°C | 6.2% | 0hPa | 2.5V | 08:24:00 | 00:00:00 | 00:00:00 | |
| PETON7-10 | 2026-09-04 01:00:12 | 48.85503 | 17.85783 | 158° | 113km/h | 13084m | -29.0m/s | -60.7°C | 10.5% | 0hPa | 2.5V | 00:00:00 | 02:06:26 | 00:00:00 | |
| PG1ADW-2 | 2026-09-04 01:00:10 | 48.85557 | 17.85745 | 154° | 106km/h | 13141m | -29.3m/s | -60.8°C | 9.9% | 0hPa | 2.5V | 00:00:00 | 00:00:00 | 00:00:00 | |
| OE5DRO-10 | 2026-09-04 01:00:06 | 48.85664 | 17.85662 | 154° | 100km/h | 13258m | -29.8m/s | -59.6°C | 8.0% | 0hPa | 2.5V | 00:00:00 | 00:00:00 | 00:00:00 | |
| OE3OSB-13 | 2026-09-04 00:59:52 | 48.86009 | 17.85379 | 150° | 84km/h | 13709m | -31.7m/s | -56.3°C | 1.9% | -1.0hPa | 2.5V | 00:00:00 | 00:00:00 | 00:00:00 | |
| HA6NAB-11 | 2026-09-04 00:59:51 | 48.85990 | 17.85395 | 151° | 88km/h | 13678m | -31.8m/s | -56.3°C | 2.1% | 0hPa | 2.5V | 08:24:00 | 00:00:00 | 00:00:00 | |
| PG1ADW-2 | 2026-09-04 00:59:50 | 48.86027 | 17.85362 | 149° | 78km/h | 13741m | -31.6m/s | -56.5°C | 5.4% | 0hPa | 2.5V | 00:00:00 | 00:00:00 | 00:00:00 | |
| OE3JTB-15 | 2026-09-04 00:59:49 | 48.86045 | 17.85345 | 146° | 78km/h | 13771m | -31.9m/s | -56.6°C | 5.5% | 0hPa | 2.5V | 00:00:00 | 02:06:03 | 00:00:00 | |
| OE5DRO-10 | 2026-09-04 00:59:47 | 48.86077 | 17.85308 | 142° | 78km/h | 13835m | -32.3m/s | -56.7°C | 5.7% | 0hPa | 2.5V | 00:00:00 | 00:00:00 | 00:00:00 | |
| OE5DXL-15 | 2026-09-04 00:59:46 | 48.86093 | 17.85290 | 140° | 78km/h | 13868m | -32.0m/s | -56.4°C | 5.6% | 0hPa | 2.5V | 00:00:00 | 00:00:00 | 00:00:00 | |
| HA6NAB-11 | 2026-09-04 00:59:45 | 48.86093 | 17.85290 | 141° | 77km/h | 13868m | -32.1m/s | -56.5°C | 2.2% | 0hPa | 2.6V | 08:24:00 | 00:00:00 | 00:00:00 | |
| PETON7-10 | 2026-09-04 00:59:42 | 48.86150 | 17.85210 | 134° | 78km/h | 13993m | -32.1m/s | -56.6°C | 5.6% | 0hPa | 2.6V | 00:00:00 | 00:00:00 | 00:00:00 | |
| HA6NAB-11 | 2026-09-04 00:59:39 | 48.86177 | 17.85166 | 134° | 78km/h | 14057m | -32.1m/s | -57.1°C | 2.2% | 0hPa | 2.6V | 08:24:00 | 00:00:00 | 00:00:00 | |
| HA6NAB-11 | 2026-09-04 00:59:33 | 48.86259 | 17.85028 | 135° | 82km/h | 14249m | -32.8m/s | -56.7°C | 2.0% | 0hPa | 2.6V | 08:24:00 | 00:00:00 | 00:00:00 | |
| POL2MAQ | 2026-09-04 00:59:31 | 48.86288 | 17.84982 | 135° | 82km/h | 14314m | -33.0m/s | -56.1°C | 1.9% | 0hPa | 2.6V | 08:25:00 | 00:00:00 | 00:00:00 | |
| PG1ADW-2 | 2026-09-04 00:59:30 | 48.86316 | 17.84937 | 134° | 75km/h | 14379m | -32.8m/s | -55.6°C | 5.1% | 0hPa | 2.6V | 00:00:00 | 00:00:00 | 00:00:00 | |
| OE5DRO-10 | 2026-09-04 00:59:28 | 48.86342 | 17.84893 | 131° | 73km/h | 14444m | -33.0m/s | -55.0°C | 4.8% | 0hPa | 2.6V | 08:24:00 | 00:00:00 | 00:00:00 | |
| PETON7-10 | 2026-09-04 00:59:27 | 48.86353 | 17.84871 | 129° | 75km/h | 14479m | -33.0m/s | -55.0°C | 4.9% | 0hPa | 2.6V | 00:00:00 | 02:05:41 | 00:00:00 | |
| OE3OSB-13 | 2026-09-04 00:59:20 | 48.86435 | 17.84701 | 129° | 78km/h | 14708m | -34.1m/s | -54.4°C | 1.5% | -1.0hPa | 2.6V | 00:00:00 | 00:00:00 | 00:00:00 | |
| OE3JTB-15 | 2026-09-04 00:59:18 | 48.86473 | 17.84631 | 132° | 71km/h | 14810m | -34.0m/s | -54.4°C | 4.8% | 0hPa | 2.6V | 00:00:00 | 00:00:00 | 08:30:00 | |
| OE5DXL-15 | 2026-09-04 00:59:16 | 48.86485 | 17.84610 | 131° | 68km/h | 14844m | -34.1m/s | -54.2°C | 4.8% | 0hPa | 2.6V | 00:00:00 | 00:00:00 | 00:00:00 | |
| DO3MHA-11 | 2026-09-04 00:59:15 | 48.86497 | 17.84589 | 132° | 68km/h | 14877m | -34.1m/s | -54.0°C | 4.7% | 0hPa | 2.6V | 00:00:00 | 02:05:29 | 00:00:00 | |
| PETON7-10 | 2026-09-04 00:59:12 | 48.86531 | 17.84527 | 131° | 69km/h | 14979m | -34.3m/s | -54.0°C | 4.5% | 0hPa | 2.6V | 08:24:00 | 00:00:00 | 00:00:00 | |
| PG1ADW-2 | 2026-09-04 00:59:10 | 48.86553 | 17.84488 | 131° | 68km/h | 15047m | -34.9m/s | -54.3°C | 4.7% | 0hPa | 2.6V | 00:00:00 | 02:05:24 | 00:00:00 | |
| OE5DRO-10 | 2026-09-04 00:59:09 | 48.86564 | 17.84467 | 130° | 68km/h | 15082m | -35.1m/s | -54.5°C | 4.7% | 0hPa | 2.6V | 00:00:00 | 00:00:00 | 00:00:00 | |
| DO3MHA-11 | 2026-09-04 00:59:05 | 48.86610 | 17.84387 | 129° | 66km/h | 15221m | -34.4m/s | -54.1°C | 4.6% | 0hPa | 2.6V | 00:00:00 | 02:05:19 | 00:00:00 | |
| OE3OSB-13 | 2026-09-04 00:58:49 | 48.86789 | 17.84084 | 128° | 66km/h | 15781m | -35.5m/s | -53.8°C | 1.3% | -1.0hPa | 2.6V | 00:00:00 | 00:00:00 | 00:00:00 | |
| OE5DXL-15 | 2026-09-04 00:58:46 | 48.86820 | 17.84026 | 132° | 44km/h | 15888m | -35.3m/s | -53.7°C | 4.3% | 0hPa | 2.6V | 00:00:00 | 00:00:00 | 00:00:00 | |
| DO3MHA-11 | 2026-09-04 00:58:43 | 48.86851 | 17.83973 | 134° | 49km/h | 15993m | -35.4m/s | -53.2°C | 4.0% | 0hPa | 2.6V | 00:00:00 | 02:04:57 | 00:00:00 | |
| PETON7-10 | 2026-09-04 00:58:42 | 48.86861 | 17.83957 | 137° | 46km/h | 16029m | -35.6m/s | -53.2°C | 4.0% | 0hPa | 2.6V | 00:00:00 | 02:04:56 | 00:00:00 | |
| OE5DRO-10 | 2026-09-04 00:58:31 | 48.86962 | 17.83833 | 139° | 35km/h | 16423m | -36.2m/s | -53.9°C | 4.1% | 0hPa | 2.6V | 00:00:00 | 00:00:00 | 00:00:00 | |
| PG1ADW-2 | 2026-09-04 00:58:30 | 48.86969 | 17.83823 | 142° | 33km/h | 16459m | -36.3m/s | -54.0°C | 4.1% | 0hPa | 2.6V | 00:00:00 | 00:00:00 | 00:00:00 | |
| POL2MAQ | 2026-09-04 00:58:29 | 48.86969 | 17.83823 | 143° | 38km/h | 16459m | -36.4m/s | -54.1°C | 1.3% | 0hPa | 2.6V | 08:26:00 | 00:00:00 | 00:00:00 | |
| PETON7-10 | 2026-09-04 00:58:27 | 48.86994 | 17.83794 | 145° | 33km/h | 16567m | -36.8m/s | -54.0°C | 4.0% | 0hPa | 2.6V | 00:00:00 | 00:00:00 | 00:00:00 | |
| S52SK | 2026-09-04 00:58:25 | 48.87003 | 17.83785 | 150° | 42km/h | 16603m | -37.1m/s | -54.2°C | 1.3% | 0hPa | 2.5V | 00:00:00 | 00:00:00 | 00:00:00 | |
| OE5DXL-15 | 2026-09-04 00:58:16 | 48.87080 | 17.83727 | 149° | 38km/h | 16977m | -39.0m/s | -55.3°C | 4.5% | 0hPa | 2.5V | 08:25:00 | 00:00:00 | 00:00:00 | |
| OE5MMP-10 | 2026-09-04 00:58:14 | 48.87092 | 17.83714 | 143° | 42km/h | 17054m | -39.7m/s | -55.2°C | 4.5% | 0hPa | 2.6V | 00:00:00 | 02:04:28 | 00:00:00 | |
| PETON7-10 | 2026-09-04 00:58:12 | 48.87101 | 17.83702 | 133° | 37km/h | 17132m | -40.0m/s | -55.4°C | 4.6% | 0hPa | 2.6V | 00:00:00 | 00:00:00 | 00:00:00 | |
| PG1ADW-2 | 2026-09-04 00:58:10 | 48.87108 | 17.83687 | 119° | 40km/h | 17209m | -39.3m/s | -55.8°C | 4.8% | 0hPa | 2.6V | 00:00:00 | 00:00:00 | 00:00:00 | |
| OE3JTB-15 | 2026-09-04 00:58:09 | 48.87111 | 17.83679 | 113° | 38km/h | 17248m | -39.7m/s | -56.0°C | 4.9% | 0hPa | 2.6V | 00:00:00 | 00:00:00 | 00:00:00 | |
| DO3MHA-11 | 2026-09-04 00:58:08 | 48.87112 | 17.83669 | 104° | 42km/h | 17287m | -39.7m/s | -56.0°C | 5.0% | 0hPa | 2.6V | 08:25:00 | 02:04:22 | 00:00:00 | |
| OE3OSB-13 | 2026-09-04 00:57:47 | 48.87210 | 17.83355 | 131° | 46km/h | 18131m | -43.3m/s | -53.5°C | 1.0% | -1.0hPa | 2.5V | 00:00:00 | 00:00:00 | 00:00:00 | |
| OE5DXL-15 | 2026-09-04 00:57:46 | 48.87218 | 17.83342 | 138° | 27km/h | 18174m | -43.2m/s | -53.4°C | 4.0% | 0hPa | 2.5V | 00:00:00 | 00:00:00 | 00:00:00 | |
| HA6NAB-11 | 2026-09-04 00:57:44 | 48.87226 | 17.83331 | 143° | 44km/h | 18217m | -43.4m/s | -53.2°C | 1.1% | 0hPa | 2.5V | 00:00:00 | 00:00:00 | 00:00:00 | |
| OE5MMP-10 | 2026-09-04 00:57:43 | 48.87243 | 17.83311 | 146° | 37km/h | 18303m | -43.4m/s | -53.0°C | 3.9% | 0hPa | 2.5V | 00:00:00 | 02:03:57 | 00:00:00 | |
| PETON7-10 | 2026-09-04 00:57:42 | 48.87251 | 17.83303 | 147° | 31km/h | 18346m | -43.8m/s | -53.1°C | 3.9% | 0hPa | 2.6V | 00:00:00 | 00:00:00 | 00:00:00 | |
| SP3WXH-11 | 2026-09-04 00:57:39 | 48.87284 | 17.83271 | 148° | 35km/h | 18518m | -44.8m/s | -53.7°C | 1.0% | -1.0hPa | 2.7V | 00:00:00 | 00:00:00 | 00:00:00 | |
| OE3JTB-15 | 2026-09-04 00:57:38 | 48.87284 | 17.83271 | 149° | 29km/h | 18518m | -44.8m/s | -53.6°C | 4.0% | 0hPa | 2.7V | 00:00:00 | 02:03:52 | 00:00:00 | |
| OK1ALN | 2026-09-04 00:57:35 | 48.87299 | 17.83256 | 140° | 33km/h | 18608m | -44.9m/s | -54.0°C | 1.1% | 0hPa | 2.7V | 08:27:00 | 00:00:00 | 00:00:00 | |
| OE5DRO-10 | 2026-09-04 00:57:34 | 48.87311 | 17.83240 | 141° | 20km/h | 18697m | -44.8m/s | -54.2°C | 4.2% | 0hPa | 2.7V | 00:00:00 | 00:00:00 | 00:00:00 | |
| OE5MMP-10 | 2026-09-04 00:57:33 | 48.87317 | 17.83232 | 143° | 24km/h | 18741m | -44.9m/s | -54.3°C | 4.2% | 0hPa | 2.7V | 00:00:00 | 02:03:47 | 00:00:00 | |
| PG1ADW-2 | 2026-09-04 00:57:30 | 48.87334 | 17.83213 | 143° | 18km/h | 18873m | -45.8m/s | -54.1°C | 4.2% | 0hPa | 2.7V | 00:00:00 | 00:00:00 | 00:00:00 | |
| POL2MAQ | 2026-09-04 00:57:28 | 48.87339 | 17.83208 | 146° | 22km/h | 18919m | -45.7m/s | -53.9°C | 1.1% | 0hPa | 2.7V | 08:27:00 | 00:00:00 | 00:00:00 | |
| PETON7-10 | 2026-09-04 00:57:27 | 48.87347 | 17.83197 | 135° | 16km/h | 19008m | -45.7m/s | -53.7°C | 4.1% | 0hPa | 2.7V | 00:00:00 | 00:00:00 | 00:00:00 | |
| OE5MMP-10 | 2026-09-04 00:57:23 | 48.87362 | 17.83180 | 153° | 15km/h | 19189m | -46.0m/s | -53.7°C | 4.1% | 0hPa | 2.7V | 00:00:00 | 02:03:37 | 00:00:00 | |
| HA6NAB-11 | 2026-09-04 00:57:22 | 48.87363 | 17.83179 | 153° | 16km/h | 19189m | -46.1m/s | -53.7°C | 1.1% | 0hPa | 2.7V | 00:00:00 | 00:00:00 | 00:00:00 | |
| OE5DXL-15 | 2026-09-04 00:57:16 | 48.87384 | 17.83156 | 133° | 13km/h | 19514m | -47.6m/s | -54.5°C | 4.4% | 0hPa | 2.7V | 00:00:00 | 00:00:00 | 00:00:00 | |
| OE5DRO-10 | 2026-09-04 00:57:15 | 48.87387 | 17.83152 | 137° | 13km/h | 19561m | -47.8m/s | -54.7°C | 4.5% | 0hPa | 2.7V | 00:00:00 | 00:00:00 | 00:00:00 | |
| OE5MMP-10 | 2026-09-04 00:57:13 | 48.87392 | 17.83142 | 134° | 18km/h | 19655m | -47.7m/s | -54.9°C | 4.6% | 0hPa | 2.7V | 00:00:00 | 02:03:27 | 00:00:00 | |
| PETON7-10 | 2026-09-04 00:57:12 | 48.87395 | 17.83138 | 131° | 16km/h | 19702m | -47.8m/s | -54.3°C | 4.3% | 0hPa | 2.5V | 00:00:00 | 02:03:26 | 00:00:00 | |
| PG1ADW-2 | 2026-09-04 00:57:10 | 48.87400 | 17.83127 | 115° | 13km/h | 19797m | -47.7m/s | -54.5°C | 4.3% | 0hPa | 2.5V | 00:00:00 | 00:00:00 | 00:00:00 | |
| POL2MAQ | 2026-09-04 00:57:07 | 48.87402 | 17.83114 | 99° | 20km/h | 19890m | -48.3m/s | -54.7°C | 1.1% | 0hPa | 2.5V | 08:27:00 | 00:00:00 | 00:00:00 | |
| OE5MMP-10 | 2026-09-04 00:57:03 | 48.87407 | 17.83078 | 110° | 11km/h | 20131m | -49.7m/s | -53.1°C | 3.9% | 0hPa | 2.5V | 00:00:00 | 02:03:17 | 00:00:00 | |
| OE3OSB-13 | 2026-09-04 00:56:45 | 48.87411 | 17.83030 | 65° | 2km/h | 21037m | -53.8m/s | -53.6°C | 0.9% | -1.0hPa | 2.5V | 00:00:00 | 00:00:00 | 00:00:00 | |
| OE5MMP-10 | 2026-09-04 00:56:43 | 48.87410 | 17.83026 | 68° | 15km/h | 21142m | -53.7m/s | -54.1°C | 4.3% | 0hPa | 2.5V | 08:27:00 | 02:02:57 | 00:00:00 | |
| PETON7-10 | 2026-09-04 00:56:42 | 48.87410 | 17.83022 | 67° | 15km/h | 21195m | -53.9m/s | -54.0°C | 4.2% | 0hPa | 2.6V | 00:00:00 | 00:00:00 | 00:00:00 | |
| OE5DRO-10 | 2026-09-04 00:56:34 | 48.87410 | 17.82978 | 98° | 13km/h | 21622m | -55.1m/s | -53.7°C | 4.3% | 0hPa | 2.6V | 00:00:00 | 00:00:00 | 00:00:00 | |
| OE5MMP-10 | 2026-09-04 00:56:33 | 48.87411 | 17.82972 | 97° | 15km/h | 21676m | -55.1m/s | -53.7°C | 4.3% | 0hPa | 2.6V | 00:00:00 | 02:02:47 | 00:00:00 | |
| OK1ALN | 2026-09-04 00:56:32 | 48.87412 | 17.82967 | 103° | 15km/h | 21730m | -55.2m/s | -53.7°C | 1.0% | 0hPa | 2.6V | 08:27:00 | 00:00:00 | 00:00:00 | |
| PG1ADW-2 | 2026-09-04 00:56:30 | 48.87413 | 17.82957 | 111° | 11km/h | 21838m | -55.1m/s | -53.2°C | 4.1% | 0hPa | 2.6V | 00:00:00 | 02:02:44 | 00:00:00 | |
| PETON7-10 | 2026-09-04 00:56:27 | 48.87419 | 17.82944 | 126° | 11km/h | 22001m | -55.6m/s | -53.0°C | 4.1% | 0hPa | 2.6V | 00:00:00 | 02:02:41 | 00:00:00 | |
| POL2MAQ | 2026-09-04 00:56:25 | 48.87422 | 17.82940 | 140° | 13km/h | 22056m | -55.9m/s | -53.0°C | 1.0% | 0hPa | 2.6V | 08:27:00 | 00:00:00 | 00:00:00 | |
| S52SK | 2026-09-04 00:56:24 | 48.87425 | 17.82937 | 150° | 16km/h | 22110m | -56.7m/s | -53.1°C | 1.0% | 0hPa | 2.6V | 00:00:00 | 00:00:00 | 00:00:00 | |
| OE5MMP-10 | 2026-09-04 00:56:23 | 48.87432 | 17.82931 | 160° | 11km/h | 22222m | -57.7m/s | -53.0°C | 4.2% | 0hPa | 2.6V | 00:00:00 | 02:02:37 | 00:00:00 | |
| NBG1-10 | 2026-09-04 00:56:21 | 48.87438 | 17.82928 | 165° | 9km/h | 22336m | -58.0m/s | -53.1°C | 4.3% | 0hPa | 2.6V | 00:00:00 | 02:02:35 | 00:00:00 | |
| S52SK | 2026-09-04 00:56:18 | 48.87443 | 17.82925 | 168° | 9km/h | 22450m | -59.1m/s | -52.9°C | 0.9% | 0hPa | 2.7V | 00:00:00 | 00:00:00 | 00:00:00 | |
| OE5DXL-15 | 2026-09-04 00:56:16 | 48.87449 | 17.82922 | 141° | 9km/h | 22624m | -60.3m/s | -52.8°C | 4.3% | 0hPa | 2.7V | 00:00:00 | 00:00:00 | 00:00:00 | |
| OE5DRO-10 | 2026-09-04 00:56:15 | 48.87451 | 17.82919 | 135° | 9km/h | 22683m | -60.8m/s | -52.5°C | 4.2% | 0hPa | 2.7V | 08:27:00 | 00:00:00 | 00:00:00 | |
| OE3OSB-13 | 2026-09-04 00:56:14 | 48.87453 | 17.82917 | 129° | 9km/h | 22742m | -61.0m/s | -52.4°C | 0.8% | -1.0hPa | 2.5V | 00:00:00 | 00:00:00 | 00:00:00 | |
| PETON7-10 | 2026-09-04 00:56:12 | 48.87458 | 17.82912 | 146° | 11km/h | 22861m | -61.7m/s | 0°C | 0% | 0hPa | 2.5V | 00:00:00 | 00:00:00 | 00:00:00 | |
| OK1ALN | 2026-09-04 00:56:11 | 48.87458 | 17.82912 | 146° | 11km/h | 22861m | -61.8m/s | -52.2°C | 0.9% | 0hPa | 2.6V | 08:27:00 | 00:00:00 | 00:00:00 | |
| PG1ADW-2 | 2026-09-04 00:56:10 | 48.87462 | 17.82909 | 164° | 9km/h | 22981m | -62.7m/s | -52.3°C | 4.2% | 0hPa | 2.6V | 00:00:00 | 00:00:00 | 00:00:00 | |
| DO3MHA-11 | 2026-09-04 00:56:07 | 48.87471 | 17.82906 | 169° | 9km/h | 23164m | -63.0m/s | -51.8°C | 4.1% | 0hPa | 2.6V | 00:00:00 | 02:02:21 | 00:00:00 | |
| POL2MAQ | 2026-09-04 00:56:05 | 48.87474 | 17.82905 | 171° | 11km/h | 23225m | -63.2m/s | -51.5°C | 0.8% | 0hPa | 2.6V | 08:28:00 | 00:00:00 | 00:00:00 | |
| PETON7-10 | 2026-09-04 00:55:57 | 48.87497 | 17.82901 | 157° | 7km/h | 23787m | -65.7m/s | -49.4°C | 3.4% | 0hPa | 2.6V | 00:00:00 | 00:00:00 | 00:00:00 | |
| OE5DRO-10 | 2026-09-04 00:55:56 | 48.87499 | 17.82900 | 167° | 7km/h | 23850m | -66.2m/s | -49.1°C | 3.4% | 0hPa | 2.6V | 00:00:00 | 00:00:00 | 00:00:00 | |
| OE5MMP-10 | 2026-09-04 00:55:53 | 48.87506 | 17.82899 | 194° | 9km/h | 24045m | -66.6m/s | -48.9°C | 3.3% | 0hPa | 2.6V | 00:00:00 | 02:02:07 | 00:00:00 | |
| OK1ALN | 2026-09-04 00:55:51 | 48.87510 | 17.82901 | 207° | 11km/h | 24111m | -66.5m/s | -48.9°C | 0.7% | 0hPa | 2.6V | 08:28:00 | 00:00:00 | 00:00:00 | |
| PG1ADW-2 | 2026-09-04 00:55:50 | 48.87514 | 17.82906 | 220° | 4km/h | 24242m | -66.8m/s | -48.8°C | 3.2% | 0hPa | 2.6V | 00:00:00 | 00:00:00 | 00:00:00 | |
| DO3MHA-11 | 2026-09-04 00:55:47 | 48.87520 | 17.82913 | 235° | 4km/h | 24442m | -67.4m/s | -49.4°C | 3.5% | 0hPa | 2.6V | 00:00:00 | 02:02:01 | 00:00:00 | |
| OE5DXL-15 | 2026-09-04 00:55:46 | 48.87521 | 17.82915 | 238° | 4km/h | 24507m | -67.2m/s | -49.3°C | 3.5% | 0hPa | 2.6V | 00:00:00 | 00:00:00 | 00:00:00 | |
| POL2MAQ | 2026-09-04 00:55:45 | 48.87521 | 17.82915 | 239° | 7km/h | 24507m | -67.2m/s | -49.4°C | 0.7% | 0hPa | 2.6V | 08:28:00 | 00:00:00 | 00:00:00 | |
| OE5MMP-10 | 2026-09-04 00:55:43 | 48.87522 | 17.82921 | 275° | 2km/h | 24705m | -68.2m/s | -48.8°C | 3.4% | 0hPa | 2.6V | 00:00:00 | 02:01:57 | 00:00:00 | |
| PETON7-10 | 2026-09-04 00:55:42 | 48.87522 | 17.82922 | 269° | 4km/h | 24773m | -68.6m/s | -48.7°C | 3.4% | 0hPa | 2.6V | 00:00:00 | 02:01:56 | 00:00:00 | |
| OE5DRO-10 | 2026-09-04 00:55:37 | 48.87522 | 17.82925 | 273° | 4km/h | 25112m | -70.8m/s | -48.6°C | 3.4% | 0hPa | 2.6V | 00:00:00 | 00:00:00 | 00:00:00 | |
| SP3WXH-11 | 2026-09-04 00:55:35 | 48.87520 | 17.82927 | 337° | 2km/h | 25321m | -72.0m/s | -48.7°C | 0.6% | -1.0hPa | 2.6V | 00:00:00 | 00:00:00 | 00:00:00 | |
| OE5MMP-10 | 2026-09-04 00:55:33 | 48.87519 | 17.82927 | 27° | 4km/h | 25391m | -72.8m/s | -48.7°C | 3.4% | 0hPa | 2.6V | 00:00:00 | 02:01:47 | 00:00:00 | |
| PG1ADW-2 | 2026-09-04 00:55:30 | 48.87517 | 17.82925 | 54° | 5km/h | 25606m | -74.0m/s | -49.0°C | 3.6% | 0hPa | 2.7V | 00:00:00 | 00:00:00 | 00:00:00 | |
| DO3MHA-11 | 2026-09-04 00:55:28 | 48.87516 | 17.82921 | 49° | 5km/h | 25823m | -75.8m/s | -47.4°C | 3.2% | 0hPa | 2.7V | 00:00:00 | 02:01:41 | 00:00:00 | |
| PETON7-10 | 2026-09-04 00:55:27 | 48.87516 | 17.82921 | 49° | 5km/h | 25823m | -75.8m/s | -47.4°C | 3.2% | 0hPa | 2.7V | 00:00:00 | 00:00:00 | 00:00:00 | |
| POL2MAQ | 2026-09-04 00:55:25 | 48.87516 | 17.82919 | 41° | 5km/h | 25897m | -76.6m/s | -46.9°C | 0.6% | 0hPa | 2.5V | 08:28:00 | 00:00:00 | 00:00:00 | |
| OE5MMP-10 | 2026-09-04 00:55:23 | 48.87514 | 17.82913 | 81° | 5km/h | 26123m | -78.8m/s | -47.0°C | 3.1% | 0hPa | 2.5V | 00:00:00 | 02:01:37 | 00:00:00 | |
| OE5DRO-10 | 2026-09-04 00:55:18 | 48.87518 | 17.82906 | 94° | 5km/h | 26508m | -79.2m/s | -46.8°C | 3.2% | 0hPa | 2.5V | 00:00:00 | 00:00:00 | 00:00:00 | |
| OE5DXL-15 | 2026-09-04 00:55:16 | 48.87521 | 17.82905 | 98° | 9km/h | 26658m | -78.9m/s | -46.7°C | 3.2% | 0hPa | 2.6V | 00:00:00 | 00:00:00 | 00:00:00 | |
| OE5MMP-10 | 2026-09-04 00:55:13 | 48.87523 | 17.82899 | 115° | 5km/h | 26890m | -80.2m/s | -46.9°C | 3.3% | 0hPa | 2.5V | 00:00:00 | 02:01:27 | 00:00:00 | |
| PETON7-10 | 2026-09-04 00:55:12 | 48.87523 | 17.82897 | 98° | 7km/h | 26968m | -80.0m/s | -46.8°C | 3.3% | 0hPa | 2.5V | 00:00:00 | 00:00:00 | 00:00:00 | |
| PG1ADW-2 | 2026-09-04 00:55:10 | 48.87524 | 17.82892 | 113° | 7km/h | 27127m | -80.5m/s | -46.5°C | 3.3% | 0hPa | 2.5V | 00:00:00 | 02:01:24 | 00:00:00 | |
| DO3MHA-11 | 2026-09-04 00:55:06 | 48.87526 | 17.82884 | 69° | 7km/h | 27447m | -83.7m/s | -45.2°C | 3.0% | 0hPa | 2.5V | 00:00:00 | 02:01:20 | 00:00:00 | |
| POL2MAQ | 2026-09-04 00:55:05 | 48.87526 | 17.82882 | 76° | 5km/h | 27529m | -85.0m/s | -45.0°C | 0.5% | 0hPa | 2.5V | 08:29:00 | 00:00:00 | 00:00:00 | |
| HA6NAB-11 | 2026-09-04 00:55:04 | 48.87526 | 17.82882 | 76° | 5km/h | 27529m | -85.0m/s | -45.0°C | 0.5% | 0hPa | 2.5V | 00:00:00 | 00:00:00 | 00:00:00 | |
| OE5MMP-10 | 2026-09-04 00:55:03 | 48.87526 | 17.82877 | 65° | 9km/h | 27699m | -86.6m/s | -44.3°C | 2.8% | 0hPa | 2.5V | 08:29:00 | 02:01:17 | 00:00:00 | |
| OE5DRO-10 | 2026-09-04 00:54:59 | 48.87525 | 17.82863 | 75° | 15km/h | 28048m | -89.4m/s | -43.9°C | 2.8% | 0hPa | 2.6V | 00:00:00 | 00:00:00 | 00:00:00 | |
| PETON7-10 | 2026-09-04 00:54:57 | 48.87523 | 17.82856 | 87° | 15km/h | 28228m | -89.3m/s | -44.0°C | 2.9% | 0hPa | 2.6V | 00:00:00 | 02:01:11 | 00:00:00 | |
| DO3MHA-11 | 2026-09-04 00:54:56 | 48.87524 | 17.82852 | 90° | 15km/h | 28317m | -89.2m/s | -43.8°C | 2.9% | 0hPa | 2.6V | 08:29:00 | 02:01:10 | 00:00:00 | |
| OE5MMP-10 | 2026-09-04 00:54:53 | 48.87525 | 17.82840 | 96° | 16km/h | 28581m | -89.6m/s | -42.8°C | 2.7% | 0hPa | 2.5V | 00:00:00 | 02:01:07 | 00:00:00 | |
| PG1ADW-2 | 2026-09-04 00:54:50 | 48.87526 | 17.82824 | 94° | 20km/h | 28847m | -90.4m/s | -42.3°C | 2.6% | 0hPa | 2.5V | 08:29:00 | 00:00:00 | 00:00:00 | |
| GYPAP8-17 | 2026-09-04 00:54:48 | 48.87527 | 17.82811 | 95° | 16km/h | 29026m | -91.1m/s | -42.1°C | 0.4% | 0hPa | 2.6V | 00:00:00 | 00:00:00 | 00:00:00 | |
| HA6NAB-11 | 2026-09-04 00:54:47 | 48.87527 | 17.82811 | 95° | 16km/h | 29026m | -91.1m/s | -42.1°C | 0.4% | 0hPa | 2.6V | 00:00:00 | 00:00:00 | 00:00:00 | |
| DO3MHA-11 | 2026-09-04 00:54:46 | 48.87529 | 17.82797 | 95° | 22km/h | 29207m | -91.1m/s | -41.7°C | 2.5% | 0hPa | 2.6V | 00:00:00 | 02:01:00 | 00:00:00 | |
| SP9KGR-15 | 2026-09-04 00:54:43 | 48.87531 | 17.82775 | 97° | 20km/h | 29480m | -92.2m/s | -40.7°C | 0.3% | 0hPa | 2.6V | 00:00:00 | 00:00:00 | 00:00:00 | |
| PETON7-10 | 2026-09-04 00:54:42 | 48.87532 | 17.82768 | 95° | 22km/h | 29572m | -92.1m/s | -40.4°C | 2.3% | 0hPa | 2.6V | 08:29:00 | 00:00:00 | 00:00:00 | |
| OE3OSB-13 | 2026-09-04 00:54:41 | 48.87533 | 17.82753 | 94° | 20km/h | 29756m | -92.4m/s | -39.7°C | 0.3% | -1.0hPa | 2.7V | 00:00:00 | 00:00:00 | 00:00:00 | |
| OE5DRO-10 | 2026-09-04 00:54:40 | 48.87533 | 17.82753 | 95° | 20km/h | 29756m | -92.3m/s | -39.7°C | 2.2% | 0hPa | 2.7V | 00:00:00 | 00:00:00 | 00:00:00 | |
| DO3MHA-11 | 2026-09-04 00:54:36 | 48.87535 | 17.82718 | 91° | 20km/h | 30126m | -93.1m/s | -38.4°C | 2.0% | 0hPa | 2.7V | 00:00:00 | 02:00:50 | 00:00:00 | |
| HA6NAB-11 | 2026-09-04 00:54:35 | 48.87535 | 17.82718 | 92° | 24km/h | 30126m | -93.1m/s | -38.4°C | 0.2% | 0hPa | 2.7V | 00:00:00 | 00:00:00 | 00:00:00 | |
| OK1SLM-15 | 2026-09-04 00:54:34 | 48.87536 | 17.82709 | 96° | 24km/h | 30219m | -93.9m/s | -38.4°C | 0.3% | 0hPa | 2.7V | 08:29:00 | 00:00:00 | 00:00:00 | |
| OE5MMP-10 | 2026-09-04 00:54:33 | 48.87536 | 17.82690 | 94° | 18km/h | 30407m | -95.5m/s | -38.3°C | 2.0% | 0hPa | 2.7V | 00:00:00 | 02:00:47 | 00:00:00 | |
| S52SK | 2026-09-04 00:54:32 | 48.87536 | 17.82690 | 95° | 24km/h | 30407m | -95.6m/s | -38.3°C | 0.3% | 0hPa | 2.7V | 08:29:00 | 00:00:00 | 00:00:00 | |
| OK1SLM-15 | 2026-09-04 00:54:30 | 48.87539 | 17.82665 | 100° | 18km/h | 30694m | -97.6m/s | -37.3°C | 0.2% | 0hPa | 2.7V | 08:29:00 | 00:00:00 | 00:00:00 | |
| OK1ALN | 2026-09-04 00:54:29 | 48.87539 | 17.82665 | 100° | 18km/h | 30694m | -97.6m/s | -37.3°C | 0.2% | 0hPa | 2.7V | 08:29:00 | 00:00:00 | 00:00:00 | |
| PETON7-10 | 2026-09-04 00:54:27 | 48.87541 | 17.82646 | 85° | 15km/h | 30989m | -99.8m/s | -37.6°C | 1.9% | 0hPa | 2.7V | 00:00:00 | 00:00:00 | 00:00:00 | |
| DO3MHA-11 | 2026-09-04 00:54:26 | 48.87541 | 17.82640 | 72° | 16km/h | 31089m | -99.7m/s | -37.6°C | 1.9% | 0hPa | 2.7V | 00:00:00 | 02:00:40 | 00:00:00 | |
| OK1SLM-15 | 2026-09-04 00:54:24 | 48.87540 | 17.82634 | 75° | 15km/h | 31189m | -99.7m/s | -37.7°C | 0.2% | 0hPa | 2.6V | 00:00:00 | 00:00:00 | 00:00:00 | |
| OE5MMP-10 | 2026-09-04 00:54:23 | 48.87537 | 17.82621 | 67° | 15km/h | 31386m | -99.6m/s | -37.4°C | 1.9% | 0hPa | 2.6V | 00:00:00 | 02:00:37 | 00:00:00 | |
| S52SK | 2026-09-04 00:54:22 | 48.87537 | 17.82621 | 68° | 18km/h | 31386m | -99.7m/s | -37.5°C | 0.2% | 0hPa | 2.6V | 00:00:00 | 00:00:00 | 00:00:00 | |
| OE5DRO-10 | 2026-09-04 00:54:21 | 48.87534 | 17.82608 | 66° | 13km/h | 31585m | -99.6m/s | -36.9°C | 1.9% | 0hPa | 2.6V | 00:00:00 | 00:00:00 | 00:00:00 | |
| OE3JTB-15 | 2026-09-04 00:54:16 | 48.87527 | 17.82582 | 73° | 9km/h | 32078m | -97.8m/s | -36.6°C | 1.9% | 0hPa | 2.6V | 00:00:00 | 00:00:00 | 00:00:00 | |
| OE5MMP-10 | 2026-09-04 00:54:13 | 48.87526 | 17.82568 | 90° | 11km/h | 32371m | -97.4m/s | -35.6°C | 1.7% | 0hPa | 2.7V | 00:00:00 | 02:00:27 | 00:00:00 | |
| PETON7-10 | 2026-09-04 00:54:12 | 48.87526 | 17.82563 | 73° | 11km/h | 32469m | -97.8m/s | -35.3°C | 1.7% | 0hPa | 2.7V | 00:00:00 | 02:00:26 | 00:00:00 | |
| OE3OSB-13 | 2026-09-04 00:54:10 | 48.87526 | 17.82547 | 85° | 13km/h | 32763m | -98.3m/s | -35.1°C | 0.2% | -1.0hPa | 2.7V | 00:00:00 | 00:00:00 | 00:00:00 | |
| OK1ALN | 2026-09-04 00:54:08 | 48.87525 | 17.82547 | 86° | 13km/h | 32763m | -98.3m/s | -35.1°C | 0.2% | 0hPa | 2.7V | 00:00:00 | 00:00:00 | 00:00:00 | |
| SP3WXH-11 | 2026-09-04 00:54:02 | 48.87532 | 17.82517 | 136° | 9km/h | 33565m | -97.8m/s | -34.7°C | 0.2% | -1.0hPa | 2.7V | 00:00:00 | 00:00:00 | 00:00:00 | |
| POL2MAQ | 2026-09-04 00:54:01 | 48.87530 | 17.82520 | 140° | 7km/h | 33466m | -100.2m/s | -34.6°C | 0.2% | 0hPa | 2.7V | 00:00:00 | 00:00:00 | 00:00:00 | |
| SP9KGR-15 | 2026-09-04 00:54:00 | 48.87533 | 17.82515 | 144° | 7km/h | 33662m | -95.9m/s | -34.8°C | 0.2% | 0hPa | 2.7V | 00:00:00 | 00:00:00 | 00:00:00 | |
| PETON7-10 | 2026-09-04 00:53:57 | 48.87538 | 17.82511 | 174° | 11km/h | 33938m | -89.3m/s | -34.3°C | 1.5% | 0hPa | 2.7V | 00:00:00 | 00:00:00 | 00:00:00 | |
| PG1ADW-2 | 2026-09-04 00:53:50 | 48.87555 | 17.82519 | 203° | 20km/h | 34531m | -73.7m/s | -34.4°C | 1.6% | 0hPa | 2.7V | 00:00:00 | 02:00:04 | 00:00:00 | |
| OE5MMP-10 | 2026-09-04 00:53:48 | 48.87558 | 17.82521 | 85° | 22km/h | 34675m | -70.4m/s | -34.1°C | 1.5% | 0hPa | 2.6V | 00:00:00 | 02:00:02 | 00:00:00 | |
| OE5DXL-15 | 2026-09-04 00:53:47 | 48.87556 | 17.82518 | 55° | 26km/h | 34816m | -69.9m/s | -33.7°C | 1.4% | 0hPa | 2.6V | 00:00:00 | 00:00:00 | 08:30:00 | |
| SP9KGR-15 | 2026-09-04 00:53:45 | 48.87556 | 17.82517 | 270° | 4km/h | 34884m | -70.3m/s | -34.0°C | 0.2% | 0hPa | 2.7V | 00:00:00 | 00:00:00 | 00:00:00 | |
| SP3BTT-10 | 2026-09-04 00:53:44 | 48.87557 | 17.82522 | 240° | 24km/h | 34956m | -72.5m/s | 0°C | 0% | 0hPa | 2.7V | 00:00:00 | 00:00:00 | 00:00:00 | |
| OE5DRO-10 | 2026-09-04 00:53:43 | 48.87561 | 17.82532 | 238° | 31km/h | 35028m | -69.8m/s | -34.3°C | 1.5% | 0hPa | 2.7V | 00:00:00 | 00:00:00 | 00:00:00 | |
| PETON7-10 | 2026-09-04 00:53:42 | 48.87567 | 17.82545 | 238° | 35km/h | 35095m | -64.7m/s | -34.6°C | 1.5% | 0hPa | 2.7V | 00:00:00 | 00:00:00 | 00:00:00 | |
| POL2MAQ | 2026-09-04 00:53:41 | 48.87566 | 17.82545 | 239° | 46km/h | 35095m | -64.8m/s | -34.6°C | 0.2% | 0hPa | 2.7V | 00:00:00 | 00:00:00 | 00:00:00 | |
| OE3OSB-13 | 2026-09-04 00:53:39 | 48.87597 | 17.82611 | 235° | 55km/h | 35295m | -33.5m/s | -35.4°C | 0.2% | -1.0hPa | 2.7V | 00:00:00 | 00:00:00 | 00:00:00 | |
| OE5MMP-10 | 2026-09-04 00:53:38 | 48.87597 | 17.82611 | 236° | 29km/h | 35295m | -33.4m/s | -35.3°C | 1.6% | 0hPa | 2.7V | 00:00:00 | 01:59:52 | 00:00:00 | |
| SP3WXH-11 | 2026-09-04 00:53:31 | 48.87640 | 17.82650 | 77° | 20km/h | 35324m | 5.2m/s | -35.6°C | 0.2% | -1.0hPa | 2.7V | 00:00:00 | 00:00:00 | 00:00:00 | |
| PG1ADW-2 | 2026-09-04 00:53:30 | 48.87640 | 17.82649 | 78° | 15km/h | 35324m | 5.2m/s | -35.6°C | 1.7% | 0hPa | 2.7V | 00:00:00 | 00:00:00 | 00:00:00 | |
| OK1SLM-15 | 2026-09-04 00:53:27 | 48.87629 | 17.82639 | 342° | 24km/h | 35305m | 7.5m/s | -35.7°C | 0.2% | 0hPa | 2.7V | 00:00:00 | 00:00:00 | 00:00:00 | |
| OK1SLM-15 | 2026-09-04 00:53:22 | 48.87614 | 17.82682 | 261° | 16km/h | 35273m | 7.0m/s | -35.8°C | 0.2% | 0hPa | 2.7V | 00:00:00 | 00:00:00 | 00:00:00 | |
| POL2MAQ | 2026-09-04 00:53:20 | 48.87615 | 17.82686 | 220° | 9km/h | 35266m | 7.5m/s | -35.8°C | 0.2% | 0hPa | 2.7V | 00:00:00 | 00:00:00 | 00:00:00 | |
| OE5MMP-10 | 2026-09-04 00:53:16 | 48.87624 | 17.82674 | 131° | 11km/h | 35233m | 7.1m/s | -35.8°C | 1.7% | 0hPa | 2.7V | 00:00:00 | 01:59:30 | 08:30:00 | |
| SP9KGR-15 | 2026-09-04 00:53:15 | 48.87623 | 17.82678 | 296° | 13km/h | 35218m | 7.4m/s | -35.9°C | 0.2% | 0hPa | 2.6V | 00:00:00 | 00:00:00 | 00:00:00 | |
| PETON7-10 | 2026-09-04 00:53:12 | 48.87619 | 17.82689 | 304° | 9km/h | 35204m | 6.7m/s | -35.8°C | 1.7% | 0hPa | 2.6V | 00:00:00 | 00:00:00 | 00:00:00 | |
| OE3JTB-15 | 2026-09-04 00:53:11 | 48.87616 | 17.82695 | 312° | 9km/h | 35197m | 6.3m/s | -35.9°C | 1.7% | 0hPa | 2.6V | 00:00:00 | 01:59:25 | 00:00:00 | |
| PG1ADW-2 | 2026-09-04 00:53:10 | 48.87613 | 17.82699 | 325° | 9km/h | 35191m | 6.7m/s | -35.9°C | 1.7% | 0hPa | 2.6V | 00:00:00 | 00:00:00 | 00:00:00 | |
| OK1ALN | 2026-09-04 00:53:07 | 48.87609 | 17.82701 | 17° | 5km/h | 35177m | 6.7m/s | -35.9°C | 0.2% | 0hPa | 2.6V | 00:00:00 | 00:00:00 | 00:00:00 | |
| OE5MMP-10 | 2026-09-04 00:53:06 | 48.87608 | 17.82699 | 140° | 7km/h | 35164m | 6.2m/s | -35.9°C | 1.7% | 0hPa | 2.6V | 00:00:00 | 01:59:20 | 00:00:00 | |
| OE5DRO-10 | 2026-09-04 00:53:03 | 48.87612 | 17.82705 | 228° | 9km/h | 35143m | 6.0m/s | -35.8°C | 1.7% | 0hPa | 2.6V | 00:00:00 | 00:00:00 | 00:00:00 | |
| SP9KGR-15 | 2026-09-04 00:52:59 | 48.87619 | 17.82710 | 113° | 5km/h | 35117m | 7.0m/s | -35.9°C | 0.2% | 0hPa | 2.6V | 00:00:00 | 00:00:00 | 00:00:00 | |
| PETON7-10 | 2026-09-04 00:52:57 | 48.87617 | 17.82706 | 16° | 9km/h | 35104m | 6.1m/s | -35.9°C | 1.7% | 0hPa | 2.6V | 00:00:00 | 00:00:00 | 00:00:00 | |
| OE5MMP-10 | 2026-09-04 00:52:56 | 48.87615 | 17.82706 | 350° | 11km/h | 35098m | 7.5m/s | -35.9°C | 1.7% | 0hPa | 2.6V | 00:00:00 | 01:59:10 | 00:00:00 | |
| HA6NAB-11 | 2026-09-04 00:52:55 | 48.87615 | 17.82706 | 350° | 11km/h | 35098m | 7.6m/s | -35.9°C | 0.2% | 0hPa | 2.6V | 00:00:00 | 00:00:00 | 00:00:00 | |
| PG1ADW-2 | 2026-09-04 00:52:50 | 48.87604 | 17.82723 | 150° | 13km/h | 35059m | 7.7m/s | -35.9°C | 1.7% | 0hPa | 2.6V | 00:00:00 | 00:00:00 | 00:00:00 | |
| SP3BTT-10 | 2026-09-04 00:52:49 | 48.87606 | 17.82721 | 136° | 16km/h | 35051m | 6.8m/s | 0°C | 0% | 0hPa | 2.7V | 00:00:00 | 00:00:00 | 08:30:00 | |
| OE5MMP-10 | 2026-09-04 00:52:46 | 48.87612 | 17.82714 | 156° | 11km/h | 35033m | 6.8m/s | -35.8°C | 1.7% | 0hPa | 2.7V | 00:00:00 | 01:59:00 | 00:00:00 | |
| OE5DRO-10 | 2026-09-04 00:52:44 | 48.87612 | 17.82715 | 304° | 16km/h | 35019m | 6.4m/s | -35.8°C | 1.7% | 0hPa | 2.7V | 00:00:00 | 00:00:00 | 00:00:00 | |
| HA6NAB-11 | 2026-09-04 00:52:43 | 48.87612 | 17.82715 | 305° | 7km/h | 35019m | 6.5m/s | -35.8°C | 0.2% | 0hPa | 2.7V | 00:00:00 | 00:00:00 | 00:00:00 | |
| PETON7-10 | 2026-09-04 00:52:42 | 48.87608 | 17.82720 | 335° | 16km/h | 35008m | 5.6m/s | -35.8°C | 1.7% | 0hPa | 2.7V | 00:00:00 | 01:58:56 | 00:00:00 | |
| SP9KGR-15 | 2026-09-04 00:52:41 | 48.87609 | 17.82720 | 335° | 11km/h | 35008m | 5.7m/s | -35.8°C | 0.2% | 0hPa | 2.7V | 00:00:00 | 00:00:00 | 00:00:00 | |
| POL2MAQ | 2026-09-04 00:52:39 | 48.87605 | 17.82720 | 69° | 7km/h | 34996m | 6.3m/s | -35.8°C | 0.2% | 0hPa | 2.7V | 00:00:00 | 00:00:00 | 00:00:00 | |
| OE3OSB-13 | 2026-09-04 00:52:37 | 48.87618 | 17.82706 | 173° | 22km/h | 34972m | 5.4m/s | -35.7°C | 0.2% | -1.0hPa | 2.7V | 00:00:00 | 00:00:00 | 00:00:00 | |
| OE5MMP-10 | 2026-09-04 00:52:36 | 48.87618 | 17.82706 | 174° | 20km/h | 34972m | 5.4m/s | -35.7°C | 1.7% | 0hPa | 2.7V | 00:00:00 | 01:58:50 | 00:00:00 | |
| HA6NAB-11 | 2026-09-04 00:52:32 | 48.87629 | 17.82715 | 265° | 16km/h | 34954m | 6.8m/s | -35.7°C | 0.2% | 0hPa | 2.7V | 00:00:00 | 00:00:00 | 00:00:00 | |
| DO3MHA-11 | 2026-09-04 00:52:31 | 48.87624 | 17.82726 | 327° | 20km/h | 34940m | 6.6m/s | -35.6°C | 1.7% | 0hPa | 2.7V | 00:00:00 | 01:58:45 | 00:00:00 | |
| PG1ADW-2 | 2026-09-04 00:52:30 | 48.87619 | 17.82730 | 347° | 22km/h | 34934m | 5.6m/s | -35.6°C | 1.7% | 0hPa | 2.7V | 00:00:00 | 01:58:44 | 00:00:00 | |
| SP3WXH-11 | 2026-09-04 00:52:28 | 48.87608 | 17.82729 | 29° | 16km/h | 34923m | 5.5m/s | 0°C | -1.0% | -1.0hPa | 2.7V | 00:00:00 | 00:00:00 | 00:00:00 | |
| PETON7-10 | 2026-09-04 00:52:27 | 48.87606 | 17.82725 | 72° | 20km/h | 34918m | 5.6m/s | -35.6°C | 1.7% | 0hPa | 2.7V | 00:00:00 | 00:00:00 | 08:30:00 | |
| OE5MMP-10 | 2026-09-04 00:52:26 | 48.87606 | 17.82721 | 130° | 22km/h | 34912m | 5.9m/s | -35.6°C | 1.7% | 0hPa | 2.6V | 00:00:00 | 01:58:40 | 00:00:00 | |
| S52SK | 2026-09-04 00:52:25 | 48.87609 | 17.82719 | 171° | 18km/h | 34906m | 6.3m/s | -35.6°C | 0.2% | 0hPa | 2.6V | 00:00:00 | 00:00:00 | 00:00:00 | |
| POL2MAQ | 2026-09-04 00:52:20 | 48.87630 | 17.82751 | 275° | 26km/h | 34876m | 4.7m/s | -35.4°C | 0.2% | 0hPa | 2.6V | 00:00:00 | 00:00:00 | 00:00:00 | |
| OK1SLM-15 | 2026-09-04 00:52:17 | 48.87625 | 17.82764 | 336° | 16km/h | 34864m | 7.2m/s | -35.4°C | 0.2% | 0hPa | 2.6V | 00:00:00 | 00:00:00 | 00:00:00 | |
| OE5MMP-10 | 2026-09-04 00:52:16 | 48.87617 | 17.82762 | 50° | 20km/h | 34851m | 5.8m/s | -35.3°C | 1.6% | 0hPa | 2.6V | 00:00:00 | 01:58:30 | 00:00:00 | |
| OE3JTB-15 | 2026-09-04 00:52:13 | 48.87625 | 17.82744 | 188° | 24km/h | 34827m | 6.9m/s | -35.2°C | 1.6% | 0hPa | 2.6V | 00:00:00 | 00:00:00 | 00:00:00 | |
| OK1SLM-15 | 2026-09-04 00:52:12 | 48.87625 | 17.82744 | 188° | 26km/h | 34827m | 7.0m/s | -35.3°C | 0.2% | 0hPa | 2.6V | 00:00:00 | 00:00:00 | 00:00:00 | |
| PG1ADW-2 | 2026-09-04 00:52:10 | 48.87638 | 17.82756 | 229° | 22km/h | 34813m | 6.4m/s | -35.3°C | 1.6% | 0hPa | 2.6V | 00:00:00 | 00:00:00 | 00:00:00 | |
| SP9KGR-15 | 2026-09-04 00:52:08 | 48.87643 | 17.82767 | 245° | 37km/h | 34807m | 5.7m/s | -35.3°C | 0.2% | 0hPa | 2.6V | 00:00:00 | 00:00:00 | 00:00:00 | |
| OE5DRO-10 | 2026-09-04 00:52:06 | 48.87645 | 17.82800 | 289° | 20km/h | 34791m | 5.5m/s | -35.5°C | 1.6% | 0hPa | 2.6V | 00:00:00 | 00:00:00 | 00:00:00 | |
| OE3OSB-13 | 2026-09-04 00:52:05 | 48.87644 | 17.82804 | 317° | 5km/h | 34785m | 6.5m/s | -35.6°C | 0.2% | -1.0hPa | 2.6V | 00:00:00 | 00:00:00 | 00:00:00 | |
| DO3MHA-11 | 2026-09-04 00:52:02 | 48.87647 | 17.82794 | 133° | 18km/h | 34764m | 6.5m/s | -35.9°C | 1.7% | 0hPa | 2.6V | 00:00:00 | 01:58:16 | 00:00:00 | |
| OK1SLM-15 | 2026-09-04 00:52:00 | 48.87658 | 17.82785 | 170° | 27km/h | 34752m | 5.7m/s | -36.0°C | 0.2% | 0hPa | 2.7V | 00:00:00 | 00:00:00 | 00:00:00 | |
| POL2MAQ | 2026-09-04 00:51:58 | 48.87664 | 17.82785 | 191° | 26km/h | 34746m | 5.9m/s | -36.0°C | 0.2% | 0hPa | 2.7V | 00:00:00 | 00:00:00 | 00:00:00 | |
| PETON7-10 | 2026-09-04 00:51:57 | 48.87675 | 17.82794 | 234° | 20km/h | 34733m | 7.1m/s | -36.0°C | 1.7% | 0hPa | 2.7V | 00:00:00 | 01:58:11 | 00:00:00 | |
| OE5MMP-10 | 2026-09-04 00:51:53 | 48.87678 | 17.82820 | 249° | 20km/h | 34708m | 5.0m/s | -36.0°C | 1.7% | 0hPa | 2.7V | 00:00:00 | 01:58:07 | 00:00:00 | |
| DO3MHA-11 | 2026-09-04 00:51:51 | 48.87683 | 17.82819 | 154° | 20km/h | 34695m | 7.6m/s | -36.0°C | 1.7% | 0hPa | 2.7V | 00:00:00 | 01:58:05 | 00:00:00 | |
| PG1ADW-2 | 2026-09-04 00:51:50 | 48.87688 | 17.82814 | 153° | 26km/h | 34688m | 7.8m/s | -35.9°C | 1.7% | 0hPa | 2.7V | 00:00:00 | 00:00:00 | 08:30:00 | |
| SP3BTT-10 | 2026-09-04 00:51:48 | 48.87704 | 17.82802 | 151° | 24km/h | 34675m | 5.1m/s | 0°C | 0% | 0hPa | 2.6V | 00:00:00 | 00:00:00 | 00:00:00 | |
| OE5DRO-10 | 2026-09-04 00:51:47 | 48.87711 | 17.82795 | 148° | 22km/h | 34669m | 4.9m/s | -35.9°C | 1.7% | 0hPa | 2.6V | 00:00:00 | 00:00:00 | 00:00:00 | |
| OE5DXL-15 | 2026-09-04 00:51:46 | 48.87716 | 17.82790 | 144° | 22km/h | 34664m | 6.8m/s | -35.9°C | 1.7% | 0hPa | 2.6V | 00:00:00 | 00:00:00 | 00:00:00 | |
| OK1ALN | 2026-09-04 00:51:45 | 48.87716 | 17.82789 | 144° | 24km/h | 34664m | 6.9m/s | -36.0°C | 0.2% | 0hPa | 2.6V | 00:00:00 | 00:00:00 | 00:00:00 | |
| OE5MMP-10 | 2026-09-04 00:51:43 | 48.87721 | 17.82781 | 21° | 16km/h | 34644m | 5.9m/s | -36.0°C | 1.7% | 0hPa | 2.6V | 00:00:00 | 01:57:57 | 00:00:00 | |
| PETON7-10 | 2026-09-04 00:51:42 | 48.87721 | 17.82782 | 249° | 24km/h | 34637m | 6.4m/s | -36.0°C | 1.7% | 0hPa | 2.6V | 00:00:00 | 00:00:00 | 00:00:00 | |
| DO3MHA-11 | 2026-09-04 00:51:41 | 48.87723 | 17.82783 | 218° | 24km/h | 34631m | 6.7m/s | -36.0°C | 1.7% | 0hPa | 2.6V | 00:00:00 | 01:57:55 | 00:00:00 | |
| SP9KGR-15 | 2026-09-04 00:51:38 | 48.87729 | 17.82787 | 191° | 20km/h | 34618m | 5.6m/s | -36.1°C | 0.2% | 0hPa | 2.6V | 00:00:00 | 00:00:00 | 00:00:00 | |
| OE3OSB-13 | 2026-09-04 00:51:34 | 48.87755 | 17.82768 | 119° | 27km/h | 34586m | 6.2m/s | -36.3°C | 0.2% | -1.0hPa | 2.6V | 00:00:00 | 00:00:00 | 00:00:00 | |
| OE5MMP-10 | 2026-09-04 00:51:33 | 48.87758 | 17.82758 | 116° | 26km/h | 34581m | 5.1m/s | -36.3°C | 1.7% | 0hPa | 2.6V | 00:00:00 | 01:57:47 | 08:30:00 | |
| DO3MHA-11 | 2026-09-04 00:51:31 | 48.87766 | 17.82738 | 128° | 24km/h | 34570m | 6.6m/s | -36.5°C | 1.8% | 0hPa | 2.7V | 00:00:00 | 01:57:45 | 08:30:00 | |
| PG1ADW-2 | 2026-09-04 00:51:30 | 48.87771 | 17.82728 | 138° | 22km/h | 34562m | 7.3m/s | -36.5°C | 1.8% | 0hPa | 2.6V | 00:00:00 | 00:00:00 | 00:00:00 | |
| PETON7-10 | 2026-09-04 00:51:27 | 48.87791 | 17.82710 | 152° | 22km/h | 34545m | 4.9m/s | -36.5°C | 1.8% | 0hPa | 2.6V | 00:00:00 | 00:00:00 | 00:00:00 | |
| OK1ALN | 2026-09-04 00:51:25 | 48.87798 | 17.82701 | 117° | 13km/h | 34532m | 7.7m/s | -36.5°C | 0.2% | 0hPa | 2.6V | 00:00:00 | 00:00:00 | 00:00:00 | |
| OE5MMP-10 | 2026-09-04 00:51:23 | 48.87797 | 17.82690 | 68° | 26km/h | 34517m | 6.7m/s | -36.5°C | 1.7% | 0hPa | 2.6V | 00:00:00 | 01:57:37 | 00:00:00 | |
| DO3MHA-11 | 2026-09-04 00:51:21 | 48.87795 | 17.82675 | 88° | 24km/h | 34505m | 6.0m/s | -36.4°C | 1.8% | 0hPa | 2.6V | 00:00:00 | 01:57:35 | 00:00:00 | |
| SP9KGR-15 | 2026-09-04 00:51:19 | 48.87795 | 17.82667 | 109° | 22km/h | 34498m | 7.0m/s | -36.5°C | 0.2% | 0hPa | 2.6V | 00:00:00 | 00:00:00 | 00:00:00 | |
| POL2MAQ | 2026-09-04 00:51:17 | 48.87803 | 17.82651 | 137° | 33km/h | 34485m | 5.9m/s | -36.5°C | 0.2% | 0hPa | 2.6V | 00:00:00 | 00:00:00 | 00:00:00 | |
| OE5DXL-15 | 2026-09-04 00:51:16 | 48.87815 | 17.82650 | 135° | 20km/h | 34474m | 6.2m/s | -36.5°C | 1.8% | 0hPa | 2.6V | 00:00:00 | 00:00:00 | 00:00:00 | |
| OE3JTB-15 | 2026-09-04 00:51:14 | 48.87823 | 17.82633 | 116° | 18km/h | 34461m | 6.3m/s | -36.5°C | 1.8% | 0hPa | 2.6V | 00:00:00 | 00:00:00 | 08:30:00 | |
| OE5MMP-10 | 2026-09-04 00:51:13 | 48.87825 | 17.82610 | 105° | 9km/h | 34455m | 6.2m/s | -36.5°C | 1.8% | 0hPa | 2.7V | 00:00:00 | 01:57:27 | 00:00:00 | |
| PETON7-10 | 2026-09-04 00:51:12 | 48.87826 | 17.82606 | 93° | 13km/h | 34449m | 6.2m/s | -36.5°C | 1.8% | 0hPa | 2.7V | 00:00:00 | 01:57:26 | 00:00:00 | |
| DO3MHA-11 | 2026-09-04 00:51:11 | 48.87826 | 17.82603 | 78° | 16km/h | 34442m | 7.4m/s | -36.5°C | 1.8% | 0hPa | 2.7V | 00:00:00 | 01:57:25 | 00:00:00 | |
| PG1ADW-2 | 2026-09-04 00:51:10 | 48.87826 | 17.82602 | 350° | 18km/h | 34434m | 7.3m/s | -36.5°C | 1.8% | 0hPa | 2.7V | 00:00:00 | 01:57:24 | 00:00:00 | |
| OE5DRO-10 | 2026-09-04 00:51:09 | 48.87825 | 17.82603 | 314° | 20km/h | 34428m | 5.8m/s | -36.5°C | 1.8% | 0hPa | 2.7V | 00:00:00 | 00:00:00 | 00:00:00 | |
| SP9KGR-15 | 2026-09-04 00:51:05 | 48.87820 | 17.82595 | 60° | 16km/h | 34403m | 6.8m/s | -36.6°C | 0.2% | 0hPa | 2.7V | 00:00:00 | 00:00:00 | 00:00:00 | |
| OK1ALN | 2026-09-04 00:51:04 | 48.87820 | 17.82595 | 60° | 16km/h | 34403m | 6.8m/s | -36.6°C | 0.2% | 0hPa | 2.7V | 00:00:00 | 00:00:00 | 00:00:00 | |
| OE5MMP-10 | 2026-09-04 00:51:03 | 48.87817 | 17.82581 | 91° | 20km/h | 34391m | 5.2m/s | -36.6°C | 1.8% | 0hPa | 2.7V | 00:00:00 | 01:57:17 | 00:00:00 | |
| DO3MHA-11 | 2026-09-04 00:51:00 | 48.87825 | 17.82562 | 156° | 26km/h | 34372m | 6.6m/s | -36.7°C | 1.8% | 0hPa | 2.6V | 00:00:00 | 01:57:14 | 00:00:00 | |
| PETON7-10 | 2026-09-04 00:50:57 | 48.87836 | 17.82564 | 258° | 26km/h | 34357m | 5.0m/s | -36.7°C | 1.8% | 0hPa | 2.7V | 00:00:00 | 00:00:00 | 00:00:00 | |
| OE5MMP-10 | 2026-09-04 00:50:53 | 48.87817 | 17.82563 | 35° | 27km/h | 34331m | 5.5m/s | -36.6°C | 1.8% | 0hPa | 2.6V | 00:00:00 | 01:57:07 | 00:00:00 | |
| OK1SLM-15 | 2026-09-04 00:50:50 | 48.87804 | 17.82529 | 92° | 31km/h | 34316m | 6.2m/s | -36.7°C | 0.2% | 0hPa | 2.6V | 00:00:00 | 00:00:00 | 00:00:00 | |
| SP9KGR-15 | 2026-09-04 00:50:49 | 48.87806 | 17.82519 | 121° | 26km/h | 34310m | 7.0m/s | -36.7°C | 0.2% | 0hPa | 2.6V | 00:00:00 | 00:00:00 | 00:00:00 | |
| SP3BTT-10 | 2026-09-04 00:50:47 | 48.87816 | 17.82511 | 186° | 11km/h | 34296m | 6.3m/s | 0°C | 0% | 0hPa | 2.6V | 00:00:00 | 00:00:00 | 00:00:00 | |
| OE5DXL-15 | 2026-09-04 00:50:46 | 48.87822 | 17.82514 | 216° | 18km/h | 34290m | 5.8m/s | -36.6°C | 1.8% | 0hPa | 2.6V | 00:00:00 | 00:00:00 | 00:00:00 | |
| OE3JTB-15 | 2026-09-04 00:50:45 | 48.87825 | 17.82521 | 249° | 18km/h | 34284m | 5.7m/s | -36.7°C | 1.8% | 0hPa | 2.6V | 00:00:00 | 00:00:00 | 00:00:00 | |
| OK1SLM-15 | 2026-09-04 00:50:44 | 48.87826 | 17.82528 | 288° | 20km/h | 34278m | 6.0m/s | -36.7°C | 0.2% | 0hPa | 2.6V | 00:00:00 | 00:00:00 | 00:00:00 | |
| OE5MMP-10 | 2026-09-04 00:50:43 | 48.87823 | 17.82534 | 326° | 24km/h | 34272m | 5.9m/s | -36.7°C | 1.8% | 0hPa | 2.6V | 00:00:00 | 01:56:57 | 00:00:00 | |
| PETON7-10 | 2026-09-04 00:50:42 | 48.87817 | 17.82537 | 356° | 20km/h | 34266m | 6.1m/s | -36.8°C | 1.8% | 0hPa | 2.6V | 00:00:00 | 00:00:00 | 00:00:00 | |
| S52SK | 2026-09-04 00:50:41 | 48.87817 | 17.82537 | 357° | 29km/h | 34266m | 6.2m/s | -36.8°C | 0.2% | 0hPa | 2.6V | 00:00:00 | 00:00:00 | 00:00:00 | |
| HA6NAB-11 | 2026-09-04 00:50:39 | 48.87795 | 17.82520 | 57° | 35km/h | 34246m | 5.8m/s | -36.9°C | 0.2% | 0hPa | 2.6V | 00:00:00 | 00:00:00 | 00:00:00 | |
| POL2MAQ | 2026-09-04 00:50:37 | 48.87791 | 17.82498 | 90° | 24km/h | 34236m | 5.4m/s | -36.9°C | 0.2% | 0hPa | 2.6V | 00:00:00 | 00:00:00 | 00:00:00 | |
| S52SK | 2026-09-04 00:50:36 | 48.87791 | 17.82490 | 109° | 16km/h | 34230m | 6.3m/s | -36.9°C | 0.2% | 0hPa | 2.6V | 00:00:00 | 00:00:00 | 00:00:00 | |
| SP9KGR-15 | 2026-09-04 00:50:33 | 48.87795 | 17.82490 | 262° | 13km/h | 34209m | 7.0m/s | -36.9°C | 0.2% | 0hPa | 2.6V | 00:00:00 | 00:00:00 | 00:00:00 | |
| OE3OSB-13 | 2026-09-04 00:50:32 | 48.87795 | 17.82495 | 282° | 15km/h | 34202m | 6.2m/s | -36.9°C | 0.2% | -1.0hPa | 2.6V | 00:00:00 | 00:00:00 | 00:00:00 | |
| OE5DRO-10 | 2026-09-04 00:50:31 | 48.87794 | 17.82501 | 301° | 16km/h | 34196m | 5.4m/s | -36.9°C | 1.8% | 0hPa | 2.6V | 00:00:00 | 00:00:00 | 08:30:00 | |
| PETON7-10 | 2026-09-04 00:50:27 | 48.87787 | 17.82498 | 87° | 16km/h | 34171m | 7.4m/s | -37.1°C | 1.8% | 0hPa | 2.7V | 00:00:00 | 01:56:41 | 00:00:00 | |
| DO3MHA-11 | 2026-09-04 00:50:24 | 48.87788 | 17.82468 | 89° | 15km/h | 34153m | 4.8m/s | -37.4°C | 1.9% | 0hPa | 2.7V | 00:00:00 | 01:56:38 | 00:00:00 | |
| OK1ALN | 2026-09-04 00:50:23 | 48.87787 | 17.82459 | 79° | 20km/h | 34147m | 6.1m/s | -37.4°C | 0.2% | 0hPa | 2.6V | 00:00:00 | 00:00:00 | 00:00:00 | |
| HA6NAB-11 | 2026-09-04 00:50:21 | 48.87786 | 17.82453 | 60° | 15km/h | 34141m | 6.8m/s | -37.4°C | 0.2% | 0hPa | 2.6V | 00:00:00 | 00:00:00 | 00:00:00 | |
| SP9KGR-15 | 2026-09-04 00:50:17 | 48.87788 | 17.82456 | 199° | 18km/h | 34109m | 7.1m/s | -37.4°C | 0.2% | 0hPa | 2.6V | 00:00:00 | 00:00:00 | 00:00:00 | |
| OE3JTB-15 | 2026-09-04 00:50:16 | 48.87792 | 17.82458 | 193° | 15km/h | 34102m | 6.1m/s | -37.4°C | 1.8% | 0hPa | 2.6V | 00:00:00 | 01:56:30 | 00:00:00 | |
| HA6NAB-11 | 2026-09-04 00:50:15 | 48.87792 | 17.82458 | 193° | 22km/h | 34102m | 6.2m/s | -37.4°C | 0.2% | 0hPa | 2.6V | 00:00:00 | 00:00:00 | 00:00:00 | |
| OE5MMP-10 | 2026-09-04 00:50:12 | 48.87808 | 17.82460 | 143° | 11km/h | 34077m | 5.8m/s | -37.3°C | 1.8% | 0hPa | 2.6V | 00:00:00 | 01:56:26 | 00:00:00 | |
| PG1ADW-2 | 2026-09-04 00:50:10 | 48.87811 | 17.82452 | 107° | 16km/h | 34064m | 7.7m/s | -37.3°C | 1.8% | 0hPa | 2.6V | 00:00:00 | 00:00:00 | 00:00:00 | |
| OK1ALN | 2026-09-04 00:50:02 | 48.87812 | 17.82419 | 244° | 2km/h | 34020m | 5.0m/s | -37.3°C | 0.3% | 0hPa | 2.6V | 00:00:00 | 00:00:00 | 00:00:00 | |
| OE5MMP-10 | 2026-09-04 00:50:01 | 48.87816 | 17.82420 | 174° | 18km/h | 34009m | 7.1m/s | -37.3°C | 1.8% | 0hPa | 2.6V | 00:00:00 | 01:56:15 | 08:30:00 | |
| DO3MHA-11 | 2026-09-04 00:50:00 | 48.87821 | 17.82419 | 164° | 22km/h | 34001m | 7.9m/s | -37.3°C | 1.9% | 0hPa | 2.7V | 00:00:00 | 01:56:14 | 00:00:00 | |
| PETON7-10 | 2026-09-04 00:49:57 | 48.87841 | 17.82406 | 156° | 11km/h | 33982m | 5.7m/s | -37.4°C | 1.9% | 0hPa | 2.7V | 00:00:00 | 00:00:00 | 00:00:00 | |
| POL2MAQ | 2026-09-04 00:49:56 | 48.87841 | 17.82406 | 157° | 27km/h | 33982m | 5.7m/s | -37.5°C | 0.3% | 0hPa | 2.7V | 00:00:00 | 00:00:00 | 00:00:00 | |
| OE5DRO-10 | 2026-09-04 00:49:53 | 48.87856 | 17.82395 | 136° | 13km/h | 33956m | 6.4m/s | -37.3°C | 1.8% | 0hPa | 2.7V | 00:00:00 | 00:00:00 | 00:00:00 | |
| OE5MMP-10 | 2026-09-04 00:49:51 | 48.87859 | 17.82390 | 120° | 11km/h | 33942m | 6.6m/s | -37.3°C | 1.8% | 0hPa | 2.7V | 00:00:00 | 01:56:05 | 00:00:00 | |
| PG1ADW-2 | 2026-09-04 00:49:50 | 48.87860 | 17.82386 | 118° | 11km/h | 33936m | 5.4m/s | -37.3°C | 1.8% | 0hPa | 2.7V | 00:00:00 | 01:56:04 | 00:00:00 | |
| DO3MHA-11 | 2026-09-04 00:49:49 | 48.87861 | 17.82400 | 120° | 16km/h | 33930m | 5.6m/s | -37.2°C | 1.8% | 0hPa | 2.6V | 00:00:00 | 01:56:03 | 08:30:00 | |
| OE3JTB-15 | 2026-09-04 00:49:47 | 48.87862 | 17.82381 | 182° | 13km/h | 33918m | 7.8m/s | -37.2°C | 1.8% | 0hPa | 2.6V | 00:00:00 | 00:00:00 | 00:00:00 | |
| OE5DXL-15 | 2026-09-04 00:49:46 | 48.87863 | 17.82381 | 227° | 13km/h | 33911m | 6.0m/s | -37.2°C | 1.8% | 0hPa | 2.6V | 00:00:00 | 00:00:00 | 00:00:00 | |
| SP9KGR-15 | 2026-09-04 00:49:45 | 48.87863 | 17.82381 | 228° | 4km/h | 33911m | 6.1m/s | -37.3°C | 0.2% | 0hPa | 2.6V | 00:00:00 | 00:00:00 | 00:00:00 | |
| SP3BTT-10 | 2026-09-04 00:49:43 | 48.87870 | 17.82380 | 156° | 24km/h | 33893m | 7.1m/s | 0°C | 0% | 0hPa | 2.6V | 00:00:00 | 00:00:00 | 00:00:00 | |
| PETON7-10 | 2026-09-04 00:49:42 | 48.87875 | 17.82375 | 148° | 13km/h | 33886m | 7.9m/s | -37.4°C | 1.8% | 0hPa | 2.6V | 00:00:00 | 01:55:56 | 00:00:00 | |
| OE5MMP-10 | 2026-09-04 00:49:41 | 48.87880 | 17.82369 | 142° | 13km/h | 33879m | 6.2m/s | -37.4°C | 1.8% | 0hPa | 2.6V | 00:00:00 | 01:55:55 | 00:00:00 | |
| OK1SLM-15 | 2026-09-04 00:49:38 | 48.87894 | 17.82348 | 121° | 15km/h | 33861m | 7.2m/s | -37.7°C | 0.2% | 0hPa | 2.6V | 00:00:00 | 00:00:00 | 00:00:00 | |
| POL2MAQ | 2026-09-04 00:49:35 | 48.87893 | 17.82343 | 14° | 7km/h | 33847m | 6.7m/s | -37.8°C | 0.3% | 0hPa | 2.6V | 00:00:00 | 00:00:00 | 00:00:00 | |
| OE5DRO-10 | 2026-09-04 00:49:34 | 48.87890 | 17.82343 | 343° | 11km/h | 33834m | 6.6m/s | -38.0°C | 1.9% | 0hPa | 2.6V | 00:00:00 | 00:00:00 | 00:00:00 | |
| SP9KGR-15 | 2026-09-04 00:49:31 | 48.87890 | 17.82346 | 204° | 7km/h | 33815m | 5.4m/s | -38.2°C | 0.3% | 0hPa | 2.7V | 00:00:00 | 00:00:00 | 00:00:00 | |
| PG1ADW-2 | 2026-09-04 00:49:30 | 48.87892 | 17.82347 | 207° | 15km/h | 33809m | 6.3m/s | -38.2°C | 1.9% | 0hPa | 2.7V | 00:00:00 | 00:00:00 | 00:00:00 | |
| PETON7-10 | 2026-09-04 00:49:27 | 48.87896 | 17.82347 | 107° | 15km/h | 33791m | 4.6m/s | -38.3°C | 2.0% | 0hPa | 2.7V | 00:00:00 | 00:00:00 | 00:00:00 | |
| OE5MMP-10 | 2026-09-04 00:49:21 | 48.87899 | 17.82297 | 80° | 11km/h | 33755m | 7.3m/s | -38.4°C | 1.9% | 0hPa | 2.6V | 00:00:00 | 01:55:35 | 00:00:00 | |
| DO3MHA-11 | 2026-09-04 00:49:20 | 48.87897 | 17.82291 | 58° | 18km/h | 33747m | 8.5m/s | -38.5°C | 1.9% | 0hPa | 2.6V | 00:00:00 | 01:55:34 | 00:00:00 | |
| OE3JTB-15 | 2026-09-04 00:49:18 | 48.87894 | 17.82289 | 357° | 22km/h | 33732m | 6.1m/s | -38.6°C | 2.0% | 0hPa | 2.6V | 00:00:00 | 00:00:00 | 00:00:00 | |
| OE5DXL-15 | 2026-09-04 00:49:16 | 48.87892 | 17.82287 | 97° | 22km/h | 33719m | 7.3m/s | -38.6°C | 2.0% | 0hPa | 2.6V | 00:00:00 | 00:00:00 | 08:30:00 | |
| SP9KGR-15 | 2026-09-04 00:49:15 | 48.87893 | 17.82284 | 106° | 13km/h | 33712m | 6.0m/s | -38.6°C | 0.3% | 0hPa | 2.7V | 00:00:00 | 00:00:00 | 00:00:00 | |
| PETON7-10 | 2026-09-04 00:49:12 | 48.87894 | 17.82265 | 79° | 20km/h | 33693m | 7.0m/s | -38.5°C | 2.0% | 0hPa | 2.7V | 00:00:00 | 00:00:00 | 00:00:00 | |
| OE5MMP-10 | 2026-09-04 00:49:11 | 48.87892 | 17.82258 | 74° | 18km/h | 33686m | 6.4m/s | -38.5°C | 2.0% | 0hPa | 2.7V | 00:00:00 | 01:55:25 | 00:00:00 | |
| PG1ADW-2 | 2026-09-04 00:49:10 | 48.87891 | 17.82251 | 74° | 26km/h | 33679m | 5.9m/s | -38.5°C | 2.0% | 0hPa | 2.7V | 00:00:00 | 00:00:00 | 00:00:00 | |
| OE5MMP-10 | 2026-09-04 00:49:01 | 48.87882 | 17.82190 | 61° | 29km/h | 33621m | 5.1m/s | -38.3°C | 1.9% | 0hPa | 2.7V | 00:00:00 | 01:55:15 | 00:00:00 | |
| OK1ALN | 2026-09-04 00:49:00 | 48.87882 | 17.82190 | 61° | 15km/h | 33621m | 5.1m/s | -38.3°C | 0.3% | 0hPa | 2.7V | 00:00:00 | 00:00:00 | 00:00:00 | |
| SP9KGR-15 | 2026-09-04 00:48:59 | 48.87881 | 17.82176 | 98° | 24km/h | 33608m | 7.7m/s | -38.4°C | 0.3% | 0hPa | 2.7V | 00:00:00 | 00:00:00 | 00:00:00 | |
| PETON7-10 | 2026-09-04 00:48:57 | 48.87885 | 17.82152 | 107° | 27km/h | 33594m | 6.0m/s | -38.4°C | 1.9% | 0hPa | 2.7V | 00:00:00 | 01:55:11 | 00:00:00 | |
| POL2MAQ | 2026-09-04 00:48:55 | 48.87889 | 17.82123 | 98° | 38km/h | 33582m | 7.3m/s | -38.4°C | 0.3% | 0hPa | 2.7V | 00:00:00 | 00:00:00 | 00:00:00 | |
| DO3MHA-11 | 2026-09-04 00:48:54 | 48.87890 | 17.82109 | 90° | 27km/h | 33575m | 7.1m/s | -38.4°C | 2.0% | 0hPa | 2.7V | 00:00:00 | 01:55:08 | 00:00:00 | |
| OE5MMP-10 | 2026-09-04 00:48:51 | 48.87888 | 17.82076 | 91° | 24km/h | 33555m | 7.2m/s | -38.3°C | 1.9% | 0hPa | 2.6V | 00:00:00 | 01:55:05 | 00:00:00 | |
| PG1ADW-2 | 2026-09-04 00:48:50 | 48.87889 | 17.82067 | 102° | 20km/h | 33548m | 7.6m/s | -38.3°C | 1.9% | 0hPa | 2.6V | 00:00:00 | 00:00:00 | 08:30:00 | |
| S52SK | 2026-09-04 00:48:49 | 48.87890 | 17.82059 | 111° | 24km/h | 33540m | 6.3m/s | -38.4°C | 0.3% | 0hPa | 2.7V | 00:00:00 | 00:00:00 | 00:00:00 | |
| OE5DXL-15 | 2026-09-04 00:48:46 | 48.87895 | 17.82034 | 93° | 18km/h | 33522m | 7.8m/s | -38.3°C | 1.9% | 0hPa | 2.7V | 00:00:00 | 00:00:00 | 00:00:00 | |
| DO3MHA-11 | 2026-09-04 00:48:44 | 48.87894 | 17.82017 | 81° | 11km/h | 33508m | 5.9m/s | -38.2°C | 1.9% | 0hPa | 2.7V | 00:00:00 | 01:54:58 | 00:00:00 | |
| S52SK | 2026-09-04 00:48:43 | 48.87894 | 17.82017 | 81° | 26km/h | 33508m | 5.9m/s | -38.3°C | 0.3% | 0hPa | 2.7V | 00:00:00 | 00:00:00 | 00:00:00 | |
| SP3BTT-10 | 2026-09-04 00:48:42 | 48.87893 | 17.81996 | 94° | 35km/h | 33495m | 7.7m/s | 0°C | 0% | 0hPa | 2.7V | 00:00:00 | 00:00:00 | 00:00:00 | |
| OE5MMP-10 | 2026-09-04 00:48:41 | 48.87894 | 17.81984 | 102° | 33km/h | 33487m | 7.5m/s | -38.2°C | 1.9% | 0hPa | 2.7V | 00:00:00 | 01:54:55 | 00:00:00 | |
| OK1ALN | 2026-09-04 00:48:39 | 48.87896 | 17.81973 | 107° | 29km/h | 33481m | 5.6m/s | -38.3°C | 0.3% | 0hPa | 2.7V | 00:00:00 | 00:00:00 | 00:00:00 | |
| OE5DRO-10 | 2026-09-04 00:48:37 | 48.87899 | 17.81949 | 84° | 13km/h | 33462m | 8.3m/s | -38.3°C | 1.9% | 0hPa | 2.7V | 00:00:00 | 00:00:00 | 00:00:00 | |
| POL2MAQ | 2026-09-04 00:48:35 | 48.87897 | 17.81945 | 17° | 7km/h | 33447m | 6.3m/s | -38.5°C | 0.3% | 0hPa | 2.7V | 00:00:00 | 00:00:00 | 00:00:00 | |
| OE5MMP-10 | 2026-09-04 00:48:30 | 48.87900 | 17.81930 | 122° | 15km/h | 33415m | 6.0m/s | -38.4°C | 2.0% | 0hPa | 2.7V | 00:00:00 | 01:54:44 | 08:30:00 | |
| DO3MHA-11 | 2026-09-04 00:48:29 | 48.87902 | 17.81924 | 111° | 16km/h | 33408m | 6.8m/s | -38.4°C | 2.0% | 0hPa | 2.6V | 00:00:00 | 01:54:43 | 00:00:00 | |
| OE3OSB-13 | 2026-09-04 00:48:28 | 48.87903 | 17.81918 | 98° | 16km/h | 33401m | 7.5m/s | -38.4°C | 0.2% | -1.0hPa | 2.6V | 00:00:00 | 00:00:00 | 00:00:00 | |
| PETON7-10 | 2026-09-04 00:48:27 | 48.87903 | 17.81911 | 86° | 18km/h | 33394m | 6.6m/s | -38.3°C | 2.0% | 0hPa | 2.6V | 00:00:00 | 00:00:00 | 00:00:00 | |
| SP9KGR-15 | 2026-09-04 00:48:26 | 48.87903 | 17.81911 | 87° | 16km/h | 33394m | 6.7m/s | -38.4°C | 0.3% | 0hPa | 2.6V | 00:00:00 | 00:00:00 | 00:00:00 | |
| OK1SLM-15 | 2026-09-04 00:48:23 | 48.87903 | 17.81896 | 113° | 13km/h | 33375m | 7.1m/s | -38.3°C | 0% | 0hPa | 2.6V | 00:00:00 | 00:00:00 | 00:00:00 | |
| OE3JTB-15 | 2026-09-04 00:48:20 | 48.87913 | 17.81877 | 115° | 26km/h | 33346m | 7.4m/s | -38.2°C | 1.9% | 0hPa | 2.6V | 00:00:00 | 00:00:00 | 00:00:00 | |
| OE5MMP-10 | 2026-09-04 00:48:19 | 48.87914 | 17.81871 | 93° | 24km/h | 33339m | 7.7m/s | -38.2°C | 1.9% | 0hPa | 2.6V | 00:00:00 | 01:54:33 | 00:00:00 | |
| OE5DRO-10 | 2026-09-04 00:48:18 | 48.87914 | 17.81864 | 80° | 24km/h | 33332m | 6.1m/s | -38.2°C | 1.9% | 0hPa | 2.6V | 00:00:00 | 00:00:00 | 00:00:00 | |
| OE5DXL-15 | 2026-09-04 00:48:16 | 48.87912 | 17.81847 | 87° | 27km/h | 33320m | 6.3m/s | -38.1°C | 1.9% | 0hPa | 2.6V | 00:00:00 | 01:54:30 | 00:00:00 | |
| HA6NAB-11 | 2026-09-04 00:48:14 | 48.87912 | 17.81837 | 95° | 26km/h | 33313m | 7.9m/s | -38.2°C | 0.3% | 0hPa | 2.6V | 00:00:00 | 00:00:00 | 00:00:00 | |
| POL2MAQ | 2026-09-04 00:48:13 | 48.87913 | 17.81827 | 104° | 27km/h | 33306m | 6.9m/s | -38.1°C | 0.3% | 0hPa | 2.6V | 00:00:00 | 00:00:00 | 00:00:00 | |
| SP9KGR-15 | 2026-09-04 00:48:12 | 48.87916 | 17.81808 | 100° | 24km/h | 33294m | 5.9m/s | -38.1°C | 0.3% | 0hPa | 2.6V | 00:00:00 | 00:00:00 | 00:00:00 | |
| PG1ADW-2 | 2026-09-04 00:48:10 | 48.87915 | 17.81791 | 76° | 27km/h | 33279m | 7.7m/s | -38.1°C | 1.9% | 0hPa | 2.6V | 00:00:00 | 00:00:00 | 00:00:00 | |
| OE5MMP-10 | 2026-09-04 00:48:09 | 48.87914 | 17.81783 | 68° | 26km/h | 33272m | 6.4m/s | -38.1°C | 1.9% | 0hPa | 2.6V | 00:00:00 | 01:54:23 | 00:00:00 | |
| HA6NAB-11 | 2026-09-04 00:48:04 | 48.87911 | 17.81756 | 99° | 20km/h | 33244m | 5.4m/s | -38.3°C | 0.3% | 0hPa | 2.6V | 00:00:00 | 00:00:00 | 00:00:00 | |
| OE5DRO-10 | 2026-09-04 00:47:59 | 48.87901 | 17.81694 | 76° | 37km/h | 33204m | 6.6m/s | -38.2°C | 1.9% | 0hPa | 2.6V | 00:00:00 | 00:00:00 | 00:00:00 | |
| OE5MMP-10 | 2026-09-04 00:47:58 | 48.87899 | 17.81680 | 84° | 31km/h | 33197m | 8.0m/s | -38.2°C | 1.9% | 0hPa | 2.6V | 00:00:00 | 01:54:12 | 00:00:00 | |
| PETON7-10 | 2026-09-04 00:47:57 | 48.87899 | 17.81667 | 92° | 35km/h | 33189m | 7.1m/s | -38.3°C | 1.9% | 0hPa | 2.6V | 00:00:00 | 00:00:00 | 08:30:00 | |
| SP9KGR-15 | 2026-09-04 00:47:56 | 48.87900 | 17.81654 | 97° | 35km/h | 33182m | 6.4m/s | -38.3°C | 0.3% | 0hPa | 2.6V | 00:00:00 | 00:00:00 | 00:00:00 | |
| HA6NAB-11 | 2026-09-04 00:47:53 | 48.87899 | 17.81617 | 75° | 31km/h | 33161m | 6.9m/s | -38.3°C | 0.3% | 0hPa | 2.6V | 00:00:00 | 00:00:00 | 00:00:00 | |
| OE3JTB-15 | 2026-09-04 00:47:51 | 48.87893 | 17.81595 | 64° | 37km/h | 33149m | 5.6m/s | -38.3°C | 1.9% | 0hPa | 2.6V | 00:00:00 | 00:00:00 | 00:00:00 | |
| PG1ADW-2 | 2026-09-04 00:47:50 | 48.87890 | 17.81585 | 67° | 37km/h | 33143m | 7.0m/s | -38.3°C | 1.9% | 0hPa | 2.6V | 00:00:00 | 00:00:00 | 00:00:00 | |
| OE5MMP-10 | 2026-09-04 00:47:48 | 48.87886 | 17.81565 | 78° | 42km/h | 33129m | 6.0m/s | -38.4°C | 2.0% | 0hPa | 2.6V | 00:00:00 | 01:54:02 | 00:00:00 | |
| OE5DXL-15 | 2026-09-04 00:47:46 | 48.87881 | 17.81540 | 71° | 37km/h | 33118m | 5.8m/s | -38.5°C | 1.9% | 0hPa | 2.6V | 00:00:00 | 00:00:00 | 00:00:00 | |
| PETON7-10 | 2026-09-04 00:47:42 | 48.87858 | 17.81475 | 58° | 37km/h | 33090m | 5.6m/s | -38.5°C | 2.0% | 0hPa | 2.6V | 00:00:00 | 00:00:00 | 00:00:00 | |
| SP3BTT-10 | 2026-09-04 00:47:41 | 48.87851 | 17.81459 | 59° | 33km/h | 33083m | 7.1m/s | 0°C | 0% | 0hPa | 2.6V | 00:00:00 | 00:00:00 | 00:00:00 | |
| SP9KGR-15 | 2026-09-04 00:47:40 | 48.87846 | 17.81446 | 62° | 37km/h | 33076m | 7.8m/s | -38.7°C | 0.3% | 0hPa | 2.6V | 00:00:00 | 00:00:00 | 00:00:00 | |
| OE5MMP-10 | 2026-09-04 00:47:38 | 48.87839 | 17.81426 | 60° | 33km/h | 33063m | 5.8m/s | -38.6°C | 2.0% | 0hPa | 2.6V | 00:00:00 | 01:53:52 | 00:00:00 | |
| POL2MAQ | 2026-09-04 00:47:31 | 48.87811 | 17.81374 | 63° | 37km/h | 33022m | 6.9m/s | -38.6°C | 0.3% | 0hPa | 2.6V | 00:00:00 | 00:00:00 | 00:00:00 | |
| PG1ADW-2 | 2026-09-04 00:47:30 | 48.87804 | 17.81346 | 74° | 35km/h | 33007m | 7.1m/s | -38.5°C | 2.0% | 0hPa | 2.6V | 00:00:00 | 00:00:00 | 00:00:00 | |
| OE5MMP-10 | 2026-09-04 00:47:28 | 48.87796 | 17.81314 | 66° | 35km/h | 32994m | 7.2m/s | -38.5°C | 2.0% | 0hPa | 2.6V | 00:00:00 | 01:53:42 | 00:00:00 | |
| PETON7-10 | 2026-09-04 00:47:27 | 48.87790 | 17.81298 | 57° | 33km/h | 32987m | 6.7m/s | -38.5°C | 2.0% | 0hPa | 2.7V | 00:00:00 | 01:53:41 | 00:00:00 | |
| OE3OSB-13 | 2026-09-04 00:47:26 | 48.87775 | 17.81273 | 39° | 40km/h | 32975m | 5.2m/s | -38.5°C | 0.3% | -1.0hPa | 2.7V | 00:00:00 | 00:00:00 | 00:00:00 | |
| SP9KGR-15 | 2026-09-04 00:47:24 | 48.87775 | 17.81273 | 41° | 42km/h | 32975m | 5.2m/s | -38.5°C | 0.3% | 0hPa | 2.7V | 00:00:00 | 00:00:00 | 00:00:00 | |
| OE3JTB-15 | 2026-09-04 00:47:22 | 48.87756 | 17.81251 | 34° | 24km/h | 32954m | 7.3m/s | -38.5°C | 2.0% | 0hPa | 2.7V | 00:00:00 | 01:53:36 | 00:00:00 | |
| OE5DRO-10 | 2026-09-04 00:47:21 | 48.87751 | 17.81246 | 35° | 24km/h | 32947m | 6.6m/s | -38.5°C | 2.0% | 0hPa | 2.7V | 00:00:00 | 00:00:00 | 00:00:00 | |
| OK1ALN | 2026-09-04 00:47:18 | 48.87735 | 17.81228 | 42° | 33km/h | 32926m | 6.7m/s | -38.5°C | 0.3% | 0hPa | 2.7V | 00:00:00 | 00:00:00 | 00:00:00 | |
| OE5DXL-15 | 2026-09-04 00:47:16 | 48.87723 | 17.81207 | 55° | 20km/h | 32914m | 5.9m/s | -38.4°C | 2.0% | 0hPa | 2.7V | 00:00:00 | 00:00:00 | 00:00:00 | |
| OK1SLM-15 | 2026-09-04 00:47:15 | 48.87723 | 17.81207 | 55° | 37km/h | 32914m | 5.9m/s | -38.5°C | 0% | 0hPa | 2.7V | 00:00:00 | 00:00:00 | 00:00:00 | |
| PETON7-10 | 2026-09-04 00:47:12 | 48.87708 | 17.81162 | 67° | 22km/h | 32886m | 5.9m/s | -38.3°C | 2.0% | 0hPa | 2.7V | 00:00:00 | 00:00:00 | 00:00:00 | |
| POL2MAQ | 2026-09-04 00:47:11 | 48.87705 | 17.81153 | 58° | 27km/h | 32879m | 7.4m/s | -38.3°C | 0.3% | 0hPa | 2.7V | 00:00:00 | 00:00:00 | 00:00:00 | |
| PG1ADW-2 | 2026-09-04 00:47:10 | 48.87701 | 17.81144 | 46° | 16km/h | 32872m | 7.3m/s | -38.2°C | 2.0% | 0hPa | 2.7V | 00:00:00 | 01:53:24 | 00:00:00 | |
| OE5MMP-10 | 2026-09-04 00:47:08 | 48.87691 | 17.81133 | 28° | 18km/h | 32860m | 5.7m/s | -38.2°C | 2.0% | 0hPa | 2.7V | 00:00:00 | 01:53:22 | 00:00:00 | |
| OE3OSB-13 | 2026-09-04 00:46:55 | 48.87657 | 17.81060 | 294° | 2km/h | 32765m | 6.6m/s | -37.8°C | 0.3% | -1.0hPa | 2.7V | 00:00:00 | 00:00:00 | 00:00:00 | |
| SP9KGR-15 | 2026-09-04 00:46:52 | 48.87656 | 17.81062 | 312° | 7km/h | 32759m | 6.4m/s | -37.9°C | 0.3% | 0hPa | 2.7V | 00:00:00 | 00:00:00 | 00:00:00 | |
| POL2MAQ | 2026-09-04 00:46:51 | 48.87652 | 17.81064 | 5° | 13km/h | 32746m | 5.9m/s | -37.9°C | 0.3% | 0hPa | 2.7V | 00:00:00 | 00:00:00 | 00:00:00 | |
| PG1ADW-2 | 2026-09-04 00:46:50 | 48.87649 | 17.81062 | 34° | 15km/h | 32740m | 6.6m/s | -37.9°C | 1.9% | 0hPa | 2.7V | 00:00:00 | 00:00:00 | 00:00:00 | |
| OE5DXL-15 | 2026-09-04 00:46:46 | 48.87642 | 17.81031 | 93° | 16km/h | 32713m | 5.2m/s | -38.0°C | 1.9% | 0hPa | 2.7V | 00:00:00 | 00:00:00 | 00:00:00 | |
| DO3MHA-11 | 2026-09-04 00:46:44 | 48.87643 | 17.81019 | 80° | 11km/h | 32701m | 7.3m/s | -38.1°C | 1.9% | 0hPa | 2.7V | 00:00:00 | 01:52:58 | 00:00:00 | |
| OE5DRO-10 | 2026-09-04 00:46:43 | 48.87642 | 17.81017 | 8° | 13km/h | 32693m | 8.0m/s | -38.1°C | 1.9% | 0hPa | 2.7V | 00:00:00 | 00:00:00 | 00:00:00 | |
| PETON7-10 | 2026-09-04 00:46:42 | 48.87640 | 17.81018 | 331° | 15km/h | 32685m | 7.3m/s | -38.1°C | 1.9% | 0hPa | 2.6V | 00:00:00 | 01:52:56 | 00:00:00 | |
| OE5MMP-10 | 2026-09-04 00:46:38 | 48.87630 | 17.81020 | 57° | 15km/h | 32658m | 6.3m/s | -38.2°C | 1.9% | 0hPa | 2.6V | 00:00:00 | 01:52:52 | 00:00:00 | |
| SP9KGR-15 | 2026-09-04 00:46:37 | 48.87629 | 17.81016 | 81° | 13km/h | 32652m | 5.9m/s | -38.3°C | 0.3% | 0hPa | 2.6V | 00:00:00 | 00:00:00 | 00:00:00 | |
| OK1ALN | 2026-09-04 00:46:36 | 48.87629 | 17.81016 | 81° | 13km/h | 32652m | 5.9m/s | -38.3°C | 0.3% | 0hPa | 2.6V | 00:00:00 | 00:00:00 | 00:00:00 | |
| DO3MHA-11 | 2026-09-04 00:46:34 | 48.87630 | 17.81002 | 120° | 18km/h | 32631m | 6.9m/s | -38.3°C | 1.9% | 0hPa | 2.6V | 00:00:00 | 01:52:48 | 00:00:00 | |
| S52SK | 2026-09-04 00:46:33 | 48.87630 | 17.81002 | 121° | 13km/h | 32631m | 6.9m/s | -38.3°C | 0.3% | 0hPa | 2.6V | 00:00:00 | 00:00:00 | 00:00:00 | |
| PG1ADW-2 | 2026-09-04 00:46:30 | 48.87638 | 17.80980 | 116° | 20km/h | 32603m | 7.9m/s | -38.3°C | 2.0% | 0hPa | 2.6V | 00:00:00 | 00:00:00 | 00:00:00 | |
| S52SK | 2026-09-04 00:46:29 | 48.87640 | 17.80973 | 112° | 22km/h | 32595m | 6.7m/s | -38.4°C | 0.3% | 0hPa | 2.6V | 00:00:00 | 00:00:00 | 00:00:00 | |
| OE5MMP-10 | 2026-09-04 00:46:28 | 48.87642 | 17.80966 | 110° | 22km/h | 32589m | 6.6m/s | -38.3°C | 2.0% | 0hPa | 2.6V | 00:00:00 | 01:52:42 | 00:00:00 | |
| PETON7-10 | 2026-09-04 00:46:27 | 48.87643 | 17.80960 | 110° | 18km/h | 32581m | 8.1m/s | -38.3°C | 2.0% | 0hPa | 2.6V | 00:00:00 | 00:00:00 | 00:00:00 | |
| OE3OSB-13 | 2026-09-04 00:46:24 | 48.87648 | 17.80952 | 137° | 13km/h | 32555m | 6.9m/s | -38.3°C | 0.3% | -1.0hPa | 2.7V | 00:00:00 | 00:00:00 | 00:00:00 | |
| NBG1-10 | 2026-09-04 00:46:23 | 48.87648 | 17.80952 | 138° | 18km/h | 32555m | 6.9m/s | -38.3°C | 1.9% | 0hPa | 2.7V | 00:00:00 | 01:52:37 | 00:00:00 | |
| SP9KGR-15 | 2026-09-04 00:46:21 | 48.87651 | 17.80947 | 135° | 22km/h | 32547m | 8.4m/s | -38.3°C | 0.3% | 0hPa | 2.7V | 00:00:00 | 00:00:00 | 00:00:00 | |
| OK1ALN | 2026-09-04 00:46:16 | 48.87679 | 17.80900 | 119° | 18km/h | 32505m | 5.8m/s | -38.4°C | 0.3% | 0hPa | 2.7V | 00:00:00 | 00:00:00 | 00:00:00 | |
| OE5MMP-10 | 2026-09-04 00:46:15 | 48.87680 | 17.80894 | 105° | 16km/h | 32499m | 6.5m/s | -38.3°C | 2.0% | 0hPa | 2.7V | 00:00:00 | 01:52:29 | 00:00:00 | |
| PETON7-10 | 2026-09-04 00:46:12 | 48.87679 | 17.80871 | 72° | 16km/h | 32476m | 6.4m/s | -38.2°C | 1.9% | 0hPa | 2.7V | 00:00:00 | 00:00:00 | 00:00:00 | |
| PG1ADW-2 | 2026-09-04 00:46:10 | 48.87675 | 17.80859 | 48° | 18km/h | 32462m | 8.2m/s | -38.2°C | 1.9% | 0hPa | 2.7V | 00:00:00 | 00:00:00 | 00:00:00 | |
| POL2MAQ | 2026-09-04 00:46:08 | 48.87673 | 17.80856 | 40° | 13km/h | 32454m | 7.1m/s | -38.3°C | 0.3% | 0hPa | 2.7V | 00:00:00 | 00:00:00 | 00:00:00 | |
| OE5MMP-10 | 2026-09-04 00:46:05 | 48.87670 | 17.80835 | 102° | 18km/h | 32425m | 7.2m/s | -38.2°C | 1.9% | 0hPa | 2.7V | 00:00:00 | 01:52:19 | 00:00:00 | |
| SP9KGR-15 | 2026-09-04 00:46:04 | 48.87670 | 17.80835 | 102° | 24km/h | 32425m | 7.2m/s | -38.3°C | 0.3% | 0hPa | 2.7V | 00:00:00 | 00:00:00 | 00:00:00 | |
| OE3OSB-13 | 2026-09-04 00:45:53 | 48.87655 | 17.80750 | 54° | 15km/h | 32336m | 7.2m/s | -39.2°C | 0.3% | -1.0hPa | 2.7V | 00:00:00 | 00:00:00 | 00:00:00 | |
| DO3MHA-11 | 2026-09-04 00:45:52 | 48.87655 | 17.80749 | 55° | 22km/h | 32336m | 7.1m/s | -39.1°C | 2.0% | 0hPa | 2.7V | 00:00:00 | 01:52:06 | 00:00:00 | |
| SP9KGR-15 | 2026-09-04 00:45:50 | 48.87650 | 17.80739 | 57° | 18km/h | 32324m | 5.4m/s | -39.2°C | 0.3% | 0hPa | 2.7V | 00:00:00 | 00:00:00 | 00:00:00 | |
| POL2MAQ | 2026-09-04 00:45:48 | 48.87644 | 17.80725 | 61° | 26km/h | 32309m | 7.7m/s | -39.3°C | 0.3% | 0hPa | 2.7V | 00:00:00 | 00:00:00 | 00:00:00 | |
| OE5DXL-15 | 2026-09-04 00:45:46 | 48.87636 | 17.80708 | 45° | 18km/h | 32296m | 6.4m/s | -39.4°C | 2.0% | 0hPa | 2.7V | 00:00:00 | 00:00:00 | 00:00:00 | |
| OE5MMP-10 | 2026-09-04 00:45:45 | 48.87631 | 17.80701 | 32° | 18km/h | 32289m | 7.7m/s | -39.5°C | 2.0% | 0hPa | 2.7V | 00:00:00 | 01:51:59 | 00:00:00 | |
| PETON7-10 | 2026-09-04 00:45:42 | 48.87615 | 17.80696 | 4° | 18km/h | 32269m | 5.0m/s | -39.6°C | 2.1% | 0hPa | 2.6V | 00:00:00 | 00:00:00 | 08:30:00 | |
| SP3BTT-10 | 2026-09-04 00:45:41 | 48.87611 | 17.80695 | 23° | 16km/h | 32263m | 6.5m/s | 0°C | 0% | 0hPa | 2.7V | 00:00:00 | 00:00:00 | 00:00:00 | |
| OE5MMP-10 | 2026-09-04 00:45:35 | 48.87611 | 17.80655 | 88° | 16km/h | 32223m | 7.3m/s | -39.8°C | 2.1% | 0hPa | 2.7V | 00:00:00 | 01:51:49 | 00:00:00 | |
| OK1ALN | 2026-09-04 00:45:34 | 48.87611 | 17.80655 | 89° | 18km/h | 32223m | 7.3m/s | -39.9°C | 0.3% | 0hPa | 2.7V | 00:00:00 | 00:00:00 | 00:00:00 | |
| SP9KGR-15 | 2026-09-04 00:45:33 | 48.87610 | 17.80649 | 76° | 15km/h | 32216m | 6.4m/s | -39.9°C | 0% | 0hPa | 2.7V | 00:00:00 | 00:00:00 | 00:00:00 | |
| DO3MHA-11 | 2026-09-04 00:45:32 | 48.87608 | 17.80637 | 68° | 16km/h | 32203m | 6.9m/s | -39.9°C | 2.1% | 0hPa | 2.7V | 00:00:00 | 01:51:46 | 00:00:00 | |
| PG1ADW-2 | 2026-09-04 00:45:30 | 48.87598 | 17.80614 | 37° | 15km/h | 32176m | 6.7m/s | -39.9°C | 2.1% | 0hPa | 2.7V | 00:00:00 | 00:00:00 | 00:00:00 | |
| PETON7-10 | 2026-09-04 00:45:27 | 48.87594 | 17.80610 | 22° | 16km/h | 32168m | 8.5m/s | -39.9°C | 2.1% | 0hPa | 2.7V | 00:00:00 | 00:00:00 | 00:00:00 | |
| GYPAP8-17 | 2026-09-04 00:45:26 | 48.87595 | 17.80610 | 23° | 18km/h | 32168m | 8.5m/s | -40.0°C | 0.3% | 0hPa | 2.7V | 00:00:00 | 00:00:00 | 00:00:00 | |
| OE5MMP-10 | 2026-09-04 00:45:23 | 48.87582 | 17.80605 | 65° | 16km/h | 32142m | 7.8m/s | -39.9°C | 2.1% | 0hPa | 2.7V | 00:00:00 | 01:51:37 | 00:00:00 | |
| OE3OSB-13 | 2026-09-04 00:45:22 | 48.87582 | 17.80594 | 103° | 20km/h | 32127m | 5.9m/s | -40.0°C | 0.3% | -1.0hPa | 2.7V | 00:00:00 | 00:00:00 | 00:00:00 | |
| OE5DXL-15 | 2026-09-04 00:45:17 | 48.87580 | 17.80564 | 27° | 13km/h | 32094m | 6.9m/s | -40.0°C | 2.1% | 0hPa | 2.7V | 00:00:00 | 00:00:00 | 00:00:00 | |
| OK1ALN | 2026-09-04 00:45:14 | 48.87572 | 17.80558 | 31° | 16km/h | 32080m | 7.9m/s | -40.1°C | 0.3% | 0hPa | 2.7V | 00:00:00 | 00:00:00 | 00:00:00 | |
| DO3MHA-11 | 2026-09-04 00:45:12 | 48.87566 | 17.80551 | 46° | 11km/h | 32066m | 5.5m/s | -40.1°C | 2.1% | 0hPa | 2.7V | 00:00:00 | 01:51:26 | 00:00:00 | |
| PG1ADW-2 | 2026-09-04 00:45:09 | 48.87562 | 17.80547 | 335° | 13km/h | 32046m | 7.1m/s | -40.1°C | 2.1% | 0hPa | 2.7V | 00:00:00 | 00:00:00 | 00:00:00 | |
| OE5DRO-10 | 2026-09-04 00:45:07 | 48.87561 | 17.80546 | 61° | 13km/h | 32033m | 5.4m/s | -40.0°C | 2.1% | 0hPa | 2.7V | 00:00:00 | 00:00:00 | 00:00:00 | |
| POL2MAQ | 2026-09-04 00:45:06 | 48.87561 | 17.80546 | 61° | 5km/h | 32033m | 5.5m/s | -40.1°C | 0.3% | 0hPa | 2.7V | 00:00:00 | 00:00:00 | 00:00:00 | |
| OE3OSB-13 | 2026-09-04 00:44:50 | 48.87542 | 17.80476 | 104° | 13km/h | 31918m | 6.6m/s | -40.0°C | 0.3% | -1.0hPa | 2.7V | 00:00:00 | 00:00:00 | 00:00:00 | |
| PG1ADW-2 | 2026-09-04 00:44:49 | 48.87542 | 17.80469 | 96° | 20km/h | 31910m | 8.7m/s | -40.0°C | 2.1% | 0hPa | 2.7V | 00:00:00 | 00:00:00 | 00:00:00 | |
| OE5DRO-10 | 2026-09-04 00:44:48 | 48.87542 | 17.80460 | 88° | 20km/h | 31903m | 7.3m/s | -40.0°C | 2.1% | 0hPa | 2.6V | 00:00:00 | 00:00:00 | 08:30:00 | |
| POL2MAQ | 2026-09-04 00:44:46 | 48.87541 | 17.80440 | 80° | 26km/h | 31890m | 6.0m/s | -40.1°C | 0.3% | 0hPa | 2.7V | 00:00:00 | 00:00:00 | 00:00:00 | |
| OE5MMP-10 | 2026-09-04 00:44:45 | 48.87540 | 17.80432 | 77° | 15km/h | 31883m | 7.9m/s | -40.1°C | 2.1% | 0hPa | 2.7V | 00:00:00 | 01:50:59 | 00:00:00 | |
| PETON7-10 | 2026-09-04 00:44:42 | 48.87538 | 17.80418 | 99° | 22km/h | 31862m | 6.3m/s | -40.2°C | 2.1% | 0hPa | 2.7V | 00:00:00 | 00:00:00 | 00:00:00 | |
| OK1SLM-15 | 2026-09-04 00:44:40 | 48.87539 | 17.80415 | 105° | 11km/h | 31856m | 7.3m/s | -40.3°C | 0% | 0hPa | 2.7V | 00:00:00 | 00:00:00 | 00:00:00 | |
| S52SK | 2026-09-04 00:44:36 | 48.87542 | 17.80391 | 94° | 16km/h | 31831m | 7.3m/s | -40.4°C | 0.3% | 0hPa | 2.7V | 00:00:00 | 00:00:00 | 00:00:00 | |
| OE5MMP-10 | 2026-09-04 00:44:35 | 48.87541 | 17.80380 | 87° | 26km/h | 31817m | 6.1m/s | -40.5°C | 2.1% | 0hPa | 2.7V | 00:00:00 | 01:50:49 | 00:00:00 | |
| OK1SLM-15 | 2026-09-04 00:44:34 | 48.87541 | 17.80380 | 88° | 13km/h | 31817m | 6.2m/s | -40.5°C | 0% | 0hPa | 2.7V | 00:00:00 | 00:00:00 | 00:00:00 | |
| DO3MHA-11 | 2026-09-04 00:44:32 | 48.87543 | 17.80358 | 103° | 22km/h | 31799m | 7.8m/s | -40.6°C | 2.2% | 0hPa | 2.7V | 00:00:00 | 01:50:46 | 00:00:00 | |
| SP9KGR-15 | 2026-09-04 00:44:31 | 48.87543 | 17.80358 | 103° | 29km/h | 31799m | 7.9m/s | 0°C | 0% | 0hPa | 2.7V | 00:00:00 | 00:00:00 | 00:00:00 | |
| S52SK | 2026-09-04 00:44:30 | 48.87545 | 17.80346 | 104° | 35km/h | 31791m | 8.1m/s | -40.6°C | 0.3% | 0hPa | 2.7V | 00:00:00 | 00:00:00 | 00:00:00 | |
| OE5DRO-10 | 2026-09-04 00:44:29 | 48.87549 | 17.80318 | 102° | 22km/h | 31778m | 4.5m/s | -40.6°C | 2.2% | 0hPa | 2.7V | 00:00:00 | 00:00:00 | 00:00:00 | |
| PETON7-10 | 2026-09-04 00:44:27 | 48.87551 | 17.80297 | 92° | 22km/h | 31766m | 8.2m/s | -40.6°C | 2.2% | 0hPa | 2.7V | 00:00:00 | 01:50:41 | 00:00:00 | |
| OE5MMP-10 | 2026-09-04 00:44:25 | 48.87549 | 17.80289 | 31° | 22km/h | 31752m | 5.7m/s | -40.6°C | 2.2% | 0hPa | 2.7V | 00:00:00 | 01:50:39 | 00:00:00 | |
| POL2MAQ | 2026-09-04 00:44:24 | 48.87549 | 17.80289 | 31° | 7km/h | 31752m | 5.7m/s | -40.6°C | 0.4% | 0hPa | 2.7V | 00:00:00 | 00:00:00 | 00:00:00 | |
| DO3MHA-11 | 2026-09-04 00:44:22 | 48.87542 | 17.80280 | 58° | 27km/h | 31733m | 6.8m/s | -40.6°C | 2.2% | 0hPa | 2.7V | 00:00:00 | 01:50:36 | 00:00:00 | |
| OE3OSB-13 | 2026-09-04 00:44:19 | 48.87533 | 17.80252 | 61° | 31km/h | 31713m | 7.3m/s | -40.7°C | 0.3% | -1.0hPa | 2.7V | 00:00:00 | 00:00:00 | 00:00:00 | |
| OE5MMP-10 | 2026-09-04 00:44:15 | 48.87524 | 17.80211 | 94° | 20km/h | 31687m | 7.6m/s | -40.8°C | 2.2% | 0hPa | 2.7V | 00:00:00 | 01:50:29 | 00:00:00 | |
| PETON7-10 | 2026-09-04 00:44:12 | 48.87531 | 17.80184 | 129° | 22km/h | 31666m | 5.9m/s | -41.0°C | 2.2% | 0hPa | 2.7V | 00:00:00 | 00:00:00 | 00:00:00 | |
| OE5DRO-10 | 2026-09-04 00:44:10 | 48.87535 | 17.80178 | 98° | 20km/h | 31652m | 6.7m/s | -41.1°C | 2.3% | 0hPa | 2.7V | 00:00:00 | 00:00:00 | 00:00:00 | |
| PG1ADW-2 | 2026-09-04 00:44:09 | 48.87534 | 17.80177 | 15° | 22km/h | 31646m | 4.8m/s | -41.1°C | 2.2% | 0hPa | 2.7V | 00:00:00 | 00:00:00 | 00:00:00 | |
| POL2MAQ | 2026-09-04 00:44:05 | 48.87514 | 17.80151 | 56° | 44km/h | 31619m | 7.0m/s | -41.1°C | 0.4% | 0hPa | 2.7V | 00:00:00 | 00:00:00 | 00:00:00 | |
| DO3MHA-11 | 2026-09-04 00:44:02 | 48.87497 | 17.80111 | 56° | 15km/h | 31601m | 6.9m/s | -41.0°C | 2.2% | 0hPa | 2.7V | 00:00:00 | 01:50:16 | 00:00:00 | |
| SP9KGR-15 | 2026-09-04 00:43:59 | 48.87492 | 17.80097 | 82° | 9km/h | 31589m | 6.3m/s | 0°C | 0% | 0hPa | 2.7V | 00:00:00 | 00:00:00 | 00:00:00 | |
| PETON7-10 | 2026-09-04 00:43:57 | 48.87497 | 17.80093 | 179° | 16km/h | 31567m | 5.1m/s | -41.1°C | 2.2% | 0hPa | 2.7V | 00:00:00 | 00:00:00 | 00:00:00 | |
| OE5MMP-10 | 2026-09-04 00:43:55 | 48.87499 | 17.80094 | 334° | 18km/h | 31557m | 7.2m/s | -41.2°C | 2.2% | 0hPa | 2.7V | 00:00:00 | 01:50:09 | 00:00:00 | |
| OK1ALN | 2026-09-04 00:43:52 | 48.87486 | 17.80089 | 27° | 31km/h | 31536m | 5.9m/s | -41.4°C | 0.4% | 0hPa | 2.7V | 00:00:00 | 00:00:00 | 00:00:00 | |
| OE5DRO-10 | 2026-09-04 00:43:51 | 48.87480 | 17.80082 | 38° | 16km/h | 31530m | 7.0m/s | -41.4°C | 2.3% | 0hPa | 2.7V | 00:00:00 | 00:00:00 | 00:00:00 | |
| PG1ADW-2 | 2026-09-04 00:43:49 | 48.87470 | 17.80066 | 60° | 15km/h | 31519m | 3.7m/s | -41.5°C | 2.3% | 0hPa | 2.6V | 00:00:00 | 00:00:00 | 00:00:00 | |
| SP3BTT-10 | 2026-09-04 00:43:48 | 48.87468 | 17.80060 | 67° | 18km/h | 31514m | 5.1m/s | 0°C | 0% | 0hPa | 2.7V | 00:00:00 | 00:00:00 | 00:00:00 | |
| GYPAP8-17 | 2026-09-04 00:43:46 | 48.87467 | 17.80057 | 238° | 5km/h | 31500m | 8.2m/s | -41.6°C | 0.4% | 0hPa | 2.7V | 00:00:00 | 00:00:00 | 00:00:00 | |
| OE5MMP-10 | 2026-09-04 00:43:45 | 48.87469 | 17.80060 | 236° | 15km/h | 31492m | 6.2m/s | -41.6°C | 2.3% | 0hPa | 2.7V | 00:00:00 | 01:49:59 | 00:00:00 | |
| SQ9EZE-14 | 2026-09-04 00:43:43 | 48.87474 | 17.80069 | 219° | 18km/h | 31480m | 7.2m/s | 0°C | 0% | 0hPa | 2.7V | 00:00:00 | 00:00:00 | 00:00:00 | |
| PETON7-10 | 2026-09-04 00:43:42 | 48.87478 | 17.80073 | 204° | 16km/h | 31473m | 6.4m/s | -41.7°C | 2.3% | 0hPa | 2.7V | 00:00:00 | 01:49:56 | 00:00:00 | |
| OK1SLM-15 | 2026-09-04 00:43:38 | 48.87477 | 17.80069 | 30° | 18km/h | 31446m | 7.2m/s | -41.8°C | 0% | 0hPa | 2.7V | 00:00:00 | 00:00:00 | 00:00:00 | |
| OE5MMP-10 | 2026-09-04 00:43:35 | 48.87464 | 17.80052 | 55° | 18km/h | 31428m | 6.6m/s | -41.7°C | 2.3% | 0hPa | 2.7V | 00:00:00 | 01:49:49 | 08:30:00 | |
| DO3MHA-11 | 2026-09-04 00:43:33 | 48.87462 | 17.80038 | 112° | 18km/h | 31416m | 4.9m/s | -41.8°C | 2.3% | 0hPa | 2.7V | 00:00:00 | 01:49:47 | 00:00:00 | |
| OE5DRO-10 | 2026-09-04 00:43:32 | 48.87464 | 17.80035 | 153° | 16km/h | 31411m | 6.4m/s | -41.8°C | 2.3% | 0hPa | 2.6V | 00:00:00 | 00:00:00 | 00:00:00 | |
| OK1ALN | 2026-09-04 00:43:31 | 48.87464 | 17.80035 | 153° | 13km/h | 31411m | 6.4m/s | -41.8°C | 0.4% | 0hPa | 2.6V | 00:00:00 | 00:00:00 | 00:00:00 | |
| PG1ADW-2 | 2026-09-04 00:43:29 | 48.87476 | 17.80042 | 223° | 16km/h | 31388m | 5.5m/s | -41.8°C | 2.3% | 0hPa | 2.6V | 00:00:00 | 00:00:00 | 00:00:00 | |
| PETON7-10 | 2026-09-04 00:43:27 | 48.87485 | 17.80052 | 203° | 15km/h | 31378m | 5.6m/s | -41.8°C | 2.3% | 0hPa | 2.6V | 00:00:00 | 00:00:00 | 08:30:00 | |
| OK1SLM-15 | 2026-09-04 00:43:26 | 48.87485 | 17.80052 | 203° | 18km/h | 31378m | 5.7m/s | -41.8°C | 0% | 0hPa | 2.6V | 00:00:00 | 00:00:00 | 00:00:00 | |
| OE5MMP-10 | 2026-09-04 00:43:25 | 48.87492 | 17.80050 | 135° | 16km/h | 31365m | 6.4m/s | -41.8°C | 2.3% | 0hPa | 2.6V | 00:00:00 | 01:49:39 | 00:00:00 | |
| DO3MHA-11 | 2026-09-04 00:43:23 | 48.87496 | 17.80036 | 97° | 15km/h | 31353m | 6.8m/s | -41.7°C | 2.3% | 0hPa | 2.6V | 00:00:00 | 01:49:37 | 00:00:00 | |
| OE3OSB-13 | 2026-09-04 00:43:17 | 48.87496 | 17.80001 | 119° | 13km/h | 31315m | 5.9m/s | -41.8°C | 0.4% | -1.0hPa | 2.6V | 00:00:00 | 00:00:00 | 00:00:00 | |
| OE5DXL-15 | 2026-09-04 00:43:16 | 48.87498 | 17.79997 | 132° | 20km/h | 31309m | 5.7m/s | -41.7°C | 2.3% | 0hPa | 2.6V | 00:00:00 | 00:00:00 | 00:00:00 | |
| OE5DRO-10 | 2026-09-04 00:43:13 | 48.87504 | 17.79993 | 189° | 20km/h | 31288m | 5.2m/s | -41.6°C | 2.3% | 0hPa | 2.7V | 00:00:00 | 00:00:00 | 00:00:00 | |
| PETON7-10 | 2026-09-04 00:43:12 | 48.87507 | 17.79993 | 183° | 20km/h | 31283m | 4.8m/s | -41.6°C | 2.3% | 0hPa | 2.7V | 00:00:00 | 00:00:00 | 00:00:00 | |
| OE5MMP-10 | 2026-09-04 00:43:10 | 48.87517 | 17.79992 | 165° | 18km/h | 31269m | 7.7m/s | -41.6°C | 2.3% | 0hPa | 2.7V | 00:00:00 | 01:49:24 | 00:00:00 | |
| PG1ADW-2 | 2026-09-04 00:43:09 | 48.87523 | 17.79988 | 157° | 22km/h | 31262m | 6.0m/s | -41.6°C | 2.3% | 0hPa | 2.7V | 00:00:00 | 01:49:23 | 00:00:00 | |
| HA6NAB-11 | 2026-09-04 00:43:07 | 48.87528 | 17.79984 | 149° | 24km/h | 31256m | 5.8m/s | -41.7°C | 0.4% | 0hPa | 2.7V | 00:00:00 | 00:00:00 | 00:00:00 | |
| DO3MHA-11 | 2026-09-04 00:43:03 | 48.87542 | 17.79962 | 141° | 24km/h | 31223m | 7.5m/s | -41.6°C | 2.3% | 0hPa | 2.7V | 00:00:00 | 01:49:17 | 08:30:00 | |
| HA6NAB-11 | 2026-09-04 00:43:01 | 48.87546 | 17.79959 | 158° | 18km/h | 31216m | 6.7m/s | -41.7°C | 0.4% | 0hPa | 2.6V | 00:00:00 | 00:00:00 | 00:00:00 | |
| OE5MMP-10 | 2026-09-04 00:43:00 | 48.87556 | 17.79957 | 188° | 27km/h | 31204m | 6.5m/s | -41.7°C | 2.3% | 0hPa | 2.6V | 00:00:00 | 01:49:14 | 00:00:00 | |
| PETON7-10 | 2026-09-04 00:42:57 | 48.87572 | 17.79966 | 200° | 26km/h | 31183m | 5.3m/s | -41.7°C | 2.3% | 0hPa | 2.6V | 00:00:00 | 01:49:11 | 00:00:00 | |
| HA6NAB-11 | 2026-09-04 00:42:55 | 48.87578 | 17.79968 | 188° | 26km/h | 31177m | 6.4m/s | -41.8°C | 0.4% | 0hPa | 2.6V | 00:00:00 | 00:00:00 | 00:00:00 | |
| OE5DRO-10 | 2026-09-04 00:42:54 | 48.87592 | 17.79965 | 158° | 27km/h | 31162m | 6.6m/s | -41.7°C | 2.3% | 0hPa | 2.6V | 00:00:00 | 00:00:00 | 00:00:00 | |
| DO3MHA-11 | 2026-09-04 00:42:53 | 48.87600 | 17.79959 | 147° | 26km/h | 31156m | 5.6m/s | -41.8°C | 2.3% | 0hPa | 2.6V | 00:00:00 | 01:49:07 | 00:00:00 | |
| OE5MMP-10 | 2026-09-04 00:42:50 | 48.87614 | 17.79937 | 125° | 22km/h | 31136m | 6.5m/s | -41.7°C | 2.3% | 0hPa | 2.6V | 00:00:00 | 01:49:04 | 00:00:00 | |
| PG1ADW-2 | 2026-09-04 00:42:49 | 48.87617 | 17.79931 | 129° | 26km/h | 31130m | 5.0m/s | -41.7°C | 2.3% | 0hPa | 2.6V | 00:00:00 | 00:00:00 | 08:30:00 | |
| OE5DXL-15 | 2026-09-04 00:42:46 | 48.87630 | 17.79917 | 159° | 27km/h | 31109m | 6.7m/s | -41.7°C | 2.3% | 0hPa | 2.6V | 00:00:00 | 00:00:00 | 00:00:00 | |
| DO3MHA-11 | 2026-09-04 00:42:43 | 48.87649 | 17.79909 | 164° | 27km/h | 31090m | 7.9m/s | -41.8°C | 2.3% | 0hPa | 2.6V | 00:00:00 | 01:48:57 | 00:00:00 | |
| SP3BTT-10 | 2026-09-04 00:42:42 | 48.87654 | 17.79906 | 155° | 31km/h | 31083m | 5.9m/s | 0°C | 0% | 0hPa | 2.6V | 00:00:00 | 00:00:00 | 00:00:00 | |
| OE5MMP-10 | 2026-09-04 00:42:40 | 48.87664 | 17.79895 | 140° | 29km/h | 31071m | 6.8m/s | -41.8°C | 2.4% | 0hPa | 2.6V | 00:00:00 | 01:48:54 | 00:00:00 | |
| HA6NAB-11 | 2026-09-04 00:42:37 | 48.87676 | 17.79878 | 132° | 37km/h | 31056m | 6.5m/s | -41.9°C | 0.4% | 0hPa | 2.6V | 00:00:00 | 00:00:00 | 00:00:00 | |
| OE5DRO-10 | 2026-09-04 00:42:35 | 48.87690 | 17.79847 | 117° | 27km/h | 31035m | 7.6m/s | -41.9°C | 2.4% | 0hPa | 2.6V | 00:00:00 | 00:00:00 | 00:00:00 | |
| DO3MHA-11 | 2026-09-04 00:42:33 | 48.87696 | 17.79831 | 126° | 29km/h | 31023m | 5.4m/s | -42.0°C | 2.4% | 0hPa | 2.6V | 00:00:00 | 01:48:47 | 00:00:00 | |
| OK1ALN | 2026-09-04 00:42:30 | 48.87710 | 17.79810 | 141° | 31km/h | 31003m | 5.3m/s | -42.0°C | 0.4% | 0hPa | 2.6V | 00:00:00 | 00:00:00 | 00:00:00 | |
| PG1ADW-2 | 2026-09-04 00:42:29 | 48.87716 | 17.79803 | 137° | 29km/h | 30998m | 6.1m/s | -42.0°C | 2.4% | 0hPa | 2.6V | 00:00:00 | 00:00:00 | 00:00:00 | |
| PETON7-10 | 2026-09-04 00:42:27 | 48.87725 | 17.79786 | 124° | 29km/h | 30983m | 7.1m/s | -42.0°C | 2.4% | 0hPa | 2.6V | 00:00:00 | 00:00:00 | 00:00:00 | |
| POL2MAQ | 2026-09-04 00:42:23 | 48.87745 | 17.79744 | 132° | 38km/h | 30956m | 6.2m/s | -41.9°C | 0.4% | 0hPa | 2.6V | 00:00:00 | 00:00:00 | 00:00:00 | |
| S52SK | 2026-09-04 00:42:21 | 48.87751 | 17.79733 | 132° | 37km/h | 30950m | 4.5m/s | -41.8°C | 0.4% | 0hPa | 2.6V | 00:00:00 | 00:00:00 | 00:00:00 | |
| OE5MMP-10 | 2026-09-04 00:42:20 | 48.87761 | 17.79714 | 125° | 26km/h | 30938m | 8.7m/s | -41.7°C | 2.4% | 0hPa | 2.6V | 00:00:00 | 01:48:34 | 00:00:00 | |
| OK1SLM-15 | 2026-09-04 00:42:17 | 48.87769 | 17.79693 | 126° | 20km/h | 30918m | 6.4m/s | -41.6°C | 0% | 0hPa | 2.6V | 00:00:00 | 00:00:00 | 00:00:00 | |
| OE5DRO-10 | 2026-09-04 00:42:16 | 48.87772 | 17.79687 | 132° | 31km/h | 30910m | 8.2m/s | -41.5°C | 2.3% | 0hPa | 2.6V | 00:00:00 | 00:00:00 | 00:00:00 | |
| OE3OSB-13 | 2026-09-04 00:42:15 | 48.87777 | 17.79680 | 135° | 27km/h | 30903m | 6.2m/s | -41.6°C | 0.4% | -1.0hPa | 2.6V | 00:00:00 | 00:00:00 | 00:00:00 | |
| DO3MHA-11 | 2026-09-04 00:42:13 | 48.87787 | 17.79662 | 127° | 33km/h | 30891m | 6.4m/s | -41.5°C | 2.3% | 0hPa | 2.6V | 00:00:00 | 01:48:27 | 00:00:00 | |
| PETON7-10 | 2026-09-04 00:42:12 | 48.87791 | 17.79653 | 119° | 31km/h | 30884m | 7.9m/s | -41.4°C | 2.3% | 0hPa | 2.6V | 00:00:00 | 01:48:26 | 00:00:00 | |
| OK1SLM-15 | 2026-09-04 00:42:11 | 48.87791 | 17.79653 | 119° | 29km/h | 30884m | 8.0m/s | -41.5°C | 0% | 0hPa | 2.6V | 00:00:00 | 00:00:00 | 00:00:00 | |
| OE5MMP-10 | 2026-09-04 00:42:10 | 48.87796 | 17.79631 | 107° | 31km/h | 30870m | 6.4m/s | -41.4°C | 2.3% | 0hPa | 2.6V | 00:00:00 | 01:48:24 | 00:00:00 | |
| OK1ALN | 2026-09-04 00:42:09 | 48.87799 | 17.79618 | 108° | 37km/h | 30863m | 7.9m/s | -41.4°C | 0.4% | 0hPa | 2.6V | 00:00:00 | 00:00:00 | 00:00:00 | |
| OK1SLM-15 | 2026-09-04 00:42:06 | 48.87805 | 17.79590 | 109° | 38km/h | 30849m | 5.1m/s | -41.4°C | 0% | 0hPa | 2.6V | 00:00:00 | 00:00:00 | 00:00:00 | |
| DO3MHA-11 | 2026-09-04 00:42:03 | 48.87812 | 17.79544 | 96° | 29km/h | 30822m | 6.0m/s | -41.4°C | 2.3% | 0hPa | 2.6V | 00:00:00 | 01:48:17 | 00:00:00 | |
| POL2MAQ | 2026-09-04 00:42:01 | 48.87812 | 17.79535 | 103° | 26km/h | 30816m | 5.4m/s | -41.5°C | 0.4% | 0hPa | 2.6V | 00:00:00 | 00:00:00 | 00:00:00 | |
| OE5MMP-10 | 2026-09-04 00:42:00 | 48.87817 | 17.79515 | 118° | 33km/h | 30802m | 7.6m/s | -41.5°C | 2.3% | 0hPa | 2.6V | 00:00:00 | 01:48:14 | 08:30:00 | |
| PETON7-10 | 2026-09-04 00:41:57 | 48.87828 | 17.79482 | 109° | 33km/h | 30783m | 7.6m/s | -41.5°C | 2.3% | 0hPa | 2.7V | 00:00:00 | 00:00:00 | 00:00:00 | |
| DO3MHA-11 | 2026-09-04 00:41:53 | 48.87827 | 17.79434 | 83° | 33km/h | 30756m | 7.1m/s | -41.5°C | 2.2% | 0hPa | 2.6V | 00:00:00 | 01:48:07 | 00:00:00 | |
| OE5MMP-10 | 2026-09-04 00:41:50 | 48.87826 | 17.79393 | 88° | 38km/h | 30737m | 5.5m/s | -41.7°C | 2.3% | 0hPa | 2.6V | 00:00:00 | 01:48:04 | 00:00:00 | |
| PG1ADW-2 | 2026-09-04 00:41:49 | 48.87825 | 17.79381 | 85° | 38km/h | 30730m | 8.2m/s | -41.7°C | 2.3% | 0hPa | 2.6V | 00:00:00 | 01:48:03 | 00:00:00 | |
| OK1ALN | 2026-09-04 00:41:48 | 48.87824 | 17.79370 | 82° | 27km/h | 30722m | 7.4m/s | -41.8°C | 0.4% | 0hPa | 2.7V | 00:00:00 | 00:00:00 | 00:00:00 | |
| GYPAP8-17 | 2026-09-04 00:41:47 | 48.87824 | 17.79370 | 82° | 27km/h | 30722m | 7.4m/s | -41.8°C | 0.4% | 0hPa | 2.7V | 00:00:00 | 00:00:00 | 00:00:00 | |
| OE5DXL-15 | 2026-09-04 00:41:46 | 48.87823 | 17.79348 | 89° | 38km/h | 30711m | 5.5m/s | -41.8°C | 2.3% | 0hPa | 2.7V | 00:00:00 | 00:00:00 | 00:00:00 | |
| OE3OSB-13 | 2026-09-04 00:41:44 | 48.87824 | 17.79321 | 100° | 40km/h | 30697m | 8.3m/s | -41.9°C | 0.4% | -1.0hPa | 2.6V | 00:00:00 | 00:00:00 | 00:00:00 | |
| DO3MHA-11 | 2026-09-04 00:41:43 | 48.87827 | 17.79305 | 103° | 44km/h | 30689m | 6.6m/s | -41.9°C | 2.3% | 0hPa | 2.6V | 00:00:00 | 01:47:57 | 00:00:00 | |
| POL2MAQ | 2026-09-04 00:41:42 | 48.87829 | 17.79287 | 100° | 49km/h | 30683m | 5.5m/s | -42.0°C | 0.4% | 0hPa | 2.6V | 00:00:00 | 00:00:00 | 00:00:00 | |
| OE5MMP-10 | 2026-09-04 00:41:40 | 48.87830 | 17.79251 | 87° | 37km/h | 30671m | 7.7m/s | -41.9°C | 2.3% | 0hPa | 2.6V | 00:00:00 | 01:47:54 | 00:00:00 | |
| OE5DRO-10 | 2026-09-04 00:41:38 | 48.87826 | 17.79218 | 74° | 37km/h | 30657m | 5.3m/s | -42.0°C | 2.3% | 0hPa | 2.6V | 00:00:00 | 00:00:00 | 00:00:00 | |
| DO3MHA-11 | 2026-09-04 00:41:33 | 48.87816 | 17.79141 | 85° | 35km/h | 30625m | 5.6m/s | -42.1°C | 2.4% | 0hPa | 2.6V | 00:00:00 | 01:47:47 | 08:30:00 | |
| PG1ADW-2 | 2026-09-04 00:41:29 | 48.87810 | 17.79094 | 79° | 37km/h | 30597m | 5.6m/s | -42.2°C | 2.4% | 0hPa | 2.7V | 00:00:00 | 00:00:00 | 00:00:00 | |
| PETON7-10 | 2026-09-04 00:41:27 | 48.87808 | 17.79069 | 91° | 37km/h | 30583m | 7.5m/s | -42.2°C | 2.4% | 0hPa | 2.7V | 00:00:00 | 01:47:41 | 00:00:00 | |
| DO3MHA-11 | 2026-09-04 00:41:23 | 48.87804 | 17.79010 | 67° | 40km/h | 30557m | 7.9m/s | -42.3°C | 2.4% | 0hPa | 2.7V | 00:00:00 | 01:47:37 | 00:00:00 | |
| POL2MAQ | 2026-09-04 00:41:20 | 48.87794 | 17.78986 | 55° | 38km/h | 30544m | 5.3m/s | -42.4°C | 0.4% | 0hPa | 2.7V | 00:00:00 | 00:00:00 | 00:00:00 | |
| OE5DRO-10 | 2026-09-04 00:41:19 | 48.87783 | 17.78960 | 63° | 37km/h | 30530m | 7.6m/s | -42.3°C | 2.4% | 0hPa | 2.7V | 00:00:00 | 00:00:00 | 00:00:00 | |
| OE5MMP-10 | 2026-09-04 00:41:17 | 48.87775 | 17.78933 | 69° | 35km/h | 30517m | 5.6m/s | -42.2°C | 2.4% | 0hPa | 2.7V | 00:00:00 | 01:47:31 | 00:00:00 | |
| OE5DXL-15 | 2026-09-04 00:41:16 | 48.87772 | 17.78920 | 68° | 31km/h | 30511m | 7.0m/s | -42.2°C | 2.4% | 0hPa | 2.7V | 00:00:00 | 00:00:00 | 00:00:00 | |
| OE3OSB-13 | 2026-09-04 00:41:13 | 48.87763 | 17.78889 | 70° | 27km/h | 30489m | 6.0m/s | -42.2°C | 0.4% | -1.0hPa | 2.7V | 00:00:00 | 00:00:00 | 00:00:00 | |
| PETON7-10 | 2026-09-04 00:41:12 | 48.87761 | 17.78878 | 77° | 35km/h | 30483m | 7.2m/s | -42.2°C | 2.4% | 0hPa | 2.7V | 00:00:00 | 00:00:00 | 08:30:00 | |
| PG1ADW-2 | 2026-09-04 00:41:09 | 48.87755 | 17.78838 | 71° | 31km/h | 30463m | 5.5m/s | -42.3°C | 2.4% | 0hPa | 2.6V | 00:00:00 | 00:00:00 | 00:00:00 | |
| OE5MMP-10 | 2026-09-04 00:41:07 | 48.87745 | 17.78812 | 51° | 33km/h | 30448m | 7.7m/s | -42.3°C | 2.4% | 0hPa | 2.6V | 00:00:00 | 01:47:21 | 00:00:00 | |
| OK1ALN | 2026-09-04 00:41:06 | 48.87745 | 17.78812 | 51° | 42km/h | 30448m | 7.7m/s | -42.3°C | 0.4% | 0hPa | 2.6V | 00:00:00 | 00:00:00 | 00:00:00 | |
| DO3MHA-11 | 2026-09-04 00:41:03 | 48.87716 | 17.78767 | 55° | 27km/h | 30421m | 7.1m/s | -42.3°C | 2.4% | 0hPa | 2.6V | 00:00:00 | 01:47:17 | 00:00:00 | |
| OE5DRO-10 | 2026-09-04 00:41:00 | 48.87706 | 17.78738 | 63° | 24km/h | 30402m | 7.4m/s | -42.2°C | 2.4% | 0hPa | 2.6V | 00:00:00 | 00:00:00 | 00:00:00 | |
| PETON7-10 | 2026-09-04 00:40:57 | 48.87698 | 17.78717 | 69° | 24km/h | 30381m | 5.7m/s | -42.2°C | 2.4% | 0hPa | 2.6V | 00:00:00 | 00:00:00 | 00:00:00 | |
| OK1SLM-15 | 2026-09-04 00:40:54 | 48.87695 | 17.78698 | 85° | 29km/h | 30366m | 8.0m/s | -42.2°C | 0% | 0hPa | 2.6V | 00:00:00 | 00:00:00 | 00:00:00 | |
| DO3MHA-11 | 2026-09-04 00:40:53 | 48.87693 | 17.78673 | 79° | 22km/h | 30352m | 6.6m/s | -42.1°C | 2.4% | 0hPa | 2.6V | 00:00:00 | 01:47:07 | 00:00:00 | |
| PG1ADW-2 | 2026-09-04 00:40:49 | 48.87682 | 17.78634 | 68° | 16km/h | 30327m | 6.1m/s | -42.1°C | 2.4% | 0hPa | 2.6V | 00:00:00 | 00:00:00 | 00:00:00 | |
| OK1SLM-15 | 2026-09-04 00:40:48 | 48.87683 | 17.78634 | 68° | 20km/h | 30327m | 6.1m/s | -42.2°C | 0% | 0hPa | 2.7V | 00:00:00 | 00:00:00 | 00:00:00 | |
| OE5MMP-10 | 2026-09-04 00:40:47 | 48.87681 | 17.78621 | 93° | 18km/h | 30313m | 6.9m/s | -42.1°C | 2.3% | 0hPa | 2.7V | 00:00:00 | 01:47:01 | 00:00:00 | |
| OE5DXL-15 | 2026-09-04 00:40:46 | 48.87681 | 17.78614 | 92° | 13km/h | 30306m | 5.7m/s | -42.1°C | 2.4% | 0hPa | 2.7V | 00:00:00 | 00:00:00 | 00:00:00 | |
| DO3MHA-11 | 2026-09-04 00:40:43 | 48.87677 | 17.78595 | 52° | 16km/h | 30285m | 7.0m/s | -42.1°C | 2.4% | 0hPa | 2.7V | 00:00:00 | 01:46:57 | 00:00:00 | |
| PETON7-10 | 2026-09-04 00:40:42 | 48.87673 | 17.78588 | 51° | 13km/h | 30278m | 6.3m/s | -42.1°C | 2.4% | 0hPa | 2.7V | 00:00:00 | 01:46:56 | 00:00:00 | |
| OE5DRO-10 | 2026-09-04 00:40:41 | 48.87670 | 17.78582 | 56° | 11km/h | 30272m | 7.1m/s | -42.1°C | 2.4% | 0hPa | 2.7V | 00:00:00 | 00:00:00 | 00:00:00 | |
| POL2MAQ | 2026-09-04 00:40:39 | 48.87667 | 17.78574 | 63° | 22km/h | 30264m | 7.4m/s | -42.2°C | 0.4% | 0hPa | 2.7V | 00:00:00 | 00:00:00 | 00:00:00 | |
| OE5MMP-10 | 2026-09-04 00:40:37 | 48.87661 | 17.78557 | 58° | 9km/h | 30244m | 7.2m/s | -42.1°C | 2.4% | 0hPa | 2.7V | 00:00:00 | 01:46:51 | 00:00:00 | |
| DO3MHA-11 | 2026-09-04 00:40:33 | 48.87656 | 17.78545 | 93° | 9km/h | 30216m | 7.9m/s | -42.2°C | 2.4% | 0hPa | 2.7V | 00:00:00 | 01:46:47 | 00:00:00 | |
| S52SK | 2026-09-04 00:40:32 | 48.87656 | 17.78542 | 126° | 11km/h | 30209m | 7.4m/s | -42.3°C | 0.4% | 0hPa | 2.7V | 00:00:00 | 00:00:00 | 00:00:00 | |
| PG1ADW-2 | 2026-09-04 00:40:29 | 48.87662 | 17.78532 | 111° | 11km/h | 30190m | 7.0m/s | -42.3°C | 2.4% | 0hPa | 2.7V | 00:00:00 | 01:46:43 | 00:00:00 | |
| PETON7-10 | 2026-09-04 00:40:27 | 48.87660 | 17.78527 | 34° | 11km/h | 30175m | 6.5m/s | -42.3°C | 2.4% | 0hPa | 2.7V | 00:00:00 | 00:00:00 | 00:00:00 | |
| S52SK | 2026-09-04 00:40:26 | 48.87660 | 17.78527 | 35° | 7km/h | 30175m | 6.5m/s | -42.3°C | 0.4% | 0hPa | 2.6V | 00:00:00 | 00:00:00 | 00:00:00 | |
| SP9KGR-15 | 2026-09-04 00:40:25 | 48.87658 | 17.78524 | 75° | 7km/h | 30163m | 7.3m/s | 0°C | 0% | 0hPa | 2.6V | 00:00:00 | 00:00:00 | 00:00:00 | |
| DO3MHA-11 | 2026-09-04 00:40:23 | 48.87658 | 17.78516 | 97° | 13km/h | 30148m | 5.4m/s | -42.2°C | 2.4% | 0hPa | 2.6V | 00:00:00 | 01:46:37 | 00:00:00 | |
| OE5DRO-10 | 2026-09-04 00:40:22 | 48.87658 | 17.78510 | 88° | 13km/h | 30143m | 5.2m/s | -42.2°C | 2.4% | 0hPa | 2.7V | 00:00:00 | 00:00:00 | 00:00:00 | |
| POL2MAQ | 2026-09-04 00:40:18 | 48.87656 | 17.78498 | 0° | 0km/h | 30122m | 5.5m/s | -42.2°C | 0.4% | 0hPa | 2.7V | 00:00:00 | 00:00:00 | 00:00:00 | |
| OE5MMP-10 | 2026-09-04 00:40:17 | 48.87658 | 17.78503 | 220° | 13km/h | 30109m | 8.2m/s | -42.2°C | 2.4% | 0hPa | 2.7V | 00:00:00 | 01:46:31 | 00:00:00 | |
| OE5DXL-15 | 2026-09-04 00:40:16 | 48.87662 | 17.78506 | 203° | 13km/h | 30102m | 6.4m/s | -42.2°C | 2.3% | 0hPa | 2.7V | 00:00:00 | 00:00:00 | 08:30:00 | |
| DO3MHA-11 | 2026-09-04 00:40:13 | 48.87672 | 17.78504 | 122° | 13km/h | 30083m | 8.1m/s | -42.4°C | 2.4% | 0hPa | 2.6V | 00:00:00 | 01:46:27 | 00:00:00 | |
| PETON7-10 | 2026-09-04 00:40:12 | 48.87671 | 17.78501 | 60° | 11km/h | 30076m | 6.3m/s | -42.5°C | 2.4% | 0hPa | 2.6V | 00:00:00 | 00:00:00 | 00:00:00 | |
| OE3OSB-13 | 2026-09-04 00:40:11 | 48.87667 | 17.78495 | 36° | 15km/h | 30061m | 8.5m/s | -42.6°C | 0.4% | -1.0hPa | 2.6V | 00:00:00 | 00:00:00 | 00:00:00 | |
| PG1ADW-2 | 2026-09-04 00:40:09 | 48.87664 | 17.78491 | 36° | 13km/h | 30053m | 8.6m/s | -42.6°C | 2.4% | 0hPa | 2.6V | 00:00:00 | 00:00:00 | 00:00:00 | |
| OE5MMP-10 | 2026-09-04 00:40:07 | 48.87658 | 17.78485 | 38° | 11km/h | 30039m | 6.5m/s | -42.6°C | 2.4% | 0hPa | 2.6V | 00:00:00 | 01:46:21 | 00:00:00 | |
| OK1ALN | 2026-09-04 00:40:05 | 48.87655 | 17.78482 | 35° | 15km/h | 30032m | 8.1m/s | -42.7°C | 0.5% | 0hPa | 2.6V | 00:00:00 | 00:00:00 | 00:00:00 | |
| DO3MHA-11 | 2026-09-04 00:40:03 | 48.87648 | 17.78476 | 33° | 13km/h | 30011m | 7.7m/s | -42.6°C | 2.4% | 0hPa | 2.6V | 00:00:00 | 01:46:17 | 00:00:00 | |
| HA6NAB-11 | 2026-09-04 00:39:59 | 48.87649 | 17.78469 | 118° | 9km/h | 29988m | 6.7m/s | -42.6°C | 0.5% | 0hPa | 2.6V | 00:00:00 | 00:00:00 | 00:00:00 | |
| POL2MAQ | 2026-09-04 00:39:58 | 48.87650 | 17.78466 | 99° | 11km/h | 29981m | 8.1m/s | -42.6°C | 0.4% | 0hPa | 2.6V | 00:00:00 | 00:00:00 | 00:00:00 | |
| PETON7-10 | 2026-09-04 00:39:57 | 48.87648 | 17.78456 | 60° | 16km/h | 29965m | 6.4m/s | -42.5°C | 2.4% | 0hPa | 2.6V | 00:00:00 | 01:46:11 | 00:00:00 | |
| DO3MHA-11 | 2026-09-04 00:39:53 | 48.87640 | 17.78434 | 61° | 16km/h | 29937m | 6.4m/s | -42.6°C | 2.4% | 0hPa | 2.6V | 00:00:00 | 01:46:07 | 08:30:00 | |
| PG1ADW-2 | 2026-09-04 00:39:49 | 48.87628 | 17.78416 | 38° | 15km/h | 29909m | 6.3m/s | -42.7°C | 2.4% | 0hPa | 2.6V | 00:00:00 | 00:00:00 | 08:30:00 | |
| HA6NAB-11 | 2026-09-04 00:39:48 | 48.87628 | 17.78416 | 39° | 16km/h | 29909m | 6.3m/s | -42.8°C | 0.5% | 0hPa | 2.7V | 00:00:00 | 00:00:00 | 00:00:00 | |
| OE5MMP-10 | 2026-09-04 00:39:47 | 48.87623 | 17.78407 | 77° | 15km/h | 29894m | 7.7m/s | -42.9°C | 2.5% | 0hPa | 2.7V | 00:00:00 | 01:46:01 | 00:00:00 | |
| OE5DXL-15 | 2026-09-04 00:39:46 | 48.87623 | 17.78401 | 94° | 13km/h | 29887m | 6.1m/s | -42.9°C | 2.4% | 0hPa | 2.7V | 00:00:00 | 00:00:00 | 00:00:00 | |
| OE5DRO-10 | 2026-09-04 00:39:44 | 48.87624 | 17.78389 | 88° | 13km/h | 29872m | 8.5m/s | -43.0°C | 2.5% | 0hPa | 2.7V | 00:00:00 | 00:00:00 | 00:00:00 | |
| DO3MHA-11 | 2026-09-04 00:39:43 | 48.87623 | 17.78384 | 74° | 15km/h | 29864m | 6.3m/s | -43.0°C | 2.5% | 0hPa | 2.7V | 00:00:00 | 01:45:57 | 00:00:00 | |
| PETON7-10 | 2026-09-04 00:39:42 | 48.87622 | 17.78379 | 66° | 13km/h | 29858m | 6.0m/s | -43.0°C | 2.5% | 0hPa | 2.7V | 00:00:00 | 00:00:00 | 00:00:00 | |
| OE3OSB-13 | 2026-09-04 00:39:40 | 48.87619 | 17.78363 | 82° | 15km/h | 29837m | 4.7m/s | -43.1°C | 0.4% | -1.0hPa | 2.6V | 00:00:00 | 00:00:00 | 00:00:00 | |
| OK1SLM-15 | 2026-09-04 00:39:38 | 48.87619 | 17.78363 | 83° | 16km/h | 29837m | 4.7m/s | -43.1°C | 0% | 0hPa | 2.6V | 00:00:00 | 00:00:00 | 00:00:00 | |
| OE5MMP-10 | 2026-09-04 00:39:37 | 48.87617 | 17.78352 | 75° | 13km/h | 29825m | 7.4m/s | -43.0°C | 2.5% | 0hPa | 2.6V | 00:00:00 | 01:45:51 | 00:00:00 | |
| DO3MHA-11 | 2026-09-04 00:39:33 | 48.87608 | 17.78336 | 45° | 16km/h | 29797m | 6.9m/s | -43.0°C | 2.5% | 0hPa | 2.6V | 00:00:00 | 01:45:47 | 00:00:00 | |
| HA6NAB-11 | 2026-09-04 00:39:32 | 48.87606 | 17.78331 | 67° | 13km/h | 29789m | 7.4m/s | -43.1°C | 0.5% | 0hPa | 2.6V | 00:00:00 | 00:00:00 | 00:00:00 | |
| NBG1-10 | 2026-09-04 00:39:30 | 48.87606 | 17.78322 | 115° | 15km/h | 29777m | 6.8m/s | -43.0°C | 2.5% | 0hPa | 2.6V | 00:00:00 | 01:45:44 | 00:00:00 | |
| PG1ADW-2 | 2026-09-04 00:39:29 | 48.87607 | 17.78319 | 133° | 13km/h | 29770m | 7.9m/s | -43.1°C | 2.5% | 0hPa | 2.7V | 00:00:00 | 00:00:00 | 00:00:00 | |
| OE5MMP-10 | 2026-09-04 00:39:27 | 48.87611 | 17.78315 | 146° | 13km/h | 29754m | 5.2m/s | -43.1°C | 2.4% | 0hPa | 2.7V | 00:00:00 | 01:45:41 | 00:00:00 | |
| HA6NAB-11 | 2026-09-04 00:39:26 | 48.87611 | 17.78315 | 146° | 7km/h | 29754m | 5.3m/s | -43.2°C | 0.4% | 0hPa | 2.7V | 00:00:00 | 00:00:00 | 00:00:00 | |
| OE5DRO-10 | 2026-09-04 00:39:25 | 48.87613 | 17.78310 | 111° | 15km/h | 29742m | 7.6m/s | -43.2°C | 2.5% | 0hPa | 2.7V | 00:00:00 | 00:00:00 | 00:00:00 | |
| HA6NAB-11 | 2026-09-04 00:39:20 | 48.87614 | 17.78284 | 81° | 16km/h | 29714m | 8.8m/s | -43.2°C | 0.4% | 0hPa | 2.7V | 00:00:00 | 00:00:00 | 00:00:00 | |
| POL2MAQ | 2026-09-04 00:39:18 | 48.87609 | 17.78272 | 45° | 13km/h | 29693m | 6.4m/s | -43.2°C | 0.5% | 0hPa | 2.7V | 00:00:00 | 00:00:00 | 00:00:00 | |
| OE5MMP-10 | 2026-09-04 00:39:17 | 48.87607 | 17.78269 | 59° | 15km/h | 29685m | 7.9m/s | -43.2°C | 2.5% | 0hPa | 2.7V | 00:00:00 | 01:45:31 | 00:00:00 | |
| OE5DXL-15 | 2026-09-04 00:39:16 | 48.87606 | 17.78264 | 84° | 18km/h | 29678m | 7.3m/s | -43.2°C | 2.5% | 0hPa | 2.7V | 00:00:00 | 00:00:00 | 00:00:00 | |
| HA6NAB-11 | 2026-09-04 00:39:15 | 48.87606 | 17.78260 | 103° | 11km/h | 29671m | 5.9m/s | -43.3°C | 0.5% | 0hPa | 2.7V | 00:00:00 | 00:00:00 | 00:00:00 | |
| PETON7-10 | 2026-09-04 00:39:12 | 48.87608 | 17.78251 | 82° | 16km/h | 29650m | 5.5m/s | -43.4°C | 2.5% | 0hPa | 2.7V | 00:00:00 | 01:45:26 | 00:00:00 | |
| PG1ADW-2 | 2026-09-04 00:39:09 | 48.87606 | 17.78234 | 82° | 20km/h | 29630m | 8.3m/s | -43.5°C | 2.6% | 0hPa | 2.7V | 00:00:00 | 01:45:23 | 00:00:00 | |
| HA6NAB-11 | 2026-09-04 00:39:08 | 48.87606 | 17.78234 | 82° | 24km/h | 29630m | 8.4m/s | -43.6°C | 0.5% | 0hPa | 2.7V | 00:00:00 | 00:00:00 | 00:00:00 | |
| OE5MMP-10 | 2026-09-04 00:39:07 | 48.87603 | 17.78215 | 76° | 15km/h | 29617m | 6.3m/s | -43.5°C | 2.6% | 0hPa | 2.7V | 00:00:00 | 01:45:21 | 00:00:00 | |
| OE5DRO-10 | 2026-09-04 00:39:06 | 48.87601 | 17.78206 | 71° | 18km/h | 29609m | 8.4m/s | -43.5°C | 2.6% | 0hPa | 2.7V | 00:00:00 | 00:00:00 | 08:30:00 | |
| PETON7-10 | 2026-09-04 00:38:57 | 48.87594 | 17.78162 | 85° | 22km/h | 29549m | 4.5m/s | -43.5°C | 2.5% | 0hPa | 2.7V | 00:00:00 | 00:00:00 | 08:30:00 | |
| NBG1-10 | 2026-09-04 00:38:56 | 48.87594 | 17.78158 | 92° | 27km/h | 29543m | 6.1m/s | -43.4°C | 2.5% | 0hPa | 2.6V | 00:00:00 | 01:45:10 | 00:00:00 | |
| PG1ADW-2 | 2026-09-04 00:38:49 | 48.87586 | 17.78092 | 61° | 27km/h | 29494m | 5.8m/s | -43.7°C | 2.5% | 0hPa | 2.6V | 00:00:00 | 00:00:00 | 00:00:00 | |
| OE5MMP-10 | 2026-09-04 00:38:47 | 48.87582 | 17.78075 | 76° | 22km/h | 29479m | 7.4m/s | -43.7°C | 2.5% | 0hPa | 2.7V | 00:00:00 | 01:45:01 | 00:00:00 | |
| OE5DXL-15 | 2026-09-04 00:38:46 | 48.87581 | 17.78067 | 81° | 26km/h | 29472m | 5.9m/s | -43.8°C | 2.5% | 0hPa | 2.7V | 00:00:00 | 00:00:00 | 00:00:00 | |
| OK1ALN | 2026-09-04 00:38:43 | 48.87577 | 17.78047 | 69° | 16km/h | 29451m | 6.4m/s | -43.9°C | 0.5% | 0hPa | 2.7V | 00:00:00 | 00:00:00 | 00:00:00 | |
| PETON7-10 | 2026-09-04 00:38:42 | 48.87576 | 17.78041 | 72° | 29km/h | 29445m | 5.6m/s | -43.9°C | 2.5% | 0hPa | 2.7V | 00:00:00 | 00:00:00 | 00:00:00 | |
| DO3MHA-11 | 2026-09-04 00:38:41 | 48.87575 | 17.78033 | 78° | 31km/h | 29438m | 7.2m/s | -43.9°C | 2.5% | 0hPa | 2.7V | 00:00:00 | 01:44:55 | 00:00:00 | |
| OE3OSB-13 | 2026-09-04 00:38:38 | 48.87565 | 17.77989 | 58° | 33km/h | 29412m | 8.3m/s | -44.2°C | 0.5% | -1.0hPa | 2.7V | 00:00:00 | 00:00:00 | 00:00:00 | |
| OE5MMP-10 | 2026-09-04 00:38:37 | 48.87565 | 17.77989 | 59° | 31km/h | 29412m | 8.2m/s | -44.2°C | 2.6% | 0hPa | 2.7V | 00:00:00 | 01:44:51 | 00:00:00 | |
| POL2MAQ | 2026-09-04 00:38:35 | 48.87560 | 17.77979 | 48° | 35km/h | 29404m | 7.3m/s | -44.3°C | 0.5% | 0hPa | 2.7V | 00:00:00 | 00:00:00 | 00:00:00 | |
| S52SK | 2026-09-04 00:38:31 | 48.87536 | 17.77943 | 53° | 31km/h | 29377m | 6.3m/s | -44.5°C | 0.5% | 0hPa | 2.7V | 00:00:00 | 00:00:00 | 00:00:00 | |
| DO3MHA-11 | 2026-09-04 00:38:30 | 48.87528 | 17.77926 | 54° | 27km/h | 29364m | 6.4m/s | -44.4°C | 2.7% | 0hPa | 2.7V | 00:00:00 | 01:44:44 | 00:00:00 | |
| PG1ADW-2 | 2026-09-04 00:38:29 | 48.87524 | 17.77918 | 53° | 24km/h | 29357m | 7.4m/s | -44.4°C | 2.7% | 0hPa | 2.7V | 00:00:00 | 00:00:00 | 00:00:00 | |
| OE5DRO-10 | 2026-09-04 00:38:28 | 48.87520 | 17.77909 | 55° | 24km/h | 29351m | 5.7m/s | -44.4°C | 2.6% | 0hPa | 2.7V | 00:00:00 | 00:00:00 | 00:00:00 | |
| OE5MMP-10 | 2026-09-04 00:38:27 | 48.87516 | 17.77900 | 64° | 26km/h | 29346m | 5.1m/s | -44.3°C | 2.6% | 0hPa | 2.7V | 00:00:00 | 01:44:41 | 00:00:00 | |
| OK1SLM-15 | 2026-09-04 00:38:26 | 48.87516 | 17.77901 | 65° | 27km/h | 29346m | 5.1m/s | -44.4°C | 0% | 0hPa | 2.7V | 00:00:00 | 00:00:00 | 00:00:00 | |
| OK1ALN | 2026-09-04 00:38:24 | 48.87513 | 17.77855 | 96° | 29km/h | 29320m | 4.4m/s | -44.4°C | 0.5% | 0hPa | 2.7V | 00:00:00 | 00:00:00 | 00:00:00 | |
| OK1SLM-15 | 2026-09-04 00:38:21 | 48.87513 | 17.77845 | 91° | 26km/h | 29315m | 6.2m/s | 0°C | 0% | 0hPa | 2.7V | 00:00:00 | 00:00:00 | 00:00:00 | |
| DO3MHA-11 | 2026-09-04 00:38:20 | 48.87510 | 17.77830 | 47° | 22km/h | 29301m | 7.7m/s | -44.5°C | 2.6% | 0hPa | 2.7V | 00:00:00 | 01:44:34 | 00:00:00 | |
| OE5MMP-10 | 2026-09-04 00:38:17 | 48.87499 | 17.77819 | 35° | 20km/h | 29282m | 7.1m/s | -44.6°C | 2.7% | 0hPa | 2.7V | 00:00:00 | 01:44:31 | 00:00:00 | |
| OE5DXL-15 | 2026-09-04 00:38:16 | 48.87495 | 17.77814 | 56° | 16km/h | 29275m | 6.9m/s | -44.6°C | 2.6% | 0hPa | 2.7V | 00:00:00 | 00:00:00 | 00:00:00 | |
| POL2MAQ | 2026-09-04 00:38:15 | 48.87493 | 17.77807 | 68° | 24km/h | 29268m | 5.8m/s | -44.7°C | 0.5% | 0hPa | 2.7V | 00:00:00 | 00:00:00 | 00:00:00 | |
| PETON7-10 | 2026-09-04 00:38:12 | 48.87486 | 17.77780 | 66° | 16km/h | 29250m | 7.0m/s | -44.7°C | 2.7% | 0hPa | 2.7V | 00:00:00 | 00:00:00 | 00:00:00 | |
| DO3MHA-11 | 2026-09-04 00:38:10 | 48.87482 | 17.77766 | 78° | 13km/h | 29238m | 5.0m/s | -44.7°C | 2.7% | 0hPa | 2.6V | 00:00:00 | 01:44:24 | 00:00:00 | |
| PG1ADW-2 | 2026-09-04 00:38:09 | 48.87481 | 17.77759 | 88° | 15km/h | 29232m | 6.0m/s | -44.7°C | 2.7% | 0hPa | 2.6V | 00:00:00 | 00:00:00 | 00:00:00 | |
| OE5MMP-10 | 2026-09-04 00:38:07 | 48.87483 | 17.77747 | 130° | 15km/h | 29218m | 6.4m/s | -44.9°C | 2.7% | 0hPa | 2.6V | 00:00:00 | 01:44:21 | 00:00:00 | |
| OE3OSB-13 | 2026-09-04 00:38:06 | 48.87486 | 17.77744 | 156° | 15km/h | 29211m | 5.5m/s | -44.9°C | 0.5% | -1.0hPa | 2.6V | 00:00:00 | 00:00:00 | 00:00:00 | |
| OK1ALN | 2026-09-04 00:38:02 | 48.87491 | 17.77744 | 8° | 11km/h | 29186m | 6.0m/s | -45.0°C | 0.5% | 0hPa | 2.6V | 00:00:00 | 00:00:00 | 00:00:00 | |
| DO3MHA-11 | 2026-09-04 00:38:00 | 48.87484 | 17.77739 | 41° | 16km/h | 29171m | 6.3m/s | -44.9°C | 2.8% | 0hPa | 2.6V | 00:00:00 | 01:44:14 | 00:00:00 | |
| GYPAP8-17 | 2026-09-04 00:37:57 | 48.87475 | 17.77723 | 57° | 16km/h | 29151m | 5.8m/s | -44.9°C | 0.5% | 0hPa | 2.6V | 00:00:00 | 00:00:00 | 00:00:00 | |
| POL2MAQ | 2026-09-04 00:37:55 | 48.87471 | 17.77712 | 66° | 15km/h | 29138m | 7.8m/s | -44.8°C | 0.5% | 0hPa | 2.6V | 00:00:00 | 00:00:00 | 00:00:00 | |
| OE5DRO-10 | 2026-09-04 00:37:50 | 48.87479 | 17.77690 | 167° | 18km/h | 29103m | 5.1m/s | -45.0°C | 2.7% | 0hPa | 2.6V | 00:00:00 | 00:00:00 | 00:00:00 | |
| PG1ADW-2 | 2026-09-04 00:37:49 | 48.87481 | 17.77689 | 151° | 18km/h | 29098m | 5.4m/s | -45.1°C | 2.7% | 0hPa | 2.6V | 00:00:00 | 01:44:03 | 00:00:00 | |
| OE5MMP-10 | 2026-09-04 00:37:47 | 48.87478 | 17.77686 | 31° | 24km/h | 29083m | 9.7m/s | -45.1°C | 2.7% | 0hPa | 2.6V | 00:00:00 | 01:44:01 | 00:00:00 | |
| OE5DXL-15 | 2026-09-04 00:37:46 | 48.87474 | 17.77682 | 37° | 16km/h | 29075m | 6.2m/s | -45.1°C | 2.7% | 0hPa | 2.6V | 00:00:00 | 00:00:00 | 00:00:00 | |
| PETON7-10 | 2026-09-04 00:37:42 | 48.87451 | 17.77656 | 37° | 16km/h | 29047m | 4.8m/s | -45.2°C | 2.7% | 0hPa | 2.6V | 00:00:00 | 01:43:56 | 00:00:00 | |
| OK1ALN | 2026-09-04 00:37:41 | 48.87451 | 17.77656 | 37° | 26km/h | 29047m | 4.8m/s | -45.2°C | 0.5% | 0hPa | 2.6V | 00:00:00 | 00:00:00 | 00:00:00 | |
| DO3MHA-11 | 2026-09-04 00:37:40 | 48.87442 | 17.77643 | 60° | 16km/h | 29036m | 6.4m/s | -45.2°C | 2.7% | 0hPa | 2.6V | 00:00:00 | 01:43:54 | 08:30:00 | |
| OE5MMP-10 | 2026-09-04 00:37:37 | 48.87443 | 17.77621 | 126° | 15km/h | 29015m | 7.5m/s | -45.2°C | 2.7% | 0hPa | 2.7V | 00:00:00 | 01:43:51 | 00:00:00 | |
| GYPAP8-17 | 2026-09-04 00:37:35 | 48.87447 | 17.77616 | 139° | 18km/h | 29007m | 8.6m/s | -45.2°C | 0.5% | 0hPa | 2.7V | 00:00:00 | 00:00:00 | 00:00:00 | |
| POL2MAQ | 2026-09-04 00:37:34 | 48.87449 | 17.77612 | 146° | 13km/h | 28999m | 6.4m/s | -45.2°C | 0.5% | 0hPa | 2.7V | 00:00:00 | 00:00:00 | 00:00:00 | |
| OE5DRO-10 | 2026-09-04 00:37:31 | 48.87449 | 17.77596 | 70° | 11km/h | 28972m | 6.6m/s | -45.3°C | 2.7% | 0hPa | 2.7V | 00:00:00 | 00:00:00 | 00:00:00 | |
| DO3MHA-11 | 2026-09-04 00:37:30 | 48.87447 | 17.77589 | 68° | 11km/h | 28966m | 4.9m/s | -45.3°C | 2.7% | 0hPa | 2.7V | 00:00:00 | 01:43:44 | 00:00:00 | |
| PG1ADW-2 | 2026-09-04 00:37:29 | 48.87446 | 17.77583 | 66° | 9km/h | 28960m | 6.6m/s | -45.3°C | 2.7% | 0hPa | 2.7V | 00:00:00 | 00:00:00 | 00:00:00 | |
| OE5MMP-10 | 2026-09-04 00:37:27 | 48.87442 | 17.77576 | 45° | 9km/h | 28946m | 6.2m/s | -45.4°C | 2.7% | 0hPa | 2.7V | 00:00:00 | 01:43:41 | 08:30:00 | |
| OK1ALN | 2026-09-04 00:37:21 | 48.87436 | 17.77556 | 63° | 7km/h | 28904m | 8.1m/s | -45.5°C | 0.6% | 0hPa | 2.7V | 00:00:00 | 00:00:00 | 00:00:00 | |
| HA6NAB-11 | 2026-09-04 00:37:20 | 48.87435 | 17.77553 | 33° | 7km/h | 28897m | 5.8m/s | -45.5°C | 0.5% | 0hPa | 2.7V | 00:00:00 | 00:00:00 | 00:00:00 | |
| OE5MMP-10 | 2026-09-04 00:37:17 | 48.87427 | 17.77546 | 41° | 9km/h | 28875m | 6.8m/s | -45.6°C | 2.8% | 0hPa | 2.7V | 00:00:00 | 01:43:31 | 00:00:00 | |
| OE5DXL-15 | 2026-09-04 00:37:16 | 48.87424 | 17.77542 | 45° | 9km/h | 28869m | 5.6m/s | -45.6°C | 2.8% | 0hPa | 2.7V | 00:00:00 | 00:00:00 | 00:00:00 | |
| POL2MAQ | 2026-09-04 00:37:14 | 48.87419 | 17.77535 | 42° | 9km/h | 28855m | 8.4m/s | -45.8°C | 0.5% | 0hPa | 2.6V | 00:00:00 | 00:00:00 | 00:00:00 | |
| HA6NAB-11 | 2026-09-04 00:37:13 | 48.87419 | 17.77535 | 42° | 9km/h | 28855m | 8.4m/s | -45.8°C | 0.5% | 0hPa | 2.6V | 00:00:00 | 00:00:00 | 00:00:00 | |
| PETON7-10 | 2026-09-04 00:37:12 | 48.87418 | 17.77533 | 27° | 7km/h | 28841m | 6.7m/s | -45.8°C | 2.8% | 0hPa | 2.6V | 00:00:00 | 00:00:00 | 00:00:00 | |
| DO3MHA-11 | 2026-09-04 00:37:10 | 48.87416 | 17.77531 | 60° | 7km/h | 28826m | 6.2m/s | -45.8°C | 2.9% | 0hPa | 2.6V | 00:00:00 | 01:43:24 | 00:00:00 | |
| PG1ADW-2 | 2026-09-04 00:37:09 | 48.87416 | 17.77529 | 64° | 7km/h | 28820m | 6.2m/s | -45.8°C | 2.8% | 0hPa | 2.7V | 00:00:00 | 00:00:00 | 00:00:00 | |
| OE5MMP-10 | 2026-09-04 00:37:07 | 48.87414 | 17.77525 | 61° | 9km/h | 28805m | 9.0m/s | -45.9°C | 2.9% | 0hPa | 2.7V | 00:00:00 | 01:43:21 | 00:00:00 | |
| OE3OSB-13 | 2026-09-04 00:37:04 | 48.87412 | 17.77522 | 26° | 5km/h | 28785m | 7.4m/s | -45.9°C | 0.5% | -1.0hPa | 2.7V | 00:00:00 | 00:00:00 | 00:00:00 | |
| HA6NAB-11 | 2026-09-04 00:37:03 | 48.87410 | 17.77520 | 35° | 11km/h | 28777m | 9.3m/s | -45.9°C | 0.6% | 0hPa | 2.7V | 00:00:00 | 00:00:00 | 00:00:00 | |
| OK1SLM-15 | 2026-09-04 00:37:00 | 48.87402 | 17.77510 | 48° | 13km/h | 28757m | 7.5m/s | 0°C | 0% | 0hPa | 2.7V | 00:00:00 | 00:00:00 | 00:00:00 | |
| PETON7-10 | 2026-09-04 00:36:57 | 48.87401 | 17.77502 | 108° | 7km/h | 28736m | 7.1m/s | -45.8°C | 2.9% | 0hPa | 2.7V | 00:00:00 | 01:43:11 | 00:00:00 | |
| OK1SLM-15 | 2026-09-04 00:36:55 | 48.87401 | 17.77496 | 89° | 9km/h | 28721m | 5.9m/s | 0°C | 0% | 0hPa | 2.7V | 00:00:00 | 00:00:00 | 00:00:00 | |
| POL2MAQ | 2026-09-04 00:36:54 | 48.87401 | 17.77492 | 86° | 9km/h | 28715m | 6.9m/s | -45.9°C | 0.5% | 0hPa | 2.7V | 00:00:00 | 00:00:00 | 00:00:00 | |
| OE5DRO-10 | 2026-09-04 00:36:53 | 48.87401 | 17.77488 | 88° | 7km/h | 28707m | 8.5m/s | -45.9°C | 2.8% | 0hPa | 2.7V | 00:00:00 | 00:00:00 | 00:00:00 | |
| HA6NAB-11 | 2026-09-04 00:36:52 | 48.87401 | 17.77486 | 90° | 7km/h | 28699m | 6.9m/s | -45.9°C | 0.6% | 0hPa | 2.7V | 00:00:00 | 00:00:00 | 00:00:00 | |
| DO3MHA-11 | 2026-09-04 00:36:50 | 48.87399 | 17.77482 | 25° | 7km/h | 28686m | 7.5m/s | -45.9°C | 2.9% | 0hPa | 2.7V | 00:00:00 | 01:43:04 | 00:00:00 | |
| OK1SLM-15 | 2026-09-04 00:36:49 | 48.87397 | 17.77481 | 12° | 11km/h | 28677m | 9.0m/s | 0°C | 0% | 0hPa | 2.7V | 00:00:00 | 00:00:00 | 00:00:00 | |
| OE5MMP-10 | 2026-09-04 00:36:47 | 48.87390 | 17.77480 | 360° | 5km/h | 28663m | 6.6m/s | -45.9°C | 2.8% | 0hPa | 2.7V | 00:00:00 | 01:43:01 | 00:00:00 | |
| OE5DXL-15 | 2026-09-04 00:36:46 | 48.87387 | 17.77480 | 355° | 9km/h | 28656m | 7.4m/s | -45.9°C | 2.8% | 0hPa | 2.7V | 00:00:00 | 00:00:00 | 00:00:00 | |
| OK1SLM-15 | 2026-09-04 00:36:43 | 48.87384 | 17.77481 | 338° | 4km/h | 28644m | 6.4m/s | 0°C | 0% | 0hPa | 2.7V | 00:00:00 | 00:00:00 | 00:00:00 | |
| PETON7-10 | 2026-09-04 00:36:42 | 48.87383 | 17.77481 | 23° | 9km/h | 28629m | 8.3m/s | -46.0°C | 2.9% | 0hPa | 2.7V | 00:00:00 | 00:00:00 | 08:30:00 | |
| DO3MHA-11 | 2026-09-04 00:36:39 | 48.87379 | 17.77476 | 66° | 9km/h | 28608m | 8.1m/s | -46.0°C | 2.8% | 0hPa | 2.6V | 00:00:00 | 01:42:53 | 00:00:00 | |
| OE5MMP-10 | 2026-09-04 00:36:37 | 48.87380 | 17.77472 | 119° | 9km/h | 28594m | 5.9m/s | -45.9°C | 2.8% | 0hPa | 2.7V | 00:00:00 | 01:42:51 | 00:00:00 | |
| GYPAP8-17 | 2026-09-04 00:36:34 | 48.87380 | 17.77463 | 65° | 11km/h | 28572m | 6.0m/s | -45.9°C | 0.5% | 0hPa | 2.7V | 00:00:00 | 00:00:00 | 00:00:00 | |
| OE3OSB-13 | 2026-09-04 00:36:33 | 48.87379 | 17.77460 | 61° | 9km/h | 28566m | 5.7m/s | -46.0°C | 0.5% | -1.0hPa | 2.7V | 00:00:00 | 00:00:00 | 00:00:00 | |
| POL2MAQ | 2026-09-04 00:36:32 | 48.87377 | 17.77456 | 63° | 11km/h | 28559m | 7.2m/s | -46.0°C | 0.6% | 0hPa | 2.7V | 00:00:00 | 00:00:00 | 00:00:00 | |
| PG1ADW-2 | 2026-09-04 00:36:29 | 48.87374 | 17.77447 | 38° | 11km/h | 28539m | 6.9m/s | -46.1°C | 2.8% | 0hPa | 2.7V | 00:00:00 | 01:42:43 | 00:00:00 | |
| PETON7-10 | 2026-09-04 00:36:27 | 48.87368 | 17.77444 | 12° | 9km/h | 28525m | 5.9m/s | -46.2°C | 2.9% | 0hPa | 2.7V | 00:00:00 | 00:00:00 | 00:00:00 | |
| DO3MHA-11 | 2026-09-04 00:36:19 | 48.87347 | 17.77449 | 335° | 11km/h | 28469m | 6.1m/s | -46.7°C | 2.9% | 0hPa | 2.7V | 00:00:00 | 01:42:33 | 00:00:00 | |
| S52SK | 2026-09-04 00:36:18 | 48.87346 | 17.77451 | 324° | 7km/h | 28461m | 8.2m/s | -46.8°C | 0.6% | 0hPa | 2.7V | 00:00:00 | 00:00:00 | 00:00:00 | |
| OE5MMP-10 | 2026-09-04 00:36:17 | 48.87345 | 17.77453 | 298° | 15km/h | 28452m | 9.7m/s | -46.7°C | 3.0% | 0hPa | 2.7V | 00:00:00 | 01:42:31 | 00:00:00 | |
| OE5DXL-15 | 2026-09-04 00:36:16 | 48.87344 | 17.77455 | 288° | 11km/h | 28445m | 5.2m/s | -46.7°C | 3.0% | 0hPa | 2.7V | 00:00:00 | 00:00:00 | 00:00:00 | |
| OE5DRO-10 | 2026-09-04 00:36:15 | 48.87343 | 17.77457 | 310° | 13km/h | 28439m | 5.8m/s | -46.8°C | 3.0% | 0hPa | 2.7V | 00:00:00 | 00:00:00 | 08:30:00 | |
| PETON7-10 | 2026-09-04 00:36:12 | 48.87334 | 17.77462 | 348° | 13km/h | 28419m | 6.0m/s | -46.8°C | 3.0% | 0hPa | 2.6V | 00:00:00 | 01:42:26 | 00:00:00 | |
| POL2MAQ | 2026-09-04 00:36:11 | 48.87329 | 17.77464 | 342° | 22km/h | 28413m | 7.4m/s | -46.9°C | 0.6% | 0hPa | 2.6V | 00:00:00 | 00:00:00 | 00:00:00 | |
| OE5MMP-10 | 2026-09-04 00:36:07 | 48.87313 | 17.77480 | 325° | 9km/h | 28384m | 7.9m/s | -46.9°C | 3.1% | 0hPa | 2.6V | 00:00:00 | 01:42:21 | 00:00:00 | |
| OE3OSB-13 | 2026-09-04 00:36:02 | 48.87303 | 17.77486 | 338° | 4km/h | 28348m | 6.1m/s | -47.0°C | 0.6% | -1.0hPa | 2.6V | 00:00:00 | 00:00:00 | 00:00:00 | |
| DO3MHA-11 | 2026-09-04 00:35:58 | 48.87295 | 17.77484 | 15° | 9km/h | 28321m | 6.2m/s | -47.0°C | 3.1% | 0hPa | 2.6V | 00:00:00 | 01:42:12 | 00:00:00 | |
| PETON7-10 | 2026-09-04 00:35:57 | 48.87292 | 17.77483 | 4° | 5km/h | 28314m | 7.6m/s | -47.0°C | 3.1% | 0hPa | 2.6V | 00:00:00 | 00:00:00 | 00:00:00 | |
| OE5DRO-10 | 2026-09-04 00:35:56 | 48.87290 | 17.77484 | 337° | 5km/h | 28306m | 8.6m/s | -47.0°C | 3.1% | 0hPa | 2.7V | 00:00:00 | 00:00:00 | 00:00:00 | |
| SQ9EZE-14 | 2026-09-04 00:35:54 | 48.87289 | 17.77486 | 295° | 9km/h | 28299m | 5.6m/s | 0°C | 0% | 0hPa | 2.7V | 00:00:00 | 00:00:00 | 00:00:00 | |
| POL2MAQ | 2026-09-04 00:35:50 | 48.87285 | 17.77498 | 312° | 7km/h | 28271m | 6.1m/s | -46.9°C | 0.6% | 0hPa | 2.7V | 00:00:00 | 00:00:00 | 00:00:00 | |
| PG1ADW-2 | 2026-09-04 00:35:49 | 48.87284 | 17.77502 | 262° | 5km/h | 28256m | 8.3m/s | -46.7°C | 3.0% | 0hPa | 2.7V | 00:00:00 | 00:00:00 | 00:00:00 | |
| DO3MHA-11 | 2026-09-04 00:35:48 | 48.87284 | 17.77502 | 193° | 5km/h | 28248m | 5.9m/s | -46.6°C | 3.0% | 0hPa | 2.6V | 00:00:00 | 01:42:02 | 00:00:00 | |
| OE5DXL-15 | 2026-09-04 00:35:47 | 48.87285 | 17.77501 | 96° | 7km/h | 28234m | 8.7m/s | -46.5°C | 2.9% | 0hPa | 2.6V | 00:00:00 | 00:00:00 | 08:30:00 | |
| OK1SLM-15 | 2026-09-04 00:35:44 | 48.87285 | 17.77500 | 75° | 4km/h | 28226m | 5.6m/s | 0°C | 0% | 0hPa | 2.7V | 00:00:00 | 00:00:00 | 00:00:00 | |
| PETON7-10 | 2026-09-04 00:35:42 | 48.87286 | 17.77497 | 204° | 7km/h | 28205m | 7.7m/s | -46.3°C | 2.9% | 0hPa | 2.7V | 00:00:00 | 00:00:00 | 00:00:00 | |
| OK1ALN | 2026-09-04 00:35:39 | 48.87288 | 17.77504 | 283° | 9km/h | 28183m | 8.3m/s | -46.4°C | 0.6% | 0hPa | 2.7V | 00:00:00 | 00:00:00 | 00:00:00 | |
| DO3MHA-11 | 2026-09-04 00:35:38 | 48.87287 | 17.77507 | 303° | 9km/h | 28175m | 6.5m/s | -46.4°C | 2.9% | 0hPa | 2.7V | 00:00:00 | 01:41:52 | 00:00:00 | |
| OE5DRO-10 | 2026-09-04 00:35:37 | 48.87285 | 17.77511 | 310° | 7km/h | 28169m | 7.2m/s | -46.5°C | 2.9% | 0hPa | 2.7V | 00:00:00 | 00:00:00 | 00:00:00 | |
| OE5MMP-10 | 2026-09-04 00:35:34 | 48.87281 | 17.77519 | 317° | 7km/h | 28148m | 7.0m/s | -46.6°C | 2.9% | 0hPa | 2.7V | 00:00:00 | 01:41:48 | 00:00:00 | |
| OK1SLM-15 | 2026-09-04 00:35:33 | 48.87281 | 17.77519 | 318° | 5km/h | 28148m | 7.0m/s | 0°C | 0% | 0hPa | 2.7V | 00:00:00 | 00:00:00 | 00:00:00 | |
| GYPAP8-17 | 2026-09-04 00:35:32 | 48.87280 | 17.77519 | 358° | 5km/h | 28140m | 9.0m/s | -46.7°C | 0.6% | 0hPa | 2.7V | 00:00:00 | 00:00:00 | 00:00:00 | |
| OE3OSB-13 | 2026-09-04 00:35:31 | 48.87277 | 17.77516 | 68° | 7km/h | 28124m | 5.7m/s | -46.8°C | 0.6% | -1.0hPa | 2.7V | 00:00:00 | 00:00:00 | 00:00:00 | |
| POL2MAQ | 2026-09-04 00:35:30 | 48.87277 | 17.77513 | 94° | 9km/h | 28117m | 6.5m/s | -46.8°C | 0.6% | 0hPa | 2.7V | 00:00:00 | 00:00:00 | 00:00:00 | |
| PG1ADW-2 | 2026-09-04 00:35:29 | 48.87278 | 17.77510 | 125° | 9km/h | 28110m | 7.6m/s | -46.8°C | 3.0% | 0hPa | 2.7V | 00:00:00 | 00:00:00 | 00:00:00 | |
| DO3MHA-11 | 2026-09-04 00:35:28 | 48.87280 | 17.77508 | 158° | 7km/h | 28103m | 6.4m/s | -46.8°C | 3.0% | 0hPa | 2.7V | 00:00:00 | 01:41:42 | 00:00:00 | |
| PETON7-10 | 2026-09-04 00:35:27 | 48.87282 | 17.77507 | 175° | 11km/h | 28097m | 6.8m/s | -46.8°C | 3.0% | 0hPa | 2.7V | 00:00:00 | 01:41:41 | 00:00:00 | |
| OK1SLM-15 | 2026-09-04 00:35:26 | 48.87282 | 17.77507 | 175° | 9km/h | 28097m | 6.8m/s | 0°C | 0% | 0hPa | 2.7V | 00:00:00 | 00:00:00 | 00:00:00 | |
| OE5MMP-10 | 2026-09-04 00:35:24 | 48.87286 | 17.77510 | 250° | 11km/h | 28075m | 7.1m/s | -46.9°C | 3.0% | 0hPa | 2.7V | 00:00:00 | 01:41:38 | 00:00:00 | |
| DO3MHA-11 | 2026-09-04 00:35:18 | 48.87294 | 17.77513 | 112° | 9km/h | 28031m | 6.0m/s | -47.0°C | 3.0% | 0hPa | 2.6V | 00:00:00 | 01:41:32 | 00:00:00 | |
| OE5DXL-15 | 2026-09-04 00:35:16 | 48.87297 | 17.77501 | 119° | 9km/h | 28016m | 8.6m/s | -47.1°C | 3.1% | 0hPa | 2.6V | 00:00:00 | 00:00:00 | 00:00:00 | |
| OE5MMP-10 | 2026-09-04 00:35:14 | 48.87302 | 17.77492 | 142° | 7km/h | 28001m | 5.9m/s | -47.1°C | 3.1% | 0hPa | 2.6V | 00:00:00 | 01:41:28 | 00:00:00 | |
| PETON7-10 | 2026-09-04 00:35:12 | 48.87306 | 17.77489 | 137° | 7km/h | 27987m | 8.0m/s | -47.0°C | 3.1% | 0hPa | 2.6V | 00:00:00 | 00:00:00 | 00:00:00 | |
| POL2MAQ | 2026-09-04 00:35:09 | 48.87303 | 17.77491 | 307° | 7km/h | 27967m | 7.7m/s | -47.1°C | 0.6% | 0hPa | 2.6V | 00:00:00 | 00:00:00 | 00:00:00 | |
| DO3MHA-11 | 2026-09-04 00:35:08 | 48.87302 | 17.77494 | 286° | 7km/h | 27959m | 9.3m/s | -47.0°C | 3.1% | 0hPa | 2.6V | 00:00:00 | 01:41:22 | 00:00:00 | |
| OE5MMP-10 | 2026-09-04 00:35:04 | 48.87301 | 17.77504 | 37° | 9km/h | 27931m | 6.4m/s | -47.1°C | 3.1% | 0hPa | 2.6V | 00:00:00 | 01:41:18 | 00:00:00 | |
| OE3OSB-13 | 2026-09-04 00:35:00 | 48.87300 | 17.77492 | 120° | 4km/h | 27902m | 5.7m/s | -47.0°C | 0.6% | -1.0hPa | 2.6V | 00:00:00 | 00:00:00 | 00:00:00 | |
| OE5DRO-10 | 2026-09-04 00:34:59 | 48.87300 | 17.77491 | 150° | 11km/h | 27896m | 7.0m/s | -46.9°C | 3.1% | 0hPa | 2.6V | 00:00:00 | 00:00:00 | 00:00:00 | |
| OK1ALN | 2026-09-04 00:34:58 | 48.87300 | 17.77492 | 313° | 4km/h | 27888m | 8.7m/s | -47.0°C | 0.6% | 0hPa | 2.6V | 00:00:00 | 00:00:00 | 00:00:00 | |
| PETON7-10 | 2026-09-04 00:34:57 | 48.87299 | 17.77493 | 319° | 11km/h | 27880m | 6.6m/s | -46.9°C | 3.0% | 0hPa | 2.6V | 00:00:00 | 00:00:00 | 00:00:00 | |
| OE5MMP-10 | 2026-09-04 00:34:54 | 48.87292 | 17.77506 | 292° | 11km/h | 27859m | 9.0m/s | -46.8°C | 3.0% | 0hPa | 2.6V | 00:00:00 | 01:41:08 | 00:00:00 | |
| POL2MAQ | 2026-09-04 00:34:49 | 48.87288 | 17.77516 | 73° | 13km/h | 27824m | 6.4m/s | -46.8°C | 0.6% | 0hPa | 2.6V | 00:00:00 | 00:00:00 | 00:00:00 | |
| DO3MHA-11 | 2026-09-04 00:34:48 | 48.87287 | 17.77511 | 83° | 15km/h | 27817m | 7.5m/s | -46.7°C | 3.0% | 0hPa | 2.6V | 00:00:00 | 01:41:02 | 00:00:00 | |
| OE5DXL-15 | 2026-09-04 00:34:46 | 48.87287 | 17.77500 | 94° | 13km/h | 27801m | 5.4m/s | -46.8°C | 3.0% | 0hPa | 2.6V | 00:00:00 | 00:00:00 | 00:00:00 | |
| OE5MMP-10 | 2026-09-04 00:34:44 | 48.87286 | 17.77493 | 53° | 13km/h | 27789m | 8.0m/s | -46.7°C | 3.0% | 0hPa | 2.6V | 00:00:00 | 01:40:58 | 00:00:00 | |
| PETON7-10 | 2026-09-04 00:34:42 | 48.87281 | 17.77492 | 334° | 13km/h | 27776m | 5.4m/s | -46.8°C | 3.0% | 0hPa | 2.6V | 00:00:00 | 01:40:56 | 00:00:00 | |
| OE5DRO-10 | 2026-09-04 00:34:40 | 48.87275 | 17.77501 | 297° | 15km/h | 27761m | 8.2m/s | -46.7°C | 3.0% | 0hPa | 2.6V | 00:00:00 | 00:00:00 | 00:00:00 | |
| DO3MHA-11 | 2026-09-04 00:34:38 | 48.87272 | 17.77513 | 293° | 11km/h | 27750m | 5.3m/s | -46.7°C | 2.9% | 0hPa | 2.6V | 00:00:00 | 01:40:52 | 08:30:00 | |
| OK1ALN | 2026-09-04 00:34:37 | 48.87272 | 17.77513 | 294° | 13km/h | 27750m | 5.3m/s | -46.8°C | 0.6% | 0hPa | 2.7V | 00:00:00 | 00:00:00 | 00:00:00 | |
| OE5MMP-10 | 2026-09-04 00:34:34 | 48.87268 | 17.77512 | 63° | 16km/h | 27724m | 5.6m/s | -46.8°C | 3.0% | 0hPa | 2.7V | 00:00:00 | 01:40:48 | 00:00:00 | |
| PG1ADW-2 | 2026-09-04 00:34:29 | 48.87259 | 17.77519 | 317° | 16km/h | 27688m | 8.4m/s | -47.0°C | 3.0% | 0hPa | 2.7V | 00:00:00 | 00:00:00 | 00:00:00 | |
| POL2MAQ | 2026-09-04 00:34:28 | 48.87259 | 17.77519 | 318° | 18km/h | 27688m | 8.5m/s | -47.0°C | 0.6% | 0hPa | 2.7V | 00:00:00 | 00:00:00 | 00:00:00 | |
| PETON7-10 | 2026-09-04 00:34:27 | 48.87252 | 17.77533 | 301° | 15km/h | 27676m | 6.0m/s | -47.1°C | 3.0% | 0hPa | 2.7V | 00:00:00 | 00:00:00 | 08:30:00 | |
| OE5MMP-10 | 2026-09-04 00:34:24 | 48.87246 | 17.77562 | 278° | 9km/h | 27654m | 4.9m/s | -47.2°C | 3.1% | 0hPa | 2.6V | 00:00:00 | 01:40:38 | 08:30:00 | |
| HA6NAB-11 | 2026-09-04 00:34:22 | 48.87245 | 17.77569 | 279° | 16km/h | 27648m | 7.2m/s | -47.2°C | 0.6% | 0hPa | 2.6V | 00:00:00 | 00:00:00 | 00:00:00 | |
| OE5DRO-10 | 2026-09-04 00:34:21 | 48.87245 | 17.77575 | 81° | 13km/h | 27633m | 6.0m/s | -47.2°C | 3.0% | 0hPa | 2.6V | 00:00:00 | 00:00:00 | 00:00:00 | |
| DO3MHA-11 | 2026-09-04 00:34:17 | 48.87246 | 17.77573 | 289° | 16km/h | 27608m | 4.9m/s | -47.2°C | 3.0% | 0hPa | 2.6V | 00:00:00 | 01:40:31 | 00:00:00 | |
| OE5DXL-15 | 2026-09-04 00:34:16 | 48.87245 | 17.77576 | 304° | 18km/h | 27602m | 7.4m/s | -47.2°C | 3.0% | 0hPa | 2.6V | 00:00:00 | 00:00:00 | 00:00:00 | |
| OE5MMP-10 | 2026-09-04 00:34:14 | 48.87241 | 17.77586 | 301° | 15km/h | 27587m | 5.2m/s | -47.3°C | 3.0% | 0hPa | 2.7V | 00:00:00 | 01:40:28 | 00:00:00 | |
| PETON7-10 | 2026-09-04 00:34:12 | 48.87238 | 17.77600 | 271° | 13km/h | 27575m | 7.8m/s | -47.4°C | 3.0% | 0hPa | 2.7V | 00:00:00 | 00:00:00 | 00:00:00 | |
| HA6NAB-11 | 2026-09-04 00:34:10 | 48.87239 | 17.77608 | 251° | 20km/h | 27567m | 6.9m/s | -47.4°C | 0.6% | 0hPa | 2.7V | 00:00:00 | 00:00:00 | 00:00:00 | |
| PG1ADW-2 | 2026-09-04 00:34:09 | 48.87244 | 17.77619 | 222° | 16km/h | 27554m | 7.5m/s | -47.3°C | 3.0% | 0hPa | 2.7V | 00:00:00 | 00:00:00 | 00:00:00 | |
| DO3MHA-11 | 2026-09-04 00:34:07 | 48.87250 | 17.77622 | 168° | 11km/h | 27540m | 6.2m/s | -47.4°C | 3.0% | 0hPa | 2.7V | 00:00:00 | 01:40:21 | 00:00:00 | |
| HA6NAB-11 | 2026-09-04 00:34:05 | 48.87255 | 17.77618 | 152° | 13km/h | 27526m | 7.3m/s | -47.7°C | 0.7% | 0hPa | 2.7V | 00:00:00 | 00:00:00 | 00:00:00 | |
| OE5MMP-10 | 2026-09-04 00:34:04 | 48.87258 | 17.77616 | 138° | 15km/h | 27520m | 5.3m/s | -47.7°C | 3.1% | 0hPa | 2.7V | 00:00:00 | 01:40:18 | 00:00:00 | |
| OE3OSB-13 | 2026-09-04 00:33:58 | 48.87264 | 17.77609 | 226° | 16km/h | 27480m | 8.8m/s | -47.8°C | 0.6% | -1.0hPa | 2.7V | 00:00:00 | 00:00:00 | 00:00:00 | |
| PETON7-10 | 2026-09-04 00:33:57 | 48.87267 | 17.77615 | 232° | 24km/h | 27473m | 5.5m/s | -47.8°C | 3.1% | 0hPa | 2.7V | 00:00:00 | 01:40:11 | 00:00:00 | |
| OK1ALN | 2026-09-04 00:33:56 | 48.87267 | 17.77615 | 232° | 26km/h | 27473m | 5.5m/s | -47.9°C | 0.7% | 0hPa | 2.7V | 00:00:00 | 00:00:00 | 00:00:00 | |
| S52SK | 2026-09-04 00:33:54 | 48.87278 | 17.77635 | 210° | 16km/h | 27455m | 5.1m/s | -48.0°C | 0.7% | 0hPa | 2.7V | 00:00:00 | 00:00:00 | 00:00:00 | |
| PG1ADW-2 | 2026-09-04 00:33:50 | 48.87302 | 17.77612 | 123° | 22km/h | 27422m | 7.3m/s | -48.1°C | 3.2% | 0hPa | 2.7V | 00:00:00 | 01:40:03 | 08:30:00 | |
| DO3MHA-11 | 2026-09-04 00:33:47 | 48.87310 | 17.77590 | 117° | 20km/h | 27408m | 4.7m/s | -48.2°C | 3.2% | 0hPa | 2.6V | 00:00:00 | 01:40:01 | 00:00:00 | |
| OE5DXL-15 | 2026-09-04 00:33:46 | 48.87313 | 17.77583 | 130° | 20km/h | 27403m | 5.1m/s | -48.2°C | 3.2% | 0hPa | 2.6V | 00:00:00 | 00:00:00 | 00:00:00 | |
| OE5MMP-10 | 2026-09-04 00:33:44 | 48.87321 | 17.77575 | 174° | 22km/h | 27388m | 7.0m/s | -48.3°C | 3.2% | 0hPa | 2.6V | 00:00:00 | 01:39:58 | 00:00:00 | |
| OE5DRO-10 | 2026-09-04 00:33:43 | 48.87327 | 17.77575 | 192° | 16km/h | 27383m | 4.5m/s | -48.3°C | 3.2% | 0hPa | 2.6V | 00:00:00 | 00:00:00 | 00:00:00 | |
| PETON7-10 | 2026-09-04 00:33:42 | 48.87332 | 17.77577 | 198° | 18km/h | 27377m | 6.4m/s | -48.3°C | 3.2% | 0hPa | 2.6V | 00:00:00 | 00:00:00 | 00:00:00 | |
| DO3MHA-11 | 2026-09-04 00:33:37 | 48.87352 | 17.77564 | 131° | 20km/h | 27345m | 6.8m/s | -48.2°C | 3.2% | 0hPa | 2.6V | 00:00:00 | 01:39:51 | 00:00:00 | |
| OK1ALN | 2026-09-04 00:33:35 | 48.87356 | 17.77555 | 125° | 31km/h | 27339m | 4.9m/s | -48.3°C | 0.7% | 0hPa | 2.6V | 00:00:00 | 00:00:00 | 00:00:00 | |
| OE5MMP-10 | 2026-09-04 00:33:34 | 48.87362 | 17.77535 | 105° | 13km/h | 27327m | 7.6m/s | -48.2°C | 3.2% | 0hPa | 2.6V | 00:00:00 | 01:39:48 | 00:00:00 | |
| PG1ADW-2 | 2026-09-04 00:33:29 | 48.87362 | 17.77503 | 70° | 18km/h | 27293m | 6.1m/s | -48.3°C | 3.2% | 0hPa | 2.6V | 00:00:00 | 00:00:00 | 00:00:00 | |
| PETON7-10 | 2026-09-04 00:33:27 | 48.87360 | 17.77501 | 336° | 22km/h | 27279m | 6.2m/s | -48.4°C | 3.2% | 0hPa | 2.6V | 00:00:00 | 00:00:00 | 00:00:00 | |
| POL2MAQ | 2026-09-04 00:33:26 | 48.87360 | 17.77501 | 336° | 4km/h | 27279m | 6.2m/s | -48.4°C | 0.7% | 0hPa | 2.6V | 00:00:00 | 00:00:00 | 00:00:00 | |
| OE5DRO-10 | 2026-09-04 00:33:24 | 48.87365 | 17.77501 | 166° | 20km/h | 27263m | 7.3m/s | -48.5°C | 3.2% | 0hPa | 2.6V | 00:00:00 | 00:00:00 | 08:30:00 | |
| DO3MHA-11 | 2026-09-04 00:33:17 | 48.87376 | 17.77445 | 53° | 16km/h | 27217m | 6.4m/s | -48.7°C | 3.3% | 0hPa | 2.7V | 00:00:00 | 01:39:31 | 00:00:00 | |
| OE5DXL-15 | 2026-09-04 00:33:16 | 48.87371 | 17.77436 | 50° | 16km/h | 27211m | 6.9m/s | -48.7°C | 3.3% | 0hPa | 2.7V | 00:00:00 | 00:00:00 | 00:00:00 | |
| OE5MMP-10 | 2026-09-04 00:33:14 | 48.87363 | 17.77422 | 48° | 13km/h | 27198m | 5.2m/s | -48.8°C | 3.4% | 0hPa | 2.7V | 00:00:00 | 01:39:28 | 00:00:00 | |
| PETON7-10 | 2026-09-04 00:33:12 | 48.87357 | 17.77414 | 28° | 16km/h | 27187m | 7.1m/s | -48.8°C | 3.3% | 0hPa | 2.7V | 00:00:00 | 01:39:26 | 00:00:00 | |
| PG1ADW-2 | 2026-09-04 00:33:09 | 48.87352 | 17.77410 | 101° | 16km/h | 27167m | 6.2m/s | -48.9°C | 3.3% | 0hPa | 2.7V | 00:00:00 | 00:00:00 | 00:00:00 | |
| DO3MHA-11 | 2026-09-04 00:33:07 | 48.87355 | 17.77403 | 123° | 22km/h | 27153m | 5.6m/s | -48.8°C | 3.3% | 0hPa | 2.7V | 00:00:00 | 01:39:21 | 08:30:00 | |
| POL2MAQ | 2026-09-04 00:33:06 | 48.87357 | 17.77397 | 108° | 18km/h | 27148m | 4.1m/s | -48.9°C | 0.7% | 0hPa | 2.7V | 00:00:00 | 00:00:00 | 00:00:00 | |
| OE5DRO-10 | 2026-09-04 00:33:05 | 48.87357 | 17.77390 | 86° | 16km/h | 27143m | 5.9m/s | -48.8°C | 3.3% | 0hPa | 2.7V | 00:00:00 | 00:00:00 | 00:00:00 | |
| OE5MMP-10 | 2026-09-04 00:33:04 | 48.87356 | 17.77382 | 60° | 20km/h | 27137m | 7.3m/s | -48.8°C | 3.2% | 0hPa | 2.7V | 00:00:00 | 01:39:18 | 00:00:00 | |
| OE3OSB-13 | 2026-09-04 00:32:56 | 48.87320 | 17.77357 | 101° | 11km/h | 27079m | 6.3m/s | -48.8°C | 0.7% | -1.0hPa | 2.7V | 00:00:00 | 00:00:00 | 00:00:00 | |
| OE5MMP-10 | 2026-09-04 00:32:54 | 48.87321 | 17.77353 | 125° | 11km/h | 27073m | 6.6m/s | -48.8°C | 3.3% | 0hPa | 2.7V | 00:00:00 | 01:39:08 | 08:30:00 | |
| OK1ALN | 2026-09-04 00:32:53 | 48.87321 | 17.77353 | 126° | 15km/h | 27073m | 6.6m/s | -48.8°C | 0.7% | 0hPa | 2.7V | 00:00:00 | 00:00:00 | 00:00:00 | |
| PG1ADW-2 | 2026-09-04 00:32:49 | 48.87330 | 17.77334 | 64° | 9km/h | 27039m | 7.1m/s | -48.9°C | 3.3% | 0hPa | 2.7V | 00:00:00 | 00:00:00 | 00:00:00 | |
| DO3MHA-11 | 2026-09-04 00:32:47 | 48.87325 | 17.77326 | 39° | 9km/h | 27027m | 5.5m/s | -48.9°C | 3.3% | 0hPa | 2.6V | 00:00:00 | 01:39:01 | 00:00:00 | |
| OE5DXL-15 | 2026-09-04 00:32:46 | 48.87323 | 17.77323 | 40° | 7km/h | 27021m | 6.5m/s | -48.9°C | 3.3% | 0hPa | 2.6V | 00:00:00 | 00:00:00 | 00:00:00 | |
| OE5MMP-10 | 2026-09-04 00:32:44 | 48.87322 | 17.77319 | 124° | 7km/h | 27008m | 5.0m/s | -48.9°C | 3.3% | 0hPa | 2.6V | 00:00:00 | 01:38:58 | 00:00:00 | |
| PETON7-10 | 2026-09-04 00:32:42 | 48.87325 | 17.77312 | 117° | 9km/h | 26997m | 7.1m/s | -49.0°C | 3.3% | 0hPa | 2.6V | 00:00:00 | 00:00:00 | 00:00:00 | |
| DO3MHA-11 | 2026-09-04 00:32:37 | 48.87331 | 17.77295 | 185° | 7km/h | 26964m | 6.1m/s | -49.1°C | 3.4% | 0hPa | 2.6V | 00:00:00 | 01:38:51 | 00:00:00 | |
| OE5MMP-10 | 2026-09-04 00:32:34 | 48.87330 | 17.77294 | 44° | 9km/h | 26944m | 6.8m/s | -49.1°C | 3.4% | 0hPa | 2.6V | 00:00:00 | 01:38:48 | 00:00:00 | |
| OK1ALN | 2026-09-04 00:32:33 | 48.87330 | 17.77294 | 44° | 7km/h | 26944m | 6.8m/s | -49.2°C | 0.7% | 0hPa | 2.6V | 00:00:00 | 00:00:00 | 00:00:00 | |
| PG1ADW-2 | 2026-09-04 00:32:29 | 48.87327 | 17.77280 | 105° | 7km/h | 26911m | 6.1m/s | -49.0°C | 3.4% | 0hPa | 2.6V | 00:00:00 | 01:38:43 | 00:00:00 | |
| PETON7-10 | 2026-09-04 00:32:27 | 48.87328 | 17.77272 | 98° | 5km/h | 26897m | 5.9m/s | -49.0°C | 3.4% | 0hPa | 2.6V | 00:00:00 | 01:38:41 | 00:00:00 | |
| OE3OSB-13 | 2026-09-04 00:32:25 | 48.87330 | 17.77263 | 159° | 4km/h | 26877m | 6.9m/s | -49.0°C | 0.7% | -1.0hPa | 2.6V | 00:00:00 | 00:00:00 | 00:00:00 | |
| OE5MMP-10 | 2026-09-04 00:32:24 | 48.87330 | 17.77263 | 160° | 5km/h | 26877m | 6.8m/s | -48.9°C | 3.4% | 0hPa | 2.6V | 00:00:00 | 01:38:38 | 00:00:00 | |
| DO3MHA-11 | 2026-09-04 00:32:20 | 48.87329 | 17.77259 | 48° | 5km/h | 26851m | 5.2m/s | -48.9°C | 3.3% | 0hPa | 2.6V | 00:00:00 | 01:38:34 | 00:00:00 | |
| OE5DXL-15 | 2026-09-04 00:32:16 | 48.87328 | 17.77251 | 139° | 5km/h | 26826m | 5.1m/s | -48.9°C | 3.4% | 0hPa | 2.6V | 00:00:00 | 00:00:00 | 00:00:00 | |
| OE5MMP-10 | 2026-09-04 00:32:14 | 48.87330 | 17.77248 | 102° | 5km/h | 26812m | 7.5m/s | -49.0°C | 3.4% | 0hPa | 2.6V | 00:00:00 | 01:38:28 | 00:00:00 | |
| PETON7-10 | 2026-09-04 00:32:12 | 48.87330 | 17.77243 | 125° | 5km/h | 26801m | 5.5m/s | -49.0°C | 3.3% | 0hPa | 2.6V | 00:00:00 | 00:00:00 | 08:30:00 | |
| DO3MHA-11 | 2026-09-04 00:32:10 | 48.87333 | 17.77242 | 189° | 5km/h | 26787m | 6.4m/s | -48.9°C | 3.4% | 0hPa | 2.7V | 00:00:00 | 01:38:24 | 00:00:00 | |
| PG1ADW-2 | 2026-09-04 00:32:09 | 48.87335 | 17.77243 | 200° | 5km/h | 26781m | 5.7m/s | -48.9°C | 3.4% | 0hPa | 2.7V | 00:00:00 | 00:00:00 | 00:00:00 | |
| OE5DRO-10 | 2026-09-04 00:32:08 | 48.87336 | 17.77243 | 207° | 5km/h | 26774m | 7.6m/s | -48.9°C | 3.4% | 0hPa | 2.7V | 00:00:00 | 00:00:00 | 00:00:00 | |
| HA6NAB-11 | 2026-09-04 00:32:06 | 48.87336 | 17.77243 | 361° | 2km/h | 26767m | 7.0m/s | -48.9°C | 0.7% | 0hPa | 2.7V | 00:00:00 | 00:00:00 | 00:00:00 | |
| POL2MAQ | 2026-09-04 00:32:05 | 48.87334 | 17.77244 | 338° | 4km/h | 26755m | 6.2m/s | -48.9°C | 0.7% | 0hPa | 2.7V | 00:00:00 | 00:00:00 | 00:00:00 | |
| OE5MMP-10 | 2026-09-04 00:32:04 | 48.87334 | 17.77245 | 301° | 5km/h | 26748m | 7.4m/s | -48.9°C | 3.4% | 0hPa | 2.7V | 00:00:00 | 01:38:18 | 00:00:00 | |
| OE3OSB-13 | 2026-09-04 00:31:54 | 48.87335 | 17.77229 | 295° | 2km/h | 26679m | 6.8m/s | -48.9°C | 0.7% | -1.0hPa | 2.7V | 00:00:00 | 00:00:00 | 00:00:00 | |
| OK1ALN | 2026-09-04 00:31:52 | 48.87335 | 17.77229 | 296° | 2km/h | 26679m | 6.8m/s | -48.9°C | 0.7% | 0hPa | 2.7V | 00:00:00 | 00:00:00 | 00:00:00 | |
| HA6NAB-11 | 2026-09-04 00:31:50 | 48.87334 | 17.77229 | 0° | 0km/h | 26661m | 6.8m/s | -48.8°C | 0.7% | 0hPa | 2.7V | 00:00:00 | 00:00:00 | 00:00:00 | |
| PG1ADW-2 | 2026-09-04 00:31:49 | 48.87335 | 17.77230 | 197° | 7km/h | 26654m | 6.7m/s | -48.8°C | 3.3% | 0hPa | 2.7V | 00:00:00 | 00:00:00 | 00:00:00 | |
| DO3MHA-11 | 2026-09-04 00:31:47 | 48.87335 | 17.77230 | 354° | 9km/h | 26642m | 6.1m/s | -48.7°C | 3.3% | 0hPa | 2.6V | 00:00:00 | 01:38:01 | 00:00:00 | |
| OE5DXL-15 | 2026-09-04 00:31:46 | 48.87334 | 17.77230 | 9° | 9km/h | 26635m | 8.1m/s | -48.7°C | 3.3% | 0hPa | 2.6V | 00:00:00 | 00:00:00 | 00:00:00 | |
| OE5MMP-10 | 2026-09-04 00:31:44 | 48.87327 | 17.77227 | 21° | 7km/h | 26623m | 4.5m/s | -48.7°C | 3.3% | 0hPa | 2.6V | 00:00:00 | 01:37:58 | 00:00:00 | |
| HA6NAB-11 | 2026-09-04 00:31:43 | 48.87327 | 17.77227 | 21° | 16km/h | 26623m | 4.6m/s | -48.8°C | 0.7% | 0hPa | 2.6V | 00:00:00 | 00:00:00 | 00:00:00 | |
| PETON7-10 | 2026-09-04 00:31:42 | 48.87321 | 17.77223 | 39° | 7km/h | 26611m | 7.2m/s | -48.7°C | 3.3% | 0hPa | 2.6V | 00:00:00 | 01:37:56 | 00:00:00 | |
| DO3MHA-11 | 2026-09-04 00:31:37 | 48.87316 | 17.77218 | 29° | 7km/h | 26578m | 5.6m/s | -48.9°C | 3.4% | 0hPa | 2.6V | 00:00:00 | 01:37:51 | 00:00:00 | |
| OE5MMP-10 | 2026-09-04 00:31:34 | 48.87313 | 17.77214 | 33° | 9km/h | 26558m | 6.0m/s | -48.8°C | 3.4% | 0hPa | 2.6V | 00:00:00 | 01:37:48 | 00:00:00 | |
| OK1ALN | 2026-09-04 00:31:32 | 48.87312 | 17.77213 | 14° | 7km/h | 26553m | 5.7m/s | -48.8°C | 0.7% | 0hPa | 2.6V | 00:00:00 | 00:00:00 | 00:00:00 | |
| OE5DRO-10 | 2026-09-04 00:31:30 | 48.87303 | 17.77208 | 27° | 7km/h | 26532m | 6.8m/s | -48.8°C | 3.3% | 0hPa | 2.6V | 00:00:00 | 00:00:00 | 00:00:00 | |
| NBG1-10 | 2026-09-04 00:31:29 | 48.87301 | 17.77206 | 31° | 9km/h | 26526m | 6.2m/s | -48.8°C | 3.4% | 0hPa | 2.7V | 00:00:00 | 01:37:43 | 00:00:00 | |
| PETON7-10 | 2026-09-04 00:31:27 | 48.87299 | 17.77204 | 43° | 7km/h | 26512m | 6.5m/s | -48.7°C | 3.3% | 0hPa | 2.7V | 00:00:00 | 00:00:00 | 00:00:00 | |
| GYPAP8-17 | 2026-09-04 00:31:26 | 48.87299 | 17.77204 | 44° | 2km/h | 26512m | 6.6m/s | -48.8°C | 0.7% | 0hPa | 2.6V | 00:00:00 | 00:00:00 | 00:00:00 | |
| OE5MMP-10 | 2026-09-04 00:31:24 | 48.87299 | 17.77198 | 114° | 9km/h | 26492m | 6.7m/s | -48.7°C | 3.3% | 0hPa | 2.6V | 00:00:00 | 01:37:38 | 08:30:00 | |
| OE3OSB-13 | 2026-09-04 00:31:23 | 48.87303 | 17.77190 | 139° | 13km/h | 26478m | 7.5m/s | -48.7°C | 0.6% | -1.0hPa | 2.6V | 00:00:00 | 00:00:00 | 00:00:00 | |
| SQ9EZE-14 | 2026-09-04 00:31:21 | 48.87305 | 17.77187 | 150° | 9km/h | 26471m | 6.7m/s | 0°C | 0% | 0hPa | 2.6V | 00:00:00 | 00:00:00 | 00:00:00 | |
| S52SK | 2026-09-04 00:31:20 | 48.87305 | 17.77187 | 150° | 9km/h | 26471m | 6.7m/s | -48.7°C | 0.7% | 0hPa | 2.6V | 00:00:00 | 00:00:00 | 00:00:00 | |
| DO3MHA-11 | 2026-09-04 00:31:17 | 48.87304 | 17.77181 | 38° | 9km/h | 26444m | 5.6m/s | -48.5°C | 3.2% | 0hPa | 2.6V | 00:00:00 | 01:37:31 | 00:00:00 | |
| OE5DXL-15 | 2026-09-04 00:31:16 | 48.87302 | 17.77179 | 35° | 9km/h | 26438m | 6.7m/s | -48.5°C | 3.2% | 0hPa | 2.6V | 00:00:00 | 00:00:00 | 08:30:00 | |
| OE5MMP-10 | 2026-09-04 00:31:14 | 48.87299 | 17.77177 | 28° | 9km/h | 26424m | 5.5m/s | -48.6°C | 3.2% | 0hPa | 2.6V | 00:00:00 | 01:37:28 | 00:00:00 | |
| PETON7-10 | 2026-09-04 00:31:12 | 48.87298 | 17.77173 | 69° | 9km/h | 26410m | 8.5m/s | -48.6°C | 3.3% | 0hPa | 2.6V | 00:00:00 | 00:00:00 | 00:00:00 | |
| OE5DRO-10 | 2026-09-04 00:31:11 | 48.87297 | 17.77170 | 84° | 9km/h | 26403m | 5.9m/s | -48.6°C | 3.2% | 0hPa | 2.6V | 00:00:00 | 00:00:00 | 00:00:00 | |
| DO3MHA-11 | 2026-09-04 00:31:07 | 48.87297 | 17.77153 | 69° | 7km/h | 26376m | 6.1m/s | -48.8°C | 3.3% | 0hPa | 2.6V | 00:00:00 | 01:37:21 | 00:00:00 | |
| OE5MMP-10 | 2026-09-04 00:31:04 | 48.87291 | 17.77146 | 29° | 9km/h | 26355m | 5.6m/s | -48.9°C | 3.3% | 0hPa | 2.6V | 00:00:00 | 01:37:18 | 00:00:00 | |
| POL2MAQ | 2026-09-04 00:31:03 | 48.87291 | 17.77146 | 29° | 13km/h | 26355m | 5.7m/s | -48.9°C | 0.7% | 0hPa | 2.6V | 00:00:00 | 00:00:00 | 00:00:00 | |
| PETON7-10 | 2026-09-04 00:30:57 | 48.87289 | 17.77137 | 135° | 11km/h | 26306m | 7.1m/s | -48.9°C | 3.3% | 0hPa | 2.6V | 00:00:00 | 01:37:11 | 00:00:00 | |
| OE5MMP-10 | 2026-09-04 00:30:54 | 48.87297 | 17.77127 | 130° | 9km/h | 26286m | 6.2m/s | -49.0°C | 3.3% | 0hPa | 2.6V | 00:00:00 | 01:37:08 | 00:00:00 | |
| OE5DRO-10 | 2026-09-04 00:30:52 | 48.87299 | 17.77119 | 93° | 11km/h | 26272m | 6.8m/s | -49.0°C | 3.4% | 0hPa | 2.7V | 00:00:00 | 00:00:00 | 00:00:00 | |
| OK1ALN | 2026-09-04 00:30:51 | 48.87299 | 17.77115 | 82° | 11km/h | 26265m | 5.6m/s | -49.1°C | 0.7% | 0hPa | 2.7V | 00:00:00 | 00:00:00 | 00:00:00 | |
| PG1ADW-2 | 2026-09-04 00:30:47 | 48.87294 | 17.77108 | 4° | 13km/h | 26238m | 6.2m/s | -49.0°C | 3.3% | 0hPa | 2.7V | 00:00:00 | 00:00:00 | 08:30:00 | |
| OE5DXL-15 | 2026-09-04 00:30:46 | 48.87292 | 17.77107 | 22° | 11km/h | 26231m | 8.0m/s | -49.0°C | 3.4% | 0hPa | 2.7V | 00:00:00 | 00:00:00 | 00:00:00 | |
| OE5MMP-10 | 2026-09-04 00:30:44 | 48.87288 | 17.77102 | 56° | 13km/h | 26217m | 6.7m/s | -49.0°C | 3.4% | 0hPa | 2.7V | 00:00:00 | 01:36:58 | 00:00:00 | |
| POL2MAQ | 2026-09-04 00:30:43 | 48.87287 | 17.77098 | 67° | 11km/h | 26210m | 8.1m/s | -49.0°C | 0.7% | 0hPa | 2.7V | 00:00:00 | 00:00:00 | 00:00:00 | |
| PETON7-10 | 2026-09-04 00:30:42 | 48.87286 | 17.77095 | 82° | 13km/h | 26202m | 6.6m/s | -48.9°C | 3.4% | 0hPa | 2.7V | 00:00:00 | 00:00:00 | 00:00:00 | |
| OE5DRO-10 | 2026-09-04 00:30:34 | 48.87276 | 17.77064 | 348° | 9km/h | 26139m | 7.9m/s | -48.9°C | 3.3% | 0hPa | 2.6V | 00:00:00 | 00:00:00 | 08:30:00 | |
| OK1ALN | 2026-09-04 00:30:29 | 48.87263 | 17.77066 | 358° | 16km/h | 26118m | 6.4m/s | -48.8°C | 0.7% | 0hPa | 2.7V | 00:00:00 | 00:00:00 | 00:00:00 | |
| PETON7-10 | 2026-09-04 00:30:27 | 48.87255 | 17.77068 | 337° | 9km/h | 26098m | 6.6m/s | -48.6°C | 3.2% | 0hPa | 2.7V | 00:00:00 | 00:00:00 | 00:00:00 | |
| OE5MMP-10 | 2026-09-04 00:30:24 | 48.87251 | 17.77068 | 56° | 9km/h | 26074m | 5.0m/s | -48.5°C | 3.2% | 0hPa | 2.7V | 00:00:00 | 01:36:38 | 00:00:00 | |
| POL2MAQ | 2026-09-04 00:30:22 | 48.87251 | 17.77066 | 0° | 0km/h | 26062m | 7.3m/s | -48.6°C | 0.7% | 0hPa | 2.7V | 00:00:00 | 00:00:00 | 00:00:00 | |
| OE3OSB-13 | 2026-09-04 00:30:21 | 48.87249 | 17.77069 | 309° | 9km/h | 26049m | 6.5m/s | -48.8°C | 0.6% | -1.0hPa | 2.7V | 00:00:00 | 00:00:00 | 00:00:00 | |
| OE5DXL-15 | 2026-09-04 00:30:17 | 48.87239 | 17.77077 | 338° | 9km/h | 26023m | 6.6m/s | -48.9°C | 3.3% | 0hPa | 2.7V | 00:00:00 | 00:00:00 | 00:00:00 | |
| OE5MMP-10 | 2026-09-04 00:30:14 | 48.87234 | 17.77082 | 313° | 15km/h | 26007m | 5.9m/s | -48.8°C | 3.3% | 0hPa | 2.7V | 00:00:00 | 01:36:28 | 00:00:00 | |
| GYPAP8-17 | 2026-09-04 00:30:13 | 48.87234 | 17.77082 | 314° | 15km/h | 26007m | 5.9m/s | -48.9°C | 0% | 0hPa | 2.7V | 00:00:00 | 00:00:00 | 00:00:00 | |
| PETON7-10 | 2026-09-04 00:30:12 | 48.87228 | 17.77090 | 326° | 11km/h | 25994m | 7.8m/s | -48.8°C | 3.2% | 0hPa | 2.7V | 00:00:00 | 01:36:26 | 00:00:00 | |
| OK1ALN | 2026-09-04 00:30:10 | 48.87221 | 17.77096 | 336° | 15km/h | 25981m | 5.7m/s | -48.8°C | 0.7% | 0hPa | 2.7V | 00:00:00 | 00:00:00 | 00:00:00 | |
| PG1ADW-2 | 2026-09-04 00:30:06 | 48.87211 | 17.77110 | 309° | 7km/h | 25954m | 6.7m/s | -48.7°C | 3.2% | 0hPa | 2.7V | 00:00:00 | 00:00:00 | 00:00:00 | |
| OE5MMP-10 | 2026-09-04 00:30:04 | 48.87208 | 17.77114 | 320° | 9km/h | 25940m | 5.3m/s | -48.7°C | 3.2% | 0hPa | 2.7V | 00:00:00 | 01:36:18 | 00:00:00 | |
| OE3OSB-13 | 2026-09-04 00:29:49 | 48.87207 | 17.77144 | 142° | 5km/h | 25837m | 7.5m/s | -50.0°C | 0.7% | -1.0hPa | 2.7V | 00:00:00 | 00:00:00 | 00:00:00 | |
| OK1ALN | 2026-09-04 00:29:48 | 48.87206 | 17.77144 | 144° | 5km/h | 25837m | 7.5m/s | -50.0°C | 0.7% | 0hPa | 2.7V | 00:00:00 | 00:00:00 | 00:00:00 | |
| OE5DXL-15 | 2026-09-04 00:29:46 | 48.87213 | 17.77140 | 157° | 7km/h | 25816m | 6.9m/s | -50.2°C | 3.4% | 0hPa | 2.7V | 00:00:00 | 00:00:00 | 00:00:00 | |
| PETON7-10 | 2026-09-04 00:29:41 | 48.87222 | 17.77127 | 37° | 9km/h | 25781m | 5.9m/s | -50.5°C | 3.6% | 0hPa | 2.7V | 00:00:00 | 00:00:00 | 00:00:00 | |
| OE5MMP-10 | 2026-09-04 00:29:40 | 48.87221 | 17.77126 | 20° | 7km/h | 25774m | 6.7m/s | -50.6°C | 3.6% | 0hPa | 2.7V | 00:00:00 | 01:35:54 | 08:30:00 | |
| POL2MAQ | 2026-09-04 00:29:39 | 48.87221 | 17.77126 | 21° | 4km/h | 25774m | 6.8m/s | -50.6°C | 0.8% | 0hPa | 2.6V | 00:00:00 | 00:00:00 | 00:00:00 | |
| OE5DRO-10 | 2026-09-04 00:29:36 | 48.87222 | 17.77122 | 157° | 7km/h | 25746m | 8.7m/s | -50.8°C | 3.7% | 0hPa | 2.6V | 00:00:00 | 00:00:00 | 00:00:00 | |
| OE5MMP-10 | 2026-09-04 00:29:30 | 48.87234 | 17.77108 | 101° | 7km/h | 25704m | 7.9m/s | -50.7°C | 3.6% | 0hPa | 2.6V | 00:00:00 | 01:35:44 | 00:00:00 | |
| OK1ALN | 2026-09-04 00:29:28 | 48.87233 | 17.77104 | 63° | 11km/h | 25697m | 5.7m/s | -50.8°C | 0.8% | 0hPa | 2.6V | 00:00:00 | 00:00:00 | 00:00:00 | |
| PG1ADW-2 | 2026-09-04 00:29:26 | 48.87227 | 17.77095 | 41° | 9km/h | 25675m | 8.7m/s | -50.6°C | 3.6% | 0hPa | 2.6V | 00:00:00 | 00:00:00 | 00:00:00 | |
| DO3MHA-11 | 2026-09-04 00:29:24 | 48.87225 | 17.77093 | 17° | 5km/h | 25662m | 7.0m/s | -50.5°C | 3.6% | 0hPa | 2.6V | 00:00:00 | 01:35:38 | 00:00:00 | |
| OE5MMP-10 | 2026-09-04 00:29:20 | 48.87223 | 17.77098 | 269° | 7km/h | 25633m | 8.9m/s | -50.6°C | 3.7% | 0hPa | 2.6V | 00:00:00 | 01:35:34 | 00:00:00 | |
| GYPAP8-17 | 2026-09-04 00:29:19 | 48.87223 | 17.77098 | 158° | 4km/h | 25626m | 5.8m/s | -50.7°C | 0% | 0hPa | 2.6V | 00:00:00 | 00:00:00 | 00:00:00 | |
| OE5DRO-10 | 2026-09-04 00:29:18 | 48.87224 | 17.77096 | 82° | 9km/h | 25613m | 7.8m/s | -50.7°C | 3.7% | 0hPa | 2.6V | 00:00:00 | 00:00:00 | 00:00:00 | |
| OE5DXL-15 | 2026-09-04 00:29:16 | 48.87223 | 17.77094 | 34° | 9km/h | 25605m | 7.3m/s | -50.7°C | 3.7% | 0hPa | 2.6V | 00:00:00 | 00:00:00 | 00:00:00 | |
| DO3MHA-11 | 2026-09-04 00:29:14 | 48.87219 | 17.77093 | 349° | 11km/h | 25592m | 7.2m/s | -50.7°C | 3.7% | 0hPa | 2.6V | 00:00:00 | 01:35:28 | 00:00:00 | |
| PETON7-10 | 2026-09-04 00:29:11 | 48.87212 | 17.77101 | 317° | 9km/h | 25571m | 7.1m/s | -50.5°C | 3.7% | 0hPa | 2.6V | 00:00:00 | 00:00:00 | 00:00:00 | |
| OK1ALN | 2026-09-04 00:29:07 | 48.87202 | 17.77112 | 317° | 13km/h | 25551m | 6.3m/s | -50.4°C | 0.8% | 0hPa | 2.6V | 00:00:00 | 00:00:00 | 00:00:00 | |
| PG1ADW-2 | 2026-09-04 00:29:06 | 48.87201 | 17.77118 | 223° | 7km/h | 25536m | 6.1m/s | -50.3°C | 3.6% | 0hPa | 2.6V | 00:00:00 | 00:00:00 | 00:00:00 | |
| NBG1-10 | 2026-09-04 00:29:05 | 48.87202 | 17.77118 | 167° | 13km/h | 25530m | 6.4m/s | -50.3°C | 3.6% | 0hPa | 2.6V | 00:00:00 | 01:35:19 | 00:00:00 | |
| DO3MHA-11 | 2026-09-04 00:29:03 | 48.87204 | 17.77114 | 105° | 7km/h | 25515m | 6.1m/s | -50.3°C | 3.6% | 0hPa | 2.6V | 00:00:00 | 01:35:17 | 00:00:00 | |
| OE5MMP-10 | 2026-09-04 00:29:00 | 48.87204 | 17.77106 | 71° | 7km/h | 25496m | 5.5m/s | -50.3°C | 3.6% | 0hPa | 2.6V | 00:00:00 | 01:35:14 | 00:00:00 | |
| GYPAP8-17 | 2026-09-04 00:28:58 | 48.87202 | 17.77104 | 4° | 5km/h | 25483m | 7.9m/s | -50.3°C | 0% | 0hPa | 2.6V | 00:00:00 | 00:00:00 | 00:00:00 | |
| PETON7-10 | 2026-09-04 00:28:56 | 48.87198 | 17.77105 | 340° | 7km/h | 25469m | 5.2m/s | -50.3°C | 3.6% | 0hPa | 2.6V | 00:00:00 | 00:00:00 | 00:00:00 | |
| DO3MHA-11 | 2026-09-04 00:28:53 | 48.87195 | 17.77112 | 244° | 7km/h | 25448m | 6.2m/s | -50.3°C | 3.6% | 0hPa | 2.6V | 00:00:00 | 01:35:07 | 08:30:00 | |
| OE5MMP-10 | 2026-09-04 00:28:50 | 48.87198 | 17.77120 | 236° | 7km/h | 25427m | 5.7m/s | -50.3°C | 3.6% | 0hPa | 2.6V | 00:00:00 | 01:35:04 | 00:00:00 | |
| OK1ALN | 2026-09-04 00:28:48 | 48.87201 | 17.77124 | 221° | 7km/h | 25412m | 7.9m/s | -50.3°C | 0.8% | 0hPa | 2.6V | 00:00:00 | 00:00:00 | 00:00:00 | |
| PG1ADW-2 | 2026-09-04 00:28:46 | 48.87202 | 17.77127 | 268° | 13km/h | 25400m | 7.0m/s | -50.2°C | 3.5% | 0hPa | 2.6V | 00:00:00 | 00:00:00 | 00:00:00 | |
| DO3MHA-11 | 2026-09-04 00:28:43 | 48.87197 | 17.77130 | 348° | 13km/h | 25379m | 6.9m/s | -50.2°C | 3.6% | 0hPa | 2.6V | 00:00:00 | 01:34:57 | 00:00:00 | |
| PETON7-10 | 2026-09-04 00:28:41 | 48.87194 | 17.77132 | 291° | 15km/h | 25365m | 5.0m/s | -50.2°C | 3.6% | 0hPa | 2.6V | 00:00:00 | 01:34:55 | 00:00:00 | |
| OE5MMP-10 | 2026-09-04 00:28:40 | 48.87194 | 17.77133 | 262° | 11km/h | 25359m | 6.2m/s | -50.3°C | 3.6% | 0hPa | 2.6V | 00:00:00 | 01:34:54 | 00:00:00 | |
| OE5DRO-10 | 2026-09-04 00:28:39 | 48.87195 | 17.77136 | 259° | 13km/h | 25351m | 8.3m/s | -50.3°C | 3.6% | 0hPa | 2.7V | 00:00:00 | 00:00:00 | 00:00:00 | |
| POL2MAQ | 2026-09-04 00:28:38 | 48.87195 | 17.77136 | 260° | 9km/h | 25351m | 8.4m/s | -50.4°C | 0.8% | 0hPa | 2.7V | 00:00:00 | 00:00:00 | 00:00:00 | |
| GYPAP8-17 | 2026-09-04 00:28:37 | 48.87195 | 17.77140 | 263° | 13km/h | 25344m | 6.7m/s | -50.4°C | 0% | 0hPa | 2.7V | 00:00:00 | 00:00:00 | 00:00:00 | |
| DO3MHA-11 | 2026-09-04 00:28:33 | 48.87203 | 17.77175 | 250° | 22km/h | 25311m | 7.2m/s | -50.2°C | 3.5% | 0hPa | 2.7V | 00:00:00 | 01:34:47 | 00:00:00 | |
| OE5MMP-10 | 2026-09-04 00:28:30 | 48.87205 | 17.77196 | 270° | 15km/h | 25290m | 7.0m/s | -50.1°C | 3.5% | 0hPa | 2.7V | 00:00:00 | 01:34:44 | 00:00:00 | |
| OK1ALN | 2026-09-04 00:28:27 | 48.87206 | 17.77204 | 242° | 7km/h | 25276m | 5.6m/s | -50.3°C | 0.8% | 0hPa | 2.7V | 00:00:00 | 00:00:00 | 00:00:00 | |
| PETON7-10 | 2026-09-04 00:28:26 | 48.87208 | 17.77209 | 247° | 11km/h | 25262m | 7.5m/s | -50.2°C | 3.5% | 0hPa | 2.7V | 00:00:00 | 00:00:00 | 00:00:00 | |
| DO3MHA-11 | 2026-09-04 00:28:23 | 48.87210 | 17.77217 | 241° | 9km/h | 25242m | 8.8m/s | -50.2°C | 3.5% | 0hPa | 2.6V | 00:00:00 | 01:34:37 | 00:00:00 | |
| HA6NAB-11 | 2026-09-04 00:28:22 | 48.87210 | 17.77217 | 242° | 7km/h | 25242m | 8.9m/s | -50.3°C | 0.8% | 0hPa | 2.7V | 00:00:00 | 00:00:00 | 00:00:00 | |
| OE5DRO-10 | 2026-09-04 00:28:20 | 48.87216 | 17.77226 | 228° | 13km/h | 25224m | 7.8m/s | -50.2°C | 3.5% | 0hPa | 2.7V | 00:00:00 | 00:00:00 | 00:00:00 | |
| HA6NAB-11 | 2026-09-04 00:28:18 | 48.87221 | 17.77238 | 243° | 18km/h | 25211m | 5.0m/s | -50.3°C | 0.8% | 0hPa | 2.7V | 00:00:00 | 00:00:00 | 00:00:00 | |
| POL2MAQ | 2026-09-04 00:28:17 | 48.87221 | 17.77238 | 243° | 18km/h | 25211m | 5.0m/s | -50.3°C | 0.8% | 0hPa | 2.7V | 00:00:00 | 00:00:00 | 00:00:00 | |
| OE5MMP-10 | 2026-09-04 00:28:16 | 48.87225 | 17.77248 | 230° | 11km/h | 25198m | 8.1m/s | -50.3°C | 3.5% | 0hPa | 2.7V | 00:00:00 | 01:34:30 | 00:00:00 | |
| DO3MHA-11 | 2026-09-04 00:28:13 | 48.87230 | 17.77254 | 227° | 13km/h | 25177m | 6.6m/s | -50.6°C | 3.6% | 0hPa | 2.7V | 00:00:00 | 01:34:27 | 00:00:00 | |
| PETON7-10 | 2026-09-04 00:28:11 | 48.87232 | 17.77259 | 235° | 13km/h | 25167m | 6.6m/s | -50.7°C | 3.6% | 0hPa | 2.7V | 00:00:00 | 00:00:00 | 00:00:00 | |
| PG1ADW-2 | 2026-09-04 00:28:06 | 48.87249 | 17.77274 | 209° | 9km/h | 25132m | 8.6m/s | -50.6°C | 3.6% | 0hPa | 2.7V | 00:00:00 | 00:00:00 | 00:00:00 | |
| DO3MHA-11 | 2026-09-04 00:28:03 | 48.87255 | 17.77279 | 163° | 11km/h | 25114m | 6.7m/s | -50.6°C | 3.6% | 0hPa | 2.7V | 00:00:00 | 01:34:17 | 00:00:00 | |
| OE3OSB-13 | 2026-09-04 00:27:45 | 48.87267 | 17.77228 | 56° | 5km/h | 24993m | 6.3m/s | -50.8°C | 0.8% | -1.0hPa | 2.7V | 00:00:00 | 00:00:00 | 00:00:00 | |
| DO3MHA-11 | 2026-09-04 00:27:43 | 48.87266 | 17.77223 | 93° | 5km/h | 24979m | 5.4m/s | -50.7°C | 3.7% | 0hPa | 2.7V | 00:00:00 | 01:33:57 | 00:00:00 | |
| OE5DRO-10 | 2026-09-04 00:27:42 | 48.87266 | 17.77221 | 112° | 7km/h | 24974m | 4.7m/s | -50.7°C | 3.7% | 0hPa | 2.7V | 00:00:00 | 00:00:00 | 08:30:00 | |
| PETON7-10 | 2026-09-04 00:27:41 | 48.87267 | 17.77220 | 198° | 5km/h | 24968m | 6.8m/s | -50.7°C | 3.7% | 0hPa | 2.7V | 00:00:00 | 00:00:00 | 08:30:00 | |
| OE5MMP-10 | 2026-09-04 00:27:36 | 48.87269 | 17.77233 | 216° | 4km/h | 24935m | 5.2m/s | -50.7°C | 3.6% | 0hPa | 2.7V | 00:00:00 | 01:33:50 | 00:00:00 | |
| GYPAP8-17 | 2026-09-04 00:27:35 | 48.87269 | 17.77233 | 217° | 4km/h | 24935m | 5.3m/s | -50.7°C | 0% | 0hPa | 2.7V | 00:00:00 | 00:00:00 | 00:00:00 | |
| DO3MHA-11 | 2026-09-04 00:27:33 | 48.87270 | 17.77234 | 22° | 9km/h | 24916m | 5.1m/s | -50.7°C | 3.6% | 0hPa | 2.7V | 00:00:00 | 01:33:47 | 00:00:00 | |
| PETON7-10 | 2026-09-04 00:27:26 | 48.87270 | 17.77239 | 274° | 13km/h | 24871m | 6.6m/s | -50.8°C | 3.7% | 0hPa | 2.7V | 00:00:00 | 00:00:00 | 00:00:00 | |
| OK1ALN | 2026-09-04 00:27:25 | 48.87270 | 17.77239 | 274° | 16km/h | 24871m | 6.6m/s | -50.8°C | 0.8% | 0hPa | 2.7V | 00:00:00 | 00:00:00 | 00:00:00 | |
| OE5DRO-10 | 2026-09-04 00:27:23 | 48.87271 | 17.77258 | 260° | 16km/h | 24851m | 6.7m/s | -50.7°C | 3.7% | 0hPa | 2.7V | 00:00:00 | 00:00:00 | 00:00:00 | |
| OE5DXL-15 | 2026-09-04 00:27:16 | 48.87274 | 17.77290 | 253° | 15km/h | 24805m | 6.1m/s | -50.5°C | 3.6% | 0hPa | 2.7V | 00:00:00 | 00:00:00 | 00:00:00 | |
| POL2MAQ | 2026-09-04 00:27:15 | 48.87275 | 17.77290 | 254° | 7km/h | 24805m | 6.1m/s | -50.5°C | 0.8% | 0hPa | 2.7V | 00:00:00 | 00:00:00 | 00:00:00 | |
| OE3OSB-13 | 2026-09-04 00:27:14 | 48.87274 | 17.77297 | 297° | 11km/h | 24791m | 5.1m/s | -50.5°C | 0.7% | -1.0hPa | 2.7V | 00:00:00 | 00:00:00 | 00:00:00 | |
| DO3MHA-11 | 2026-09-04 00:27:13 | 48.87272 | 17.77301 | 298° | 20km/h | 24785m | 6.3m/s | -50.5°C | 3.5% | 0hPa | 2.7V | 00:00:00 | 01:33:27 | 00:00:00 | |
| PETON7-10 | 2026-09-04 00:27:11 | 48.87270 | 17.77312 | 271° | 16km/h | 24771m | 5.4m/s | -50.6°C | 3.6% | 0hPa | 2.7V | 00:00:00 | 01:33:25 | 00:00:00 | |
| S52SK | 2026-09-04 00:27:08 | 48.87271 | 17.77335 | 267° | 26km/h | 24751m | 6.0m/s | -50.7°C | 0.8% | 0hPa | 2.7V | 00:00:00 | 00:00:00 | 00:00:00 | |
| PG1ADW-2 | 2026-09-04 00:27:06 | 48.87273 | 17.77355 | 258° | 15km/h | 24738m | 7.0m/s | -50.6°C | 3.6% | 0hPa | 2.7V | 00:00:00 | 01:33:20 | 00:00:00 | |
| OK1ALN | 2026-09-04 00:27:05 | 48.87275 | 17.77365 | 250° | 24km/h | 24732m | 5.5m/s | -50.7°C | 0.8% | 0hPa | 2.7V | 00:00:00 | 00:00:00 | 00:00:00 | |
| OE5DRO-10 | 2026-09-04 00:27:04 | 48.87277 | 17.77373 | 247° | 13km/h | 24726m | 6.4m/s | -50.6°C | 3.6% | 0hPa | 2.7V | 00:00:00 | 00:00:00 | 00:00:00 | |
| DO3MHA-11 | 2026-09-04 00:27:03 | 48.87279 | 17.77380 | 248° | 13km/h | 24719m | 8.0m/s | -50.6°C | 3.7% | 0hPa | 2.7V | 00:00:00 | 01:33:17 | 00:00:00 | |
| S52SK | 2026-09-04 00:27:01 | 48.87280 | 17.77385 | 261° | 13km/h | 24712m | 5.4m/s | -50.7°C | 0.9% | 0hPa | 2.7V | 00:00:00 | 00:00:00 | 00:00:00 | |
| OE5MMP-10 | 2026-09-04 00:26:57 | 48.87284 | 17.77401 | 233° | 13km/h | 24680m | 6.1m/s | -50.7°C | 3.7% | 0hPa | 2.7V | 00:00:00 | 01:33:11 | 00:00:00 | |
| PETON7-10 | 2026-09-04 00:26:56 | 48.87286 | 17.77405 | 246° | 15km/h | 24673m | 7.1m/s | -50.6°C | 3.7% | 0hPa | 2.6V | 00:00:00 | 00:00:00 | 00:00:00 | |
| POL2MAQ | 2026-09-04 00:26:55 | 48.87286 | 17.77405 | 247° | 13km/h | 24673m | 7.2m/s | -50.7°C | 0.9% | 0hPa | 2.6V | 00:00:00 | 00:00:00 | 00:00:00 | |
| DO3MHA-11 | 2026-09-04 00:26:53 | 48.87289 | 17.77420 | 250° | 16km/h | 24654m | 8.2m/s | -50.7°C | 3.6% | 0hPa | 2.6V | 00:00:00 | 01:33:07 | 00:00:00 | |
| OE5MMP-10 | 2026-09-04 00:26:47 | 48.87298 | 17.77447 | 242° | 16km/h | 24614m | 7.5m/s | -50.6°C | 3.5% | 0hPa | 2.6V | 00:00:00 | 01:33:01 | 00:00:00 | |
| PG1ADW-2 | 2026-09-04 00:26:46 | 48.87301 | 17.77453 | 229° | 16km/h | 24608m | 5.9m/s | -50.6°C | 3.6% | 0hPa | 2.6V | 00:00:00 | 00:00:00 | 00:00:00 | |
| OE5DRO-10 | 2026-09-04 00:26:45 | 48.87304 | 17.77458 | 224° | 16km/h | 24602m | 5.6m/s | -50.6°C | 3.6% | 0hPa | 2.7V | 00:00:00 | 00:00:00 | 00:00:00 | |
| OK1ALN | 2026-09-04 00:26:44 | 48.87304 | 17.77458 | 225° | 20km/h | 24602m | 5.6m/s | -50.7°C | 0.8% | 0hPa | 2.6V | 00:00:00 | 00:00:00 | 00:00:00 | |
| DO3MHA-11 | 2026-09-04 00:26:43 | 48.87311 | 17.77469 | 230° | 18km/h | 24588m | 6.6m/s | -50.7°C | 3.6% | 0hPa | 2.6V | 00:00:00 | 01:32:57 | 00:00:00 | |
| PETON7-10 | 2026-09-04 00:26:41 | 48.87317 | 17.77478 | 220° | 15km/h | 24575m | 7.6m/s | -50.8°C | 3.6% | 0hPa | 2.6V | 00:00:00 | 00:00:00 | 00:00:00 | |
| HA6NAB-11 | 2026-09-04 00:26:40 | 48.87320 | 17.77481 | 204° | 15km/h | 24567m | 7.2m/s | -50.9°C | 0.8% | 0hPa | 2.6V | 00:00:00 | 00:00:00 | 00:00:00 | |
| OE5MMP-10 | 2026-09-04 00:26:37 | 48.87331 | 17.77485 | 198° | 15km/h | 24547m | 7.9m/s | -50.9°C | 3.7% | 0hPa | 2.6V | 00:00:00 | 01:32:51 | 00:00:00 | |
| HA6NAB-11 | 2026-09-04 00:26:34 | 48.87337 | 17.77488 | 192° | 13km/h | 24535m | 6.5m/s | -51.0°C | 0.9% | 0hPa | 2.6V | 00:00:00 | 00:00:00 | 00:00:00 | |
| NBG1-10 | 2026-09-04 00:26:31 | 48.87353 | 17.77492 | 203° | 16km/h | 24508m | 7.4m/s | -50.9°C | 3.7% | 0hPa | 2.6V | 00:00:00 | 01:32:45 | 00:00:00 | |
| GYPAP8-17 | 2026-09-04 00:26:28 | 48.87360 | 17.77498 | 212° | 15km/h | 24495m | 6.7m/s | 0°C | 0% | 0hPa | 2.7V | 00:00:00 | 00:00:00 | 00:00:00 | |
| OE5MMP-10 | 2026-09-04 00:26:27 | 48.87366 | 17.77503 | 194° | 15km/h | 24481m | 5.5m/s | -50.9°C | 3.7% | 0hPa | 2.7V | 00:00:00 | 01:32:41 | 08:30:00 | |
| PETON7-10 | 2026-09-04 00:26:26 | 48.87370 | 17.77504 | 190° | 16km/h | 24475m | 6.9m/s | -50.9°C | 3.7% | 0hPa | 2.7V | 00:00:00 | 01:32:40 | 00:00:00 | |
| OK1ALN | 2026-09-04 00:26:24 | 48.87372 | 17.77504 | 187° | 9km/h | 24468m | 7.9m/s | -50.9°C | 0.9% | 0hPa | 2.7V | 00:00:00 | 00:00:00 | 00:00:00 | |
| HA6NAB-11 | 2026-09-04 00:26:18 | 48.87394 | 17.77501 | 200° | 18km/h | 24421m | 6.4m/s | -50.8°C | 0.8% | 0hPa | 2.7V | 00:00:00 | 00:00:00 | 00:00:00 | |
| OE5MMP-10 | 2026-09-04 00:26:17 | 48.87399 | 17.77504 | 210° | 16km/h | 24414m | 5.9m/s | -50.7°C | 3.6% | 0hPa | 2.7V | 00:00:00 | 01:32:31 | 00:00:00 | |
| OE5DXL-15 | 2026-09-04 00:26:16 | 48.87403 | 17.77508 | 213° | 18km/h | 24408m | 7.6m/s | -50.7°C | 3.6% | 0hPa | 2.7V | 00:00:00 | 01:32:30 | 00:00:00 | |
| DO3MHA-11 | 2026-09-04 00:26:14 | 48.87413 | 17.77518 | 212° | 18km/h | 24395m | 5.6m/s | -50.7°C | 3.7% | 0hPa | 2.7V | 00:00:00 | 01:32:28 | 00:00:00 | |
| OE3OSB-13 | 2026-09-04 00:26:12 | 48.87425 | 17.77529 | 202° | 11km/h | 24375m | 6.2m/s | -50.7°C | 0.8% | -1.0hPa | 2.7V | 00:00:00 | 00:00:00 | 00:00:00 | |
| PETON7-10 | 2026-09-04 00:26:11 | 48.87425 | 17.77529 | 203° | 20km/h | 24376m | 6.1m/s | -50.7°C | 3.6% | 0hPa | 2.7V | 00:00:00 | 00:00:00 | 00:00:00 | |
| OE5MMP-10 | 2026-09-04 00:26:07 | 48.87438 | 17.77519 | 132° | 22km/h | 24348m | 7.6m/s | -50.6°C | 3.6% | 0hPa | 2.7V | 00:00:00 | 01:32:21 | 00:00:00 | |
| PG1ADW-2 | 2026-09-04 00:26:06 | 48.87441 | 17.77513 | 124° | 20km/h | 24340m | 8.6m/s | -50.7°C | 3.6% | 0hPa | 2.7V | 00:00:00 | 00:00:00 | 00:00:00 | |
| DO3MHA-11 | 2026-09-04 00:26:04 | 48.87448 | 17.77499 | 134° | 20km/h | 24329m | 5.8m/s | -50.7°C | 3.7% | 0hPa | 2.7V | 00:00:00 | 01:32:18 | 00:00:00 | |
| OK1ALN | 2026-09-04 00:26:02 | 48.87452 | 17.77494 | 148° | 22km/h | 24322m | 7.8m/s | -50.8°C | 0.8% | 0hPa | 2.6V | 00:00:00 | 00:00:00 | 00:00:00 | |
| NBG1-10 | 2026-09-04 00:25:58 | 48.87478 | 17.77499 | 216° | 11km/h | 24289m | 7.1m/s | -50.9°C | 3.6% | 0hPa | 2.6V | 00:00:00 | 01:32:12 | 00:00:00 | |
| OE5MMP-10 | 2026-09-04 00:25:57 | 48.87482 | 17.77503 | 216° | 13km/h | 24281m | 8.2m/s | -50.8°C | 3.6% | 0hPa | 2.6V | 00:00:00 | 01:32:11 | 00:00:00 | |
| PETON7-10 | 2026-09-04 00:25:56 | 48.87486 | 17.77507 | 209° | 15km/h | 24274m | 5.8m/s | -50.9°C | 3.6% | 0hPa | 2.7V | 00:00:00 | 00:00:00 | 00:00:00 | |
| DO3MHA-11 | 2026-09-04 00:25:54 | 48.87494 | 17.77510 | 173° | 16km/h | 24261m | 6.2m/s | -50.9°C | 3.6% | 0hPa | 2.7V | 00:00:00 | 01:32:08 | 00:00:00 | |
| OE5DRO-10 | 2026-09-04 00:25:48 | 48.87517 | 17.77489 | 147° | 15km/h | 24218m | 8.3m/s | -51.0°C | 3.7% | 0hPa | 2.7V | 00:00:00 | 00:00:00 | 00:00:00 | |
| PG1ADW-2 | 2026-09-04 00:25:46 | 48.87523 | 17.77481 | 138° | 13km/h | 24204m | 7.1m/s | -51.1°C | 3.7% | 0hPa | 2.6V | 00:00:00 | 01:32:00 | 00:00:00 | |
| DO3MHA-11 | 2026-09-04 00:25:44 | 48.87528 | 17.77476 | 154° | 13km/h | 24189m | 5.4m/s | -51.0°C | 3.7% | 0hPa | 2.6V | 00:00:00 | 01:31:58 | 00:00:00 | |
| OK1ALN | 2026-09-04 00:25:42 | 48.87529 | 17.77475 | 145° | 7km/h | 24183m | 6.5m/s | -51.1°C | 0.9% | 0hPa | 2.6V | 00:00:00 | 00:00:00 | 00:00:00 | |
| OE3OSB-13 | 2026-09-04 00:25:41 | 48.87533 | 17.77464 | 101° | 13km/h | 24162m | 6.7m/s | -51.1°C | 0.8% | -1.0hPa | 2.6V | 00:00:00 | 00:00:00 | 00:00:00 | |
| POL2MAQ | 2026-09-04 00:25:34 | 48.87541 | 17.77428 | 106° | 20km/h | 24122m | 6.9m/s | -51.0°C | 0.9% | 0hPa | 2.6V | 00:00:00 | 00:00:00 | 00:00:00 | |
| OE5DRO-10 | 2026-09-04 00:25:29 | 48.87545 | 17.77403 | 98° | 15km/h | 24087m | 5.3m/s | -51.0°C | 3.6% | 0hPa | 2.6V | 00:00:00 | 00:00:00 | 00:00:00 | |
| PG1ADW-2 | 2026-09-04 00:25:26 | 48.87545 | 17.77392 | 77° | 15km/h | 24066m | 6.3m/s | -51.1°C | 3.6% | 0hPa | 2.6V | 00:00:00 | 00:00:00 | 00:00:00 | |
| DO3MHA-11 | 2026-09-04 00:25:24 | 48.87544 | 17.77383 | 83° | 18km/h | 24054m | 7.3m/s | -51.2°C | 3.7% | 0hPa | 2.6V | 00:00:00 | 01:31:38 | 00:00:00 | |
| OK1ALN | 2026-09-04 00:25:21 | 48.87544 | 17.77367 | 97° | 26km/h | 24040m | 6.3m/s | -51.3°C | 0.9% | 0hPa | 2.6V | 00:00:00 | 00:00:00 | 00:00:00 | |
| DO3MHA-11 | 2026-09-04 00:25:14 | 48.87551 | 17.77313 | 56° | 11km/h | 23986m | 6.4m/s | -51.6°C | 3.8% | 0hPa | 2.6V | 00:00:00 | 01:31:28 | 00:00:00 | |
| POL2MAQ | 2026-09-04 00:25:13 | 48.87551 | 17.77313 | 57° | 9km/h | 23986m | 6.5m/s | -51.6°C | 0.9% | 0hPa | 2.6V | 00:00:00 | 00:00:00 | 00:00:00 | |
| PETON7-10 | 2026-09-04 00:25:11 | 48.87547 | 17.77303 | 77° | 7km/h | 23966m | 5.2m/s | -51.6°C | 3.8% | 0hPa | 2.6V | 00:00:00 | 00:00:00 | 00:00:00 | |
| OE3OSB-13 | 2026-09-04 00:25:10 | 48.87546 | 17.77295 | 98° | 9km/h | 23951m | 8.8m/s | -51.7°C | 0.8% | -1.0hPa | 2.6V | 00:00:00 | 00:00:00 | 00:00:00 | |
| PG1ADW-2 | 2026-09-04 00:25:06 | 48.87551 | 17.77286 | 137° | 9km/h | 23931m | 8.6m/s | -51.7°C | 3.7% | 0hPa | 2.6V | 00:00:00 | 00:00:00 | 00:00:00 | |
| S52SK | 2026-09-04 00:25:05 | 48.87553 | 17.77283 | 134° | 15km/h | 23923m | 6.2m/s | -51.8°C | 0.9% | 0hPa | 2.6V | 00:00:00 | 00:00:00 | 00:00:00 | |
| DO3MHA-11 | 2026-09-04 00:25:04 | 48.87555 | 17.77279 | 131° | 4km/h | 23917m | 6.2m/s | -51.8°C | 3.7% | 0hPa | 2.6V | 00:00:00 | 01:31:18 | 00:00:00 | |
| OK1ALN | 2026-09-04 00:25:01 | 48.87558 | 17.77274 | 155° | 4km/h | 23903m | 6.2m/s | -51.9°C | 0.9% | 0hPa | 2.7V | 00:00:00 | 00:00:00 | 00:00:00 | |
| SQ9EZE-14 | 2026-09-04 00:24:57 | 48.87560 | 17.77274 | 35° | 2km/h | 23876m | 6.2m/s | 0°C | 0% | 0hPa | 2.7V | 00:00:00 | 00:00:00 | 00:00:00 | |
| PETON7-10 | 2026-09-04 00:24:56 | 48.87558 | 17.77274 | 313° | 9km/h | 23862m | 6.1m/s | -51.9°C | 3.8% | 0hPa | 2.7V | 00:00:00 | 01:31:10 | 00:00:00 | |
| OE5MMP-10 | 2026-09-04 00:24:55 | 48.87558 | 17.77275 | 277° | 11km/h | 23855m | 6.0m/s | -51.9°C | 3.8% | 0hPa | 2.7V | 00:00:00 | 01:31:09 | 00:00:00 | |
| DO3MHA-11 | 2026-09-04 00:24:54 | 48.87558 | 17.77276 | 206° | 11km/h | 23849m | 7.3m/s | -51.9°C | 3.8% | 0hPa | 2.7V | 00:00:00 | 01:31:08 | 00:00:00 | |
| POL2MAQ | 2026-09-04 00:24:53 | 48.87558 | 17.77275 | 206° | 4km/h | 23849m | 7.4m/s | -52.0°C | 0.9% | 0hPa | 2.7V | 00:00:00 | 00:00:00 | 00:00:00 | |
| OE5DRO-10 | 2026-09-04 00:24:51 | 48.87567 | 17.77272 | 165° | 16km/h | 23827m | 7.6m/s | -52.1°C | 3.8% | 0hPa | 2.7V | 00:00:00 | 00:00:00 | 08:30:00 | |
| NBG1-10 | 2026-09-04 00:24:49 | 48.87576 | 17.77270 | 183° | 16km/h | 23812m | 5.3m/s | -52.2°C | 3.9% | 0hPa | 2.7V | 00:00:00 | 01:31:03 | 00:00:00 | |
| OE5DXL-15 | 2026-09-04 00:24:46 | 48.87586 | 17.77271 | 170° | 15km/h | 23791m | 6.2m/s | -52.4°C | 3.9% | 0hPa | 2.7V | 00:00:00 | 00:00:00 | 00:00:00 | |
| OE5MMP-10 | 2026-09-04 00:24:44 | 48.87588 | 17.77271 | 227° | 15km/h | 23777m | 8.3m/s | -52.4°C | 3.9% | 0hPa | 2.7V | 00:00:00 | 01:30:58 | 00:00:00 | |
| PETON7-10 | 2026-09-04 00:24:41 | 48.87589 | 17.77276 | 216° | 20km/h | 23757m | 7.6m/s | -52.5°C | 3.9% | 0hPa | 2.6V | 00:00:00 | 00:00:00 | 00:00:00 | |
| OE3OSB-13 | 2026-09-04 00:24:39 | 48.87599 | 17.77274 | 169° | 18km/h | 23736m | 8.1m/s | -52.6°C | 0.9% | -1.0hPa | 2.7V | 00:00:00 | 00:00:00 | 00:00:00 | |
| OE5MMP-10 | 2026-09-04 00:24:34 | 48.87625 | 17.77267 | 162° | 13km/h | 23708m | 6.7m/s | -52.6°C | 4.0% | 0hPa | 2.7V | 00:00:00 | 01:30:48 | 00:00:00 | |
| OE5DRO-10 | 2026-09-04 00:24:32 | 48.87638 | 17.77259 | 159° | 15km/h | 23694m | 7.7m/s | -52.6°C | 4.0% | 0hPa | 2.7V | 00:00:00 | 00:00:00 | 00:00:00 | |
| PETON7-10 | 2026-09-04 00:24:26 | 48.87661 | 17.77254 | 185° | 11km/h | 23652m | 7.3m/s | -52.6°C | 3.9% | 0hPa | 2.7V | 00:00:00 | 00:00:00 | 00:00:00 | |
| OK1ALN | 2026-09-04 00:24:21 | 48.87681 | 17.77262 | 178° | 20km/h | 23616m | 5.3m/s | -52.6°C | 1.0% | 0hPa | 2.7V | 00:00:00 | 00:00:00 | 00:00:00 | |
| DO3MHA-11 | 2026-09-04 00:24:16 | 48.87692 | 17.77255 | 64° | 9km/h | 23582m | 7.7m/s | -52.5°C | 4.0% | 0hPa | 2.7V | 00:00:00 | 01:30:30 | 00:00:00 | |
| POL2MAQ | 2026-09-04 00:24:13 | 48.87687 | 17.77249 | 358° | 5km/h | 23562m | 8.1m/s | -52.6°C | 1.0% | 0hPa | 2.6V | 00:00:00 | 00:00:00 | 00:00:00 | |
| PETON7-10 | 2026-09-04 00:24:11 | 48.87686 | 17.77253 | 252° | 11km/h | 23549m | 7.5m/s | -52.5°C | 4.0% | 0hPa | 2.6V | 00:00:00 | 01:30:25 | 00:00:00 | |
| OE3OSB-13 | 2026-09-04 00:24:08 | 48.87698 | 17.77261 | 190° | 13km/h | 23519m | 7.9m/s | -52.5°C | 0.9% | -1.0hPa | 2.6V | 00:00:00 | 00:00:00 | 00:00:00 | |
| OE5MMP-10 | 2026-09-04 00:24:07 | 48.87698 | 17.77261 | 191° | 9km/h | 23519m | 7.9m/s | -52.4°C | 4.0% | 0hPa | 2.6V | 00:00:00 | 01:30:21 | 00:00:00 | |
| PG1ADW-2 | 2026-09-04 00:24:06 | 48.87701 | 17.77261 | 178° | 13km/h | 23513m | 5.7m/s | -52.4°C | 4.0% | 0hPa | 2.6V | 00:00:00 | 00:00:00 | 00:00:00 | |
| OK1ALN | 2026-09-04 00:24:00 | 48.87708 | 17.77253 | 177° | 2km/h | 23480m | 8.3m/s | -52.5°C | 1.0% | 0hPa | 2.6V | 00:00:00 | 00:00:00 | 00:00:00 | |
| OE5MMP-10 | 2026-09-04 00:23:57 | 48.87715 | 17.77265 | 208° | 16km/h | 23453m | 5.8m/s | -52.5°C | 3.9% | 0hPa | 2.6V | 00:00:00 | 01:30:11 | 08:30:00 | |
| PETON7-10 | 2026-09-04 00:23:56 | 48.87719 | 17.77268 | 199° | 13km/h | 23446m | 7.7m/s | -52.4°C | 3.9% | 0hPa | 2.7V | 00:00:00 | 00:00:00 | 00:00:00 | |
| OE5DRO-10 | 2026-09-04 00:23:54 | 48.87730 | 17.77270 | 174° | 15km/h | 23431m | 6.0m/s | -52.5°C | 3.9% | 0hPa | 2.7V | 00:00:00 | 00:00:00 | 00:00:00 | |
| POL2MAQ | 2026-09-04 00:23:52 | 48.87734 | 17.77268 | 165° | 20km/h | 23424m | 7.8m/s | -52.5°C | 1.0% | 0hPa | 2.6V | 00:00:00 | 00:00:00 | 00:00:00 | |
| OE5MMP-10 | 2026-09-04 00:23:47 | 48.87753 | 17.77253 | 344° | 13km/h | 23382m | 6.6m/s | -52.7°C | 3.9% | 0hPa | 2.6V | 00:00:00 | 01:30:01 | 00:00:00 | |
| PG1ADW-2 | 2026-09-04 00:23:46 | 48.87753 | 17.77254 | 246° | 13km/h | 23375m | 8.6m/s | -52.7°C | 3.9% | 0hPa | 2.6V | 00:00:00 | 00:00:00 | 00:00:00 | |
| PETON7-10 | 2026-09-04 00:23:41 | 48.87764 | 17.77256 | 170° | 15km/h | 23341m | 6.6m/s | -52.9°C | 4.0% | 0hPa | 2.7V | 00:00:00 | 00:00:00 | 00:00:00 | |
| OK1ALN | 2026-09-04 00:23:39 | 48.87768 | 17.77255 | 169° | 20km/h | 23334m | 8.6m/s | -52.9°C | 1.0% | 0hPa | 2.7V | 00:00:00 | 00:00:00 | 00:00:00 | |
| OE5MMP-10 | 2026-09-04 00:23:37 | 48.87785 | 17.77246 | 150° | 11km/h | 23313m | 6.5m/s | -53.0°C | 4.0% | 0hPa | 2.7V | 00:00:00 | 01:29:51 | 00:00:00 | |
| DO3MHA-11 | 2026-09-04 00:23:36 | 48.87789 | 17.77242 | 142° | 11km/h | 23307m | 6.0m/s | -53.0°C | 4.0% | 0hPa | 2.7V | 00:00:00 | 01:29:50 | 00:00:00 | |
| OE5DRO-10 | 2026-09-04 00:23:35 | 48.87792 | 17.77237 | 140° | 13km/h | 23300m | 7.7m/s | -53.0°C | 4.0% | 0hPa | 2.7V | 00:00:00 | 00:00:00 | 00:00:00 | |
| POL2MAQ | 2026-09-04 00:23:32 | 48.87798 | 17.77232 | 152° | 9km/h | 23286m | 6.0m/s | -53.1°C | 1.0% | 0hPa | 2.7V | 00:00:00 | 00:00:00 | 00:00:00 | |
| OE5MMP-10 | 2026-09-04 00:23:27 | 48.87808 | 17.77232 | 183° | 18km/h | 23245m | 7.2m/s | -53.3°C | 4.1% | 0hPa | 2.7V | 00:00:00 | 01:29:41 | 00:00:00 | |
| PG1ADW-2 | 2026-09-04 00:23:26 | 48.87812 | 17.77232 | 166° | 15km/h | 23237m | 8.1m/s | -53.3°C | 4.1% | 0hPa | 2.7V | 00:00:00 | 00:00:00 | 00:00:00 | |
| HA6NAB-11 | 2026-09-04 00:23:24 | 48.87816 | 17.77229 | 152° | 20km/h | 23231m | 5.4m/s | -53.3°C | 1.0% | 0hPa | 2.7V | 00:00:00 | 00:00:00 | 00:00:00 | |
| GYPAP8-17 | 2026-09-04 00:23:21 | 48.87831 | 17.77215 | 147° | 22km/h | 23210m | 5.0m/s | 0°C | 0% | 0hPa | 2.7V | 00:00:00 | 00:00:00 | 00:00:00 | |
| HA6NAB-11 | 2026-09-04 00:23:19 | 48.87839 | 17.77201 | 98° | 13km/h | 23191m | 5.5m/s | -53.5°C | 1.0% | 0hPa | 2.7V | 00:00:00 | 00:00:00 | 00:00:00 | |
| OE5MMP-10 | 2026-09-04 00:23:17 | 48.87839 | 17.77193 | 91° | 7km/h | 23177m | 8.2m/s | -53.5°C | 4.1% | 0hPa | 2.7V | 00:00:00 | 01:29:31 | 00:00:00 | |
| OE5DXL-15 | 2026-09-04 00:23:16 | 48.87839 | 17.77191 | 115° | 11km/h | 23171m | 5.4m/s | -53.5°C | 4.2% | 0hPa | 2.7V | 00:00:00 | 00:00:00 | 00:00:00 | |
| POL2MAQ | 2026-09-04 00:23:12 | 48.87844 | 17.77183 | 140° | 13km/h | 23148m | 6.4m/s | -53.5°C | 1.0% | 0hPa | 2.7V | 00:00:00 | 00:00:00 | 00:00:00 | |
| PETON7-10 | 2026-09-04 00:23:11 | 48.87847 | 17.77180 | 149° | 11km/h | 23140m | 8.7m/s | -53.5°C | 4.1% | 0hPa | 2.7V | 00:00:00 | 00:00:00 | 08:30:00 | |
| NBG1-10 | 2026-09-04 00:23:08 | 48.87860 | 17.77169 | 146° | 15km/h | 23121m | 6.7m/s | -53.6°C | 4.1% | 0hPa | 2.6V | 00:00:00 | 01:29:22 | 00:00:00 | |
| PG1ADW-2 | 2026-09-04 00:23:06 | 48.87867 | 17.77160 | 129° | 11km/h | 23109m | 5.8m/s | -53.7°C | 4.1% | 0hPa | 2.6V | 00:00:00 | 01:29:20 | 00:00:00 | |
| DO3MHA-11 | 2026-09-04 00:23:05 | 48.87869 | 17.77156 | 129° | 9km/h | 23102m | 7.5m/s | -53.7°C | 4.2% | 0hPa | 2.6V | 00:00:00 | 01:29:19 | 00:00:00 | |
| HA6NAB-11 | 2026-09-04 00:23:03 | 48.87870 | 17.77155 | 238° | 4km/h | 23089m | 6.1m/s | -53.9°C | 1.0% | 0hPa | 2.6V | 00:00:00 | 00:00:00 | 00:00:00 | |
| OK1ALN | 2026-09-04 00:22:58 | 48.87876 | 17.77159 | 186° | 13km/h | 23057m | 4.8m/s | -54.0°C | 1.0% | 0hPa | 2.6V | 00:00:00 | 00:00:00 | 00:00:00 | |
| OE5DRO-10 | 2026-09-04 00:22:57 | 48.87880 | 17.77159 | 183° | 13km/h | 23051m | 7.4m/s | -53.9°C | 4.2% | 0hPa | 2.6V | 00:00:00 | 00:00:00 | 00:00:00 | |
| PETON7-10 | 2026-09-04 00:22:56 | 48.87883 | 17.77159 | 172° | 13km/h | 23043m | 8.9m/s | -53.9°C | 4.2% | 0hPa | 2.6V | 00:00:00 | 00:00:00 | 00:00:00 | |
| POL2MAQ | 2026-09-04 00:22:51 | 48.87897 | 17.77149 | 143° | 15km/h | 23017m | 5.1m/s | -54.0°C | 1.1% | 0hPa | 2.6V | 00:00:00 | 00:00:00 | 00:00:00 | |
| S52SK | 2026-09-04 00:22:50 | 48.87900 | 17.77145 | 127° | 15km/h | 23011m | 6.6m/s | -54.0°C | 1.1% | 0hPa | 2.6V | 00:00:00 | 00:00:00 | 00:00:00 | |
| OE5MMP-10 | 2026-09-04 00:22:48 | 48.87902 | 17.77127 | 90° | 9km/h | 22991m | 7.0m/s | -53.9°C | 4.2% | 0hPa | 2.6V | 00:00:00 | 01:29:02 | 00:00:00 | |
| PG1ADW-2 | 2026-09-04 00:22:46 | 48.87902 | 17.77116 | 87° | 9km/h | 22978m | 6.1m/s | -54.0°C | 4.2% | 0hPa | 2.6V | 00:00:00 | 00:00:00 | 00:00:00 | |
| PETON7-10 | 2026-09-04 00:22:41 | 48.87905 | 17.77106 | 210° | 9km/h | 22944m | 6.7m/s | -54.0°C | 4.2% | 0hPa | 2.6V | 00:00:00 | 01:28:55 | 00:00:00 | |
| OE5MMP-10 | 2026-09-04 00:22:38 | 48.87912 | 17.77108 | 159° | 11km/h | 22926m | 6.4m/s | -54.2°C | 4.4% | 0hPa | 2.6V | 00:00:00 | 01:28:52 | 00:00:00 | |
| OK1ALN | 2026-09-04 00:22:36 | 48.87914 | 17.77106 | 134° | 11km/h | 22920m | 5.3m/s | -54.2°C | 1.1% | 0hPa | 2.6V | 00:00:00 | 00:00:00 | 00:00:00 | |
| OE3OSB-13 | 2026-09-04 00:22:34 | 48.87918 | 17.77094 | 103° | 11km/h | 22903m | 5.5m/s | -54.1°C | 0.9% | -1.0hPa | 2.6V | 00:00:00 | 00:00:00 | 00:00:00 | |
| POL2MAQ | 2026-09-04 00:22:31 | 48.87919 | 17.77085 | 109° | 13km/h | 22890m | 5.7m/s | -54.0°C | 1.1% | 0hPa | 2.6V | 00:00:00 | 00:00:00 | 00:00:00 | |
| OE5MMP-10 | 2026-09-04 00:22:28 | 48.87920 | 17.77072 | 78° | 7km/h | 22866m | 5.3m/s | -53.9°C | 4.2% | 0hPa | 2.6V | 00:00:00 | 01:28:42 | 00:00:00 | |
| NBG1-10 | 2026-09-04 00:22:26 | 48.87920 | 17.77067 | 108° | 9km/h | 22854m | 5.1m/s | -53.9°C | 4.2% | 0hPa | 2.6V | 00:00:00 | 01:28:40 | 08:30:00 | |
| OE5DRO-10 | 2026-09-04 00:22:19 | 48.87929 | 17.77051 | 128° | 9km/h | 22813m | 5.1m/s | -54.0°C | 4.3% | 0hPa | 2.7V | 00:00:00 | 00:00:00 | 00:00:00 | |
| OE5MMP-10 | 2026-09-04 00:22:18 | 48.87930 | 17.77048 | 113° | 7km/h | 22807m | 6.7m/s | -54.1°C | 4.2% | 0hPa | 2.7V | 00:00:00 | 01:28:32 | 08:30:00 | |
| OE5DXL-15 | 2026-09-04 00:22:16 | 48.87930 | 17.77044 | 84° | 9km/h | 22795m | 6.0m/s | -54.1°C | 4.3% | 0hPa | 2.6V | 00:00:00 | 00:00:00 | 08:30:00 | |
| OK1ALN | 2026-09-04 00:22:15 | 48.87930 | 17.77044 | 84° | 5km/h | 22795m | 6.0m/s | -54.1°C | 1.1% | 0hPa | 2.6V | 00:00:00 | 00:00:00 | 00:00:00 | |
| POL2MAQ | 2026-09-04 00:22:11 | 48.87935 | 17.77044 | 223° | 11km/h | 22765m | 5.6m/s | -54.1°C | 1.1% | 0hPa | 2.6V | 00:00:00 | 00:00:00 | 00:00:00 | |
| OE5MMP-10 | 2026-09-04 00:22:08 | 48.87943 | 17.77049 | 180° | 9km/h | 22747m | 4.5m/s | -54.1°C | 4.3% | 0hPa | 2.6V | 00:00:00 | 01:28:22 | 00:00:00 | |
| PG1ADW-2 | 2026-09-04 00:22:06 | 48.87948 | 17.77048 | 167° | 9km/h | 22736m | 6.6m/s | -54.2°C | 4.3% | 0hPa | 2.6V | 00:00:00 | 00:00:00 | 00:00:00 | |
| OE3OSB-13 | 2026-09-04 00:22:03 | 48.87950 | 17.77041 | 111° | 9km/h | 22719m | 7.3m/s | -54.2°C | 1.0% | -1.0hPa | 2.6V | 00:00:00 | 00:00:00 | 00:00:00 | |
| OE5DRO-10 | 2026-09-04 00:22:00 | 48.87954 | 17.77031 | 132° | 7km/h | 22702m | 7.0m/s | -54.3°C | 4.3% | 0hPa | 2.6V | 00:00:00 | 00:00:00 | 08:30:00 | |
| DO3MHA-11 | 2026-09-04 00:21:58 | 48.87956 | 17.77031 | 224° | 9km/h | 22690m | 5.5m/s | -54.3°C | 4.3% | 0hPa | 2.6V | 00:00:00 | 01:28:12 | 08:30:00 | |
| PETON7-10 | 2026-09-04 00:21:56 | 48.87961 | 17.77037 | 222° | 7km/h | 22678m | 5.2m/s | -54.4°C | 4.4% | 0hPa | 2.6V | 00:00:00 | 01:28:10 | 00:00:00 | |
| OK1ALN | 2026-09-04 00:21:54 | 48.87963 | 17.77041 | 225° | 13km/h | 22673m | 5.3m/s | -54.4°C | 1.1% | 0hPa | 2.6V | 00:00:00 | 00:00:00 | 00:00:00 | |
| NBG1-10 | 2026-09-04 00:21:51 | 48.87970 | 17.77050 | 178° | 11km/h | 22649m | 6.6m/s | -54.3°C | 4.3% | 0hPa | 2.6V | 00:00:00 | 01:28:05 | 00:00:00 | |
| POL2MAQ | 2026-09-04 00:21:49 | 48.87971 | 17.77049 | 156° | 9km/h | 22643m | 5.8m/s | -54.3°C | 1.1% | 0hPa | 2.6V | 00:00:00 | 00:00:00 | 00:00:00 | |
| DO3MHA-11 | 2026-09-04 00:21:48 | 48.87976 | 17.77045 | 142° | 5km/h | 22632m | 6.0m/s | -54.2°C | 4.3% | 0hPa | 2.6V | 00:00:00 | 01:28:02 | 00:00:00 | |
| OE5DXL-15 | 2026-09-04 00:21:46 | 48.87977 | 17.77043 | 167° | 13km/h | 22622m | 4.2m/s | -54.1°C | 4.3% | 0hPa | 2.6V | 00:00:00 | 00:00:00 | 00:00:00 | |
| PETON7-10 | 2026-09-04 00:21:41 | 48.87985 | 17.77047 | 226° | 11km/h | 22594m | 5.7m/s | -54.0°C | 4.3% | 0hPa | 2.6V | 00:00:00 | 00:00:00 | 00:00:00 | |
| DO3MHA-11 | 2026-09-04 00:21:38 | 48.87986 | 17.77054 | 244° | 13km/h | 22578m | 5.1m/s | -53.9°C | 4.3% | 0hPa | 2.6V | 00:00:00 | 01:27:52 | 00:00:00 | |
| OK1ALN | 2026-09-04 00:21:33 | 48.87996 | 17.77064 | 214° | 15km/h | 22554m | 6.9m/s | -54.0°C | 1.1% | 0hPa | 2.6V | 00:00:00 | 00:00:00 | 00:00:00 | |
| OE5MMP-10 | 2026-09-04 00:21:32 | 48.88001 | 17.77069 | 211° | 15km/h | 22543m | 5.2m/s | -53.9°C | 4.3% | 0hPa | 2.6V | 00:00:00 | 01:27:46 | 00:00:00 | |
| DO3MHA-11 | 2026-09-04 00:21:28 | 48.88014 | 17.77079 | 219° | 16km/h | 22519m | 6.8m/s | -53.9°C | 4.2% | 0hPa | 2.6V | 00:00:00 | 01:27:42 | 00:00:00 | |
| PETON7-10 | 2026-09-04 00:21:25 | 48.88022 | 17.77088 | 210° | 20km/h | 22503m | 6.9m/s | -53.8°C | 4.2% | 0hPa | 2.6V | 00:00:00 | 00:00:00 | 00:00:00 | |
| OE5MMP-10 | 2026-09-04 00:21:22 | 48.88033 | 17.77097 | 209° | 20km/h | 22485m | 6.5m/s | -53.7°C | 4.2% | 0hPa | 2.6V | 00:00:00 | 01:27:36 | 00:00:00 | |
| GYPAP8-17 | 2026-09-04 00:21:21 | 48.88037 | 17.77100 | 211° | 18km/h | 22479m | 4.7m/s | 0°C | 0% | 0hPa | 2.6V | 00:00:00 | 00:00:00 | 00:00:00 | |
| DO3MHA-11 | 2026-09-04 00:21:18 | 48.88053 | 17.77109 | 195° | 27km/h | 22462m | 5.1m/s | -53.6°C | 4.2% | 0hPa | 2.6V | 00:00:00 | 01:27:32 | 00:00:00 | |
| OE5DXL-15 | 2026-09-04 00:21:16 | 48.88064 | 17.77114 | 195° | 26km/h | 22450m | 7.5m/s | -53.6°C | 4.2% | 0hPa | 2.6V | 00:00:00 | 00:00:00 | 00:00:00 | |
| OK1ALN | 2026-09-04 00:21:13 | 48.88073 | 17.77116 | 186° | 16km/h | 22439m | 4.3m/s | -53.8°C | 1.1% | 0hPa | 2.6V | 00:00:00 | 00:00:00 | 00:00:00 | |
| OE5MMP-10 | 2026-09-04 00:21:12 | 48.88082 | 17.77116 | 177° | 27km/h | 22427m | 6.1m/s | -53.8°C | 4.2% | 0hPa | 2.6V | 00:00:00 | 01:27:26 | 00:00:00 | |
| PETON7-10 | 2026-09-04 00:21:10 | 48.88093 | 17.77116 | 184° | 27km/h | 22414m | 7.3m/s | -53.9°C | 4.2% | 0hPa | 2.6V | 00:00:00 | 01:27:24 | 00:00:00 | |
| POL2MAQ | 2026-09-04 00:21:07 | 48.88105 | 17.77119 | 192° | 27km/h | 22403m | 4.8m/s | -53.9°C | 1.1% | 0hPa | 2.6V | 00:00:00 | 00:00:00 | 00:00:00 | |
| PG1ADW-2 | 2026-09-04 00:21:06 | 48.88120 | 17.77122 | 189° | 27km/h | 22390m | 5.4m/s | -53.9°C | 4.2% | 0hPa | 2.6V | 00:00:00 | 00:00:00 | 00:00:00 | |
| S52SK | 2026-09-04 00:21:05 | 48.88129 | 17.77124 | 189° | 33km/h | 22386m | 3.9m/s | -53.9°C | 1.1% | 0hPa | 2.6V | 00:00:00 | 00:00:00 | 00:00:00 | |
| OE5DRO-10 | 2026-09-04 00:21:03 | 48.88144 | 17.77127 | 185° | 27km/h | 22374m | 5.2m/s | -53.9°C | 4.3% | 0hPa | 2.6V | 00:00:00 | 00:00:00 | 00:00:00 | |
| OE3OSB-13 | 2026-09-04 00:21:01 | 48.88158 | 17.77125 | 166° | 27km/h | 22364m | 6.6m/s | -53.9°C | 1.0% | -1.0hPa | 2.6V | 00:00:00 | 00:00:00 | 00:00:00 | |
| S52SK | 2026-09-04 00:20:58 | 48.88171 | 17.77117 | 153° | 29km/h | 22353m | 4.8m/s | -53.9°C | 1.1% | 0hPa | 2.6V | 00:00:00 | 00:00:00 | 00:00:00 | |
| DO3MHA-11 | 2026-09-04 00:20:56 | 48.88188 | 17.77103 | 157° | 26km/h | 22335m | 5.2m/s | -53.8°C | 4.2% | 0hPa | 2.6V | 00:00:00 | 01:27:10 | 00:00:00 | |
| PETON7-10 | 2026-09-04 00:20:55 | 48.88194 | 17.77100 | 164° | 26km/h | 22330m | 6.3m/s | -53.8°C | 4.2% | 0hPa | 2.7V | 00:00:00 | 00:00:00 | 08:30:00 | |
| OK1ALN | 2026-09-04 00:20:53 | 48.88217 | 17.77098 | 171° | 26km/h | 22323m | 6.1m/s | -53.9°C | 1.1% | 0hPa | 2.6V | 00:00:00 | 00:00:00 | 00:00:00 | |
| OE5MMP-10 | 2026-09-04 00:20:52 | 48.88213 | 17.77096 | 180° | 26km/h | 22312m | 6.4m/s | -53.8°C | 4.2% | 0hPa | 2.6V | 00:00:00 | 01:27:06 | 00:00:00 | |
| HA6NAB-11 | 2026-09-04 00:20:51 | 48.88213 | 17.77096 | 180° | 26km/h | 22312m | 6.5m/s | -53.8°C | 1.0% | 0hPa | 2.6V | 00:00:00 | 00:00:00 | 00:00:00 | |
| POL2MAQ | 2026-09-04 00:20:48 | 48.88238 | 17.77091 | 160° | 29km/h | 22289m | 5.5m/s | -53.8°C | 1.1% | 0hPa | 2.6V | 00:00:00 | 00:00:00 | 00:00:00 | |
| HA6NAB-11 | 2026-09-04 00:20:46 | 48.88251 | 17.77080 | 148° | 29km/h | 22279m | 5.9m/s | -53.8°C | 1.1% | 0hPa | 2.6V | 00:00:00 | 00:00:00 | 00:00:00 | |
| OE5DRO-10 | 2026-09-04 00:20:44 | 48.88262 | 17.77068 | 142° | 22km/h | 22268m | 4.7m/s | -53.8°C | 4.2% | 0hPa | 2.6V | 00:00:00 | 00:00:00 | 00:00:00 | |
| OE5MMP-10 | 2026-09-04 00:20:42 | 48.88272 | 17.77058 | 152° | 27km/h | 22257m | 6.6m/s | -53.8°C | 4.2% | 0hPa | 2.6V | 00:00:00 | 01:26:56 | 00:00:00 | |
| PETON7-10 | 2026-09-04 00:20:40 | 48.88286 | 17.77050 | 164° | 22km/h | 22245m | 5.3m/s | -53.8°C | 4.2% | 0hPa | 2.6V | 00:00:00 | 00:00:00 | 00:00:00 | |
| DO3MHA-11 | 2026-09-04 00:20:36 | 48.88307 | 17.77040 | 154° | 20km/h | 22222m | 5.9m/s | -53.8°C | 4.2% | 0hPa | 2.6V | 00:00:00 | 01:26:50 | 00:00:00 | |
| HA6NAB-11 | 2026-09-04 00:20:35 | 48.88307 | 17.77040 | 154° | 20km/h | 22222m | 6.0m/s | -53.8°C | 1.1% | 0hPa | 2.6V | 00:00:00 | 00:00:00 | 00:00:00 | |
| OK1ALN | 2026-09-04 00:20:32 | 48.88319 | 17.77026 | 132° | 18km/h | 22206m | 6.3m/s | -53.9°C | 1.1% | 0hPa | 2.6V | 00:00:00 | 00:00:00 | 00:00:00 | |
| OE3OSB-13 | 2026-09-04 00:20:30 | 48.88327 | 17.77009 | 131° | 20km/h | 22189m | 6.3m/s | -54.0°C | 1.0% | -1.0hPa | 2.6V | 00:00:00 | 00:00:00 | 00:00:00 | |
| HA6NAB-11 | 2026-09-04 00:20:29 | 48.88327 | 17.77009 | 132° | 22km/h | 22189m | 6.3m/s | -54.0°C | 1.1% | 0hPa | 2.6V | 00:00:00 | 00:00:00 | 00:00:00 | |
| POL2MAQ | 2026-09-04 00:20:27 | 48.88335 | 17.76996 | 134° | 26km/h | 22178m | 4.1m/s | -54.1°C | 1.1% | 0hPa | 2.6V | 00:00:00 | 00:00:00 | 00:00:00 | |
| DO3MHA-11 | 2026-09-04 00:20:26 | 48.88343 | 17.76982 | 127° | 20km/h | 22167m | 6.4m/s | -54.0°C | 4.2% | 0hPa | 2.6V | 00:00:00 | 01:26:40 | 08:30:00 | |
| OE5MMP-10 | 2026-09-04 00:20:25 | 48.88346 | 17.76976 | 125° | 20km/h | 22161m | 5.3m/s | -54.1°C | 4.3% | 0hPa | 2.7V | 00:00:00 | 01:26:39 | 08:30:00 | |
| HA6NAB-11 | 2026-09-04 00:20:24 | 48.88346 | 17.76976 | 125° | 20km/h | 22161m | 5.3m/s | -54.1°C | 1.1% | 0hPa | 2.7V | 00:00:00 | 00:00:00 | 00:00:00 | |
| DO3MHA-11 | 2026-09-04 00:20:16 | 48.88367 | 17.76916 | 103° | 13km/h | 22111m | 4.0m/s | -54.1°C | 4.3% | 0hPa | 2.7V | 00:00:00 | 01:26:30 | 00:00:00 | |
| OE5MMP-10 | 2026-09-04 00:20:15 | 48.88368 | 17.76908 | 98° | 11km/h | 22107m | 4.7m/s | -54.1°C | 4.3% | 0hPa | 2.7V | 00:00:00 | 01:26:29 | 00:00:00 | |
| OK1ALN | 2026-09-04 00:20:13 | 48.88368 | 17.76895 | 88° | 13km/h | 22095m | 5.7m/s | -54.1°C | 1.1% | 0hPa | 2.7V | 00:00:00 | 00:00:00 | 00:00:00 | |
| PETON7-10 | 2026-09-04 00:20:10 | 48.88370 | 17.76884 | 147° | 15km/h | 22077m | 5.2m/s | -54.1°C | 4.2% | 0hPa | 2.7V | 00:00:00 | 00:00:00 | 00:00:00 | |
| PG1ADW-2 | 2026-09-04 00:20:06 | 48.88374 | 17.76876 | 74° | 16km/h | 22056m | 4.5m/s | -54.2°C | 4.2% | 0hPa | 2.6V | 00:00:00 | 00:00:00 | 00:00:00 | |
| OE5MMP-10 | 2026-09-04 00:20:05 | 48.88373 | 17.76871 | 77° | 18km/h | 22051m | 5.9m/s | -54.2°C | 4.2% | 0hPa | 2.6V | 00:00:00 | 01:26:19 | 00:00:00 | |
| OE3OSB-13 | 2026-09-04 00:19:59 | 48.88365 | 17.76824 | 76° | 15km/h | 22019m | 4.3m/s | -54.6°C | 1.0% | -1.0hPa | 2.6V | 00:00:00 | 00:00:00 | 00:00:00 | |
| DO3MHA-11 | 2026-09-04 00:19:56 | 48.88366 | 17.76806 | 106° | 16km/h | 22001m | 4.8m/s | -54.6°C | 4.4% | 0hPa | 2.6V | 00:00:00 | 01:26:10 | 00:00:00 | |
| OE5MMP-10 | 2026-09-04 00:19:55 | 48.88367 | 17.76800 | 101° | 16km/h | 21996m | 6.1m/s | -54.6°C | 4.4% | 0hPa | 2.7V | 00:00:00 | 01:26:09 | 00:00:00 | |
| OK1ALN | 2026-09-04 00:19:52 | 48.88367 | 17.76789 | 83° | 16km/h | 21985m | 5.1m/s | -54.7°C | 1.1% | 0hPa | 2.7V | 00:00:00 | 00:00:00 | 00:00:00 | |
| OE5DRO-10 | 2026-09-04 00:19:47 | 48.88368 | 17.76751 | 122° | 15km/h | 21950m | 4.4m/s | -54.6°C | 4.3% | 0hPa | 2.7V | 00:00:00 | 00:00:00 | 00:00:00 | |
| DO3MHA-11 | 2026-09-04 00:19:46 | 48.88370 | 17.76747 | 130° | 18km/h | 21945m | 6.7m/s | -54.7°C | 4.4% | 0hPa | 2.7V | 00:00:00 | 01:26:00 | 00:00:00 | |
| OE5MMP-10 | 2026-09-04 00:19:45 | 48.88373 | 17.76742 | 131° | 18km/h | 21939m | 5.3m/s | -54.9°C | 4.4% | 0hPa | 2.7V | 00:00:00 | 01:25:59 | 00:00:00 | |
| PETON7-10 | 2026-09-04 00:19:40 | 48.88378 | 17.76712 | 83° | 16km/h | 21910m | 6.8m/s | -55.0°C | 4.4% | 0hPa | 2.7V | 00:00:00 | 01:25:54 | 00:00:00 | |
| OE5MMP-10 | 2026-09-04 00:19:35 | 48.88373 | 17.76680 | 93° | 15km/h | 21881m | 5.9m/s | -55.1°C | 4.5% | 0hPa | 2.7V | 00:00:00 | 01:25:49 | 00:00:00 | |
| OE5DRO-10 | 2026-09-04 00:19:28 | 48.88381 | 17.76649 | 86° | 15km/h | 21842m | 6.6m/s | -55.3°C | 4.6% | 0hPa | 2.7V | 00:00:00 | 00:00:00 | 00:00:00 | |
| PG1ADW-2 | 2026-09-04 00:19:26 | 48.88379 | 17.76634 | 75° | 15km/h | 21830m | 5.5m/s | -55.4°C | 4.6% | 0hPa | 2.7V | 00:00:00 | 00:00:00 | 00:00:00 | |
| OE5MMP-10 | 2026-09-04 00:19:25 | 48.88377 | 17.76626 | 68° | 16km/h | 21824m | 6.9m/s | -55.4°C | 4.6% | 0hPa | 2.7V | 00:00:00 | 01:25:39 | 00:00:00 | |
| OE5DXL-15 | 2026-09-04 00:19:16 | 48.88374 | 17.76580 | 92° | 15km/h | 21772m | 6.7m/s | -55.3°C | 4.6% | 0hPa | 2.6V | 00:00:00 | 00:00:00 | 00:00:00 | |
| OK1ALN | 2026-09-04 00:19:11 | 48.88369 | 17.76563 | 45° | 16km/h | 21748m | 5.4m/s | -55.3°C | 1.2% | 0hPa | 2.7V | 00:00:00 | 00:00:00 | 00:00:00 | |
| PETON7-10 | 2026-09-04 00:19:10 | 48.88364 | 17.76554 | 61° | 15km/h | 21737m | 6.5m/s | -55.2°C | 4.5% | 0hPa | 2.7V | 00:00:00 | 00:00:00 | 00:00:00 | |
| OE5DRO-10 | 2026-09-04 00:19:09 | 48.88362 | 17.76548 | 68° | 15km/h | 21731m | 5.2m/s | -55.2°C | 4.5% | 0hPa | 2.7V | 00:00:00 | 00:00:00 | 08:30:00 | |
| PG1ADW-2 | 2026-09-04 00:19:06 | 48.88357 | 17.76529 | 76° | 15km/h | 21714m | 4.8m/s | -55.2°C | 4.5% | 0hPa | 2.6V | 00:00:00 | 01:25:20 | 00:00:00 | |
| POL2MAQ | 2026-09-04 00:19:05 | 48.88357 | 17.76529 | 77° | 18km/h | 21714m | 4.9m/s | -55.3°C | 1.2% | 0hPa | 2.6V | 00:00:00 | 00:00:00 | 00:00:00 | |
| OE3OSB-13 | 2026-09-04 00:18:57 | 48.88359 | 17.76483 | 85° | 9km/h | 21657m | 5.7m/s | -55.1°C | 1.0% | -1.0hPa | 2.6V | 00:00:00 | 00:00:00 | 00:00:00 | |
| PETON7-10 | 2026-09-04 00:18:55 | 48.88358 | 17.76479 | 74° | 15km/h | 21651m | 6.2m/s | -55.1°C | 4.5% | 0hPa | 2.6V | 00:00:00 | 01:25:09 | 00:00:00 | |
| OK1ALN | 2026-09-04 00:18:51 | 48.88356 | 17.76453 | 95° | 24km/h | 21629m | 5.1m/s | -55.1°C | 1.2% | 0hPa | 2.6V | 00:00:00 | 00:00:00 | 00:00:00 | |
| OE5DRO-10 | 2026-09-04 00:18:50 | 48.88356 | 17.76443 | 93° | 16km/h | 21624m | 4.9m/s | -55.0°C | 4.4% | 0hPa | 2.6V | 00:00:00 | 00:00:00 | 00:00:00 | |
| PG1ADW-2 | 2026-09-04 00:18:46 | 48.88354 | 17.76414 | 83° | 16km/h | 21602m | 5.7m/s | -55.1°C | 4.4% | 0hPa | 2.6V | 00:00:00 | 00:00:00 | 08:30:00 | |
| POL2MAQ | 2026-09-04 00:18:45 | 48.88354 | 17.76410 | 95° | 13km/h | 21596m | 6.3m/s | -55.2°C | 1.2% | 0hPa | 2.7V | 00:00:00 | 00:00:00 | 00:00:00 | |
| PETON7-10 | 2026-09-04 00:18:40 | 48.88355 | 17.76392 | 94° | 18km/h | 21569m | 4.4m/s | 0°C | 0% | 0hPa | 2.7V | 00:00:00 | 00:00:00 | 08:30:00 | |
| OE5MMP-10 | 2026-09-04 00:18:39 | 48.88355 | 17.76387 | 106° | 18km/h | 21563m | 6.8m/s | -55.5°C | 4.5% | 0hPa | 2.7V | 00:00:00 | 01:24:53 | 00:00:00 | |
| OE5DRO-10 | 2026-09-04 00:18:31 | 48.88367 | 17.76329 | 101° | 18km/h | 21516m | 5.1m/s | -55.7°C | 4.6% | 0hPa | 2.7V | 00:00:00 | 00:00:00 | 00:00:00 | |
| OK1ALN | 2026-09-04 00:18:30 | 48.88367 | 17.76329 | 101° | 22km/h | 21516m | 5.1m/s | -55.7°C | 1.2% | 0hPa | 2.7V | 00:00:00 | 00:00:00 | 00:00:00 | |
| OE5MMP-10 | 2026-09-04 00:18:29 | 48.88368 | 17.76314 | 91° | 20km/h | 21504m | 5.7m/s | -55.7°C | 4.7% | 0hPa | 2.7V | 00:00:00 | 01:24:43 | 08:30:00 | |
| OE3OSB-13 | 2026-09-04 00:18:26 | 48.88370 | 17.76285 | 93° | 20km/h | 21480m | 5.2m/s | -56.0°C | 1.1% | -1.0hPa | 2.6V | 00:00:00 | 00:00:00 | 00:00:00 | |
| PETON7-10 | 2026-09-04 00:18:25 | 48.88370 | 17.76285 | 94° | 16km/h | 21481m | 5.1m/s | -56.0°C | 4.8% | 0hPa | 2.6V | 00:00:00 | 00:00:00 | 00:00:00 | |
| POL2MAQ | 2026-09-04 00:18:23 | 48.88370 | 17.76277 | 88° | 20km/h | 21475m | 6.6m/s | -56.0°C | 1.3% | 0hPa | 2.6V | 00:00:00 | 00:00:00 | 00:00:00 | |
| OE5MMP-10 | 2026-09-04 00:18:19 | 48.88369 | 17.76240 | 88° | 15km/h | 21445m | 6.6m/s | -55.9°C | 4.8% | 0hPa | 2.6V | 00:00:00 | 01:24:33 | 00:00:00 | |
| OE5DXL-15 | 2026-09-04 00:18:16 | 48.88367 | 17.76224 | 80° | 11km/h | 21426m | 7.0m/s | -55.8°C | 4.8% | 0hPa | 2.6V | 00:00:00 | 00:00:00 | 00:00:00 | |
| S52SK | 2026-09-04 00:18:14 | 48.88366 | 17.76219 | 79° | 15km/h | 21420m | 5.3m/s | -55.8°C | 1.3% | 0hPa | 2.6V | 00:00:00 | 00:00:00 | 00:00:00 | |
| OE5DRO-10 | 2026-09-04 00:18:12 | 48.88361 | 17.76203 | 51° | 11km/h | 21403m | 4.7m/s | -55.7°C | 4.8% | 0hPa | 2.6V | 00:00:00 | 00:00:00 | 00:00:00 | |
| OK1ALN | 2026-09-04 00:18:11 | 48.88359 | 17.76199 | 57° | 15km/h | 21399m | 3.9m/s | -55.7°C | 1.2% | 0hPa | 2.6V | 00:00:00 | 00:00:00 | 00:00:00 | |
| PETON7-10 | 2026-09-04 00:18:10 | 48.88357 | 17.76194 | 71° | 11km/h | 21394m | 6.4m/s | -55.6°C | 4.7% | 0hPa | 2.6V | 00:00:00 | 01:24:24 | 00:00:00 | |
| OE5MMP-10 | 2026-09-04 00:18:09 | 48.88357 | 17.76189 | 91° | 7km/h | 21387m | 6.2m/s | -55.6°C | 4.7% | 0hPa | 2.6V | 00:00:00 | 01:24:23 | 00:00:00 | |
| S52SK | 2026-09-04 00:18:08 | 48.88357 | 17.76189 | 92° | 15km/h | 21387m | 6.2m/s | -55.6°C | 1.3% | 0hPa | 2.6V | 00:00:00 | 00:00:00 | 00:00:00 | |
| PG1ADW-2 | 2026-09-04 00:18:06 | 48.88357 | 17.76171 | 82° | 9km/h | 21370m | 6.4m/s | -55.5°C | 4.8% | 0hPa | 2.6V | 00:00:00 | 00:00:00 | 00:00:00 | |
| POL2MAQ | 2026-09-04 00:18:04 | 48.88356 | 17.76163 | 75° | 9km/h | 21359m | 6.3m/s | -55.4°C | 1.3% | 0hPa | 2.6V | 00:00:00 | 00:00:00 | 00:00:00 | |
| OE3OSB-13 | 2026-09-04 00:17:55 | 48.88338 | 17.76141 | 69° | 9km/h | 21302m | 5.7m/s | -55.0°C | 1.1% | -1.0hPa | 2.6V | 00:00:00 | 00:00:00 | 00:00:00 | |
| OE5DRO-10 | 2026-09-04 00:17:53 | 48.88338 | 17.76138 | 83° | 4km/h | 21296m | 5.5m/s | -54.9°C | 4.5% | 0hPa | 2.6V | 00:00:00 | 00:00:00 | 00:00:00 | |
| OK1ALN | 2026-09-04 00:17:49 | 48.88339 | 17.76134 | 234° | 2km/h | 21280m | 4.5m/s | -54.8°C | 1.2% | 0hPa | 2.6V | 00:00:00 | 00:00:00 | 00:00:00 | |
| OE5MMP-10 | 2026-09-04 00:17:48 | 48.88338 | 17.76137 | 327° | 5km/h | 21268m | 5.6m/s | -54.7°C | 4.5% | 0hPa | 2.6V | 00:00:00 | 01:24:02 | 00:00:00 | |
| OE5DXL-15 | 2026-09-04 00:17:46 | 48.88334 | 17.76140 | 333° | 7km/h | 21257m | 5.9m/s | -54.6°C | 4.5% | 0hPa | 2.6V | 00:00:00 | 00:00:00 | 08:30:00 | |
| POL2MAQ | 2026-09-04 00:17:43 | 48.88332 | 17.76142 | 320° | 4km/h | 21245m | 4.9m/s | -54.6°C | 1.2% | 0hPa | 2.6V | 00:00:00 | 00:00:00 | 00:00:00 | |
| HA6NAB-11 | 2026-09-04 00:17:42 | 48.88331 | 17.76144 | 311° | 4km/h | 21234m | 6.9m/s | -54.5°C | 1.2% | 0hPa | 2.6V | 00:00:00 | 00:00:00 | 00:00:00 | |
| PETON7-10 | 2026-09-04 00:17:40 | 48.88330 | 17.76146 | 314° | 7km/h | 21224m | 4.5m/s | -54.4°C | 4.3% | 0hPa | 2.6V | 00:00:00 | 00:00:00 | 00:00:00 | |
| OE5MMP-10 | 2026-09-04 00:17:38 | 48.88329 | 17.76147 | 180° | 5km/h | 21212m | 5.7m/s | -54.3°C | 4.3% | 0hPa | 2.6V | 00:00:00 | 01:23:52 | 00:00:00 | |
| HA6NAB-11 | 2026-09-04 00:17:35 | 48.88329 | 17.76147 | 335° | 4km/h | 21202m | 5.3m/s | -54.3°C | 1.1% | 0hPa | 2.6V | 00:00:00 | 00:00:00 | 00:00:00 | |
| OE5DRO-10 | 2026-09-04 00:17:34 | 48.88326 | 17.76149 | 337° | 9km/h | 21190m | 5.3m/s | -54.3°C | 4.3% | 0hPa | 2.6V | 00:00:00 | 00:00:00 | 00:00:00 | |
| OE5MMP-10 | 2026-09-04 00:17:28 | 48.88323 | 17.76165 | 255° | 11km/h | 21156m | 5.1m/s | -54.6°C | 4.4% | 0hPa | 2.6V | 00:00:00 | 01:23:42 | 00:00:00 | |
| PG1ADW-2 | 2026-09-04 00:17:26 | 48.88326 | 17.76174 | 233° | 11km/h | 21145m | 7.4m/s | -54.6°C | 4.4% | 0hPa | 2.6V | 00:00:00 | 00:00:00 | 00:00:00 | |
| PETON7-10 | 2026-09-04 00:17:25 | 48.88329 | 17.76179 | 226° | 11km/h | 21138m | 5.8m/s | -54.6°C | 4.4% | 0hPa | 2.6V | 00:00:00 | 01:23:39 | 00:00:00 | |
| HA6NAB-11 | 2026-09-04 00:17:24 | 48.88329 | 17.76179 | 227° | 16km/h | 21138m | 5.8m/s | -54.7°C | 1.2% | 0hPa | 2.6V | 00:00:00 | 00:00:00 | 00:00:00 | |
| POL2MAQ | 2026-09-04 00:17:23 | 48.88332 | 17.76183 | 231° | 13km/h | 21132m | 5.8m/s | -54.6°C | 1.2% | 0hPa | 2.6V | 00:00:00 | 00:00:00 | 00:00:00 | |
| NBG1-10 | 2026-09-04 00:17:19 | 48.88336 | 17.76193 | 193° | 13km/h | 21104m | 5.0m/s | -54.5°C | 4.3% | 0hPa | 2.6V | 00:00:00 | 01:23:33 | 00:00:00 | |
| OE5MMP-10 | 2026-09-04 00:17:18 | 48.88337 | 17.76194 | 209° | 13km/h | 21099m | 4.6m/s | -54.5°C | 4.3% | 0hPa | 2.6V | 00:00:00 | 01:23:32 | 00:00:00 | |
| OE5DXL-15 | 2026-09-04 00:17:16 | 48.88339 | 17.76197 | 230° | 16km/h | 21088m | 5.0m/s | -54.7°C | 4.4% | 0hPa | 2.7V | 00:00:00 | 00:00:00 | 00:00:00 | |
| OE5DRO-10 | 2026-09-04 00:17:15 | 48.88341 | 17.76201 | 220° | 13km/h | 21083m | 5.1m/s | -54.8°C | 4.5% | 0hPa | 2.7V | 00:00:00 | 00:00:00 | 00:00:00 | |
| HA6NAB-11 | 2026-09-04 00:17:14 | 48.88345 | 17.76204 | 212° | 18km/h | 21077m | 6.9m/s | -54.8°C | 1.2% | 0hPa | 2.7V | 00:00:00 | 00:00:00 | 00:00:00 | |
| PETON7-10 | 2026-09-04 00:17:10 | 48.88360 | 17.76218 | 220° | 13km/h | 21055m | 5.1m/s | -54.7°C | 4.4% | 0hPa | 2.7V | 00:00:00 | 00:00:00 | 00:00:00 | |
| OE5MMP-10 | 2026-09-04 00:17:08 | 48.88364 | 17.76222 | 209° | 13km/h | 21045m | 6.0m/s | -54.7°C | 4.3% | 0hPa | 2.6V | 00:00:00 | 01:23:22 | 00:00:00 | |
| OK1ALN | 2026-09-04 00:17:07 | 48.88364 | 17.76222 | 210° | 7km/h | 21045m | 6.0m/s | -54.8°C | 1.1% | 0hPa | 2.6V | 00:00:00 | 00:00:00 | 00:00:00 | |
| PG1ADW-2 | 2026-09-04 00:17:06 | 48.88368 | 17.76223 | 185° | 16km/h | 21033m | 4.9m/s | -54.7°C | 4.4% | 0hPa | 2.6V | 00:00:00 | 00:00:00 | 00:00:00 | |
| POL2MAQ | 2026-09-04 00:17:02 | 48.88374 | 17.76229 | 225° | 13km/h | 21016m | 4.8m/s | -55.0°C | 1.2% | 0hPa | 2.6V | 00:00:00 | 00:00:00 | 00:00:00 | |
| OE3OSB-13 | 2026-09-04 00:16:52 | 48.88423 | 17.76249 | 192° | 20km/h | 20955m | 6.1m/s | -55.0°C | 1.1% | -1.0hPa | 2.6V | 00:00:00 | 00:00:00 | 00:00:00 | |
| OE5MMP-10 | 2026-09-04 00:16:48 | 48.88442 | 17.76258 | 194° | 20km/h | 20933m | 4.7m/s | -54.8°C | 4.4% | 0hPa | 2.6V | 00:00:00 | 01:23:02 | 08:30:00 | |
| PG1ADW-2 | 2026-09-04 00:16:46 | 48.88449 | 17.76260 | 190° | 18km/h | 20922m | 6.9m/s | -54.8°C | 4.5% | 0hPa | 2.6V | 00:00:00 | 00:00:00 | 00:00:00 | |
| POL2MAQ | 2026-09-04 00:16:41 | 48.88460 | 17.76256 | 165° | 18km/h | 20900m | 5.3m/s | -55.0°C | 1.2% | 0hPa | 2.7V | 00:00:00 | 00:00:00 | 00:00:00 | |
| PETON7-10 | 2026-09-04 00:16:40 | 48.88471 | 17.76253 | 175° | 20km/h | 20889m | 5.7m/s | -55.0°C | 4.5% | 0hPa | 2.7V | 00:00:00 | 01:22:54 | 00:00:00 | |
| OE5MMP-10 | 2026-09-04 00:16:37 | 48.88488 | 17.76250 | 166° | 18km/h | 20874m | 5.3m/s | -55.0°C | 4.5% | 0hPa | 2.7V | 00:00:00 | 01:22:51 | 00:00:00 | |
| OE3JTB-15 | 2026-09-04 00:16:33 | 48.88519 | 17.76229 | 140° | 9km/h | 20835m | 6.9m/s | -55.0°C | 4.4% | 0hPa | 2.7V | 00:00:00 | 00:00:00 | 08:30:00 | |
| OE5MMP-10 | 2026-09-04 00:16:27 | 48.88528 | 17.76214 | 139° | 18km/h | 20816m | 6.4m/s | -55.0°C | 4.5% | 0hPa | 2.7V | 00:00:00 | 01:22:41 | 00:00:00 | |
| PG1ADW-2 | 2026-09-04 00:16:26 | 48.88532 | 17.76210 | 140° | 15km/h | 20811m | 4.7m/s | -55.0°C | 4.4% | 0hPa | 2.7V | 00:00:00 | 01:22:40 | 00:00:00 | |
| PETON7-10 | 2026-09-04 00:16:25 | 48.88536 | 17.76204 | 137° | 15km/h | 20805m | 6.4m/s | -55.1°C | 4.5% | 0hPa | 2.7V | 00:00:00 | 00:00:00 | 08:30:00 | |
| OE3OSB-13 | 2026-09-04 00:16:21 | 48.88550 | 17.76182 | 136° | 15km/h | 20781m | 5.9m/s | -55.2°C | 1.1% | -1.0hPa | 2.6V | 00:00:00 | 00:00:00 | 00:00:00 | |
| OE5DRO-10 | 2026-09-04 00:16:18 | 48.88555 | 17.76170 | 102° | 11km/h | 20763m | 5.3m/s | -55.1°C | 4.6% | 0hPa | 2.6V | 00:00:00 | 00:00:00 | 08:30:00 | |
| OE5MMP-10 | 2026-09-04 00:16:17 | 48.88556 | 17.76166 | 95° | 13km/h | 20758m | 4.7m/s | -55.1°C | 4.6% | 0hPa | 2.6V | 00:00:00 | 01:22:31 | 00:00:00 | |
| OE5DXL-15 | 2026-09-04 00:16:16 | 48.88556 | 17.76162 | 101° | 9km/h | 20753m | 6.4m/s | -55.1°C | 4.6% | 0hPa | 2.6V | 00:00:00 | 00:00:00 | 00:00:00 | |
| NBG1-10 | 2026-09-04 00:16:13 | 48.88558 | 17.76153 | 116° | 13km/h | 20735m | 6.1m/s | -55.1°C | 4.6% | 0hPa | 2.7V | 00:00:00 | 01:22:27 | 00:00:00 | |
| PETON7-10 | 2026-09-04 00:16:10 | 48.88563 | 17.76135 | 115° | 9km/h | 20718m | 4.9m/s | -55.1°C | 4.6% | 0hPa | 2.7V | 00:00:00 | 00:00:00 | 00:00:00 | |
| OE5MMP-10 | 2026-09-04 00:16:07 | 48.88568 | 17.76123 | 115° | 7km/h | 20700m | 5.5m/s | -55.0°C | 4.7% | 0hPa | 2.7V | 00:00:00 | 01:22:21 | 00:00:00 | |
| PG1ADW-2 | 2026-09-04 00:16:06 | 48.88568 | 17.76120 | 92° | 7km/h | 20694m | 7.1m/s | -55.0°C | 4.6% | 0hPa | 2.7V | 00:00:00 | 00:00:00 | 00:00:00 | |
| OK1ALN | 2026-09-04 00:16:05 | 48.88568 | 17.76120 | 92° | 7km/h | 20694m | 7.1m/s | -55.0°C | 1.2% | 0hPa | 2.7V | 00:00:00 | 00:00:00 | 00:00:00 | |
| OE3OSB-13 | 2026-09-04 00:15:50 | 48.88563 | 17.76083 | 13° | 9km/h | 20602m | 4.9m/s | -54.3°C | 1.1% | -1.0hPa | 2.7V | 00:00:00 | 00:00:00 | 00:00:00 | |
| S52SK | 2026-09-04 00:15:49 | 48.88561 | 17.76082 | 22° | 11km/h | 20597m | 6.5m/s | -54.3°C | 1.2% | 0hPa | 2.7V | 00:00:00 | 00:00:00 | 00:00:00 | |
| OE5MMP-10 | 2026-09-04 00:15:47 | 48.88556 | 17.76077 | 45° | 13km/h | 20586m | 5.2m/s | -54.1°C | 4.4% | 0hPa | 2.7V | 00:00:00 | 01:22:01 | 00:00:00 | |
| OE5DXL-15 | 2026-09-04 00:15:46 | 48.88554 | 17.76075 | 52° | 13km/h | 20579m | 7.3m/s | -54.1°C | 4.4% | 0hPa | 2.6V | 00:00:00 | 00:00:00 | 00:00:00 | |
| OK1ALN | 2026-09-04 00:15:45 | 48.88554 | 17.76075 | 52° | 7km/h | 20579m | 7.3m/s | -54.1°C | 1.2% | 0hPa | 2.6V | 00:00:00 | 00:00:00 | 00:00:00 | |
| POL2MAQ | 2026-09-04 00:15:41 | 48.88547 | 17.76057 | 52° | 15km/h | 20551m | 5.4m/s | -53.8°C | 1.2% | 0hPa | 2.6V | 00:00:00 | 00:00:00 | 00:00:00 | |
| PETON7-10 | 2026-09-04 00:15:40 | 48.88545 | 17.76053 | 46° | 11km/h | 20544m | 6.8m/s | -53.7°C | 4.3% | 0hPa | 2.6V | 00:00:00 | 00:00:00 | 00:00:00 | |
| PG1ADW-2 | 2026-09-04 00:15:26 | 48.88521 | 17.76016 | 50° | 15km/h | 20465m | 6.4m/s | -53.3°C | 4.1% | 0hPa | 2.7V | 00:00:00 | 00:00:00 | 00:00:00 | |
| PETON7-10 | 2026-09-04 00:15:25 | 48.88519 | 17.76013 | 32° | 16km/h | 20459m | 6.1m/s | -53.3°C | 4.1% | 0hPa | 2.7V | 00:00:00 | 00:00:00 | 00:00:00 | |
| OK1ALN | 2026-09-04 00:15:24 | 48.88519 | 17.76013 | 33° | 15km/h | 20459m | 6.1m/s | -53.3°C | 1.1% | 0hPa | 2.7V | 00:00:00 | 00:00:00 | 00:00:00 | |
| OE5MMP-10 | 2026-09-04 00:15:22 | 48.88506 | 17.76009 | 357° | 16km/h | 20440m | 5.1m/s | -53.4°C | 4.2% | 0hPa | 2.7V | 00:00:00 | 01:21:36 | 00:00:00 | |
| OE5DRO-10 | 2026-09-04 00:15:21 | 48.88501 | 17.76009 | 359° | 13km/h | 20436m | 4.3m/s | -53.3°C | 4.1% | 0hPa | 2.7V | 00:00:00 | 00:00:00 | 00:00:00 | |
| POL2MAQ | 2026-09-04 00:15:20 | 48.88501 | 17.76009 | 360° | 18km/h | 20436m | 4.3m/s | -53.4°C | 1.1% | 0hPa | 2.6V | 00:00:00 | 00:00:00 | 00:00:00 | |
| NBG1-10 | 2026-09-04 00:15:19 | 48.88492 | 17.76007 | 21° | 18km/h | 20424m | 6.0m/s | 0°C | 0% | 0hPa | 2.6V | 00:00:00 | 01:21:33 | 00:00:00 | |
| OE5DXL-15 | 2026-09-04 00:15:16 | 48.88485 | 17.75998 | 66° | 15km/h | 20405m | 4.8m/s | -53.2°C | 4.1% | 0hPa | 2.6V | 00:00:00 | 00:00:00 | 00:00:00 | |
| OE5MMP-10 | 2026-09-04 00:15:12 | 48.88480 | 17.75973 | 73° | 11km/h | 20384m | 5.1m/s | -53.1°C | 4.1% | 0hPa | 2.6V | 00:00:00 | 01:21:26 | 00:00:00 | |
| PETON7-10 | 2026-09-04 00:15:11 | 48.88477 | 17.75961 | 67° | 15km/h | 20372m | 5.7m/s | -53.2°C | 4.1% | 0hPa | 2.6V | 00:00:00 | 01:21:24 | 00:00:00 | |
| PG1ADW-2 | 2026-09-04 00:15:06 | 48.88471 | 17.75950 | 18° | 15km/h | 20350m | 5.0m/s | -53.1°C | 4.1% | 0hPa | 2.6V | 00:00:00 | 01:21:20 | 00:00:00 | |
| OK1ALN | 2026-09-04 00:15:03 | 48.88468 | 17.75950 | 360° | 4km/h | 20338m | 5.2m/s | -53.2°C | 1.1% | 0hPa | 2.6V | 00:00:00 | 00:00:00 | 00:00:00 | |
| OE3OSB-13 | 2026-09-04 00:14:48 | 48.88492 | 17.75872 | 170° | 11km/h | 20248m | 7.0m/s | -53.6°C | 1.0% | -1.0hPa | 2.6V | 00:00:00 | 00:00:00 | 00:00:00 | |
| OE5DXL-15 | 2026-09-04 00:14:46 | 48.88517 | 17.75871 | 170° | 27km/h | 20237m | 5.0m/s | -53.6°C | 4.3% | 0hPa | 2.6V | 00:00:00 | 00:00:00 | 00:00:00 | |
| OE5DRO-10 | 2026-09-04 00:14:43 | 48.88515 | 17.75858 | 139° | 29km/h | 20218m | 5.2m/s | -53.6°C | 4.3% | 0hPa | 2.6V | 00:00:00 | 00:00:00 | 00:00:00 | |
| OE5MMP-10 | 2026-09-04 00:14:42 | 48.88520 | 17.75850 | 140° | 27km/h | 20213m | 6.4m/s | -53.6°C | 4.3% | 0hPa | 2.6V | 00:00:00 | 01:20:56 | 00:00:00 | |
| OK1ALN | 2026-09-04 00:14:41 | 48.88520 | 17.75850 | 140° | 31km/h | 20213m | 6.4m/s | -53.7°C | 1.2% | 0hPa | 2.6V | 00:00:00 | 00:00:00 | 00:00:00 | |
| PETON7-10 | 2026-09-04 00:14:40 | 48.88533 | 17.75835 | 142° | 27km/h | 20202m | 4.0m/s | -53.6°C | 4.3% | 0hPa | 2.6V | 00:00:00 | 00:00:00 | 00:00:00 | |
| HA6NAB-11 | 2026-09-04 00:14:38 | 48.88539 | 17.75827 | 140° | 29km/h | 20197m | 5.0m/s | -53.7°C | 1.2% | 0hPa | 2.6V | 00:00:00 | 00:00:00 | 00:00:00 | |
| OE5MMP-10 | 2026-09-04 00:14:32 | 48.88574 | 17.75785 | 138° | 31km/h | 20159m | 5.9m/s | -53.4°C | 4.2% | 0hPa | 2.6V | 00:00:00 | 01:20:46 | 00:00:00 | |
| HA6NAB-11 | 2026-09-04 00:14:27 | 48.88594 | 17.75753 | 139° | 29km/h | 20138m | 5.4m/s | -53.5°C | 1.2% | 0hPa | 2.7V | 00:00:00 | 00:00:00 | 00:00:00 | |
| PG1ADW-2 | 2026-09-04 00:14:26 | 48.88605 | 17.75737 | 132° | 29km/h | 20127m | 7.0m/s | -53.4°C | 4.2% | 0hPa | 2.7V | 00:00:00 | 00:00:00 | 00:00:00 | |
| PETON7-10 | 2026-09-04 00:14:25 | 48.88610 | 17.75727 | 126° | 29km/h | 20121m | 5.5m/s | -53.4°C | 4.2% | 0hPa | 2.7V | 00:00:00 | 01:20:39 | 00:00:00 | |
| OE5DRO-10 | 2026-09-04 00:14:22 | 48.88625 | 17.75698 | 129° | 27km/h | 20103m | 5.0m/s | -53.3°C | 4.1% | 0hPa | 2.7V | 00:00:00 | 00:00:00 | 00:00:00 | |
| HA6NAB-11 | 2026-09-04 00:14:21 | 48.88625 | 17.75698 | 130° | 29km/h | 20103m | 5.1m/s | -53.4°C | 1.2% | 0hPa | 2.6V | 00:00:00 | 00:00:00 | 00:00:00 | |
| OK1ALN | 2026-09-04 00:14:20 | 48.88629 | 17.75689 | 127° | 27km/h | 20098m | 5.7m/s | -53.3°C | 1.2% | 0hPa | 2.6V | 00:00:00 | 00:00:00 | 00:00:00 | |
| POL2MAQ | 2026-09-04 00:14:18 | 48.88639 | 17.75664 | 124° | 24km/h | 20080m | 6.1m/s | -53.3°C | 1.1% | 0hPa | 2.6V | 00:00:00 | 00:00:00 | 00:00:00 | |
| OE3OSB-13 | 2026-09-04 00:14:17 | 48.88643 | 17.75656 | 126° | 22km/h | 20074m | 5.8m/s | -53.3°C | 1.0% | -1.0hPa | 2.6V | 00:00:00 | 00:00:00 | 00:00:00 | |
| OE5DXL-15 | 2026-09-04 00:14:16 | 48.88646 | 17.75649 | 128° | 29km/h | 20069m | 5.1m/s | -53.3°C | 4.1% | 0hPa | 2.6V | 00:00:00 | 00:00:00 | 00:00:00 | |
| OE5MMP-10 | 2026-09-04 00:14:12 | 48.88662 | 17.75612 | 125° | 29km/h | 20045m | 6.6m/s | -53.3°C | 4.0% | 0hPa | 2.6V | 00:00:00 | 01:20:26 | 00:00:00 | |
| PETON7-10 | 2026-09-04 00:14:10 | 48.88672 | 17.75592 | 126° | 29km/h | 20034m | 5.1m/s | -53.4°C | 4.1% | 0hPa | 2.6V | 00:00:00 | 00:00:00 | 08:30:00 | |
| PG1ADW-2 | 2026-09-04 00:14:06 | 48.88688 | 17.75553 | 127° | 29km/h | 20012m | 6.4m/s | -53.8°C | 4.2% | 0hPa | 2.7V | 00:00:00 | 00:00:00 | 00:00:00 | |
| S52SK | 2026-09-04 00:14:05 | 48.88692 | 17.75546 | 129° | 22km/h | 20006m | 4.5m/s | -53.9°C | 1.2% | 0hPa | 2.7V | 00:00:00 | 00:00:00 | 00:00:00 | |
| OE5DRO-10 | 2026-09-04 00:14:03 | 48.88699 | 17.75531 | 121° | 29km/h | 19997m | 6.5m/s | -54.0°C | 4.2% | 0hPa | 2.7V | 00:00:00 | 00:00:00 | 00:00:00 | |
| OK1ALN | 2026-09-04 00:14:00 | 48.88705 | 17.75511 | 112° | 29km/h | 19986m | 5.1m/s | -54.3°C | 1.2% | 0hPa | 2.7V | 00:00:00 | 00:00:00 | 00:00:00 | |
| S52SK | 2026-09-04 00:13:58 | 48.88710 | 17.75490 | 111° | 29km/h | 19974m | 5.4m/s | -54.3°C | 1.2% | 0hPa | 2.7V | 00:00:00 | 00:00:00 | 00:00:00 | |
| POL2MAQ | 2026-09-04 00:13:57 | 48.88713 | 17.75480 | 106° | 29km/h | 19969m | 5.4m/s | -54.3°C | 1.2% | 0hPa | 2.7V | 00:00:00 | 00:00:00 | 00:00:00 | |
| PETON7-10 | 2026-09-04 00:13:55 | 48.88717 | 17.75443 | 99° | 29km/h | 19952m | 5.4m/s | -54.2°C | 4.3% | 0hPa | 2.7V | 00:00:00 | 00:00:00 | 00:00:00 | |
| S52SK | 2026-09-04 00:13:53 | 48.88718 | 17.75430 | 102° | 31km/h | 19946m | 6.4m/s | -54.3°C | 1.2% | 0hPa | 2.7V | 00:00:00 | 00:00:00 | 00:00:00 | |
| OE5MMP-10 | 2026-09-04 00:13:52 | 48.88720 | 17.75407 | 97° | 29km/h | 19935m | 5.6m/s | -54.4°C | 4.3% | 0hPa | 2.7V | 00:00:00 | 01:20:06 | 00:00:00 | |
| OE5DXL-15 | 2026-09-04 00:13:46 | 48.88725 | 17.75341 | 100° | 24km/h | 19903m | 6.4m/s | -54.6°C | 4.4% | 0hPa | 2.7V | 00:00:00 | 00:00:00 | 00:00:00 | |
| OE5DRO-10 | 2026-09-04 00:13:44 | 48.88727 | 17.75320 | 99° | 24km/h | 19892m | 5.0m/s | -54.6°C | 4.4% | 0hPa | 2.7V | 00:00:00 | 00:00:00 | 00:00:00 | |
| OE5MMP-10 | 2026-09-04 00:13:42 | 48.88729 | 17.75301 | 93° | 24km/h | 19880m | 5.0m/s | -54.7°C | 4.4% | 0hPa | 2.7V | 00:00:00 | 01:19:56 | 00:00:00 | |
| PETON7-10 | 2026-09-04 00:13:40 | 48.88728 | 17.75283 | 82° | 24km/h | 19869m | 6.0m/s | -54.7°C | 4.3% | 0hPa | 2.7V | 00:00:00 | 01:19:54 | 00:00:00 | |
| POL2MAQ | 2026-09-04 00:13:36 | 48.88726 | 17.75257 | 93° | 20km/h | 19852m | 4.3m/s | -54.9°C | 1.3% | 0hPa | 2.7V | 00:00:00 | 00:00:00 | 00:00:00 | |
| OE5MMP-10 | 2026-09-04 00:13:32 | 48.88734 | 17.75214 | 115° | 24km/h | 19826m | 6.7m/s | -54.8°C | 4.4% | 0hPa | 2.7V | 00:00:00 | 01:19:46 | 08:30:00 | |
| PG1ADW-2 | 2026-09-04 00:13:26 | 48.88746 | 17.75161 | 98° | 29km/h | 19794m | 6.0m/s | -55.3°C | 4.5% | 0hPa | 2.7V | 00:00:00 | 00:00:00 | 00:00:00 | |
| PETON7-10 | 2026-09-04 00:13:25 | 48.88747 | 17.75152 | 100° | 27km/h | 19788m | 4.9m/s | -55.3°C | 4.5% | 0hPa | 2.7V | 00:00:00 | 00:00:00 | 00:00:00 | |
| OE5MMP-10 | 2026-09-04 00:13:22 | 48.88754 | 17.75124 | 124° | 29km/h | 19772m | 4.5m/s | -55.5°C | 4.6% | 0hPa | 2.7V | 00:00:00 | 01:19:36 | 00:00:00 | |
| OK1ALN | 2026-09-04 00:13:20 | 48.88762 | 17.75110 | 141° | 22km/h | 19761m | 5.6m/s | -55.7°C | 1.3% | 0hPa | 2.7V | 00:00:00 | 00:00:00 | 00:00:00 | |
| OE5DXL-15 | 2026-09-04 00:13:16 | 48.88779 | 17.75082 | 122° | 31km/h | 19741m | 4.6m/s | -55.7°C | 4.7% | 0hPa | 2.7V | 00:00:00 | 00:00:00 | 08:30:00 | |
| OE3OSB-13 | 2026-09-04 00:13:15 | 48.88783 | 17.75073 | 118° | 29km/h | 19736m | 5.7m/s | -55.7°C | 1.2% | -1.0hPa | 2.6V | 00:00:00 | 00:00:00 | 00:00:00 | |
| PETON7-10 | 2026-09-04 00:13:10 | 48.88803 | 17.75018 | 124° | 31km/h | 19710m | 5.2m/s | -55.8°C | 4.8% | 0hPa | 2.6V | 00:00:00 | 00:00:00 | 00:00:00 | |
| PG1ADW-2 | 2026-09-04 00:13:06 | 48.88823 | 17.74978 | 126° | 31km/h | 19689m | 6.1m/s | -55.9°C | 4.7% | 0hPa | 2.6V | 00:00:00 | 00:00:00 | 00:00:00 | |
| OE5MMP-10 | 2026-09-04 00:13:00 | 48.88842 | 17.74919 | 106° | 31km/h | 19658m | 6.2m/s | -56.0°C | 4.8% | 0hPa | 2.6V | 00:00:00 | 01:19:14 | 00:00:00 | |
| OK1ALN | 2026-09-04 00:12:59 | 48.88842 | 17.74919 | 107° | 31km/h | 19658m | 6.3m/s | -56.0°C | 1.4% | 0hPa | 2.7V | 00:00:00 | 00:00:00 | 00:00:00 | |
| PETON7-10 | 2026-09-04 00:12:55 | 48.88854 | 17.74864 | 117° | 29km/h | 19634m | 4.7m/s | -55.9°C | 4.9% | 0hPa | 2.7V | 00:00:00 | 01:19:09 | 00:00:00 | |
| OE5MMP-10 | 2026-09-04 00:12:50 | 48.88874 | 17.74813 | 121° | 29km/h | 19607m | 4.9m/s | -55.7°C | 4.8% | 0hPa | 2.7V | 00:00:00 | 01:19:04 | 00:00:00 | |
| NBG1-10 | 2026-09-04 00:12:48 | 48.88882 | 17.74792 | 123° | 27km/h | 19596m | 6.3m/s | 0°C | 0% | 0hPa | 2.7V | 00:00:00 | 01:19:02 | 00:00:00 | |
| OE3OSB-13 | 2026-09-04 00:12:44 | 48.88899 | 17.74755 | 126° | 24km/h | 19575m | 4.4m/s | -55.6°C | 1.2% | -1.0hPa | 2.7V | 00:00:00 | 00:00:00 | 00:00:00 | |
| OE5DRO-10 | 2026-09-04 00:12:42 | 48.88906 | 17.74740 | 131° | 26km/h | 19565m | 5.8m/s | -55.4°C | 4.7% | 0hPa | 2.7V | 00:00:00 | 00:00:00 | 00:00:00 | |
| PETON7-10 | 2026-09-04 00:12:40 | 48.88915 | 17.74726 | 132° | 26km/h | 19554m | 5.4m/s | -55.4°C | 4.6% | 0hPa | 2.7V | 00:00:00 | 00:00:00 | 00:00:00 | |
| OK1ALN | 2026-09-04 00:12:38 | 48.88919 | 17.74718 | 127° | 24km/h | 19549m | 5.6m/s | -55.4°C | 1.4% | 0hPa | 2.6V | 00:00:00 | 00:00:00 | 00:00:00 | |
| POL2MAQ | 2026-09-04 00:12:35 | 48.88929 | 17.74690 | 114° | 33km/h | 19532m | 5.9m/s | -55.3°C | 1.3% | 0hPa | 2.6V | 00:00:00 | 00:00:00 | 00:00:00 | |
| OE5MMP-10 | 2026-09-04 00:12:30 | 48.88949 | 17.74632 | 138° | 26km/h | 19502m | 5.2m/s | -55.4°C | 4.6% | 0hPa | 2.6V | 00:00:00 | 01:18:44 | 00:00:00 | |
| PG1ADW-2 | 2026-09-04 00:12:26 | 48.88963 | 17.74608 | 124° | 29km/h | 19482m | 4.3m/s | -55.4°C | 4.6% | 0hPa | 2.7V | 00:00:00 | 01:18:40 | 00:00:00 | |
| PETON7-10 | 2026-09-04 00:12:25 | 48.88966 | 17.74601 | 121° | 29km/h | 19477m | 5.9m/s | -55.4°C | 4.6% | 0hPa | 2.7V | 00:00:00 | 00:00:00 | 00:00:00 | |
| OE5DRO-10 | 2026-09-04 00:12:22 | 48.88975 | 17.74570 | 107° | 31km/h | 19461m | 5.6m/s | -55.5°C | 4.6% | 0hPa | 2.7V | 00:00:00 | 00:00:00 | 00:00:00 | |
| OE5MMP-10 | 2026-09-04 00:12:20 | 48.88980 | 17.74550 | 119° | 27km/h | 19452m | 4.5m/s | -55.7°C | 4.7% | 0hPa | 2.6V | 00:00:00 | 01:18:34 | 00:00:00 | |
| OK1ALN | 2026-09-04 00:12:18 | 48.88983 | 17.74542 | 133° | 26km/h | 19447m | 6.0m/s | -55.8°C | 1.4% | 0hPa | 2.6V | 00:00:00 | 00:00:00 | 00:00:00 | |
| OE5DXL-15 | 2026-09-04 00:12:16 | 48.89001 | 17.74526 | 161° | 29km/h | 19430m | 6.2m/s | -55.8°C | 4.7% | 0hPa | 2.6V | 00:00:00 | 00:00:00 | 00:00:00 | |
| NBG1-10 | 2026-09-04 00:12:15 | 48.89008 | 17.74523 | 162° | 29km/h | 19424m | 5.4m/s | 0°C | 0% | 0hPa | 2.6V | 00:00:00 | 01:18:29 | 00:00:00 | |
| OE3OSB-13 | 2026-09-04 00:12:14 | 48.89021 | 17.74515 | 156° | 27km/h | 19414m | 5.5m/s | -55.9°C | 1.2% | -1.0hPa | 2.6V | 00:00:00 | 00:00:00 | 00:00:00 | |
| PETON7-10 | 2026-09-04 00:12:10 | 48.89041 | 17.74497 | 143° | 31km/h | 19397m | 5.8m/s | -55.7°C | 4.7% | 0hPa | 2.6V | 00:00:00 | 01:18:24 | 00:00:00 | |
| OE5MMP-10 | 2026-09-04 00:12:09 | 48.89047 | 17.74490 | 139° | 31km/h | 19391m | 5.9m/s | -55.7°C | 4.7% | 0hPa | 2.6V | 00:00:00 | 01:18:23 | 00:00:00 | |
| PG1ADW-2 | 2026-09-04 00:12:06 | 48.89065 | 17.74467 | 147° | 29km/h | 19375m | 4.7m/s | -55.7°C | 4.7% | 0hPa | 2.6V | 00:00:00 | 00:00:00 | 00:00:00 | |
| OE5DRO-10 | 2026-09-04 00:12:03 | 48.89087 | 17.74450 | 163° | 27km/h | 19359m | 5.4m/s | -55.7°C | 4.7% | 0hPa | 2.6V | 00:00:00 | 00:00:00 | 00:00:00 | |
| S52SK | 2026-09-04 00:12:02 | 48.89087 | 17.74450 | 163° | 29km/h | 19359m | 5.4m/s | -55.8°C | 1.4% | 0hPa | 2.6V | 00:00:00 | 00:00:00 | 00:00:00 | |
| OE5MMP-10 | 2026-09-04 00:11:59 | 48.89117 | 17.74435 | 154° | 27km/h | 19338m | 5.2m/s | -55.7°C | 4.7% | 0hPa | 2.6V | 00:00:00 | 01:18:13 | 08:30:00 | |
| OK1ALN | 2026-09-04 00:11:58 | 48.89123 | 17.74429 | 147° | 29km/h | 19333m | 6.1m/s | -55.7°C | 1.3% | 0hPa | 2.6V | 00:00:00 | 00:00:00 | 00:00:00 | |
| S52SK | 2026-09-04 00:11:57 | 48.89123 | 17.74429 | 147° | 29km/h | 19333m | 6.1m/s | -55.7°C | 1.3% | 0hPa | 2.6V | 00:00:00 | 00:00:00 | 00:00:00 | |
| PETON7-10 | 2026-09-04 00:11:55 | 48.89139 | 17.74406 | 133° | 26km/h | 19316m | 6.5m/s | -55.6°C | 4.7% | 0hPa | 2.6V | 00:00:00 | 00:00:00 | 08:30:00 | |
| POL2MAQ | 2026-09-04 00:11:53 | 48.89145 | 17.74397 | 133° | 31km/h | 19310m | 4.8m/s | -55.6°C | 1.3% | 0hPa | 2.7V | 00:00:00 | 00:00:00 | 00:00:00 | |
| OE5MMP-10 | 2026-09-04 00:11:49 | 48.89170 | 17.74366 | 158° | 26km/h | 19285m | 6.0m/s | -55.7°C | 4.7% | 0hPa | 2.7V | 00:00:00 | 01:18:03 | 00:00:00 | |
| HA6NAB-11 | 2026-09-04 00:11:47 | 48.89175 | 17.74363 | 158° | 24km/h | 19279m | 4.9m/s | -55.9°C | 1.4% | 0hPa | 2.7V | 00:00:00 | 00:00:00 | 00:00:00 | |
| PG1ADW-2 | 2026-09-04 00:11:46 | 48.89186 | 17.74354 | 143° | 24km/h | 19268m | 5.8m/s | -55.8°C | 4.8% | 0hPa | 2.7V | 00:00:00 | 00:00:00 | 00:00:00 | |
| OE5DRO-10 | 2026-09-04 00:11:44 | 48.89193 | 17.74342 | 129° | 24km/h | 19258m | 6.2m/s | -55.7°C | 4.7% | 0hPa | 2.6V | 00:00:00 | 00:00:00 | 00:00:00 | |
| HA6NAB-11 | 2026-09-04 00:11:42 | 48.89202 | 17.74324 | 122° | 29km/h | 19247m | 4.9m/s | -55.8°C | 1.3% | 0hPa | 2.6V | 00:00:00 | 00:00:00 | 00:00:00 | |
| PETON7-10 | 2026-09-04 00:11:40 | 48.89208 | 17.74305 | 111° | 22km/h | 19236m | 5.8m/s | -55.7°C | 4.8% | 0hPa | 2.6V | 00:00:00 | 00:00:00 | 00:00:00 | |
| OE5MMP-10 | 2026-09-04 00:11:39 | 48.89210 | 17.74296 | 112° | 22km/h | 19230m | 5.2m/s | -55.7°C | 4.7% | 0hPa | 2.6V | 00:00:00 | 01:17:53 | 00:00:00 | |
| OK1ALN | 2026-09-04 00:11:35 | 48.89223 | 17.74269 | 136° | 20km/h | 19208m | 6.8m/s | -55.7°C | 1.4% | 0hPa | 2.6V | 00:00:00 | 00:00:00 | 00:00:00 | |
| POL2MAQ | 2026-09-04 00:11:32 | 48.89230 | 17.74258 | 139° | 20km/h | 19198m | 4.2m/s | -55.6°C | 1.4% | 0hPa | 2.6V | 00:00:00 | 00:00:00 | 00:00:00 | |
| OE5MMP-10 | 2026-09-04 00:11:29 | 48.89247 | 17.74235 | 130° | 20km/h | 19176m | 6.0m/s | -55.5°C | 4.8% | 0hPa | 2.6V | 00:00:00 | 01:17:43 | 00:00:00 | |
| PG1ADW-2 | 2026-09-04 00:11:26 | 48.89256 | 17.74216 | 130° | 16km/h | 19159m | 6.1m/s | -55.4°C | 4.7% | 0hPa | 2.6V | 00:00:00 | 00:00:00 | 00:00:00 | |
| PETON7-10 | 2026-09-04 00:11:25 | 48.89260 | 17.74208 | 130° | 18km/h | 19154m | 4.2m/s | -55.4°C | 4.7% | 0hPa | 2.6V | 00:00:00 | 01:17:39 | 00:00:00 | |
| HA6NAB-11 | 2026-09-04 00:11:23 | 48.89264 | 17.74201 | 129° | 22km/h | 19149m | 6.1m/s | -55.4°C | 1.3% | 0hPa | 2.6V | 00:00:00 | 00:00:00 | 00:00:00 | |
| OE5MMP-10 | 2026-09-04 00:11:19 | 48.89282 | 17.74180 | 168° | 16km/h | 19120m | 5.2m/s | -55.1°C | 4.6% | 0hPa | 2.6V | 00:00:00 | 01:17:33 | 00:00:00 | |
| OE5DXL-15 | 2026-09-04 00:11:16 | 48.89293 | 17.74180 | 180° | 16km/h | 19102m | 5.4m/s | -55.0°C | 4.5% | 0hPa | 2.6V | 00:00:00 | 00:00:00 | 00:00:00 | |
| OK1ALN | 2026-09-04 00:11:15 | 48.89297 | 17.74179 | 173° | 18km/h | 19096m | 6.2m/s | -55.1°C | 1.3% | 0hPa | 2.6V | 00:00:00 | 00:00:00 | 00:00:00 | |
| POL2MAQ | 2026-09-04 00:11:12 | 48.89309 | 17.74173 | 143° | 15km/h | 19078m | 5.8m/s | -55.1°C | 1.3% | 0hPa | 2.6V | 00:00:00 | 00:00:00 | 00:00:00 | |
| OE3OSB-13 | 2026-09-04 00:11:11 | 48.89311 | 17.74169 | 127° | 15km/h | 19072m | 5.5m/s | -55.1°C | 1.1% | -1.0hPa | 2.6V | 00:00:00 | 00:00:00 | 00:00:00 | |
| PETON7-10 | 2026-09-04 00:11:10 | 48.89314 | 17.74164 | 124° | 15km/h | 19066m | 6.8m/s | -55.0°C | 4.6% | 0hPa | 2.6V | 00:00:00 | 00:00:00 | 00:00:00 | |
| OE5MMP-10 | 2026-09-04 00:11:09 | 48.89316 | 17.74159 | 128° | 15km/h | 19060m | 5.0m/s | -54.9°C | 4.6% | 0hPa | 2.7V | 00:00:00 | 01:17:23 | 00:00:00 | |
| PG1ADW-2 | 2026-09-04 00:11:06 | 48.89324 | 17.74149 | 173° | 16km/h | 19044m | 3.8m/s | -54.8°C | 4.6% | 0hPa | 2.7V | 00:00:00 | 01:17:20 | 00:00:00 | |
| OE5DRO-10 | 2026-09-04 00:10:59 | 48.89348 | 17.74140 | 146° | 20km/h | 19006m | 5.2m/s | -54.5°C | 4.5% | 0hPa | 2.7V | 00:00:00 | 00:00:00 | 00:00:00 | |
| PETON7-10 | 2026-09-04 00:10:55 | 48.89362 | 17.74127 | 159° | 18km/h | 18981m | 6.2m/s | -54.4°C | 4.5% | 0hPa | 2.7V | 00:00:00 | 00:00:00 | 00:00:00 | |
| OK1ALN | 2026-09-04 00:10:52 | 48.89371 | 17.74124 | 169° | 20km/h | 18969m | 6.8m/s | -54.3°C | 1.3% | 0hPa | 2.7V | 00:00:00 | 00:00:00 | 00:00:00 | |
| OE5MMP-10 | 2026-09-04 00:10:49 | 48.89390 | 17.74120 | 170° | 20km/h | 18945m | 6.0m/s | -54.1°C | 4.4% | 0hPa | 2.7V | 00:00:00 | 01:17:03 | 00:00:00 | |
| OE5DXL-15 | 2026-09-04 00:10:46 | 48.89403 | 17.74114 | 158° | 31km/h | 18926m | 4.9m/s | -54.1°C | 4.4% | 0hPa | 2.7V | 00:00:00 | 00:00:00 | 00:00:00 | |
| DO3MHA-11 | 2026-09-04 00:10:42 | 48.89420 | 17.74103 | 158° | 27km/h | 18901m | 6.3m/s | -54.1°C | 4.4% | 0hPa | 2.7V | 00:00:00 | 01:16:56 | 00:00:00 | |
| PETON7-10 | 2026-09-04 00:10:40 | 48.89431 | 17.74098 | 167° | 31km/h | 18889m | 7.3m/s | -54.0°C | 4.4% | 0hPa | 2.6V | 00:00:00 | 01:16:54 | 00:00:00 | |
| OE5MMP-10 | 2026-09-04 00:10:39 | 48.89437 | 17.74096 | 172° | 31km/h | 18883m | 5.0m/s | -54.0°C | 4.4% | 0hPa | 2.6V | 00:00:00 | 01:16:53 | 00:00:00 | |
| OK1ALN | 2026-09-04 00:10:32 | 48.89483 | 17.74079 | 165° | 33km/h | 18849m | 5.8m/s | -54.1°C | 1.3% | 0hPa | 2.6V | 00:00:00 | 00:00:00 | 00:00:00 | |
| POL2MAQ | 2026-09-04 00:10:29 | 48.89505 | 17.74062 | 142° | 33km/h | 18830m | 6.2m/s | -54.0°C | 1.2% | 0hPa | 2.6V | 00:00:00 | 00:00:00 | 00:00:00 | |
| PG1ADW-2 | 2026-09-04 00:10:26 | 48.89530 | 17.74034 | 149° | 38km/h | 18806m | 5.5m/s | -54.0°C | 4.4% | 0hPa | 2.6V | 00:00:00 | 00:00:00 | 00:00:00 | |
| PETON7-10 | 2026-09-04 00:10:25 | 48.89538 | 17.74027 | 150° | 38km/h | 18799m | 7.9m/s | -54.0°C | 4.4% | 0hPa | 2.6V | 00:00:00 | 00:00:00 | 00:00:00 | |
| OE5DRO-10 | 2026-09-04 00:10:20 | 48.89584 | 17.73990 | 148° | 38km/h | 18767m | 6.4m/s | -53.8°C | 4.4% | 0hPa | 2.6V | 00:00:00 | 00:00:00 | 08:30:00 | |
| OE5MMP-10 | 2026-09-04 00:10:19 | 48.89592 | 17.73980 | 142° | 37km/h | 18760m | 6.1m/s | -53.8°C | 4.3% | 0hPa | 2.7V | 00:00:00 | 01:16:33 | 00:00:00 | |
| DO3MHA-11 | 2026-09-04 00:10:18 | 48.89600 | 17.73970 | 139° | 38km/h | 18755m | 5.3m/s | -53.7°C | 4.3% | 0hPa | 2.7V | 00:00:00 | 01:16:32 | 00:00:00 | |
| S52SK | 2026-09-04 00:10:17 | 48.89600 | 17.73970 | 139° | 40km/h | 18755m | 5.3m/s | -53.8°C | 1.2% | 0hPa | 2.7V | 00:00:00 | 00:00:00 | 00:00:00 | |
| OE5DXL-15 | 2026-09-04 00:10:16 | 48.89614 | 17.73950 | 134° | 35km/h | 18742m | 6.1m/s | -53.6°C | 4.3% | 0hPa | 2.7V | 00:00:00 | 00:00:00 | 00:00:00 | |
| OK1ALN | 2026-09-04 00:10:12 | 48.89639 | 17.73908 | 137° | 37km/h | 18718m | 6.1m/s | -53.5°C | 1.2% | 0hPa | 2.7V | 00:00:00 | 00:00:00 | 00:00:00 | |
| PETON7-10 | 2026-09-04 00:10:10 | 48.89653 | 17.73891 | 146° | 37km/h | 18705m | 5.3m/s | -53.4°C | 4.2% | 0hPa | 2.7V | 00:00:00 | 00:00:00 | 00:00:00 | |
| POL2MAQ | 2026-09-04 00:10:09 | 48.89660 | 17.73883 | 146° | 37km/h | 18699m | 5.7m/s | -53.4°C | 1.2% | 0hPa | 2.7V | 00:00:00 | 00:00:00 | 00:00:00 | |
| S52SK | 2026-09-04 00:10:07 | 48.89668 | 17.73875 | 146° | 38km/h | 18693m | 6.3m/s | -53.4°C | 1.2% | 0hPa | 2.7V | 00:00:00 | 00:00:00 | 00:00:00 | |
| PG1ADW-2 | 2026-09-04 00:10:06 | 48.89684 | 17.73858 | 147° | 35km/h | 18682m | 6.5m/s | -53.3°C | 4.2% | 0hPa | 2.7V | 00:00:00 | 00:00:00 | 00:00:00 | |
| OE5DRO-10 | 2026-09-04 00:10:01 | 48.89718 | 17.73810 | 129° | 33km/h | 18653m | 4.2m/s | -53.1°C | 4.1% | 0hPa | 2.7V | 00:00:00 | 00:00:00 | 00:00:00 | |
| OE5MMP-10 | 2026-09-04 00:09:59 | 48.89729 | 17.73790 | 133° | 29km/h | 18642m | 5.3m/s | -53.0°C | 4.1% | 0hPa | 2.7V | 00:00:00 | 01:16:13 | 00:00:00 | |
| PETON7-10 | 2026-09-04 00:09:55 | 48.89756 | 17.73758 | 149° | 31km/h | 18620m | 5.2m/s | -53.0°C | 4.1% | 0hPa | 2.6V | 00:00:00 | 01:16:09 | 00:00:00 | |
| OK1ALN | 2026-09-04 00:09:49 | 48.89791 | 17.73722 | 137° | 33km/h | 18593m | 5.2m/s | -53.4°C | 1.2% | 0hPa | 2.6V | 00:00:00 | 00:00:00 | 00:00:00 | |
| POL2MAQ | 2026-09-04 00:09:47 | 48.89801 | 17.73706 | 133° | 29km/h | 18581m | 5.1m/s | -53.4°C | 1.2% | 0hPa | 2.6V | 00:00:00 | 00:00:00 | 00:00:00 | |
| OE5DXL-15 | 2026-09-04 00:09:46 | 48.89811 | 17.73688 | 128° | 35km/h | 18570m | 6.6m/s | -53.4°C | 4.2% | 0hPa | 2.6V | 00:00:00 | 00:00:00 | 00:00:00 | |
| OE5DRO-10 | 2026-09-04 00:09:42 | 48.89831 | 17.73652 | 138° | 35km/h | 18548m | 4.6m/s | -53.4°C | 4.1% | 0hPa | 2.6V | 00:00:00 | 00:00:00 | 00:00:00 | |
| PETON7-10 | 2026-09-04 00:09:40 | 48.89842 | 17.73637 | 137° | 37km/h | 18538m | 5.4m/s | -53.3°C | 4.1% | 0hPa | 2.6V | 00:00:00 | 00:00:00 | 08:30:00 | |
| OE3OSB-13 | 2026-09-04 00:09:38 | 48.89859 | 17.73616 | 141° | 27km/h | 18521m | 4.3m/s | -53.5°C | 1.0% | -1.0hPa | 2.6V | 00:00:00 | 00:00:00 | 00:00:00 | |
| OE5MMP-10 | 2026-09-04 00:09:35 | 48.89870 | 17.73600 | 137° | 38km/h | 18511m | 7.3m/s | -53.5°C | 4.2% | 0hPa | 2.6V | 00:00:00 | 01:15:49 | 00:00:00 | |
| OK1ALN | 2026-09-04 00:09:28 | 48.89910 | 17.73531 | 130° | 44km/h | 18478m | 5.4m/s | -53.6°C | 1.2% | 0hPa | 2.6V | 00:00:00 | 00:00:00 | 00:00:00 | |
| POL2MAQ | 2026-09-04 00:09:27 | 48.89916 | 17.73518 | 128° | 42km/h | 18473m | 4.2m/s | -53.6°C | 1.2% | 0hPa | 2.6V | 00:00:00 | 00:00:00 | 00:00:00 | |
| PG1ADW-2 | 2026-09-04 00:09:26 | 48.89928 | 17.73495 | 127° | 38km/h | 18463m | 5.5m/s | -53.5°C | 4.2% | 0hPa | 2.6V | 00:00:00 | 00:00:00 | 00:00:00 | |
| OE5MMP-10 | 2026-09-04 00:09:25 | 48.89933 | 17.73484 | 129° | 38km/h | 18458m | 3.5m/s | -53.5°C | 4.2% | 0hPa | 2.6V | 00:00:00 | 01:15:39 | 00:00:00 | |
| OE5DRO-10 | 2026-09-04 00:09:23 | 48.89945 | 17.73463 | 131° | 38km/h | 18449m | 5.2m/s | -53.5°C | 4.3% | 0hPa | 2.6V | 00:00:00 | 00:00:00 | 00:00:00 | |
| OE5DXL-15 | 2026-09-04 00:09:16 | 48.89986 | 17.73380 | 129° | 40km/h | 18414m | 4.3m/s | -53.4°C | 4.2% | 0hPa | 2.6V | 00:00:00 | 00:00:00 | 00:00:00 | |
| OE5MMP-10 | 2026-09-04 00:09:15 | 48.89991 | 17.73369 | 128° | 37km/h | 18409m | 5.4m/s | -53.4°C | 4.2% | 0hPa | 2.6V | 00:00:00 | 01:15:29 | 00:00:00 | |
| PETON7-10 | 2026-09-04 00:09:10 | 48.90021 | 17.73309 | 133° | 38km/h | 18385m | 4.5m/s | -53.3°C | 4.1% | 0hPa | 2.6V | 00:00:00 | 01:15:24 | 00:00:00 | |
| OK1ALN | 2026-09-04 00:09:08 | 48.90027 | 17.73298 | 133° | 35km/h | 18380m | 5.7m/s | -53.3°C | 1.2% | 0hPa | 2.6V | 00:00:00 | 00:00:00 | 00:00:00 | |
| PG1ADW-2 | 2026-09-04 00:09:06 | 48.90044 | 17.73269 | 132° | 42km/h | 18365m | 5.6m/s | -53.4°C | 4.1% | 0hPa | 2.6V | 00:00:00 | 00:00:00 | 00:00:00 | |
| OE5MMP-10 | 2026-09-04 00:09:05 | 48.90050 | 17.73258 | 132° | 40km/h | 18360m | 4.4m/s | -53.4°C | 4.1% | 0hPa | 2.6V | 00:00:00 | 01:15:19 | 00:00:00 | |
| OE5DRO-10 | 2026-09-04 00:09:04 | 48.90056 | 17.73247 | 130° | 42km/h | 18355m | 4.9m/s | -53.4°C | 4.1% | 0hPa | 2.6V | 00:00:00 | 00:00:00 | 00:00:00 | |
| PETON7-10 | 2026-09-04 00:08:55 | 48.90119 | 17.73146 | 139° | 46km/h | 18312m | 5.7m/s | -53.4°C | 4.1% | 0hPa | 2.6V | 00:00:00 | 00:00:00 | 00:00:00 | |
| OK1ALN | 2026-09-04 00:08:48 | 48.90162 | 17.73072 | 127° | 47km/h | 18283m | 4.9m/s | -53.7°C | 1.2% | 0hPa | 2.6V | 00:00:00 | 00:00:00 | 00:00:00 | |
| PG1ADW-2 | 2026-09-04 00:08:46 | 48.90185 | 17.73027 | 129° | 44km/h | 18268m | 3.7m/s | -54.1°C | 4.3% | 0hPa | 2.6V | 00:00:00 | 00:00:00 | 00:00:00 | |
| OE5MMP-10 | 2026-09-04 00:08:45 | 48.90193 | 17.73014 | 132° | 37km/h | 18265m | 3.6m/s | -54.2°C | 4.4% | 0hPa | 2.6V | 00:00:00 | 01:14:59 | 08:30:00 | |
| PETON7-10 | 2026-09-04 00:08:40 | 48.90236 | 17.72957 | 142° | 42km/h | 18243m | 4.3m/s | -54.3°C | 4.4% | 0hPa | 2.6V | 00:00:00 | 00:00:00 | 00:00:00 | |
| OE3OSB-13 | 2026-09-04 00:08:35 | 48.90272 | 17.72901 | 130° | 46km/h | 18221m | 4.6m/s | -54.2°C | 1.1% | -1.0hPa | 2.6V | 00:00:00 | 00:00:00 | 00:00:00 | |
| S52SK | 2026-09-04 00:08:29 | 48.90317 | 17.72819 | 134° | 38km/h | 18192m | 4.7m/s | -54.0°C | 1.3% | 0hPa | 2.6V | 00:00:00 | 00:00:00 | 00:00:00 | |
| OE5DRO-10 | 2026-09-04 00:08:26 | 48.90333 | 17.72788 | 123° | 44km/h | 18178m | 3.8m/s | -53.9°C | 4.2% | 0hPa | 2.6V | 00:00:00 | 00:00:00 | 00:00:00 | |
| PETON7-10 | 2026-09-04 00:08:25 | 48.90338 | 17.72778 | 124° | 44km/h | 18174m | 5.6m/s | -53.9°C | 4.2% | 0hPa | 2.6V | 00:00:00 | 01:14:39 | 00:00:00 | |
| OE5MMP-10 | 2026-09-04 00:08:24 | 48.90343 | 17.72766 | 125° | 46km/h | 18169m | 4.2m/s | -53.9°C | 4.2% | 0hPa | 2.6V | 00:00:00 | 01:14:38 | 00:00:00 | |
| S52SK | 2026-09-04 00:08:22 | 48.90349 | 17.72753 | 122° | 42km/h | 18164m | 4.9m/s | -53.9°C | 1.3% | 0hPa | 2.6V | 00:00:00 | 00:00:00 | 00:00:00 | |
| OE5DXL-15 | 2026-09-04 00:08:16 | 48.90395 | 17.72647 | 123° | 46km/h | 18130m | 5.3m/s | -54.0°C | 4.1% | 0hPa | 2.6V | 00:00:00 | 00:00:00 | 00:00:00 | |
| OE5MMP-10 | 2026-09-04 00:08:14 | 48.90406 | 17.72616 | 113° | 46km/h | 18119m | 4.6m/s | -54.3°C | 4.2% | 0hPa | 2.6V | 00:00:00 | 01:14:28 | 00:00:00 | |
| PETON7-10 | 2026-09-04 00:08:10 | 48.90423 | 17.72555 | 109° | 49km/h | 18098m | 6.8m/s | -54.8°C | 4.4% | 0hPa | 2.6V | 00:00:00 | 00:00:00 | 00:00:00 | |
| OE5DRO-10 | 2026-09-04 00:08:07 | 48.90434 | 17.72504 | 112° | 47km/h | 18082m | 5.4m/s | -55.1°C | 4.5% | 0hPa | 2.6V | 00:00:00 | 00:00:00 | 00:00:00 | |
| PG1ADW-2 | 2026-09-04 00:08:06 | 48.90438 | 17.72486 | 112° | 46km/h | 18077m | 4.5m/s | -55.1°C | 4.6% | 0hPa | 2.6V | 00:00:00 | 00:00:00 | 00:00:00 | |
| OE3OSB-13 | 2026-09-04 00:08:05 | 48.90447 | 17.72451 | 108° | 51km/h | 18069m | 4.4m/s | -55.3°C | 1.2% | -1.0hPa | 2.6V | 00:00:00 | 00:00:00 | 00:00:00 | |
| OE5MMP-10 | 2026-09-04 00:08:04 | 48.90447 | 17.72451 | 109° | 49km/h | 18069m | 4.4m/s | 0°C | 0% | 0hPa | 2.6V | 00:00:00 | 01:14:18 | 00:00:00 | |
| HA6NAB-11 | 2026-09-04 00:08:00 | 48.90454 | 17.72393 | 98° | 51km/h | 18055m | 3.7m/s | -55.4°C | 1.4% | 0hPa | 2.6V | 00:00:00 | 00:00:00 | 00:00:00 | |
| PETON7-10 | 2026-09-04 00:07:55 | 48.90468 | 17.72285 | 103° | 38km/h | 18026m | 4.4m/s | -55.4°C | 4.7% | 0hPa | 2.6V | 00:00:00 | 00:00:00 | 00:00:00 | |
| OE5MMP-10 | 2026-09-04 00:07:54 | 48.90470 | 17.72267 | 104° | 40km/h | 18021m | 6.6m/s | 0°C | 0% | 0hPa | 2.6V | 00:00:00 | 01:14:08 | 00:00:00 | |
| HA6NAB-11 | 2026-09-04 00:07:49 | 48.90477 | 17.72187 | 91° | 42km/h | 17995m | 3.7m/s | -55.3°C | 1.4% | 0hPa | 2.6V | 00:00:00 | 00:00:00 | 00:00:00 | |
| OE5DXL-15 | 2026-09-04 00:07:46 | 48.90478 | 17.72144 | 98° | 38km/h | 17980m | 4.5m/s | -55.1°C | 4.7% | 0hPa | 2.6V | 00:00:00 | 00:00:00 | 00:00:00 | |
| OK1ALN | 2026-09-04 00:07:45 | 48.90478 | 17.72144 | 98° | 33km/h | 17980m | 4.5m/s | -55.2°C | 0% | 0hPa | 2.6V | 00:00:00 | 00:00:00 | 00:00:00 | |
| OE5MMP-10 | 2026-09-04 00:07:44 | 48.90480 | 17.72119 | 100° | 42km/h | 17968m | 4.9m/s | 0°C | 0% | 0hPa | 2.6V | 00:00:00 | 01:13:58 | 00:00:00 | |
| POL2MAQ | 2026-09-04 00:07:43 | 48.90480 | 17.72119 | 100° | 35km/h | 17968m | 5.0m/s | -55.1°C | 1.4% | 0hPa | 2.6V | 00:00:00 | 00:00:00 | 00:00:00 | |
| HA6NAB-11 | 2026-09-04 00:07:42 | 48.90482 | 17.72106 | 109° | 35km/h | 17963m | 4.4m/s | -55.1°C | 1.4% | 0hPa | 2.6V | 00:00:00 | 00:00:00 | 00:00:00 | |
| PETON7-10 | 2026-09-04 00:07:40 | 48.90495 | 17.72067 | 121° | 38km/h | 17946m | 5.4m/s | -54.9°C | 4.5% | 0hPa | 2.6V | 00:00:00 | 01:13:54 | 00:00:00 | |
| HA6NAB-11 | 2026-09-04 00:07:36 | 48.90511 | 17.72020 | 118° | 46km/h | 17930m | 5.4m/s | -54.9°C | 1.4% | 0hPa | 2.6V | 00:00:00 | 00:00:00 | 00:00:00 | |
| OE5MMP-10 | 2026-09-04 00:07:34 | 48.90523 | 17.71976 | 105° | 35km/h | 17914m | 6.2m/s | 0°C | 0% | 0hPa | 2.6V | 00:00:00 | 01:13:48 | 00:00:00 | |
| OE3OSB-13 | 2026-09-04 00:07:33 | 48.90525 | 17.71963 | 100° | 33km/h | 17908m | 5.0m/s | -54.8°C | 1.2% | -1.0hPa | 2.6V | 00:00:00 | 00:00:00 | 00:00:00 | |
| OE5DRO-10 | 2026-09-04 00:07:29 | 48.90534 | 17.71919 | 120° | 37km/h | 17890m | 3.8m/s | -54.7°C | 4.5% | 0hPa | 2.6V | 00:00:00 | 00:00:00 | 08:30:00 | |
| PG1ADW-2 | 2026-09-04 00:07:26 | 48.90548 | 17.71880 | 120° | 38km/h | 17874m | 4.8m/s | -54.7°C | 4.5% | 0hPa | 2.7V | 00:00:00 | 00:00:00 | 00:00:00 | |
| PETON7-10 | 2026-09-04 00:07:25 | 48.90554 | 17.71866 | 122° | 37km/h | 17869m | 6.3m/s | -54.7°C | 4.5% | 0hPa | 2.7V | 00:00:00 | 00:00:00 | 08:30:00 | |
| POL2MAQ | 2026-09-04 00:07:22 | 48.90565 | 17.71837 | 119° | 42km/h | 17858m | 5.3m/s | -54.8°C | 1.4% | 0hPa | 2.6V | 00:00:00 | 00:00:00 | 00:00:00 | |
| OE5DXL-15 | 2026-09-04 00:07:16 | 48.90590 | 17.71753 | 112° | 40km/h | 17820m | 4.3m/s | -55.0°C | 4.4% | 0hPa | 2.6V | 00:00:00 | 00:00:00 | 00:00:00 | |
| PETON7-10 | 2026-09-04 00:07:10 | 48.90620 | 17.71686 | 130° | 47km/h | 17788m | 4.8m/s | -55.4°C | 4.5% | 0hPa | 2.7V | 00:00:00 | 00:00:00 | 00:00:00 | |
| OE5MMP-10 | 2026-09-04 00:07:09 | 48.90629 | 17.71672 | 132° | 47km/h | 17783m | 6.8m/s | 0°C | 0% | 0hPa | 2.7V | 00:00:00 | 01:13:23 | 00:00:00 | |
| PG1ADW-2 | 2026-09-04 00:07:06 | 48.90654 | 17.71630 | 130° | 42km/h | 17768m | 5.7m/s | -55.5°C | 4.6% | 0hPa | 2.7V | 00:00:00 | 01:13:20 | 00:00:00 | |
| OK1ALN | 2026-09-04 00:07:04 | 48.90662 | 17.71615 | 127° | 49km/h | 17762m | 5.6m/s | -55.6°C | 0% | 0hPa | 2.7V | 00:00:00 | 00:00:00 | 00:00:00 | |
| POL2MAQ | 2026-09-04 00:07:02 | 48.90682 | 17.71572 | 128° | 44km/h | 17746m | 5.8m/s | -55.6°C | 1.4% | 0hPa | 2.7V | 00:00:00 | 00:00:00 | 00:00:00 | |
| OE5MMP-10 | 2026-09-04 00:06:59 | 48.90701 | 17.71532 | 128° | 38km/h | 17730m | 4.7m/s | 0°C | 0% | 0hPa | 2.7V | 00:00:00 | 01:13:13 | 00:00:00 | |
| OE3JTB-15 | 2026-09-04 00:06:58 | 48.90725 | 17.71490 | 131° | 37km/h | 17715m | 3.4m/s | -55.9°C | 4.7% | 0hPa | 2.7V | 00:00:00 | 01:13:10 | 00:00:00 | |
| PETON7-10 | 2026-09-04 00:06:55 | 48.90733 | 17.71475 | 127° | 38km/h | 17711m | 4.9m/s | -56.0°C | 4.6% | 0hPa | 2.7V | 00:00:00 | 01:13:09 | 00:00:00 | |
| OE5DRO-10 | 2026-09-04 00:06:51 | 48.90751 | 17.71421 | 115° | 37km/h | 17689m | 6.0m/s | -56.2°C | 4.8% | 0hPa | 2.7V | 00:00:00 | 00:00:00 | 00:00:00 | |
| OE5MMP-10 | 2026-09-04 00:06:49 | 48.90758 | 17.71402 | 123° | 38km/h | 17679m | 4.2m/s | 0°C | 0% | 0hPa | 2.7V | 00:00:00 | 01:13:03 | 08:30:00 | |
| PG1ADW-2 | 2026-09-04 00:06:46 | 48.90771 | 17.71372 | 124° | 37km/h | 17663m | 4.8m/s | -56.5°C | 4.9% | 0hPa | 2.7V | 00:00:00 | 00:00:00 | 08:30:00 | |
| OK1ALN | 2026-09-04 00:06:44 | 48.90777 | 17.71360 | 129° | 40km/h | 17658m | 5.9m/s | 0°C | 0% | 0hPa | 2.7V | 00:00:00 | 00:00:00 | 00:00:00 | |
| POL2MAQ | 2026-09-04 00:06:41 | 48.90796 | 17.71321 | 122° | 44km/h | 17642m | 6.5m/s | -56.9°C | 1.6% | 0hPa | 2.7V | 00:00:00 | 00:00:00 | 00:00:00 | |
| PETON7-10 | 2026-09-04 00:06:40 | 48.90805 | 17.71290 | 109° | 35km/h | 17632m | 4.7m/s | -56.9°C | 5.2% | 0hPa | 2.7V | 00:00:00 | 00:00:00 | 00:00:00 | |
| OE5MMP-10 | 2026-09-04 00:06:39 | 48.90808 | 17.71276 | 107° | 22km/h | 17627m | 5.7m/s | 0°C | 0% | 0hPa | 2.6V | 00:00:00 | 01:12:53 | 00:00:00 | |
| S52SK | 2026-09-04 00:06:37 | 48.90811 | 17.71262 | 106° | 35km/h | 17621m | 5.4m/s | -57.0°C | 1.6% | 0hPa | 2.6V | 00:00:00 | 00:00:00 | 00:00:00 | |
| DO3MHA-11 | 2026-09-04 00:06:36 | 48.90816 | 17.71237 | 113° | 31km/h | 17612m | 6.0m/s | -56.9°C | 5.2% | 0hPa | 2.6V | 00:00:00 | 01:12:50 | 00:00:00 | |
| OE5DRO-10 | 2026-09-04 00:06:32 | 48.90839 | 17.71193 | 147° | 31km/h | 17591m | 5.7m/s | -56.7°C | 5.1% | 0hPa | 2.6V | 00:00:00 | 00:00:00 | 00:00:00 | |
| OE3OSB-13 | 2026-09-04 00:06:31 | 48.90847 | 17.71186 | 146° | 35km/h | 17585m | 4.5m/s | -56.7°C | 1.4% | -1.0hPa | 2.6V | 00:00:00 | 00:00:00 | 00:00:00 | |
| S52SK | 2026-09-04 00:06:28 | 48.90861 | 17.71161 | 108° | 26km/h | 17568m | 11.1m/s | -56.5°C | 0% | 0hPa | 2.6V | 00:00:00 | 00:00:00 | 00:00:00 | |
| PG1ADW-2 | 2026-09-04 00:06:26 | 48.90859 | 17.71142 | 69° | 31km/h | 17549m | 10.6m/s | -56.2°C | 5.0% | 0hPa | 2.6V | 00:00:00 | 00:00:00 | 00:00:00 | |
| PETON7-10 | 2026-09-04 00:06:25 | 48.90856 | 17.71132 | 66° | 29km/h | 17538m | 11.7m/s | -56.2°C | 5.0% | 0hPa | 2.6V | 00:00:00 | 00:00:00 | 00:00:00 | |
| DO3MHA-11 | 2026-09-04 00:06:24 | 48.90854 | 17.71121 | 84° | 31km/h | 17528m | 8.9m/s | -56.1°C | 4.9% | 0hPa | 2.6V | 00:00:00 | 01:12:38 | 08:30:00 | |
| OK1ALN | 2026-09-04 00:06:23 | 48.90854 | 17.71121 | 85° | 27km/h | 17528m | 9.0m/s | 0°C | 0% | 0hPa | 2.6V | 00:00:00 | 00:00:00 | 00:00:00 | |
| POL2MAQ | 2026-09-04 00:06:20 | 48.90861 | 17.71090 | 121° | 35km/h | 17501m | 6.5m/s | -55.9°C | 1.5% | 0hPa | 2.6V | 00:00:00 | 00:00:00 | 00:00:00 | |
| OE5DXL-15 | 2026-09-04 00:06:17 | 48.90862 | 17.71036 | 33° | 24km/h | 17461m | 8.0m/s | -55.5°C | 4.8% | 0hPa | 2.6V | 00:00:00 | 00:00:00 | 00:00:00 | |
| DO3MHA-11 | 2026-09-04 00:06:14 | 48.90846 | 17.71027 | 11° | 26km/h | 17446m | 6.5m/s | -55.4°C | 4.9% | 0hPa | 2.6V | 00:00:00 | 01:12:28 | 00:00:00 | |
| OE5DRO-10 | 2026-09-04 00:06:13 | 48.90840 | 17.71024 | 24° | 22km/h | 17439m | 7.0m/s | -55.3°C | 4.8% | 0hPa | 2.6V | 00:00:00 | 00:00:00 | 00:00:00 | |
| PETON7-10 | 2026-09-04 00:06:10 | 48.90847 | 17.71010 | 142° | 24km/h | 17413m | 11.2m/s | -55.1°C | 4.6% | 0hPa | 2.6V | 00:00:00 | 01:12:24 | 00:00:00 | |
| PG1ADW-2 | 2026-09-04 00:06:06 | 48.90876 | 17.70957 | 116° | 18km/h | 17381m | 8.0m/s | -55.3°C | 4.7% | 0hPa | 2.6V | 00:00:00 | 00:00:00 | 00:00:00 | |
| OE3OSB-13 | 2026-09-04 00:06:01 | 48.90867 | 17.70930 | 351° | 11km/h | 17326m | 7.0m/s | -55.4°C | 1.3% | -1.0hPa | 2.6V | 00:00:00 | 00:00:00 | 00:00:00 | |
| DO3MHA-11 | 2026-09-04 00:05:59 | 48.90865 | 17.70930 | 5° | 16km/h | 17319m | 6.7m/s | -55.2°C | 4.8% | 0hPa | 2.6V | 00:00:00 | 01:12:13 | 00:00:00 | |
| OE5MMP-10 | 2026-09-04 00:05:58 | 48.90865 | 17.70929 | 111° | 20km/h | 17312m | 7.9m/s | 0°C | 0% | 0hPa | 2.6V | 00:00:00 | 01:12:12 | 00:00:00 | |
| PETON7-10 | 2026-09-04 00:05:55 | 48.90868 | 17.70919 | 110° | 18km/h | 17286m | 8.6m/s | -54.9°C | 4.8% | 0hPa | 2.6V | 00:00:00 | 00:00:00 | 00:00:00 | |
| OE5DRO-10 | 2026-09-04 00:05:54 | 48.90869 | 17.70913 | 105° | 18km/h | 17279m | 6.4m/s | -54.8°C | 4.8% | 0hPa | 2.6V | 00:00:00 | 00:00:00 | 00:00:00 | |
| DO3MHA-11 | 2026-09-04 00:05:49 | 48.90869 | 17.70863 | 61° | 20km/h | 17246m | 6.3m/s | -54.6°C | 4.8% | 0hPa | 2.6V | 00:00:00 | 01:12:03 | 00:00:00 | |
| OE5MMP-10 | 2026-09-04 00:05:48 | 48.90865 | 17.70856 | 37° | 20km/h | 17241m | 4.2m/s | 0°C | 0% | 0hPa | 2.6V | 00:00:00 | 01:12:02 | 00:00:00 | |
| OE5DXL-15 | 2026-09-04 00:05:46 | 48.90857 | 17.70850 | 10° | 11km/h | 17225m | 9.9m/s | -54.4°C | 4.6% | 0hPa | 2.6V | 00:00:00 | 00:00:00 | 00:00:00 | |
| PETON7-10 | 2026-09-04 00:05:40 | 48.90853 | 17.70827 | 74° | 11km/h | 17166m | 10.2m/s | -53.6°C | 4.4% | 0hPa | 2.6V | 00:00:00 | 00:00:00 | 00:00:00 | |
| POL2MAQ | 2026-09-04 00:05:39 | 48.90853 | 17.70827 | 75° | 24km/h | 17166m | 10.3m/s | -53.7°C | 1.3% | 0hPa | 2.6V | 00:00:00 | 00:00:00 | 00:00:00 | |
| OE5MMP-10 | 2026-09-04 00:05:38 | 48.90851 | 17.70812 | 79° | 11km/h | 17149m | 8.7m/s | 0°C | 0% | 0hPa | 2.6V | 00:00:00 | 01:11:52 | 00:00:00 | |
| OE5DRO-10 | 2026-09-04 00:05:35 | 48.90854 | 17.70807 | 231° | 9km/h | 17125m | 7.2m/s | -53.4°C | 4.3% | 0hPa | 2.6V | 00:00:00 | 00:00:00 | 00:00:00 | |
| OE3OSB-13 | 2026-09-04 00:05:29 | 48.90851 | 17.70813 | 52° | 9km/h | 17080m | 7.6m/s | -53.1°C | 1.1% | -1.0hPa | 2.6V | 00:00:00 | 00:00:00 | 00:00:00 | |
| PG1ADW-2 | 2026-09-04 00:05:26 | 48.90849 | 17.70808 | 287° | 16km/h | 17058m | 9.7m/s | -52.9°C | 4.2% | 0hPa | 2.6V | 00:00:00 | 00:00:00 | 00:00:00 | |
| PETON7-10 | 2026-09-04 00:05:25 | 48.90849 | 17.70810 | 248° | 18km/h | 17050m | 7.0m/s | -52.8°C | 4.3% | 0hPa | 2.6V | 00:00:00 | 01:11:39 | 00:00:00 | |
| POL2MAQ | 2026-09-04 00:05:19 | 48.90864 | 17.70813 | 165° | 15km/h | 17021m | 6.7m/s | -52.5°C | 1.3% | 0hPa | 2.6V | 00:00:00 | 00:00:00 | 00:00:00 | |
| OE5DXL-15 | 2026-09-04 00:05:16 | 48.90863 | 17.70803 | 27° | 35km/h | 16994m | 10.4m/s | -52.7°C | 4.3% | 0hPa | 2.6V | 00:00:00 | 00:00:00 | 00:00:00 | |
| PETON7-10 | 2026-09-04 00:05:10 | 48.90825 | 17.70784 | 320° | 27km/h | 16956m | 8.3m/s | -52.7°C | 4.3% | 0hPa | 2.6V | 00:00:00 | 00:00:00 | 08:30:00 | |
| PG1ADW-2 | 2026-09-04 00:05:06 | 48.90832 | 17.70783 | 134° | 40km/h | 16915m | 8.8m/s | -52.1°C | 4.2% | 0hPa | 2.6V | 00:00:00 | 00:00:00 | 00:00:00 | |
| OE3OSB-13 | 2026-09-04 00:04:58 | 48.90822 | 17.70694 | 332° | 20km/h | 16860m | 8.0m/s | -52.0°C | 1.1% | -1.0hPa | 2.6V | 00:00:00 | 00:00:00 | 00:00:00 | |
| OE5DRO-10 | 2026-09-04 00:04:57 | 48.90818 | 17.70700 | 299° | 35km/h | 16852m | 8.8m/s | -52.0°C | 4.0% | 0hPa | 2.6V | 00:00:00 | 00:00:00 | 00:00:00 | |
| PETON7-10 | 2026-09-04 00:04:55 | 48.90821 | 17.70718 | 227° | 35km/h | 16833m | 9.8m/s | -51.7°C | 3.9% | 0hPa | 2.6V | 00:00:00 | 00:00:00 | 00:00:00 | |
| HA6NAB-11 | 2026-09-04 00:04:50 | 48.90874 | 17.70712 | 151° | 66km/h | 16800m | 6.3m/s | -51.0°C | 1.2% | 0hPa | 2.6V | 00:00:00 | 00:00:00 | 00:00:00 | |
| PG1ADW-2 | 2026-09-04 00:04:46 | 48.90905 | 17.70651 | 85° | 37km/h | 16758m | 8.2m/s | -50.8°C | 3.5% | 0hPa | 2.6V | 00:00:00 | 00:00:00 | 00:00:00 | |
| HA6NAB-11 | 2026-09-04 00:04:45 | 48.90905 | 17.70651 | 86° | 15km/h | 16758m | 8.3m/s | -50.8°C | 1.1% | 0hPa | 2.6V | 00:00:00 | 00:00:00 | 00:00:00 | |
| PETON7-10 | 2026-09-04 00:04:43 | 48.90918 | 17.70622 | 142° | 47km/h | 16713m | 8.9m/s | -51.7°C | 3.9% | 0hPa | 2.6V | 00:00:00 | 01:10:54 | 00:00:00 | |
| HA6NAB-11 | 2026-09-04 00:04:41 | 48.90918 | 17.70622 | 143° | 38km/h | 16713m | 8.9m/s | -51.7°C | 1.3% | 0hPa | 2.6V | 00:00:00 | 00:00:00 | 00:00:00 | |
| OE5DRO-10 | 2026-09-04 00:04:38 | 48.90935 | 17.70602 | 141° | 51km/h | 16698m | 6.0m/s | -51.8°C | 3.9% | 0hPa | 2.6V | 00:00:00 | 00:00:00 | 08:30:00 | |
| POL2MAQ | 2026-09-04 00:04:37 | 48.90935 | 17.70602 | 142° | 46km/h | 16698m | 6.1m/s | -51.8°C | 1.3% | 0hPa | 2.7V | 00:00:00 | 00:00:00 | 00:00:00 | |
| OE5MMP-10 | 2026-09-04 00:04:35 | 48.90961 | 17.70566 | 134° | 49km/h | 16683m | 6.1m/s | 0°C | 0% | 0hPa | 2.7V | 00:00:00 | 01:10:49 | 00:00:00 | |
| HA6NAB-11 | 2026-09-04 00:04:34 | 48.90970 | 17.70552 | 134° | 53km/h | 16676m | 6.6m/s | -52.1°C | 1.3% | 0hPa | 2.7V | 00:00:00 | 00:00:00 | 00:00:00 | |
| DO3MHA-11 | 2026-09-04 00:04:31 | 48.91005 | 17.70496 | 136° | 51km/h | 16654m | 4.4m/s | -52.7°C | 4.2% | 0hPa | 2.7V | 00:00:00 | 01:10:44 | 00:00:00 | |
| HA6NAB-11 | 2026-09-04 00:04:28 | 48.91012 | 17.70484 | 138° | 44km/h | 16649m | 5.9m/s | -52.8°C | 1.3% | 0hPa | 2.7V | 00:00:00 | 00:00:00 | 00:00:00 | |
| S52SK | 2026-09-04 00:04:27 | 48.91030 | 17.70460 | 136° | 49km/h | 16638m | 3.6m/s | -52.8°C | 0% | 0hPa | 2.7V | 00:00:00 | 00:00:00 | 00:00:00 | |
| PETON7-10 | 2026-09-04 00:04:26 | 48.91046 | 17.70431 | 128° | 60km/h | 16628m | 6.6m/s | -52.7°C | 4.2% | 0hPa | 2.7V | 00:00:00 | 00:00:00 | 00:00:00 | |
| HA6NAB-11 | 2026-09-04 00:04:23 | 48.91062 | 17.70399 | 129° | 55km/h | 16616m | 5.4m/s | -52.7°C | 1.4% | 0hPa | 2.6V | 00:00:00 | 00:00:00 | 00:00:00 | |
| DO3MHA-11 | 2026-09-04 00:04:20 | 48.91091 | 17.70348 | 131° | 58km/h | 16600m | 6.3m/s | -52.6°C | 4.2% | 0hPa | 2.6V | 00:00:00 | 01:10:34 | 00:00:00 | |
| OE5DRO-10 | 2026-09-04 00:04:19 | 48.91101 | 17.70330 | 130° | 58km/h | 16595m | 4.5m/s | -52.5°C | 4.2% | 0hPa | 2.6V | 00:00:00 | 00:00:00 | 00:00:00 | |
| POL2MAQ | 2026-09-04 00:04:18 | 48.91111 | 17.70311 | 131° | 64km/h | 16591m | 4.3m/s | -52.6°C | 1.4% | 0hPa | 2.6V | 00:00:00 | 00:00:00 | 00:00:00 | |
| HA6NAB-11 | 2026-09-04 00:04:17 | 48.91111 | 17.70311 | 131° | 64km/h | 16591m | 4.3m/s | -52.6°C | 1.4% | 0hPa | 2.6V | 00:00:00 | 00:00:00 | 00:00:00 | |
| OE5DXL-15 | 2026-09-04 00:04:16 | 48.91132 | 17.70275 | 134° | 60km/h | 16581m | 3.9m/s | -52.5°C | 4.2% | 0hPa | 2.6V | 00:00:00 | 01:10:30 | 08:30:00 | |
| OE5MMP-10 | 2026-09-04 00:04:14 | 48.91154 | 17.70240 | 132° | 55km/h | 16572m | 4.5m/s | 0°C | 0% | 0hPa | 2.7V | 00:00:00 | 01:10:28 | 00:00:00 | |
| PETON7-10 | 2026-09-04 00:04:11 | 48.91196 | 17.70175 | 139° | 57km/h | 16553m | 4.2m/s | -52.6°C | 4.2% | 0hPa | 2.7V | 00:00:00 | 00:00:00 | 00:00:00 | |
| PG1ADW-2 | 2026-09-04 00:04:08 | 48.91235 | 17.70119 | 137° | 62km/h | 16533m | 5.7m/s | -52.6°C | 4.1% | 0hPa | 2.7V | 00:00:00 | 00:00:00 | 00:00:00 | |
| OE5MMP-10 | 2026-09-04 00:04:03 | 48.91264 | 17.70076 | 133° | 64km/h | 16519m | 5.8m/s | 0°C | 0% | 0hPa | 2.7V | 00:00:00 | 01:10:17 | 08:30:00 | |
| OE3OSB-13 | 2026-09-04 00:03:56 | 48.91338 | 17.69958 | 135° | 64km/h | 16487m | 3.8m/s | -52.8°C | 1.3% | -1.0hPa | 2.7V | 00:00:00 | 00:00:00 | 00:00:00 | |
| PETON7-10 | 2026-09-04 00:03:55 | 48.91349 | 17.69940 | 138° | 66km/h | 16482m | 5.0m/s | -52.8°C | 4.2% | 0hPa | 2.7V | 00:00:00 | 01:10:09 | 00:00:00 | |
| OE5DXL-15 | 2026-09-04 00:03:46 | 48.91459 | 17.69783 | 133° | 66km/h | 16438m | 5.3m/s | -52.8°C | 4.2% | 0hPa | 2.7V | 00:00:00 | 00:00:00 | 00:00:00 | |
| PETON7-10 | 2026-09-04 00:03:41 | 48.91530 | 17.69677 | 136° | 66km/h | 16408m | 4.5m/s | -52.8°C | 4.3% | 0hPa | 2.7V | 00:00:00 | 00:00:00 | 00:00:00 | |
| POL2MAQ | 2026-09-04 00:03:37 | 48.91565 | 17.69626 | 138° | 68km/h | 16393m | 4.4m/s | -52.8°C | 1.4% | 0hPa | 2.7V | 00:00:00 | 00:00:00 | 00:00:00 | |
| OE5MMP-10 | 2026-09-04 00:03:28 | 48.91668 | 17.69454 | 134° | 62km/h | 16346m | 5.4m/s | 0°C | 0% | 0hPa | 2.7V | 00:00:00 | 01:09:42 | 00:00:00 | |
| DO3MHA-11 | 2026-09-04 00:03:27 | 48.91679 | 17.69436 | 135° | 64km/h | 16342m | 3.6m/s | -52.9°C | 4.3% | 0hPa | 2.7V | 00:00:00 | 01:09:41 | 00:00:00 | |
| PG1ADW-2 | 2026-09-04 00:03:26 | 48.91690 | 17.69419 | 134° | 64km/h | 16338m | 4.7m/s | -52.9°C | 4.3% | 0hPa | 2.7V | 00:00:00 | 00:00:00 | 00:00:00 | |
| PETON7-10 | 2026-09-04 00:03:25 | 48.91701 | 17.69401 | 131° | 66km/h | 16332m | 5.4m/s | -52.9°C | 4.4% | 0hPa | 2.7V | 00:00:00 | 00:00:00 | 00:00:00 | |
| OE5DRO-10 | 2026-09-04 00:03:23 | 48.91731 | 17.69346 | 131° | 66km/h | 16317m | 6.0m/s | -53.2°C | 4.5% | 0hPa | 2.7V | 00:00:00 | 00:00:00 | 00:00:00 | |
| OE5MMP-10 | 2026-09-04 00:03:18 | 48.91771 | 17.69271 | 124° | 66km/h | 16297m | 5.6m/s | 0°C | 0% | 0hPa | 2.7V | 00:00:00 | 01:09:32 | 00:00:00 | |
| POL2MAQ | 2026-09-04 00:03:16 | 48.91789 | 17.69227 | 124° | 69km/h | 16287m | 5.3m/s | -53.1°C | 1.5% | 0hPa | 2.7V | 00:00:00 | 00:00:00 | 00:00:00 | |
| PETON7-10 | 2026-09-04 00:03:10 | 48.91844 | 17.69099 | 125° | 64km/h | 16255m | 5.9m/s | -52.8°C | 4.3% | 0hPa | 2.7V | 00:00:00 | 01:09:24 | 00:00:00 | |
| OE5MMP-10 | 2026-09-04 00:03:08 | 48.91871 | 17.69040 | 123° | 66km/h | 16239m | 5.4m/s | 0°C | 0% | 0hPa | 2.7V | 00:00:00 | 01:09:21 | 00:00:00 | |
| PG1ADW-2 | 2026-09-04 00:03:07 | 48.91880 | 17.69019 | 123° | 66km/h | 16234m | 4.6m/s | -52.7°C | 4.3% | 0hPa | 2.7V | 00:00:00 | 01:09:20 | 00:00:00 | |
| PETON7-10 | 2026-09-04 00:02:29 | 48.92513 | 17.67768 | 115° | 80km/h | 15945m | 3.6m/s | -55.1°C | 4.9% | 0hPa | 2.7V | 00:00:00 | 00:00:00 | 00:00:00 | |
| OE5DRO-10 | 2026-09-04 00:02:27 | 48.92547 | 17.67665 | 119° | 82km/h | 15924m | 5.5m/s | -55.4°C | 5.0% | 0hPa | 2.7V | 00:00:00 | 00:00:00 | 00:00:00 | |
| PG1ADW-2 | 2026-09-04 00:02:26 | 48.92547 | 17.67665 | 119° | 82km/h | 15924m | 5.5m/s | -55.4°C | 5.0% | 0hPa | 2.7V | 00:00:00 | 00:00:00 | 00:00:00 | |
| OE5MMP-10 | 2026-09-04 00:02:20 | 48.92605 | 17.67524 | 127° | 80km/h | 15897m | 5.3m/s | 0°C | 0% | 0hPa | 2.7V | 00:00:00 | 01:08:15 | 00:00:00 | |
| HA6NAB-11 | 2026-09-04 00:02:19 | 48.92605 | 17.67524 | 127° | 86km/h | 15897m | 5.3m/s | -55.5°C | 1.9% | 0hPa | 2.7V | 00:00:00 | 00:00:00 | 00:00:00 | |
| HA6NAB-11 | 2026-09-04 00:02:14 | 48.92666 | 17.67399 | 127° | 78km/h | 15871m | 4.6m/s | -55.5°C | 1.9% | 0hPa | 2.7V | 00:00:00 | 00:00:00 | 00:00:00 | |
| DO3MHA-11 | 2026-09-04 00:02:11 | 48.92688 | 17.67350 | 123° | 80km/h | 15861m | 5.0m/s | -55.5°C | 5.2% | 0hPa | 2.7V | 00:00:00 | 01:08:08 | 00:00:00 | |
| POL2MAQ | 2026-09-04 00:02:10 | 48.92688 | 17.67350 | 123° | 77km/h | 15861m | 5.0m/s | -55.5°C | 1.9% | 0hPa | 2.7V | 00:00:00 | 00:00:00 | 00:00:00 | |
| OE3OSB-13 | 2026-09-04 00:02:09 | 48.92720 | 17.67273 | 124° | 80km/h | 15846m | 5.5m/s | -55.5°C | 1.7% | -1.0hPa | 2.7V | 00:00:00 | 00:00:00 | 00:00:00 | |
| OE5MMP-10 | 2026-09-04 00:02:08 | 48.92720 | 17.67273 | 125° | 80km/h | 15846m | 5.4m/s | 0°C | 0% | 0hPa | 2.7V | 00:00:00 | 01:08:05 | 00:00:00 | |
| HA6NAB-11 | 2026-09-04 00:02:06 | 48.92732 | 17.67248 | 127° | 82km/h | 15841m | 4.7m/s | -55.5°C | 1.9% | 0hPa | 2.7V | 00:00:00 | 00:00:00 | 00:00:00 | |
| OE5DRO-10 | 2026-09-04 00:02:00 | 48.92768 | 17.67169 | 123° | 75km/h | 15826m | 4.4m/s | -55.4°C | 5.2% | 0hPa | 2.7V | 00:00:00 | 00:00:00 | 08:30:00 | |
| OE5DXL-15 | 2026-09-04 00:01:59 | 48.92779 | 17.67143 | 124° | 73km/h | 15821m | 5.7m/s | -55.4°C | 5.2% | 0hPa | 2.7V | 00:00:00 | 00:00:00 | 00:00:00 | |
| HA6NAB-11 | 2026-09-04 00:01:57 | 48.92801 | 17.67093 | 125° | 77km/h | 15810m | 4.8m/s | -55.4°C | 1.9% | 0hPa | 2.7V | 00:00:00 | 00:00:00 | 00:00:00 | |
| OE5MMP-10 | 2026-09-04 00:01:54 | 48.92832 | 17.67021 | 126° | 73km/h | 15794m | 5.8m/s | 0°C | 0% | 0hPa | 2.7V | 00:00:00 | 01:07:55 | 00:00:00 | |
| PETON7-10 | 2026-09-04 00:01:52 | 48.92843 | 17.66998 | 128° | 75km/h | 15789m | 5.2m/s | -55.2°C | 5.1% | 0hPa | 2.7V | 00:00:00 | 01:07:54 | 00:00:00 | |
| HA6NAB-11 | 2026-09-04 00:01:49 | 48.92866 | 17.66954 | 129° | 73km/h | 15779m | 6.2m/s | -55.2°C | 1.9% | 0hPa | 2.7V | 00:00:00 | 00:00:00 | 00:00:00 | |
| DO3MHA-11 | 2026-09-04 00:01:41 | 48.92912 | 17.66865 | 130° | 73km/h | 15757m | 4.2m/s | -55.0°C | 5.1% | 0hPa | 2.7V | 00:00:00 | 01:07:48 | 00:00:00 | |
| POL2MAQ | 2026-09-04 00:01:40 | 48.92912 | 17.66865 | 130° | 75km/h | 15757m | 4.3m/s | -55.1°C | 1.9% | 0hPa | 2.7V | 00:00:00 | 00:00:00 | 00:00:00 | |
| HA6NAB-11 | 2026-09-04 00:01:39 | 48.92923 | 17.66843 | 129° | 75km/h | 15753m | 5.3m/s | -55.1°C | 1.8% | 0hPa | 2.7V | 00:00:00 | 00:00:00 | 00:00:00 | |
| OE5DRO-10 | 2026-09-04 00:01:35 | 48.92982 | 17.66727 | 131° | 69km/h | 15727m | 5.3m/s | -55.0°C | 5.1% | 0hPa | 2.7V | 00:00:00 | 00:00:00 | 00:00:00 | |
| PG1ADW-2 | 2026-09-04 00:01:30 | 48.93007 | 17.66682 | 131° | 69km/h | 15715m | 4.3m/s | -54.9°C | 5.1% | 0hPa | 2.7V | 00:00:00 | 00:00:00 | 00:00:00 | |
| PETON7-10 | 2026-09-04 00:01:29 | 48.93020 | 17.66660 | 132° | 68km/h | 15711m | 4.9m/s | -54.9°C | 5.0% | 0hPa | 2.7V | 00:00:00 | 00:00:00 | 00:00:00 | |
| DO3MHA-11 | 2026-09-04 00:01:26 | 48.93057 | 17.66601 | 134° | 68km/h | 15696m | 5.6m/s | -54.8°C | 5.0% | 0hPa | 2.7V | 00:00:00 | 01:07:36 | 00:00:00 | |
| OE3OSB-13 | 2026-09-04 00:01:24 | 48.93080 | 17.66563 | 130° | 64km/h | 15685m | 4.1m/s | -54.8°C | 1.7% | -1.0hPa | 2.7V | 00:00:00 | 00:00:00 | 00:00:00 | |
| POL2MAQ | 2026-09-04 00:01:17 | 48.93147 | 17.66449 | 135° | 69km/h | 15655m | 5.1m/s | -54.9°C | 1.9% | 0hPa | 2.7V | 00:00:00 | 00:00:00 | 00:00:00 | |
| DO3MHA-11 | 2026-09-04 00:01:15 | 48.93172 | 17.66413 | 139° | 69km/h | 15644m | 4.5m/s | -54.8°C | 5.0% | 0hPa | 2.7V | 00:00:00 | 01:07:26 | 08:30:00 | |
| OE5DRO-10 | 2026-09-04 00:01:12 | 48.93211 | 17.66357 | 136° | 69km/h | 15627m | 4.8m/s | -54.9°C | 5.0% | 0hPa | 2.7V | 00:00:00 | 00:00:00 | 00:00:00 | |
| PG1ADW-2 | 2026-09-04 00:01:08 | 48.93249 | 17.66301 | 135° | 71km/h | 15612m | 4.6m/s | -55.0°C | 5.0% | 0hPa | 2.7V | 00:00:00 | 00:00:00 | 00:00:00 | |
| PETON7-10 | 2026-09-04 00:00:56 | 48.93377 | 17.66087 | 136° | 77km/h | 15554m | 6.0m/s | -55.0°C | 5.1% | 0hPa | 2.7V | 00:00:00 | 01:07:09 | 00:00:00 | |
| S52SK | 2026-09-04 00:00:54 | 48.93377 | 17.66087 | 136° | 73km/h | 15554m | 6.1m/s | -55.0°C | 0% | 0hPa | 2.7V | 00:00:00 | 00:00:00 | 00:00:00 | |
| POL2MAQ | 2026-09-04 00:00:53 | 48.93403 | 17.66049 | 138° | 71km/h | 15544m | 4.4m/s | -54.9°C | 1.9% | 0hPa | 2.7V | 00:00:00 | 00:00:00 | 00:00:00 | |
| OE5DRO-10 | 2026-09-04 00:00:50 | 48.93441 | 17.65989 | 132° | 75km/h | 15528m | 5.0m/s | -54.8°C | 5.0% | 0hPa | 2.7V | 00:00:00 | 00:00:00 | 00:00:00 | |
| OE3OSB-13 | 2026-09-04 00:00:49 | 48.93453 | 17.65968 | 131° | 75km/h | 15522m | 6.8m/s | -54.9°C | 1.7% | -1.0hPa | 2.7V | 00:00:00 | 00:00:00 | 00:00:00 | |
| OE5DXL-15 | 2026-09-04 00:00:47 | 48.93492 | 17.65901 | 129° | 71km/h | 15505m | 6.2m/s | -54.8°C | 5.0% | 0hPa | 2.7V | 00:00:00 | 00:00:00 | 00:00:00 | |
| PG1ADW-2 | 2026-09-04 00:00:46 | 48.93492 | 17.65901 | 129° | 73km/h | 15505m | 6.2m/s | -54.8°C | 5.0% | 0hPa | 2.7V | 00:00:00 | 00:00:00 | 08:30:00 | |
| PETON7-10 | 2026-09-04 00:00:40 | 48.93563 | 17.65754 | 126° | 69km/h | 15471m | 5.4m/s | -54.7°C | 5.0% | 0hPa | 2.7V | 00:00:00 | 00:00:00 | 08:30:00 | |
| POL2MAQ | 2026-09-04 00:00:36 | 48.93647 | 17.65611 | 134° | 68km/h | 15436m | 5.5m/s | -55.1°C | 1.9% | 0hPa | 2.7V | 00:00:00 | 00:00:00 | 00:00:00 | |
| PG1ADW-2 | 2026-09-04 00:00:29 | 48.93722 | 17.65469 | 130° | 68km/h | 15398m | 5.0m/s | -55.0°C | 5.1% | 0hPa | 2.7V | 00:00:00 | 01:06:40 | 00:00:00 | |
| PETON7-10 | 2026-09-04 00:00:28 | 48.93732 | 17.65450 | 131° | 69km/h | 15392m | 6.3m/s | -55.0°C | 5.1% | 0hPa | 2.7V | 00:00:00 | 00:00:00 | 00:00:00 | |
| OE3OSB-13 | 2026-09-04 00:00:20 | 48.93812 | 17.65314 | 130° | 71km/h | 15352m | 5.5m/s | -54.9°C | 1.7% | -1.0hPa | 2.7V | 00:00:00 | 00:00:00 | 00:00:00 | |
| OE5DXL-15 | 2026-09-04 00:00:18 | 48.93835 | 17.65271 | 131° | 71km/h | 15342m | 4.3m/s | -54.8°C | 5.1% | 0hPa | 2.7V | 00:00:00 | 00:00:00 | 00:00:00 | |
| OE5DRO-10 | 2026-09-04 00:00:12 | 48.93882 | 17.65193 | 135° | 69km/h | 15321m | 5.9m/s | -54.7°C | 5.0% | 0hPa | 2.7V | 00:00:00 | 00:00:00 | 00:00:00 | |
| POL2MAQ | 2026-09-04 00:00:11 | 48.93882 | 17.65193 | 135° | 68km/h | 15321m | 5.9m/s | -54.7°C | 1.9% | 0hPa | 2.7V | 00:00:00 | 00:00:00 | 00:00:00 | |
| DO3MHA-11 | 2026-09-04 00:00:10 | 48.93918 | 17.65137 | 132° | 69km/h | 15305m | 5.0m/s | -54.7°C | 5.0% | 0hPa | 2.7V | 00:00:00 | 01:06:23 | 00:00:00 | |
| PG1ADW-2 | 2026-09-04 00:00:06 | 48.93951 | 17.65075 | 128° | 71km/h | 15290m | 3.9m/s | -54.6°C | 5.0% | 0hPa | 2.7V | 00:00:00 | 00:00:00 | 00:00:00 | |
| DO3MHA-11 | 2026-09-03 23:59:59 | 48.94035 | 17.64936 | 138° | 71km/h | 15255m | 4.2m/s | -54.4°C | 4.9% | 0hPa | 2.7V | 00:00:00 | 01:06:13 | 00:00:00 | |
| PETON7-10 | 2026-09-03 23:59:55 | 48.94089 | 17.64864 | 138° | 73km/h | 15235m | 5.6m/s | -54.4°C | 4.9% | 0hPa | 2.7V | 00:00:00 | 00:00:00 | 00:00:00 | |
| OE5DRO-10 | 2026-09-03 23:59:53 | 48.94115 | 17.64826 | 135° | 73km/h | 15225m | 5.2m/s | -54.4°C | 4.9% | 0hPa | 2.7V | 00:00:00 | 00:00:00 | 00:00:00 | |
| POL2MAQ | 2026-09-03 23:59:50 | 48.94140 | 17.64787 | 133° | 71km/h | 15214m | 4.9m/s | -54.5°C | 1.9% | 0hPa | 2.7V | 00:00:00 | 00:00:00 | 00:00:00 | |
| DO3MHA-11 | 2026-09-03 23:59:49 | 48.94164 | 17.64745 | 130° | 73km/h | 15203m | 5.0m/s | -54.5°C | 5.0% | 0hPa | 2.7V | 00:00:00 | 01:06:03 | 00:00:00 | |
| HA6NAB-11 | 2026-09-03 23:59:48 | 48.94164 | 17.64745 | 131° | 75km/h | 15203m | 5.1m/s | -54.5°C | 1.9% | 0hPa | 2.7V | 00:00:00 | 00:00:00 | 00:00:00 | |
| OE5DXL-15 | 2026-09-03 23:59:46 | 48.94200 | 17.64679 | 132° | 73km/h | 15187m | 4.3m/s | -54.5°C | 5.0% | 0hPa | 2.7V | 00:00:00 | 00:00:00 | 08:30:00 | |
| PG1ADW-2 | 2026-09-03 23:59:44 | 48.94225 | 17.64638 | 134° | 73km/h | 15176m | 5.4m/s | -54.5°C | 5.0% | 0hPa | 2.7V | 00:00:00 | 00:00:00 | 00:00:00 | |
| HA6NAB-11 | 2026-09-03 23:59:43 | 48.94225 | 17.64638 | 134° | 75km/h | 15176m | 5.4m/s | -54.5°C | 1.9% | 0hPa | 2.7V | 00:00:00 | 00:00:00 | 00:00:00 | |
| PETON7-10 | 2026-09-03 23:59:40 | 48.94275 | 17.64559 | 133° | 73km/h | 15156m | 5.2m/s | -54.4°C | 4.9% | 0hPa | 2.7V | 00:00:00 | 00:00:00 | 00:00:00 | |
| DO3MHA-11 | 2026-09-03 23:59:37 | 48.94310 | 17.64495 | 128° | 77km/h | 15140m | 6.3m/s | -54.4°C | 4.9% | 0hPa | 2.7V | 00:00:00 | 01:05:51 | 00:00:00 | |
| OE5DRO-10 | 2026-09-03 23:59:34 | 48.94344 | 17.64425 | 126° | 73km/h | 15123m | 5.7m/s | -54.4°C | 4.9% | 0hPa | 2.7V | 00:00:00 | 00:00:00 | 00:00:00 | |
| HA6NAB-11 | 2026-09-03 23:59:31 | 48.94367 | 17.64378 | 129° | 75km/h | 15113m | 6.2m/s | -54.6°C | 1.9% | 0hPa | 2.7V | 00:00:00 | 00:00:00 | 00:00:00 | |
| POL2MAQ | 2026-09-03 23:59:30 | 48.94379 | 17.64356 | 132° | 71km/h | 15108m | 4.6m/s | -54.7°C | 1.9% | 0hPa | 2.7V | 00:00:00 | 00:00:00 | 00:00:00 | |
| HA6NAB-11 | 2026-09-03 23:59:26 | 48.94429 | 17.64277 | 137° | 71km/h | 15089m | 4.3m/s | -54.7°C | 1.9% | 0hPa | 2.7V | 00:00:00 | 00:00:00 | 00:00:00 | |
| PETON7-10 | 2026-09-03 23:59:25 | 48.94454 | 17.64239 | 135° | 71km/h | 15079m | 4.4m/s | -54.6°C | 5.0% | 0hPa | 2.7V | 00:00:00 | 01:05:39 | 00:00:00 | |
| PG1ADW-2 | 2026-09-03 23:59:24 | 48.94467 | 17.64219 | 134° | 71km/h | 15074m | 5.8m/s | -54.7°C | 5.0% | 0hPa | 2.7V | 00:00:00 | 00:00:00 | 00:00:00 | |
| HA6NAB-11 | 2026-09-03 23:59:20 | 48.94503 | 17.64156 | 129° | 73km/h | 15059m | 6.1m/s | -55.1°C | 2.0% | 0hPa | 2.7V | 00:00:00 | 00:00:00 | 00:00:00 | |
| OE5DXL-15 | 2026-09-03 23:59:16 | 48.94556 | 17.64040 | 124° | 69km/h | 15033m | 4.9m/s | -55.0°C | 5.1% | 0hPa | 2.7V | 00:00:00 | 00:00:00 | 00:00:00 | |
| OE5DRO-10 | 2026-09-03 23:59:15 | 48.94566 | 17.64018 | 125° | 69km/h | 15028m | 3.9m/s | -55.0°C | 5.1% | 0hPa | 2.7V | 00:00:00 | 00:00:00 | 00:00:00 | |
| S52SK | 2026-09-03 23:59:14 | 48.94566 | 17.64018 | 126° | 68km/h | 15028m | 3.9m/s | -55.1°C | 0% | 0hPa | 2.7V | 00:00:00 | 00:00:00 | 00:00:00 | |
| PETON7-10 | 2026-09-03 23:59:10 | 48.94619 | 17.63918 | 131° | 69km/h | 15002m | 4.5m/s | -55.2°C | 5.2% | 0hPa | 2.7V | 00:00:00 | 00:00:00 | 00:00:00 | |
| S52SK | 2026-09-03 23:59:09 | 48.94619 | 17.63918 | 131° | 68km/h | 15002m | 4.6m/s | -55.2°C | 0% | 0hPa | 2.7V | 00:00:00 | 00:00:00 | 00:00:00 | |
| PG1ADW-2 | 2026-09-03 23:59:04 | 48.94679 | 17.63788 | 123° | 69km/h | 14974m | 5.5m/s | -55.0°C | 5.2% | 0hPa | 2.7V | 00:00:00 | 01:05:18 | 00:00:00 | |
| OE3OSB-13 | 2026-09-03 23:58:45 | 48.94888 | 17.63396 | 131° | 68km/h | 14879m | 5.6m/s | -54.9°C | 1.8% | -1.0hPa | 2.7V | 00:00:00 | 00:00:00 | 00:00:00 | |
| PG1ADW-2 | 2026-09-03 23:58:44 | 48.94900 | 17.63376 | 134° | 77km/h | 14873m | 4.8m/s | -54.9°C | 5.0% | 0hPa | 2.7V | 00:00:00 | 00:00:00 | 00:00:00 | |
| PETON7-10 | 2026-09-03 23:58:40 | 48.94949 | 17.63297 | 133° | 78km/h | 14854m | 5.1m/s | -55.1°C | 5.1% | 0hPa | 2.7V | 00:00:00 | 01:04:54 | 00:00:00 | |
| OE5DRO-10 | 2026-09-03 23:58:37 | 48.94988 | 17.63232 | 133° | 80km/h | 14838m | 5.2m/s | -55.1°C | 5.1% | 0hPa | 2.7V | 00:00:00 | 00:00:00 | 00:00:00 | |
| DO3MHA-11 | 2026-09-03 23:58:31 | 48.95064 | 17.63099 | 129° | 80km/h | 14810m | 5.7m/s | -55.2°C | 5.2% | 0hPa | 2.7V | 00:00:00 | 01:04:45 | 00:00:00 | |
| POL2MAQ | 2026-09-03 23:58:28 | 48.95090 | 17.63050 | 130° | 82km/h | 14800m | 5.6m/s | -55.2°C | 2.1% | 0hPa | 2.7V | 00:00:00 | 00:00:00 | 00:00:00 | |
| PETON7-10 | 2026-09-03 23:58:25 | 48.95142 | 17.62951 | 129° | 80km/h | 14781m | 4.6m/s | -55.3°C | 5.2% | 0hPa | 2.7V | 00:00:00 | 00:00:00 | 08:30:00 | |
| PG1ADW-2 | 2026-09-03 23:58:24 | 48.95154 | 17.62927 | 130° | 78km/h | 14776m | 5.5m/s | -55.3°C | 5.2% | 0hPa | 2.7V | 00:00:00 | 00:00:00 | 00:00:00 | |
| DO3MHA-11 | 2026-09-03 23:58:21 | 48.95192 | 17.62854 | 126° | 80km/h | 14761m | 4.3m/s | -55.3°C | 5.2% | 0hPa | 2.7V | 00:00:00 | 01:04:35 | 00:00:00 | |
| OE5DRO-10 | 2026-09-03 23:58:18 | 48.95228 | 17.62778 | 128° | 78km/h | 14747m | 4.0m/s | -55.4°C | 5.2% | 0hPa | 2.7V | 00:00:00 | 00:00:00 | 00:00:00 | |
| OE5DXL-15 | 2026-09-03 23:58:16 | 48.95253 | 17.62728 | 128° | 75km/h | 14737m | 5.6m/s | -55.5°C | 5.3% | 0hPa | 2.7V | 00:00:00 | 00:00:00 | 00:00:00 | |
| OE3OSB-13 | 2026-09-03 23:58:14 | 48.95278 | 17.62679 | 128° | 80km/h | 14727m | 5.4m/s | -55.6°C | 1.9% | -1.0hPa | 2.7V | 00:00:00 | 00:00:00 | 00:00:00 | |
| DO3MHA-11 | 2026-09-03 23:58:11 | 48.95317 | 17.62610 | 131° | 75km/h | 14714m | 5.3m/s | -55.7°C | 5.5% | 0hPa | 2.7V | 00:00:00 | 01:04:25 | 08:30:00 | |
| PETON7-10 | 2026-09-03 23:58:10 | 48.95329 | 17.62588 | 129° | 77km/h | 14709m | 4.5m/s | -55.7°C | 5.5% | 0hPa | 2.7V | 00:00:00 | 00:00:00 | 00:00:00 | |
| POL2MAQ | 2026-09-03 23:58:08 | 48.95340 | 17.62567 | 128° | 71km/h | 14705m | 3.4m/s | -55.8°C | 2.2% | 0hPa | 2.7V | 00:00:00 | 00:00:00 | 00:00:00 | |
| PG1ADW-2 | 2026-09-03 23:58:04 | 48.95395 | 17.62451 | 124° | 75km/h | 14682m | 4.5m/s | -55.7°C | 5.4% | 0hPa | 2.7V | 00:00:00 | 00:00:00 | 00:00:00 | |
| DO3MHA-11 | 2026-09-03 23:58:01 | 48.95429 | 17.62375 | 125° | 73km/h | 14669m | 4.1m/s | -55.7°C | 5.3% | 0hPa | 2.7V | 00:00:00 | 01:04:15 | 00:00:00 | |
| OE5DRO-10 | 2026-09-03 23:57:59 | 48.95452 | 17.62325 | 125° | 73km/h | 14659m | 4.4m/s | -55.8°C | 5.4% | 0hPa | 2.7V | 00:00:00 | 00:00:00 | 00:00:00 | |
| PETON7-10 | 2026-09-03 23:57:55 | 48.95497 | 17.62232 | 129° | 73km/h | 14642m | 4.1m/s | -55.9°C | 5.4% | 0hPa | 2.7V | 00:00:00 | 01:04:09 | 00:00:00 | |
| POL2MAQ | 2026-09-03 23:57:47 | 48.95577 | 17.62094 | 132° | 73km/h | 14608m | 3.6m/s | -56.2°C | 2.2% | 0hPa | 2.7V | 00:00:00 | 00:00:00 | 00:00:00 | |
| OE5DXL-15 | 2026-09-03 23:57:46 | 48.95603 | 17.62051 | 134° | 73km/h | 14599m | 4.7m/s | -56.2°C | 5.6% | 0hPa | 2.7V | 00:00:00 | 00:00:00 | 00:00:00 | |
| PG1ADW-2 | 2026-09-03 23:57:44 | 48.95631 | 17.62007 | 134° | 71km/h | 14590m | 5.7m/s | -56.2°C | 5.6% | 0hPa | 2.7V | 00:00:00 | 01:03:58 | 08:30:00 | |
| OE3OSB-13 | 2026-09-03 23:57:43 | 48.95644 | 17.61986 | 135° | 73km/h | 14585m | 3.9m/s | -56.3°C | 2.1% | -1.0hPa | 2.7V | 00:00:00 | 00:00:00 | 00:00:00 | |
| DO3MHA-11 | 2026-09-03 23:57:41 | 48.95671 | 17.61947 | 139° | 69km/h | 14575m | 5.1m/s | -56.4°C | 5.7% | 0hPa | 2.7V | 00:00:00 | 01:03:55 | 00:00:00 | |
| PETON7-10 | 2026-09-03 23:57:40 | 48.95685 | 17.61929 | 140° | 71km/h | 14569m | 5.3m/s | -56.4°C | 5.7% | 0hPa | 2.7V | 00:00:00 | 00:00:00 | 00:00:00 | |
| HA6NAB-11 | 2026-09-03 23:57:35 | 48.95738 | 17.61864 | 141° | 69km/h | 14548m | 4.3m/s | -56.4°C | 2.4% | 0hPa | 2.7V | 00:00:00 | 00:00:00 | 00:00:00 | |
| DO3MHA-11 | 2026-09-03 23:57:31 | 48.95803 | 17.61775 | 137° | 73km/h | 14527m | 5.1m/s | -56.3°C | 5.7% | 0hPa | 2.7V | 00:00:00 | 01:03:45 | 00:00:00 | |
| S52SK | 2026-09-03 23:57:30 | 48.95803 | 17.61775 | 138° | 73km/h | 14527m | 5.2m/s | -56.4°C | 0% | 0hPa | 2.7V | 00:00:00 | 00:00:00 | 00:00:00 | |
| POL2MAQ | 2026-09-03 23:57:27 | 48.95845 | 17.61716 | 138° | 75km/h | 14512m | 4.9m/s | -56.3°C | 2.4% | 0hPa | 2.7V | 00:00:00 | 00:00:00 | 00:00:00 | |
| PETON7-10 | 2026-09-03 23:57:24 | 48.95901 | 17.61641 | 140° | 77km/h | 14493m | 4.8m/s | -56.3°C | 5.7% | 0hPa | 2.7V | 00:00:00 | 00:00:00 | 00:00:00 | |
| OE5DRO-10 | 2026-09-03 23:57:21 | 48.95944 | 17.61588 | 143° | 82km/h | 14480m | 5.3m/s | -56.3°C | 5.7% | 0hPa | 2.7V | 00:00:00 | 00:00:00 | 00:00:00 | |
| HA6NAB-11 | 2026-09-03 23:57:18 | 48.95975 | 17.61553 | 145° | 78km/h | 14472m | 3.5m/s | -56.4°C | 2.4% | 0hPa | 2.7V | 00:00:00 | 00:00:00 | 00:00:00 | |
| OE5DXL-15 | 2026-09-03 23:57:16 | 48.96023 | 17.61499 | 143° | 84km/h | 14458m | 3.4m/s | -56.5°C | 5.8% | 0hPa | 2.7V | 00:00:00 | 00:00:00 | 00:00:00 | |
| OE3OSB-13 | 2026-09-03 23:57:12 | 48.96105 | 17.61409 | 143° | 78km/h | 14436m | 3.6m/s | -56.8°C | 2.3% | -1.0hPa | 2.7V | 00:00:00 | 00:00:00 | 00:00:00 | |
| DO3MHA-11 | 2026-09-03 23:57:11 | 48.96105 | 17.61409 | 144° | 84km/h | 14436m | 3.6m/s | 0°C | 0% | 0hPa | 2.7V | 00:00:00 | 01:03:25 | 00:00:00 | |
| PETON7-10 | 2026-09-03 23:57:09 | 48.96138 | 17.61372 | 144° | 88km/h | 14427m | 4.6m/s | -56.9°C | 6.0% | 0hPa | 2.7V | 00:00:00 | 01:03:23 | 00:00:00 | |
| POL2MAQ | 2026-09-03 23:57:07 | 48.96154 | 17.61352 | 142° | 84km/h | 14423m | 4.1m/s | -56.9°C | 2.5% | 0hPa | 2.7V | 00:00:00 | 00:00:00 | 00:00:00 | |
| PG1ADW-2 | 2026-09-03 23:57:04 | 48.96219 | 17.61264 | 137° | 86km/h | 14404m | 4.0m/s | -56.9°C | 6.0% | 0hPa | 2.7V | 00:00:00 | 00:00:00 | 00:00:00 | |
| OE5DRO-10 | 2026-09-03 23:57:02 | 48.96251 | 17.61218 | 137° | 86km/h | 14395m | 4.7m/s | -56.9°C | 6.0% | 0hPa | 2.7V | 00:00:00 | 00:00:00 | 00:00:00 | |
| DO3MHA-11 | 2026-09-03 23:57:01 | 48.96267 | 17.61195 | 139° | 88km/h | 14391m | 4.8m/s | 0°C | 0% | 0hPa | 2.7V | 00:00:00 | 01:03:15 | 00:00:00 | |
| HA6NAB-11 | 2026-09-03 23:56:59 | 48.96284 | 17.61172 | 141° | 91km/h | 14386m | 5.2m/s | -57.0°C | 2.5% | 0hPa | 2.7V | 00:00:00 | 00:00:00 | 00:00:00 | |
| PETON7-10 | 2026-09-03 23:56:54 | 48.96391 | 17.61052 | 144° | 86km/h | 14360m | 4.5m/s | -57.0°C | 6.1% | 0hPa | 2.7V | 00:00:00 | 00:00:00 | 00:00:00 | |
| HA6NAB-11 | 2026-09-03 23:56:53 | 48.96390 | 17.61052 | 145° | 86km/h | 14360m | 4.6m/s | -57.1°C | 2.6% | 0hPa | 2.7V | 00:00:00 | 00:00:00 | 00:00:00 | |
| DO3MHA-11 | 2026-09-03 23:56:51 | 48.96441 | 17.60990 | 138° | 84km/h | 14348m | 4.1m/s | 0°C | 0% | 0hPa | 2.7V | 00:00:00 | 01:03:05 | 00:00:00 | |
| HA6NAB-11 | 2026-09-03 23:56:48 | 48.96473 | 17.60947 | 140° | 84km/h | 14340m | 5.0m/s | -57.1°C | 2.6% | 0hPa | 2.7V | 00:00:00 | 00:00:00 | 00:00:00 | |
| OE5DXL-15 | 2026-09-03 23:56:46 | 48.96522 | 17.60886 | 142° | 88km/h | 14327m | 4.4m/s | -57.1°C | 6.1% | 0hPa | 2.7V | 00:00:00 | 00:00:00 | 00:00:00 | |
| PG1ADW-2 | 2026-09-03 23:56:44 | 48.96553 | 17.60846 | 139° | 88km/h | 14320m | 3.4m/s | -57.2°C | 6.1% | 0hPa | 2.7V | 00:00:00 | 00:00:00 | 00:00:00 | |
| OE5DRO-10 | 2026-09-03 23:56:43 | 48.96569 | 17.60825 | 139° | 88km/h | 14316m | 4.1m/s | -57.2°C | 6.1% | 0hPa | 2.7V | 00:00:00 | 00:00:00 | 00:00:00 | |
| HA6NAB-11 | 2026-09-03 23:56:42 | 48.96569 | 17.60825 | 140° | 86km/h | 14316m | 4.1m/s | -57.2°C | 2.6% | 0hPa | 2.7V | 00:00:00 | 00:00:00 | 00:00:00 | |
| OE3OSB-13 | 2026-09-03 23:56:41 | 48.96622 | 17.60756 | 138° | 93km/h | 14302m | 4.7m/s | -57.3°C | 2.4% | -1.0hPa | 2.7V | 00:00:00 | 00:00:00 | 00:00:00 | |
| PETON7-10 | 2026-09-03 23:56:39 | 48.96639 | 17.60732 | 137° | 88km/h | 14298m | 4.3m/s | -57.3°C | 6.1% | 0hPa | 2.7V | 00:00:00 | 00:00:00 | 00:00:00 | |
| OE3JTB-15 | 2026-09-03 23:56:31 | 48.96817 | 17.60476 | 134° | 82km/h | 14251m | 4.2m/s | -57.6°C | 6.4% | 0hPa | 2.7V | 00:00:00 | 00:00:00 | 00:00:00 | |
| POL2MAQ | 2026-09-03 23:56:25 | 48.96847 | 17.60429 | 135° | 88km/h | 14242m | 3.4m/s | -57.6°C | 2.8% | 0hPa | 2.7V | 00:00:00 | 00:00:00 | 00:00:00 | |
| PG1ADW-2 | 2026-09-03 23:56:24 | 48.96878 | 17.60380 | 133° | 82km/h | 14234m | 4.5m/s | -57.5°C | 6.3% | 0hPa | 2.7V | 00:00:00 | 01:02:38 | 00:00:00 | |
| OE5DXL-15 | 2026-09-03 23:56:16 | 48.96997 | 17.60190 | 136° | 78km/h | 14201m | 2.9m/s | -57.8°C | 6.5% | 0hPa | 2.7V | 00:00:00 | 00:00:00 | 00:00:00 | |
| OE3OSB-13 | 2026-09-03 23:56:10 | 48.97102 | 17.60026 | 137° | 75km/h | 14175m | 3.7m/s | -58.2°C | 2.8% | -1.0hPa | 2.7V | 00:00:00 | 00:00:00 | 00:00:00 | |
| PETON7-10 | 2026-09-03 23:56:09 | 48.97102 | 17.60026 | 138° | 77km/h | 14176m | 3.6m/s | -58.1°C | 6.8% | 0hPa | 2.7V | 00:00:00 | 00:00:00 | 08:30:00 | |
| OE5DRO-10 | 2026-09-03 23:56:05 | 48.97156 | 17.59947 | 137° | 75km/h | 14159m | 4.4m/s | -58.1°C | 6.9% | 0hPa | 2.7V | 00:00:00 | 00:00:00 | 08:30:00 | |
| PG1ADW-2 | 2026-09-03 23:56:04 | 48.97170 | 17.59927 | 136° | 75km/h | 14154m | 3.7m/s | -58.1°C | 6.9% | 0hPa | 2.7V | 00:00:00 | 00:00:00 | 00:00:00 | |
| OE3JTB-15 | 2026-09-03 23:56:02 | 48.97225 | 17.59840 | 135° | 75km/h | 14138m | 3.5m/s | -58.1°C | 6.9% | 0hPa | 2.7V | 00:00:00 | 01:02:14 | 00:00:00 | |
| PETON7-10 | 2026-09-03 23:55:54 | 48.97307 | 17.59718 | 137° | 73km/h | 14112m | 4.4m/s | -58.0°C | 6.9% | 0hPa | 2.7V | 00:00:00 | 00:00:00 | 00:00:00 | |
| S52SK | 2026-09-03 23:55:52 | 48.97320 | 17.59699 | 137° | 71km/h | 14108m | 4.2m/s | -58.1°C | 0% | 0hPa | 2.7V | 00:00:00 | 00:00:00 | 00:00:00 | |
| S52SK | 2026-09-03 23:55:47 | 48.97389 | 17.59601 | 138° | 75km/h | 14088m | 4.1m/s | -58.1°C | 0% | 0hPa | 2.7V | 00:00:00 | 00:00:00 | 00:00:00 | |
| OE5DXL-15 | 2026-09-03 23:55:46 | 48.97418 | 17.59563 | 140° | 71km/h | 14079m | 4.6m/s | -58.0°C | 6.9% | 0hPa | 2.7V | 00:00:00 | 00:00:00 | 00:00:00 | |
| PG1ADW-2 | 2026-09-03 23:55:44 | 48.97446 | 17.59526 | 139° | 71km/h | 14071m | 4.6m/s | -58.0°C | 6.9% | 0hPa | 2.7V | 00:00:00 | 00:00:00 | 00:00:00 | |
| S52SK | 2026-09-03 23:55:42 | 48.97460 | 17.59507 | 139° | 71km/h | 14067m | 4.0m/s | -58.1°C | 0% | 0hPa | 2.7V | 00:00:00 | 00:00:00 | 00:00:00 | |
| OE3OSB-13 | 2026-09-03 23:55:39 | 48.97529 | 17.59419 | 141° | 69km/h | 14046m | 4.3m/s | -58.1°C | 3.0% | -1.0hPa | 2.7V | 00:00:00 | 00:00:00 | 00:00:00 | |
| OE3JTB-15 | 2026-09-03 23:55:33 | 48.97651 | 17.59294 | 147° | 71km/h | 14011m | 2.6m/s | -58.1°C | 7.0% | 0hPa | 2.7V | 00:00:00 | 00:00:00 | 00:00:00 | |
| OE5DRO-10 | 2026-09-03 23:55:27 | 48.97693 | 17.59246 | 141° | 66km/h | 13999m | 3.7m/s | -58.1°C | 6.9% | 0hPa | 2.7V | 00:00:00 | 00:00:00 | 00:00:00 | |
| PETON7-10 | 2026-09-03 23:55:24 | 48.97734 | 17.59194 | 143° | 66km/h | 13987m | 3.4m/s | -58.1°C | 7.1% | 0hPa | 2.7V | 00:00:00 | 00:00:00 | 00:00:00 | |
| OE5DXL-15 | 2026-09-03 23:55:16 | 48.97848 | 17.59096 | 147° | 77km/h | 13950m | 3.8m/s | -58.1°C | 7.0% | 0hPa | 2.7V | 00:00:00 | 00:00:00 | 08:30:00 | |
| PETON7-10 | 2026-09-03 23:55:09 | 48.97945 | 17.59001 | 159° | 80km/h | 13911m | 5.3m/s | -58.1°C | 6.9% | 0hPa | 2.7V | 00:00:00 | 00:00:00 | 00:00:00 | |
| OE5DRO-10 | 2026-09-03 23:55:08 | 48.97962 | 17.58992 | 160° | 82km/h | 13905m | 7.6m/s | -58.1°C | 6.9% | 0hPa | 2.7V | 00:00:00 | 00:00:00 | 00:00:00 | |
| HA6NAB-11 | 2026-09-03 23:55:07 | 48.97962 | 17.58992 | 161° | 73km/h | 13905m | 7.6m/s | -58.1°C | 3.1% | 0hPa | 2.7V | 00:00:00 | 00:00:00 | 00:00:00 | |
| PG1ADW-2 | 2026-09-03 23:55:04 | 48.98033 | 17.58943 | 154° | 84km/h | 13878m | 5.9m/s | -57.9°C | 7.2% | 0hPa | 2.7V | 00:00:00 | 01:01:18 | 00:00:00 | |
| POL2MAQ | 2026-09-03 23:55:03 | 48.98033 | 17.58943 | 154° | 78km/h | 13878m | 6.0m/s | -58.0°C | 3.3% | 0hPa | 2.7V | 00:00:00 | 00:00:00 | 00:00:00 | |
| HA6NAB-11 | 2026-09-03 23:55:02 | 48.98051 | 17.58929 | 154° | 80km/h | 13873m | 4.0m/s | -58.0°C | 3.4% | 0hPa | 2.7V | 00:00:00 | 00:00:00 | 00:00:00 | |
| HA6NAB-11 | 2026-09-03 23:54:56 | 48.98166 | 17.58845 | 150° | 80km/h | 13848m | -0.1m/s | -57.8°C | 3.4% | 0hPa | 2.7V | 00:00:00 | 00:00:00 | 00:00:00 | |
| PETON7-10 | 2026-09-03 23:54:54 | 48.98223 | 17.58802 | 159° | 88km/h | 13835m | 6.5m/s | -57.8°C | 7.5% | 0hPa | 2.7V | 00:00:00 | 01:01:08 | 00:00:00 | |
| HA6NAB-11 | 2026-09-03 23:54:50 | 48.98282 | 17.58772 | 164° | 80km/h | 13819m | 5.7m/s | -57.7°C | 3.6% | 0hPa | 2.7V | 00:00:00 | 00:00:00 | 00:00:00 | |
| OE5DRO-10 | 2026-09-03 23:54:49 | 48.98322 | 17.58754 | 165° | 95km/h | 13809m | 7.2m/s | -57.6°C | 7.5% | 0hPa | 2.7V | 00:00:00 | 00:00:00 | 00:00:00 | |
| OE5DXL-15 | 2026-09-03 23:54:46 | 48.98384 | 17.58723 | 156° | 97km/h | 13792m | 7.0m/s | -57.5°C | 7.4% | 0hPa | 2.7V | 00:00:00 | 00:00:00 | 00:00:00 | |
| PG1ADW-2 | 2026-09-03 23:54:44 | 48.98424 | 17.58687 | 145° | 95km/h | 13778m | 6.2m/s | -57.4°C | 7.4% | 0hPa | 2.7V | 00:00:00 | 00:00:00 | 08:30:00 | |
| POL2MAQ | 2026-09-03 23:54:42 | 48.98443 | 17.58665 | 143° | 93km/h | 13771m | 7.1m/s | -57.4°C | 3.6% | 0hPa | 2.7V | 00:00:00 | 00:00:00 | 00:00:00 | |
| PETON7-10 | 2026-09-03 23:54:39 | 48.98521 | 17.58597 | 161° | 95km/h | 13749m | 7.7m/s | -57.2°C | 7.4% | 0hPa | 2.7V | 00:00:00 | 00:00:00 | 00:00:00 | |
| HA6NAB-11 | 2026-09-03 23:54:38 | 48.98521 | 17.58597 | 161° | 93km/h | 13749m | 7.8m/s | -57.3°C | 3.7% | 0hPa | 2.7V | 00:00:00 | 00:00:00 | 00:00:00 | |
| OE3OSB-13 | 2026-09-03 23:54:37 | 48.98589 | 17.58566 | 160° | 95km/h | 13728m | 6.5m/s | -57.1°C | 3.5% | -1.0hPa | 2.7V | 00:00:00 | 00:00:00 | 00:00:00 | |
| OE5DRO-10 | 2026-09-03 23:54:30 | 48.98726 | 17.58453 | 152° | 102km/h | 13685m | 4.8m/s | -56.8°C | 7.8% | 0hPa | 2.7V | 00:00:00 | 00:00:00 | 00:00:00 | |
| PETON7-10 | 2026-09-03 23:54:24 | 48.98850 | 17.58367 | 163° | 106km/h | 13647m | 6.5m/s | -56.9°C | 8.0% | 0hPa | 2.7V | 00:00:00 | 00:00:00 | 00:00:00 | |
| POL2MAQ | 2026-09-03 23:54:21 | 48.98898 | 17.58345 | 165° | 102km/h | 13633m | 6.9m/s | -57.2°C | 4.3% | 0hPa | 2.7V | 00:00:00 | 00:00:00 | 00:00:00 | |
| OE5DXL-15 | 2026-09-03 23:54:16 | 48.99043 | 17.58235 | 146° | 104km/h | 13580m | 6.3m/s | -57.7°C | 9.0% | 0hPa | 2.7V | 00:00:00 | 00:00:00 | 00:00:00 | |
| OE5DRO-10 | 2026-09-03 23:54:11 | 48.99166 | 17.58141 | 161° | 100km/h | 13544m | 7.1m/s | -57.7°C | 9.6% | 0hPa | 2.7V | 00:00:00 | 00:00:00 | 00:00:00 | |
| PETON7-10 | 2026-09-03 23:54:09 | 48.99215 | 17.58111 | 157° | 100km/h | 13531m | 5.7m/s | -57.6°C | 9.9% | 0hPa | 2.7V | 00:00:00 | 01:00:23 | 00:00:00 | |
| OE3OSB-13 | 2026-09-03 23:54:05 | 48.99310 | 17.58032 | 149° | 110km/h | 13501m | 7.9m/s | -57.6°C | 5.5% | -1.0hPa | 2.7V | 00:00:00 | 00:00:00 | 00:00:00 | |
| PG1ADW-2 | 2026-09-03 23:54:04 | 48.99334 | 17.58010 | 151° | 102km/h | 13493m | 7.3m/s | -57.6°C | 10.4% | 0hPa | 2.7V | 00:00:00 | 00:00:00 | 00:00:00 | |
| S52SK | 2026-09-03 23:54:03 | 48.99334 | 17.58011 | 151° | 111km/h | 13493m | 7.4m/s | -57.6°C | 0% | 0hPa | 2.7V | 00:00:00 | 00:00:00 | 00:00:00 | |
| POL2MAQ | 2026-09-03 23:54:00 | 48.99405 | 17.57956 | 157° | 97km/h | 13470m | 8.4m/s | -57.6°C | 6.2% | 0hPa | 2.7V | 00:00:00 | 00:00:00 | 00:00:00 | |
| PETON7-10 | 2026-09-03 23:53:54 | 48.99555 | 17.57851 | 156° | 111km/h | 13415m | 7.8m/s | -57.8°C | 12.0% | 0hPa | 2.7V | 00:00:00 | 00:00:00 | 08:30:00 | |
| OE5DRO-10 | 2026-09-03 23:53:52 | 48.99600 | 17.57820 | 155° | 119km/h | 13401m | 7.4m/s | -57.9°C | 12.5% | 0hPa | 2.7V | 00:00:00 | 00:00:00 | 00:00:00 | |
| OE5DXL-15 | 2026-09-03 23:53:46 | 48.99747 | 17.57695 | 154° | 124km/h | 13354m | 6.3m/s | -58.3°C | 13.8% | 0hPa | 2.7V | 00:00:00 | 00:00:00 | 00:00:00 | |
| PG1ADW-2 | 2026-09-03 23:53:44 | 48.99796 | 17.57660 | 158° | 122km/h | 13337m | 7.0m/s | -58.3°C | 14.2% | 0hPa | 2.7V | 00:00:00 | 00:59:58 | 00:00:00 | |
| POL2MAQ | 2026-09-03 23:53:40 | 48.99878 | 17.57613 | 163° | 122km/h | 13312m | 6.3m/s | -58.6°C | 9.3% | 0hPa | 2.7V | 00:00:00 | 00:00:00 | 00:00:00 | |
| PETON7-10 | 2026-09-03 23:53:39 | 48.99939 | 17.57586 | 164° | 124km/h | 13298m | 4.1m/s | -58.7°C | 15.6% | 0hPa | 2.7V | 00:00:00 | 00:00:00 | 00:00:00 | |
| OE5DRO-10 | 2026-09-03 23:53:33 | 49.00115 | 17.57461 | 146° | 126km/h | 13253m | 6.8m/s | -59.1°C | 18.3% | 0hPa | 2.7V | 00:00:00 | 00:00:00 | 00:00:00 | |
| HA6NAB-11 | 2026-09-03 23:53:25 | 49.00305 | 17.57304 | 158° | 120km/h | 13201m | 9.9m/s | -59.3°C | 13.0% | 0hPa | 2.7V | 00:00:00 | 00:00:00 | 00:00:00 | |
| PETON7-10 | 2026-09-03 23:53:24 | 49.00359 | 17.57266 | 153° | 128km/h | 13184m | 8.0m/s | -59.4°C | 20.7% | 0hPa | 2.7V | 00:00:00 | 00:59:38 | 00:00:00 | |
| HA6NAB-11 | 2026-09-03 23:53:20 | 49.00438 | 17.57190 | 145° | 128km/h | 13161m | 8.5m/s | -59.5°C | 14.0% | 0hPa | 2.7V | 00:00:00 | 00:00:00 | 00:00:00 | |
| POL2MAQ | 2026-09-03 23:53:19 | 49.00464 | 17.57161 | 144° | 130km/h | 13152m | 9.1m/s | -59.5°C | 14.2% | 0hPa | 2.7V | 00:00:00 | 00:00:00 | 00:00:00 | |
| OE5DXL-15 | 2026-09-03 23:53:16 | 49.00573 | 17.57039 | 145° | 119km/h | 13123m | 5.3m/s | -59.6°C | 22.3% | 0hPa | 2.7V | 00:00:00 | 00:00:00 | 00:00:00 | |
| HA6NAB-11 | 2026-09-03 23:53:15 | 49.00573 | 17.57039 | 145° | 135km/h | 13123m | 5.4m/s | -59.7°C | 15.1% | 0hPa | 2.7V | 00:00:00 | 00:00:00 | 00:00:00 | |
| OE5DRO-10 | 2026-09-03 23:53:14 | 49.00627 | 17.56980 | 147° | 119km/h | 13109m | 5.9m/s | -59.7°C | 23.1% | 0hPa | 2.7V | 00:00:00 | 00:00:00 | 08:30:00 | |
| PETON7-10 | 2026-09-03 23:53:09 | 49.00762 | 17.56869 | 153° | 115km/h | 13073m | 5.5m/s | -59.9°C | 25.8% | 0hPa | 2.7V | 00:00:00 | 00:00:00 | 00:00:00 | |
| PG1ADW-2 | 2026-09-03 23:53:04 | 49.00892 | 17.56764 | 151° | 117km/h | 13038m | 8.5m/s | -60.3°C | 27.4% | 0hPa | 2.7V | 00:00:00 | 00:00:00 | 00:00:00 | |
| OE3OSB-13 | 2026-09-03 23:53:03 | 49.00919 | 17.56741 | 149° | 122km/h | 13031m | 5.6m/s | -60.4°C | 19.1% | -1.0hPa | 2.7V | 00:00:00 | 00:00:00 | 00:00:00 | |
| POL2MAQ | 2026-09-03 23:52:59 | 49.00998 | 17.56671 | 151° | 117km/h | 13009m | 9.0m/s | -60.5°C | 20.3% | 0hPa | 2.7V | 00:00:00 | 00:00:00 | 00:00:00 | |
| HA6NAB-11 | 2026-09-03 23:52:58 | 49.01023 | 17.56649 | 151° | 111km/h | 13001m | 5.5m/s | -60.5°C | 20.9% | 0hPa | 2.7V | 00:00:00 | 00:00:00 | 00:00:00 | |
| OE5DRO-10 | 2026-09-03 23:52:55 | 49.01123 | 17.56573 | 157° | 117km/h | 12973m | 6.4m/s | -60.5°C | 31.0% | 0hPa | 2.7V | 00:00:00 | 00:00:00 | 00:00:00 | |
| PETON7-10 | 2026-09-03 23:52:54 | 49.01149 | 17.56556 | 158° | 117km/h | 12965m | 8.1m/s | -60.5°C | 31.1% | 0hPa | 2.7V | 00:00:00 | 00:00:00 | 00:00:00 | |
| HA6NAB-11 | 2026-09-03 23:52:53 | 49.01149 | 17.56556 | 158° | 111km/h | 12965m | 8.2m/s | -60.6°C | 22.0% | 0hPa | 2.7V | 00:00:00 | 00:00:00 | 00:00:00 | |
| HA6NAB-11 | 2026-09-03 23:52:47 | 49.01308 | 17.56463 | 164° | 120km/h | 12921m | 10.1m/s | -60.4°C | 23.5% | 0hPa | 2.7V | 00:00:00 | 00:00:00 | 00:00:00 | |
| OE5DXL-15 | 2026-09-03 23:52:46 | 49.01367 | 17.56434 | 162° | 131km/h | 12906m | 6.5m/s | -60.3°C | 34.7% | 0hPa | 2.7V | 00:00:00 | 00:00:00 | 00:00:00 | |
| OE3JTB-15 | 2026-09-03 23:52:45 | 49.01396 | 17.56418 | 160° | 122km/h | 12900m | 5.9m/s | -60.2°C | 34.9% | 0hPa | 2.7V | 00:00:00 | 00:58:59 | 00:00:00 | |
| PG1ADW-2 | 2026-09-03 23:52:44 | 49.01425 | 17.56401 | 158° | 128km/h | 12895m | 4.1m/s | -60.2°C | 34.9% | 0hPa | 2.7V | 00:00:00 | 00:00:00 | 00:00:00 | |
| HA6NAB-11 | 2026-09-03 23:52:42 | 49.01453 | 17.56383 | 158° | 119km/h | 12889m | 7.4m/s | -60.2°C | 24.9% | 0hPa | 2.7V | 00:00:00 | 00:00:00 | 00:00:00 | |
| PETON7-10 | 2026-09-03 23:52:39 | 49.01560 | 17.56313 | 155° | 131km/h | 12865m | 8.3m/s | -60.0°C | 35.8% | 0hPa | 2.7V | 00:00:00 | 00:58:53 | 00:00:00 | |
| OE5DRO-10 | 2026-09-03 23:52:36 | 49.01650 | 17.56251 | 159° | 137km/h | 12844m | 7.0m/s | -59.9°C | 36.9% | 0hPa | 2.7V | 00:00:00 | 00:00:00 | 00:00:00 | |
| OE3OSB-13 | 2026-09-03 23:52:32 | 49.01795 | 17.56183 | 164° | 150km/h | 12817m | 7.5m/s | -59.8°C | 28.9% | -1.0hPa | 2.7V | 00:00:00 | 00:00:00 | 00:00:00 | |
| HA6NAB-11 | 2026-09-03 23:52:31 | 49.01831 | 17.56166 | 163° | 142km/h | 12810m | 7.1m/s | -59.7°C | 29.7% | 0hPa | 2.7V | 00:00:00 | 00:00:00 | 00:00:00 | |
| S52SK | 2026-09-03 23:52:30 | 49.01831 | 17.56166 | 163° | 142km/h | 12810m | 7.1m/s | -59.7°C | 0% | 0hPa | 2.7V | 00:00:00 | 00:00:00 | 00:00:00 | |
| PG1ADW-2 | 2026-09-03 23:52:24 | 49.02027 | 17.56042 | 167° | 146km/h | 12760m | 6.2m/s | -59.3°C | 40.5% | 0hPa | 2.7V | 00:00:00 | 00:58:38 | 00:00:00 | |
| OE5DRO-10 | 2026-09-03 23:52:17 | 49.02272 | 17.55936 | 152° | 153km/h | 12707m | 9.0m/s | -59.1°C | 43.3% | 0hPa | 2.7V | 00:00:00 | 00:00:00 | 00:00:00 | |
| OE3JTB-15 | 2026-09-03 23:52:16 | 49.02331 | 17.55883 | 149° | 164km/h | 12689m | 9.4m/s | -59.1°C | 43.2% | 0hPa | 2.7V | 00:00:00 | 00:00:00 | 00:00:00 | |
| PETON7-10 | 2026-09-03 23:52:09 | 49.02517 | 17.55764 | 164° | 166km/h | 12643m | 7.8m/s | -59.2°C | 47.5% | 0hPa | 2.7V | 00:00:00 | 00:00:00 | 00:00:00 | |
| PG1ADW-2 | 2026-09-03 23:52:04 | 49.02718 | 17.55654 | 156° | 168km/h | 12605m | 6.3m/s | -60.7°C | 57.4% | 0hPa | 2.7V | 00:00:00 | 00:00:00 | 00:00:00 | |
| OE3OSB-13 | 2026-09-03 23:52:01 | 49.02831 | 17.55575 | 155° | 164km/h | 12585m | 7.2m/s | -61.1°C | 46.4% | -1.0hPa | 2.7V | 00:00:00 | 00:00:00 | 00:00:00 | |
| OE5DRO-10 | 2026-09-03 23:51:58 | 49.02947 | 17.55490 | 154° | 162km/h | 12569m | 4.8m/s | -61.2°C | 64.1% | 0hPa | 2.7V | 00:00:00 | 00:00:00 | 00:00:00 | |
| POL2MAQ | 2026-09-03 23:51:57 | 49.02947 | 17.55490 | 154° | 172km/h | 12569m | 4.8m/s | -61.3°C | 49.0% | 0hPa | 2.7V | 00:00:00 | 00:00:00 | 00:00:00 | |
| PETON7-10 | 2026-09-03 23:51:54 | 49.03097 | 17.55370 | 152° | 161km/h | 12550m | 5.2m/s | -61.6°C | 66.1% | 0hPa | 2.7V | 00:00:00 | 00:58:08 | 00:00:00 | |
| OE5DXL-15 | 2026-09-03 23:51:46 | 49.03398 | 17.55125 | 156° | 153km/h | 12513m | 4.2m/s | -61.6°C | 67.5% | 0hPa | 2.7V | 00:00:00 | 00:00:00 | 00:00:00 | |
| PG1ADW-2 | 2026-09-03 23:51:44 | 49.03471 | 17.55077 | 158° | 155km/h | 12500m | 5.3m/s | -61.5°C | 66.9% | 0hPa | 2.7V | 00:00:00 | 00:00:00 | 08:30:00 | |
| OE5DRO-10 | 2026-09-03 23:51:39 | 49.03640 | 17.54957 | 157° | 155km/h | 12464m | 6.7m/s | -61.4°C | 67.0% | 0hPa | 2.7V | 00:00:00 | 00:00:00 | 00:00:00 | |
| POL2MAQ | 2026-09-03 23:51:36 | 49.03712 | 17.54918 | 165° | 155km/h | 12450m | 6.2m/s | -61.4°C | 51.4% | 0hPa | 2.7V | 00:00:00 | 00:00:00 | 00:00:00 | |
| OE3OSB-13 | 2026-09-03 23:51:30 | 49.03982 | 17.54782 | 157° | 159km/h | 12412m | 5.4m/s | -61.3°C | 50.1% | -1.0hPa | 2.7V | 00:00:00 | 00:00:00 | 00:00:00 | |
| OE5DRO-10 | 2026-09-03 23:51:20 | 49.04343 | 17.54584 | 160° | 148km/h | 12328m | 8.9m/s | -61.5°C | 66.7% | 0hPa | 2.7V | 00:00:00 | 00:00:00 | 00:00:00 | |
| OE5DXL-15 | 2026-09-03 23:51:16 | 49.04480 | 17.54520 | 167° | 153km/h | 12302m | 8.8m/s | -61.4°C | 66.8% | 0hPa | 2.7V | 00:00:00 | 00:00:00 | 00:00:00 | |
| OE3JTB-15 | 2026-09-03 23:51:15 | 49.04551 | 17.54493 | 167° | 151km/h | 12287m | 8.7m/s | -61.3°C | 66.0% | 0hPa | 2.7V | 00:00:00 | 00:57:28 | 00:00:00 | |
| PETON7-10 | 2026-09-03 23:51:09 | 49.04735 | 17.54416 | 164° | 151km/h | 12242m | 6.5m/s | -61.0°C | 65.4% | 0hPa | 2.7V | 00:00:00 | 00:57:23 | 00:00:00 | |
| PG1ADW-2 | 2026-09-03 23:51:04 | 49.04924 | 17.54354 | 172° | 155km/h | 12201m | 6.4m/s | -60.8°C | 64.5% | 0hPa | 2.7V | 00:00:00 | 00:57:18 | 00:00:00 | |
| OE3OSB-13 | 2026-09-03 23:50:59 | 49.05149 | 17.54286 | 164° | 151km/h | 12156m | 6.0m/s | -60.5°C | 47.6% | -1.0hPa | 2.7V | 00:00:00 | 00:00:00 | 00:00:00 | |
| POL2MAQ | 2026-09-03 23:50:56 | 49.05185 | 17.54270 | 164° | 148km/h | 12148m | 10.7m/s | -60.5°C | 47.5% | 0hPa | 2.7V | 00:00:00 | 00:00:00 | 00:00:00 | |
| PETON7-10 | 2026-09-03 23:50:54 | 49.05292 | 17.54229 | 168° | 159km/h | 12125m | 9.5m/s | -60.3°C | 61.8% | 0hPa | 2.7V | 00:00:00 | 00:00:00 | 00:00:00 | |
| S52SK | 2026-09-03 23:50:53 | 49.05292 | 17.54229 | 169° | 142km/h | 12125m | 9.6m/s | -60.3°C | 0% | 0hPa | 2.7V | 00:00:00 | 00:00:00 | 00:00:00 | |
| HA6NAB-11 | 2026-09-03 23:50:49 | 49.05447 | 17.54173 | 166° | 170km/h | 12093m | 8.0m/s | -60.1°C | 45.9% | 0hPa | 2.7V | 00:00:00 | 00:00:00 | 00:00:00 | |
| S52SK | 2026-09-03 23:50:48 | 49.05488 | 17.54155 | 165° | 168km/h | 12087m | 5.0m/s | -60.0°C | 0% | 0hPa | 2.7V | 00:00:00 | 00:00:00 | 00:00:00 | |
| OE5DXL-15 | 2026-09-03 23:50:46 | 49.05607 | 17.54103 | 166° | 164km/h | 12067m | 4.4m/s | -59.9°C | 61.0% | 0hPa | 2.7V | 00:00:00 | 00:00:00 | 08:30:00 | |
| PG1ADW-2 | 2026-09-03 23:50:44 | 49.05682 | 17.54078 | 169° | 161km/h | 12052m | 7.3m/s | -59.8°C | 60.5% | 0hPa | 2.7V | 00:00:00 | 00:00:00 | 00:00:00 | |
| HA6NAB-11 | 2026-09-03 23:50:43 | 49.05682 | 17.54078 | 170° | 153km/h | 12052m | 7.4m/s | -59.8°C | 46.5% | 0hPa | 2.7V | 00:00:00 | 00:00:00 | 00:00:00 | |
| OE5DRO-10 | 2026-09-03 23:50:42 | 49.05759 | 17.54056 | 170° | 162km/h | 12038m | 4.4m/s | -59.7°C | 61.7% | 0hPa | 2.7V | 00:00:00 | 00:00:00 | 00:00:00 | |
| PETON7-10 | 2026-09-03 23:50:39 | 49.05880 | 17.54017 | 167° | 162km/h | 12019m | 5.2m/s | -59.6°C | 62.9% | 0hPa | 2.7V | 00:00:00 | 00:00:00 | 00:00:00 | |
| HA6NAB-11 | 2026-09-03 23:50:38 | 49.05880 | 17.54017 | 168° | 166km/h | 12019m | 5.2m/s | -59.7°C | 48.5% | 0hPa | 2.7V | 00:00:00 | 00:00:00 | 00:00:00 | |
| POL2MAQ | 2026-09-03 23:50:36 | 49.05962 | 17.53990 | 170° | 164km/h | 12005m | 7.4m/s | -59.6°C | 47.6% | 0hPa | 2.7V | 00:00:00 | 00:00:00 | 00:00:00 | |
| HA6NAB-11 | 2026-09-03 23:50:32 | 49.06121 | 17.53951 | 172° | 151km/h | 11982m | 5.6m/s | -59.4°C | 46.5% | 0hPa | 2.7V | 00:00:00 | 00:00:00 | 00:00:00 | |
| OE3OSB-13 | 2026-09-03 23:50:28 | 49.06350 | 17.53881 | 169° | 173km/h | 11947m | 8.6m/s | -59.1°C | 44.5% | -1.0hPa | 2.7V | 00:00:00 | 00:00:00 | 00:00:00 | |
| PETON7-10 | 2026-09-03 23:50:24 | 49.06486 | 17.53841 | 169° | 173km/h | 11925m | 4.7m/s | -58.9°C | 59.6% | 0hPa | 2.7V | 00:00:00 | 00:56:38 | 00:00:00 | |
| OE5DRO-10 | 2026-09-03 23:50:23 | 49.06532 | 17.53826 | 168° | 175km/h | 11920m | 6.5m/s | -58.9°C | 59.3% | 0hPa | 2.7V | 00:00:00 | 00:00:00 | 08:30:00 | |
| OE5DXL-15 | 2026-09-03 23:50:16 | 49.06830 | 17.53701 | 166° | 179km/h | 11875m | 6.2m/s | -58.5°C | 59.0% | 0hPa | 2.7V | 00:00:00 | 00:00:00 | 00:00:00 | |
| POL2MAQ | 2026-09-03 23:50:15 | 49.06830 | 17.53701 | 167° | 168km/h | 11875m | 6.3m/s | -58.6°C | 45.7% | 0hPa | 2.7V | 00:00:00 | 00:00:00 | 00:00:00 | |
| PETON7-10 | 2026-09-03 23:50:09 | 49.07124 | 17.53611 | 167° | 183km/h | 11836m | 4.5m/s | -58.3°C | 60.2% | 0hPa | 2.7V | 00:00:00 | 00:00:00 | 00:00:00 | |
| PG1ADW-2 | 2026-09-03 23:50:04 | 49.07352 | 17.53525 | 167° | 181km/h | 11803m | 5.7m/s | -58.1°C | 60.0% | 0hPa | 2.7V | 00:00:00 | 00:00:00 | 00:00:00 | |
| OE3OSB-13 | 2026-09-03 23:49:57 | 49.07712 | 17.53403 | 170° | 175km/h | 11752m | 7.0m/s | -57.8°C | 45.2% | -1.0hPa | 2.7V | 00:00:00 | 00:00:00 | 00:00:00 | |
| PETON7-10 | 2026-09-03 23:49:54 | 49.07801 | 17.53381 | 171° | 175km/h | 11739m | 8.2m/s | -57.7°C | 58.8% | 0hPa | 2.7V | 00:00:00 | 00:00:00 | 00:00:00 | |
| OE3JTB-15 | 2026-09-03 23:49:47 | 49.08114 | 17.53273 | 165° | 173km/h | 11694m | 6.4m/s | -57.3°C | 58.9% | 0hPa | 2.7V | 00:00:00 | 00:56:01 | 00:00:00 | |
| OE5DXL-15 | 2026-09-03 23:49:46 | 49.08158 | 17.53255 | 166° | 172km/h | 11688m | 4.5m/s | -57.3°C | 59.4% | 0hPa | 2.7V | 00:00:00 | 00:00:00 | 00:00:00 | |
| OE5DRO-10 | 2026-09-03 23:49:45 | 49.08202 | 17.53238 | 167° | 172km/h | 11683m | 6.2m/s | -57.3°C | 59.3% | 0hPa | 2.7V | 00:00:00 | 00:00:00 | 00:00:00 | |
| PG1ADW-2 | 2026-09-03 23:49:44 | 49.08244 | 17.53224 | 168° | 172km/h | 11677m | 5.4m/s | -57.2°C | 58.6% | 0hPa | 2.7V | 00:00:00 | 00:55:58 | 00:00:00 | |
| PETON7-10 | 2026-09-03 23:49:39 | 49.08451 | 17.53143 | 164° | 173km/h | 11648m | 6.8m/s | -56.9°C | 58.0% | 0hPa | 2.7V | 00:00:00 | 00:55:53 | 00:00:00 | |
| POL2MAQ | 2026-09-03 23:49:33 | 49.08664 | 17.53066 | 170° | 177km/h | 11614m | 7.2m/s | -56.7°C | 45.2% | 0hPa | 2.7V | 00:00:00 | 00:00:00 | 00:00:00 | |
| OE3OSB-13 | 2026-09-03 23:49:26 | 49.09048 | 17.52947 | 169° | 170km/h | 11558m | 5.4m/s | -56.5°C | 50.8% | -1.0hPa | 2.7V | 00:00:00 | 00:00:00 | 00:00:00 | |
| PETON7-10 | 2026-09-03 23:49:24 | 49.09091 | 17.52935 | 169° | 170km/h | 11553m | 5.3m/s | -56.4°C | 65.3% | 0hPa | 2.7V | 00:00:00 | 00:00:00 | 08:30:00 | |
| OE3JTB-15 | 2026-09-03 23:49:18 | 49.09349 | 17.52841 | 167° | 173km/h | 11517m | 5.3m/s | -56.1°C | 69.5% | 0hPa | 2.9V | 00:00:00 | 00:00:00 | 00:00:00 | |
| OE5DXL-15 | 2026-09-03 23:49:16 | 49.09432 | 17.52811 | 167° | 173km/h | 11506m | 5.7m/s | -56.0°C | 70.4% | 0hPa | 2.7V | 00:00:00 | 00:00:00 | 00:00:00 | |
| POL2MAQ | 2026-09-03 23:49:12 | 49.09557 | 17.52770 | 170° | 166km/h | 11491m | 5.0m/s | -55.9°C | 56.1% | 0hPa | 2.7V | 00:00:00 | 00:00:00 | 00:00:00 | |
| S52SK | 2026-09-03 23:49:10 | 49.09639 | 17.52746 | 170° | 162km/h | 11478m | 6.9m/s | -55.8°C | 0% | 0hPa | 2.7V | 00:00:00 | 00:00:00 | 00:00:00 | |
| HA6NAB-11 | 2026-09-03 23:49:09 | 49.09680 | 17.52733 | 168° | 164km/h | 11471m | 6.3m/s | -55.8°C | 58.3% | 0hPa | 2.7V | 00:00:00 | 00:00:00 | 00:00:00 | |
| PETON7-10 | 2026-09-03 23:49:08 | 49.09763 | 17.52700 | 165° | 175km/h | 11461m | 4.9m/s | -55.6°C | 71.6% | 0hPa | 2.7V | 00:00:00 | 00:00:00 | 00:00:00 | |
| OE5DRO-10 | 2026-09-03 23:49:07 | 49.09807 | 17.52682 | 165° | 175km/h | 11455m | 8.1m/s | -55.5°C | 70.7% | 0hPa | 2.7V | 00:00:00 | 00:00:00 | 00:00:00 | |
| S52SK | 2026-09-03 23:49:05 | 49.09851 | 17.52662 | 165° | 183km/h | 11446m | 8.3m/s | 0°C | 0% | 0hPa | 2.7V | 00:00:00 | 00:00:00 | 00:00:00 | |
| HA6NAB-11 | 2026-09-03 23:49:04 | 49.09940 | 17.52626 | 166° | 179km/h | 11434m | 4.9m/s | -55.4°C | 57.2% | 0hPa | 2.7V | 00:00:00 | 00:00:00 | 00:00:00 | |
| OE3OSB-13 | 2026-09-03 23:48:55 | 49.10364 | 17.52467 | 165° | 170km/h | 11377m | 5.5m/s | -54.9°C | 58.8% | -1.0hPa | 2.7V | 00:00:00 | 00:00:00 | 00:00:00 | |
| PETON7-10 | 2026-09-03 23:48:53 | 49.10406 | 17.52451 | 166° | 175km/h | 11372m | 3.9m/s | -54.8°C | 74.3% | 0hPa | 2.7V | 00:00:00 | 00:55:07 | 00:00:00 | |
| POL2MAQ | 2026-09-03 23:48:52 | 49.10406 | 17.52451 | 167° | 175km/h | 11372m | 4.0m/s | -54.9°C | 60.0% | 0hPa | 2.7V | 00:00:00 | 00:00:00 | 00:00:00 | |
| OE3JTB-15 | 2026-09-03 23:48:49 | 49.10581 | 17.52384 | 167° | 175km/h | 11354m | 4.1m/s | -54.6°C | 74.1% | 0hPa | 2.7V | 00:00:00 | 00:00:00 | 00:00:00 | |
| OE5DRO-10 | 2026-09-03 23:48:48 | 49.10625 | 17.52369 | 167° | 173km/h | 11350m | 4.3m/s | -54.6°C | 73.3% | 0hPa | 2.7V | 00:00:00 | 00:00:00 | 00:00:00 | |
| OE5DXL-15 | 2026-09-03 23:48:46 | 49.10711 | 17.52337 | 167° | 177km/h | 11340m | 5.0m/s | -54.5°C | 72.8% | 0hPa | 2.7V | 00:00:00 | 00:00:00 | 00:00:00 | |
| PG1ADW-2 | 2026-09-03 23:48:44 | 49.10796 | 17.52304 | 166° | 175km/h | 11330m | 4.6m/s | -54.4°C | 72.8% | 0hPa | 2.7V | 00:00:00 | 00:00:00 | 08:30:00 | |
| PETON7-10 | 2026-09-03 23:48:38 | 49.11053 | 17.52194 | 162° | 175km/h | 11293m | 5.0m/s | -54.1°C | 75.2% | 0hPa | 2.9V | 00:00:00 | 00:00:00 | 00:00:00 | |
| POL2MAQ | 2026-09-03 23:48:32 | 49.11266 | 17.52103 | 169° | 162km/h | 11267m | 5.1m/s | -53.9°C | 59.5% | 0hPa | 2.9V | 00:00:00 | 00:00:00 | 00:00:00 | |
| OE5DRO-10 | 2026-09-03 23:48:29 | 49.11428 | 17.52048 | 168° | 183km/h | 11248m | 6.4m/s | -53.7°C | 73.6% | 0hPa | 2.9V | 00:00:00 | 00:00:00 | 00:00:00 | |
| OE3OSB-13 | 2026-09-03 23:48:24 | 49.11696 | 17.51936 | 160° | 181km/h | 11215m | 5.9m/s | -53.4°C | 59.1% | -1.0hPa | 2.9V | 00:00:00 | 00:00:00 | 00:00:00 | |
| PETON7-10 | 2026-09-03 23:48:23 | 49.11696 | 17.51936 | 161° | 183km/h | 11215m | 5.8m/s | -53.3°C | 73.1% | 0hPa | 2.9V | 00:00:00 | 00:00:00 | 00:00:00 | |
| OE3JTB-15 | 2026-09-03 23:48:20 | 49.11827 | 17.51867 | 163° | 179km/h | 11194m | 7.5m/s | -53.1°C | 70.9% | 0hPa | 2.9V | 00:00:00 | 00:54:34 | 00:00:00 | |
| OE5DXL-15 | 2026-09-03 23:48:16 | 49.12011 | 17.51790 | 166° | 179km/h | 11169m | 4.2m/s | -53.0°C | 72.5% | 0hPa | 2.9V | 00:00:00 | 00:00:00 | 00:00:00 | |
| POL2MAQ | 2026-09-03 23:48:12 | 49.12187 | 17.51712 | 164° | 179km/h | 11147m | 5.0m/s | -52.8°C | 58.7% | 0hPa | 2.9V | 00:00:00 | 00:00:00 | 00:00:00 | |
| OE5DRO-10 | 2026-09-03 23:48:10 | 49.12274 | 17.51673 | 165° | 175km/h | 11137m | 5.0m/s | -52.7°C | 71.6% | 0hPa | 2.9V | 00:00:00 | 00:00:00 | 00:00:00 | |
| PETON7-10 | 2026-09-03 23:48:08 | 49.12361 | 17.51634 | 164° | 175km/h | 11129m | 4.5m/s | -52.6°C | 70.5% | 0hPa | 2.9V | 00:00:00 | 00:54:22 | 00:00:00 | |
| PG1ADW-2 | 2026-09-03 23:48:04 | 49.12532 | 17.51547 | 162° | 179km/h | 11108m | 3.9m/s | -52.4°C | 70.2% | 0hPa | 2.9V | 00:00:00 | 00:00:00 | 00:00:00 | |
| OE3OSB-13 | 2026-09-03 23:47:52 | 49.13034 | 17.51298 | 160° | 177km/h | 11050m | 2.6m/s | -51.9°C | 56.9% | -1.0hPa | 2.9V | 00:00:00 | 00:00:00 | 00:00:00 | |
| OE5DRO-10 | 2026-09-03 23:47:51 | 49.13077 | 17.51276 | 162° | 181km/h | 11046m | 5.5m/s | -51.8°C | 68.5% | 0hPa | 2.9V | 00:00:00 | 00:00:00 | 00:00:00 | |
| OE5DXL-15 | 2026-09-03 23:47:46 | 49.13307 | 17.51192 | 168° | 177km/h | 11012m | 7.6m/s | -51.5°C | 66.9% | 0hPa | 2.9V | 00:00:00 | 00:00:00 | 00:00:00 | |
| PG1ADW-2 | 2026-09-03 23:47:44 | 49.13397 | 17.51157 | 164° | 175km/h | 10997m | 7.6m/s | -51.4°C | 67.1% | 0hPa | 2.9V | 00:00:00 | 00:00:00 | 00:00:00 | |
| PETON7-10 | 2026-09-03 23:47:38 | 49.13656 | 17.51038 | 166° | 175km/h | 10957m | 5.5m/s | -51.1°C | 68.1% | 0hPa | 2.7V | 00:00:00 | 00:00:00 | 00:00:00 | |
| OE5DRO-10 | 2026-09-03 23:47:32 | 49.13916 | 17.50923 | 166° | 173km/h | 10917m | 6.6m/s | -50.7°C | 67.9% | 0hPa | 2.7V | 00:00:00 | 00:00:00 | 08:30:00 | |
| POL2MAQ | 2026-09-03 23:47:31 | 49.13916 | 17.50923 | 166° | 181km/h | 10917m | 6.6m/s | -50.8°C | 55.7% | 0hPa | 2.9V | 00:00:00 | 00:00:00 | 00:00:00 | |
| S52SK | 2026-09-03 23:47:26 | 49.14131 | 17.50839 | 164° | 168km/h | 10885m | 5.1m/s | 0°C | 0% | 0hPa | 2.9V | 00:00:00 | 00:00:00 | 00:00:00 | |
| PG1ADW-2 | 2026-09-03 23:47:24 | 49.14252 | 17.50785 | 166° | 177km/h | 10866m | 5.2m/s | -50.3°C | 68.6% | 0hPa | 2.9V | 00:00:00 | 00:00:00 | 00:00:00 | |
| PETON7-10 | 2026-09-03 23:47:23 | 49.14292 | 17.50769 | 166° | 175km/h | 10860m | 6.8m/s | -50.2°C | 68.3% | 0hPa | 2.9V | 00:00:00 | 00:53:37 | 00:00:00 | |
| OE3JTB-15 | 2026-09-03 23:47:22 | 49.14334 | 17.50753 | 166° | 175km/h | 10853m | 7.7m/s | -50.2°C | 68.4% | 0hPa | 2.9V | 00:00:00 | 00:00:00 | 00:00:00 | |
| OE3OSB-13 | 2026-09-03 23:47:21 | 49.14375 | 17.50737 | 164° | 172km/h | 10847m | 5.4m/s | -50.1°C | 56.2% | -1.0hPa | 2.9V | 00:00:00 | 00:00:00 | 00:00:00 | |
| HA6NAB-11 | 2026-09-03 23:47:17 | 49.14505 | 17.50678 | 164° | 183km/h | 10826m | 5.2m/s | -50.0°C | 58.0% | 0hPa | 2.9V | 00:00:00 | 00:00:00 | 00:00:00 | |
| OE5DRO-10 | 2026-09-03 23:47:13 | 49.14720 | 17.50591 | 169° | 177km/h | 10794m | 7.4m/s | -49.6°C | 71.4% | 0hPa | 2.9V | 00:00:00 | 00:00:00 | 00:00:00 | |
| HA6NAB-11 | 2026-09-03 23:47:12 | 49.14721 | 17.50591 | 169° | 173km/h | 10794m | 7.5m/s | -49.7°C | 59.1% | 0hPa | 2.9V | 00:00:00 | 00:00:00 | 00:00:00 | |
| POL2MAQ | 2026-09-03 23:47:10 | 49.14807 | 17.50564 | 170° | 177km/h | 10778m | 8.7m/s | -49.6°C | 59.4% | 0hPa | 2.9V | 00:00:00 | 00:00:00 | 00:00:00 | |
| HA6NAB-11 | 2026-09-03 23:47:07 | 49.14985 | 17.50506 | 169° | 183km/h | 10753m | 6.5m/s | -49.4°C | 59.6% | 0hPa | 2.9V | 00:00:00 | 00:00:00 | 00:00:00 | |
| PG1ADW-2 | 2026-09-03 23:47:04 | 49.15121 | 17.50461 | 168° | 175km/h | 10733m | 6.4m/s | -49.1°C | 73.1% | 0hPa | 2.9V | 00:00:00 | 00:53:18 | 00:00:00 | |
| OE3OSB-13 | 2026-09-03 23:46:50 | 49.15723 | 17.50231 | 161° | 184km/h | 10637m | 6.3m/s | -48.3°C | 58.1% | -1.0hPa | 2.9V | 00:00:00 | 00:00:00 | 00:00:00 | |
| OE5DXL-15 | 2026-09-03 23:46:46 | 49.15894 | 17.50143 | 163° | 170km/h | 10614m | 6.6m/s | -48.0°C | 69.5% | 0hPa | 2.9V | 00:00:00 | 00:00:00 | 00:00:00 | |
| PG1ADW-2 | 2026-09-03 23:46:44 | 49.15973 | 17.50106 | 164° | 173km/h | 10599m | 6.0m/s | -47.9°C | 68.6% | 0hPa | 2.9V | 00:00:00 | 00:00:00 | 00:00:00 | |
| PETON7-10 | 2026-09-03 23:46:38 | 49.16223 | 17.49998 | 165° | 177km/h | 10560m | 8.1m/s | -47.5°C | 66.3% | 0hPa | 2.7V | 00:00:00 | 00:52:52 | 00:00:00 | |
| OE5DRO-10 | 2026-09-03 23:46:35 | 49.16356 | 17.49941 | 164° | 168km/h | 10539m | 7.3m/s | -47.3°C | 67.2% | 0hPa | 2.7V | 00:00:00 | 00:00:00 | 00:00:00 | |
| POL2MAQ | 2026-09-03 23:46:30 | 49.16514 | 17.49869 | 165° | 159km/h | 10512m | 7.6m/s | -47.2°C | 58.7% | 0hPa | 2.7V | 00:00:00 | 00:00:00 | 00:00:00 | |
| PG1ADW-2 | 2026-09-03 23:46:24 | 49.16821 | 17.49748 | 168° | 166km/h | 10467m | 6.8m/s | -46.7°C | 69.5% | 0hPa | 2.7V | 00:00:00 | 00:00:00 | 00:00:00 | |
| PETON7-10 | 2026-09-03 23:46:23 | 49.16864 | 17.49733 | 168° | 166km/h | 10460m | 6.1m/s | -46.7°C | 68.5% | 0hPa | 2.7V | 00:00:00 | 00:00:00 | 00:00:00 | |
| OE3OSB-13 | 2026-09-03 23:46:19 | 49.17018 | 17.49677 | 165° | 151km/h | 10433m | 8.5m/s | -46.5°C | 55.8% | -1.0hPa | 2.9V | 00:00:00 | 00:00:00 | 00:00:00 | |
| HA6NAB-11 | 2026-09-03 23:46:17 | 49.17056 | 17.49662 | 166° | 159km/h | 10426m | 7.3m/s | -46.4°C | 56.2% | 0hPa | 2.9V | 00:00:00 | 00:00:00 | 00:00:00 | |
| OE5DXL-15 | 2026-09-03 23:46:16 | 49.17138 | 17.49630 | 166° | 170km/h | 10412m | 6.0m/s | -46.2°C | 66.6% | 0hPa | 2.9V | 00:00:00 | 00:00:00 | 08:30:00 | |
| HA6NAB-11 | 2026-09-03 23:46:12 | 49.17271 | 17.49578 | 167° | 181km/h | 10390m | 7.0m/s | -46.1°C | 0% | 0hPa | 2.9V | 00:00:00 | 00:00:00 | 00:00:00 | |
| PETON7-10 | 2026-09-03 23:46:08 | 49.17475 | 17.49499 | 165° | 170km/h | 10356m | 6.6m/s | -45.7°C | 65.2% | 0hPa | 2.9V | 00:00:00 | 00:00:00 | 00:00:00 | |
| HA6NAB-11 | 2026-09-03 23:46:06 | 49.17514 | 17.49483 | 166° | 161km/h | 10349m | 6.3m/s | -45.7°C | 0% | 0hPa | 2.9V | 00:00:00 | 00:00:00 | 00:00:00 | |
| PG1ADW-2 | 2026-09-03 23:46:04 | 49.17634 | 17.49428 | 163° | 170km/h | 10329m | 5.0m/s | -45.4°C | 66.2% | 0hPa | 2.9V | 00:00:00 | 00:00:00 | 00:00:00 | |
| OE3OSB-13 | 2026-09-03 23:45:48 | 49.18291 | 17.49144 | 167° | 168km/h | 10234m | 6.5m/s | -44.7°C | 59.9% | -1.0hPa | 2.9V | 00:00:00 | 00:00:00 | 00:00:00 | |
| HA6NAB-11 | 2026-09-03 23:45:47 | 49.18333 | 17.49130 | 169° | 173km/h | 10228m | 5.6m/s | -44.6°C | 0% | 0hPa | 2.9V | 00:00:00 | 00:00:00 | 00:00:00 | |
| OE5DXL-15 | 2026-09-03 23:45:46 | 49.18376 | 17.49116 | 169° | 162km/h | 10221m | 7.2m/s | -44.5°C | 70.5% | 0hPa | 2.9V | 00:00:00 | 00:00:00 | 00:00:00 | |
| S52SK | 2026-09-03 23:45:45 | 49.18376 | 17.49116 | 169° | 173km/h | 10221m | 7.3m/s | 0°C | 0% | 0hPa | 2.9V | 00:00:00 | 00:00:00 | 00:00:00 | |
| PG1ADW-2 | 2026-09-03 23:45:44 | 49.18462 | 17.49087 | 167° | 164km/h | 10207m | 6.2m/s | -44.4°C | 70.3% | 0hPa | 2.9V | 00:00:00 | 00:51:58 | 08:30:00 | |
| HA6NAB-11 | 2026-09-03 23:45:41 | 49.18547 | 17.49056 | 167° | 170km/h | 10195m | 6.8m/s | -44.3°C | 0% | 0hPa | 2.9V | 00:00:00 | 00:00:00 | 00:00:00 | |
| PETON7-10 | 2026-09-03 23:45:38 | 49.18708 | 17.48990 | 164° | 162km/h | 10166m | 6.3m/s | -44.0°C | 71.2% | 0hPa | 2.9V | 00:00:00 | 00:00:00 | 00:00:00 | |
| HA6NAB-11 | 2026-09-03 23:45:34 | 49.18824 | 17.48932 | 162° | 159km/h | 10149m | 5.6m/s | -43.9°C | 0% | 0hPa | 2.9V | 00:00:00 | 00:00:00 | 00:00:00 | |
| HA6NAB-11 | 2026-09-03 23:45:29 | 49.19019 | 17.48848 | 168° | 168km/h | 10121m | 5.9m/s | -43.8°C | 0% | 0hPa | 2.9V | 00:00:00 | 00:00:00 | 00:00:00 | |
| POL2MAQ | 2026-09-03 23:45:27 | 49.19103 | 17.48818 | 167° | 173km/h | 10107m | 7.3m/s | -44.0°C | 61.1% | 0hPa | 2.9V | 00:00:00 | 00:00:00 | 00:00:00 | |
| HA6NAB-11 | 2026-09-03 23:45:24 | 49.19227 | 17.48771 | 166° | 159km/h | 10086m | 5.1m/s | -43.8°C | 0% | 0hPa | 2.9V | 00:00:00 | 00:00:00 | 00:00:00 | |
| PETON7-10 | 2026-09-03 23:45:23 | 49.19301 | 17.48736 | 161° | 157km/h | 10074m | 6.5m/s | -43.7°C | 76.4% | 0hPa | 2.9V | 00:00:00 | 00:00:00 | 00:00:00 | |
| OE5DRO-10 | 2026-09-03 23:45:19 | 49.19445 | 17.48659 | 163° | 157km/h | 10048m | 5.3m/s | -43.4°C | 81.0% | 0hPa | 2.9V | 00:00:00 | 00:00:00 | 00:00:00 | |
| OE3OSB-13 | 2026-09-03 23:45:17 | 49.19520 | 17.48625 | 165° | 155km/h | 10036m | 4.3m/s | -43.4°C | 70.2% | -1.0hPa | 2.9V | 00:00:00 | 00:00:00 | 00:00:00 | |
| OE5DXL-15 | 2026-09-03 23:45:16 | 49.19559 | 17.48610 | 167° | 157km/h | 10031m | 5.8m/s | -43.3°C | 82.7% | 0hPa | 2.9V | 00:00:00 | 00:00:00 | 00:00:00 | |
| HA6NAB-11 | 2026-09-03 23:45:10 | 49.19756 | 17.48531 | 162° | 168km/h | 10006m | 5.3m/s | -43.2°C | 0% | 0hPa | 2.9V | 00:00:00 | 00:00:00 | 00:00:00 | |
| PETON7-10 | 2026-09-03 23:45:08 | 49.19871 | 17.48469 | 160° | 157km/h | 9984m | 6.4m/s | -42.9°C | 84.6% | 0hPa | 2.9V | 00:00:00 | 00:51:22 | 00:00:00 | |
| POL2MAQ | 2026-09-03 23:45:07 | 49.19871 | 17.48469 | 161° | 150km/h | 9984m | 6.4m/s | -43.0°C | 72.7% | 0hPa | 2.9V | 00:00:00 | 00:00:00 | 00:00:00 | |
| HA6NAB-11 | 2026-09-03 23:45:04 | 49.19974 | 17.48416 | 164° | 144km/h | 9967m | 7.4m/s | -42.9°C | 0% | 0hPa | 2.9V | 00:00:00 | 00:00:00 | 00:00:00 | |
| OE5DRO-10 | 2026-09-03 23:45:00 | 49.20167 | 17.48318 | 159° | 155km/h | 9935m | 5.5m/s | -42.5°C | 81.8% | 0hPa | 2.9V | 00:00:00 | 00:00:00 | 00:00:00 | |
| HA6NAB-11 | 2026-09-03 23:44:57 | 49.20243 | 17.48269 | 157° | 161km/h | 9925m | 5.9m/s | -42.5°C | 0% | 0hPa | 2.9V | 00:00:00 | 00:00:00 | 00:00:00 | |
| PETON7-10 | 2026-09-03 23:44:53 | 49.20425 | 17.48142 | 158° | 153km/h | 9895m | 9.2m/s | -42.3°C | 76.8% | 0hPa | 2.9V | 00:00:00 | 00:00:00 | 08:30:00 | |
| HA6NAB-11 | 2026-09-03 23:44:51 | 49.20463 | 17.48119 | 160° | 162km/h | 9886m | 9.1m/s | -42.2°C | 0% | 0hPa | 2.7V | 00:00:00 | 00:00:00 | 00:00:00 | |
| OE3JTB-15 | 2026-09-03 23:44:50 | 49.20538 | 17.48077 | 162° | 150km/h | 9872m | 5.0m/s | -42.1°C | 77.6% | 0hPa | 2.7V | 00:00:00 | 00:00:00 | 00:00:00 | |
| POL2MAQ | 2026-09-03 23:44:47 | 49.20646 | 17.48019 | 160° | 148km/h | 9855m | 5.0m/s | -42.0°C | 67.6% | 0hPa | 2.9V | 00:00:00 | 00:00:00 | 00:00:00 | |
| OE5DXL-15 | 2026-09-03 23:44:46 | 49.20681 | 17.47998 | 158° | 150km/h | 9850m | 4.8m/s | -41.9°C | 78.7% | 0hPa | 2.9V | 00:00:00 | 00:00:00 | 00:00:00 | |
| PG1ADW-2 | 2026-09-03 23:44:44 | 49.20750 | 17.47953 | 158° | 150km/h | 9839m | 5.1m/s | -41.8°C | 78.6% | 0hPa | 2.7V | 00:00:00 | 00:00:00 | 00:00:00 | |
| OE5DRO-10 | 2026-09-03 23:44:41 | 49.20857 | 17.47889 | 159° | 150km/h | 9824m | 4.9m/s | -41.7°C | 78.2% | 0hPa | 2.9V | 00:00:00 | 00:00:00 | 08:30:00 | |
| PETON7-10 | 2026-09-03 23:44:38 | 49.20969 | 17.47822 | 159° | 148km/h | 9807m | 7.0m/s | -41.5°C | 77.4% | 0hPa | 2.9V | 00:00:00 | 00:00:00 | 00:00:00 | |
| HA6NAB-11 | 2026-09-03 23:44:36 | 49.21040 | 17.47780 | 160° | 148km/h | 9796m | 5.4m/s | -41.5°C | 0% | 0hPa | 2.9V | 00:00:00 | 00:00:00 | 00:00:00 | |
| POL2MAQ | 2026-09-03 23:44:25 | 49.21385 | 17.47567 | 160° | 144km/h | 9742m | 4.5m/s | -41.0°C | 64.8% | 0hPa | 2.9V | 00:00:00 | 00:00:00 | 00:00:00 | |
| PG1ADW-2 | 2026-09-03 23:44:24 | 49.21452 | 17.47525 | 158° | 146km/h | 9732m | 3.4m/s | -40.9°C | 75.9% | 0hPa | 2.9V | 00:00:00 | 00:50:38 | 00:00:00 | |
| PETON7-10 | 2026-09-03 23:44:23 | 49.21486 | 17.47503 | 158° | 148km/h | 9728m | 4.6m/s | -40.9°C | 75.5% | 0hPa | 2.9V | 00:00:00 | 00:50:37 | 00:00:00 | |
| OE5DRO-10 | 2026-09-03 23:44:22 | 49.21520 | 17.47481 | 157° | 144km/h | 9724m | 4.1m/s | -40.9°C | 75.8% | 0hPa | 2.9V | 00:00:00 | 00:00:00 | 00:00:00 | |
| OE3JTB-15 | 2026-09-03 23:44:21 | 49.21555 | 17.47458 | 157° | 146km/h | 9720m | 3.7m/s | -40.8°C | 75.3% | 0hPa | 2.9V | 00:00:00 | 00:00:00 | 00:00:00 | |
| OE3OSB-13 | 2026-09-03 23:44:15 | 49.21769 | 17.47316 | 157° | 150km/h | 9695m | 4.7m/s | -40.7°C | 65.8% | -1.0hPa | 2.9V | 00:00:00 | 00:00:00 | 00:00:00 | |
| S52SK | 2026-09-03 23:44:13 | 49.21804 | 17.47295 | 160° | 148km/h | 9691m | 3.9m/s | 0°C | 0% | 0hPa | 2.9V | 00:00:00 | 00:00:00 | 00:00:00 | |
| PETON7-10 | 2026-09-03 23:44:08 | 49.22003 | 17.47187 | 156° | 144km/h | 9666m | 3.7m/s | -40.4°C | 77.0% | 0hPa | 2.9V | 00:00:00 | 00:00:00 | 00:00:00 | |
| PG1ADW-2 | 2026-09-03 23:44:04 | 49.22130 | 17.47096 | 158° | 144km/h | 9637m | 9.7m/s | -40.1°C | 72.4% | 0hPa | 2.7V | 00:00:00 | 00:00:00 | 00:00:00 | |
| OE5DRO-10 | 2026-09-03 23:44:03 | 49.22163 | 17.47076 | 159° | 146km/h | 9628m | 8.6m/s | -40.0°C | 71.7% | 0hPa | 2.7V | 00:00:00 | 00:00:00 | 00:00:00 | |
| PETON7-10 | 2026-09-03 23:43:53 | 49.22511 | 17.46863 | 157° | 141km/h | 9565m | 5.5m/s | -39.5°C | 73.0% | 0hPa | 2.7V | 00:00:00 | 00:00:00 | 00:00:00 | |
| OE3JTB-15 | 2026-09-03 23:43:52 | 49.22543 | 17.46842 | 156° | 142km/h | 9560m | 4.3m/s | -39.5°C | 73.8% | 0hPa | 2.7V | 00:00:00 | 00:50:06 | 00:00:00 | |
| PG1ADW-2 | 2026-09-03 23:43:44 | 49.22807 | 17.46664 | 157° | 141km/h | 9519m | 8.8m/s | -39.1°C | 73.5% | 0hPa | 2.7V | 00:00:00 | 00:00:00 | 00:00:00 | |
| PETON7-10 | 2026-09-03 23:43:38 | 49.22994 | 17.46525 | 155° | 144km/h | 9475m | 7.5m/s | -38.7°C | 75.5% | 0hPa | 2.7V | 00:00:00 | 00:49:52 | 00:00:00 | |
| OE5DXL-15 | 2026-09-03 23:43:34 | 49.23122 | 17.46434 | 156° | 142km/h | 9451m | 8.6m/s | -38.5°C | 76.9% | 0hPa | 2.7V | 00:00:00 | 00:00:00 | 00:00:00 | |
| OE5DRO-10 | 2026-09-03 23:43:25 | 49.23428 | 17.46251 | 161° | 142km/h | 9394m | 7.5m/s | -38.1°C | 79.2% | 0hPa | 2.7V | 00:00:00 | 00:00:00 | 00:00:00 | |
| PG1ADW-2 | 2026-09-03 23:43:24 | 49.23465 | 17.46230 | 159° | 141km/h | 9387m | 6.5m/s | -38.0°C | 79.8% | 0hPa | 2.7V | 00:00:00 | 00:00:00 | 00:00:00 | |
| PETON7-10 | 2026-09-03 23:43:23 | 49.23501 | 17.46207 | 157° | 139km/h | 9381m | 5.7m/s | -38.0°C | 79.6% | 0hPa | 2.7V | 00:00:00 | 00:00:00 | 00:00:00 | |
| HA6NAB-11 | 2026-09-03 23:43:18 | 49.23660 | 17.46078 | 151° | 135km/h | 9344m | 7.2m/s | -37.7°C | 0% | 0hPa | 2.9V | 00:00:00 | 00:00:00 | 00:00:00 | |
| HA6NAB-11 | 2026-09-03 23:43:12 | 49.23816 | 17.45969 | 160° | 135km/h | 9311m | 8.0m/s | -37.4°C | 0% | 0hPa | 2.9V | 00:00:00 | 00:00:00 | 00:00:00 | |
| PETON7-10 | 2026-09-03 23:43:08 | 49.23975 | 17.45853 | 153° | 139km/h | 9277m | 6.9m/s | -37.0°C | 72.2% | 0hPa | 2.9V | 00:00:00 | 00:00:00 | 00:00:00 | |
| HA6NAB-11 | 2026-09-03 23:43:07 | 49.23975 | 17.45853 | 154° | 144km/h | 9277m | 7.0m/s | 0°C | 0% | 0hPa | 2.9V | 00:00:00 | 00:00:00 | 00:00:00 | |
| OE5DRO-10 | 2026-09-03 23:43:06 | 49.24041 | 17.45806 | 157° | 141km/h | 9264m | 6.3m/s | -36.9°C | 71.4% | 0hPa | 2.9V | 00:00:00 | 00:00:00 | 00:00:00 | |
| POL2MAQ | 2026-09-03 23:43:04 | 49.24109 | 17.45765 | 160° | 146km/h | 9253m | 5.4m/s | -36.8°C | 62.3% | 0hPa | 2.9V | 00:00:00 | 00:00:00 | 00:00:00 | |
| HA6NAB-11 | 2026-09-03 23:43:02 | 49.24144 | 17.45744 | 159° | 148km/h | 9248m | 4.9m/s | 0°C | 0% | 0hPa | 2.9V | 00:00:00 | 00:00:00 | 00:00:00 | |
| HA6NAB-11 | 2026-09-03 23:42:56 | 49.24340 | 17.45603 | 154° | 130km/h | 9217m | 6.2m/s | 0°C | 0% | 0hPa | 2.9V | 00:00:00 | 00:00:00 | 00:00:00 | |
| OE3JTB-15 | 2026-09-03 23:42:54 | 49.24425 | 17.45536 | 155° | 139km/h | 9205m | 5.5m/s | -36.4°C | 70.6% | 0hPa | 2.9V | 00:00:00 | 00:00:00 | 00:00:00 | |
| PETON7-10 | 2026-09-03 23:42:53 | 49.24455 | 17.45515 | 156° | 144km/h | 9199m | 4.8m/s | -36.3°C | 70.4% | 0hPa | 2.9V | 00:00:00 | 00:49:07 | 00:00:00 | |
| OE5DRO-10 | 2026-09-03 23:42:47 | 49.24656 | 17.45386 | 160° | 137km/h | 9151m | 8.7m/s | -35.9°C | 67.5% | 0hPa | 2.9V | 00:00:00 | 00:00:00 | 00:00:00 | |
| OE3OSB-13 | 2026-09-03 23:42:42 | 49.24856 | 17.45244 | 153° | 148km/h | 9112m | 4.6m/s | -35.6°C | 58.5% | -1.0hPa | 2.7V | 00:00:00 | 00:00:00 | 00:00:00 | |
| PETON7-10 | 2026-09-03 23:42:38 | 49.24951 | 17.45175 | 156° | 137km/h | 9093m | 5.3m/s | -35.4°C | 66.6% | 0hPa | 2.7V | 00:00:00 | 00:00:00 | 08:30:00 | |
| S52SK | 2026-09-03 23:42:36 | 49.24980 | 17.45156 | 158° | 122km/h | 9089m | 3.9m/s | 0°C | 0% | 0hPa | 2.9V | 00:00:00 | 00:00:00 | 00:00:00 | |
| OE5DXL-15 | 2026-09-03 23:42:34 | 49.25064 | 17.45101 | 157° | 139km/h | 9076m | 3.5m/s | 0°C | 0% | 0hPa | 2.9V | 00:00:00 | 00:00:00 | 00:00:00 | |
| S52SK | 2026-09-03 23:42:30 | 49.25156 | 17.45036 | 154° | 144km/h | 9056m | 7.4m/s | 0°C | 0% | 0hPa | 2.9V | 00:00:00 | 00:00:00 | 00:00:00 | |
| OE5DRO-10 | 2026-09-03 23:42:28 | 49.25258 | 17.44959 | 155° | 137km/h | 9034m | 5.9m/s | -34.9°C | 70.2% | 0hPa | 2.9V | 00:00:00 | 00:00:00 | 00:00:00 | |
| OE3JTB-15 | 2026-09-03 23:42:25 | 49.25360 | 17.44894 | 160° | 135km/h | 9019m | 5.9m/s | -34.8°C | 70.3% | 0hPa | 2.9V | 00:00:00 | 00:48:39 | 00:00:00 | |
| PG1ADW-2 | 2026-09-03 23:42:24 | 49.25393 | 17.44874 | 159° | 135km/h | 9012m | 7.3m/s | -34.7°C | 70.8% | 0hPa | 2.9V | 00:00:00 | 00:00:00 | 00:00:00 | |
| PETON7-10 | 2026-09-03 23:42:23 | 49.25426 | 17.44854 | 157° | 133km/h | 9004m | 7.7m/s | -34.6°C | 71.5% | 0hPa | 2.9V | 00:00:00 | 00:00:00 | 00:00:00 | |
| HA6NAB-11 | 2026-09-03 23:42:22 | 49.25426 | 17.44854 | 158° | 139km/h | 9004m | 7.7m/s | 0°C | 0% | 0hPa | 2.9V | 00:00:00 | 00:00:00 | 00:00:00 | |
| POL2MAQ | 2026-09-03 23:42:21 | 49.25458 | 17.44832 | 155° | 139km/h | 8997m | 7.6m/s | -34.6°C | 63.7% | 0hPa | 2.9V | 00:00:00 | 00:00:00 | 00:00:00 | |
| HA6NAB-11 | 2026-09-03 23:42:16 | 49.25642 | 17.44671 | 151° | 130km/h | 8964m | 5.4m/s | 0°C | 0% | 0hPa | 2.9V | 00:00:00 | 00:00:00 | 00:00:00 | |
| OE3OSB-13 | 2026-09-03 23:42:11 | 49.25809 | 17.44529 | 152° | 133km/h | 8917m | 8.8m/s | -34.0°C | 66.4% | -1.0hPa | 2.9V | 00:00:00 | 00:00:00 | 00:00:00 | |
| HA6NAB-11 | 2026-09-03 23:42:10 | 49.25809 | 17.44529 | 154° | 133km/h | 8917m | 8.8m/s | 0°C | 0% | 0hPa | 2.9V | 00:00:00 | 00:00:00 | 00:00:00 | |
| OE5DRO-10 | 2026-09-03 23:42:09 | 49.25840 | 17.44505 | 154° | 137km/h | 8908m | 8.4m/s | -33.8°C | 74.9% | 0hPa | 2.9V | 00:00:00 | 00:00:00 | 00:00:00 | |
| PETON7-10 | 2026-09-03 23:42:08 | 49.25872 | 17.44482 | 157° | 139km/h | 8900m | 7.1m/s | -33.8°C | 74.5% | 0hPa | 2.9V | 00:00:00 | 00:48:22 | 00:00:00 | |
| OE5DXL-15 | 2026-09-03 23:42:04 | 49.26007 | 17.44400 | 157° | 139km/h | 8874m | 6.6m/s | 0°C | 0% | 0hPa | 2.9V | 00:00:00 | 00:48:18 | 00:00:00 | |
| POL2MAQ | 2026-09-03 23:42:01 | 49.26070 | 17.44354 | 154° | 137km/h | 8863m | 6.2m/s | -33.5°C | 64.0% | 0hPa | 2.9V | 00:00:00 | 00:00:00 | 00:00:00 | |
| OE3JTB-15 | 2026-09-03 23:41:56 | 49.26256 | 17.44216 | 155° | 139km/h | 8826m | 5.5m/s | -33.1°C | 72.0% | 0hPa | 2.9V | 00:00:00 | 00:00:00 | 08:30:00 | |
| PETON7-10 | 2026-09-03 23:41:53 | 49.26347 | 17.44150 | 157° | 141km/h | 8810m | 6.2m/s | -33.0°C | 71.7% | 0hPa | 2.9V | 00:00:00 | 00:00:00 | 00:00:00 | |
| OE5DRO-10 | 2026-09-03 23:41:50 | 49.26440 | 17.44088 | 155° | 141km/h | 8795m | 3.8m/s | -32.8°C | 73.6% | 0hPa | 2.9V | 00:00:00 | 00:00:00 | 08:30:00 | |
| PG1ADW-2 | 2026-09-03 23:41:44 | 49.26634 | 17.43925 | 149° | 137km/h | 8769m | 2.2m/s | -32.6°C | 74.7% | 0hPa | 2.7V | 00:00:00 | 00:47:58 | 00:00:00 | |
| OE3OSB-13 | 2026-09-03 23:41:40 | 49.26792 | 17.43814 | 159° | 139km/h | 8736m | 8.8m/s | -32.4°C | 68.8% | -1.0hPa | 2.9V | 00:00:00 | 00:00:00 | 00:00:00 | |
| PETON7-10 | 2026-09-03 23:41:38 | 49.26825 | 17.43795 | 159° | 137km/h | 8727m | 8.4m/s | -32.3°C | 77.9% | 0hPa | 2.9V | 00:00:00 | 00:00:00 | 00:00:00 | |
| OE5DXL-15 | 2026-09-03 23:41:34 | 49.26951 | 17.43699 | 149° | 133km/h | 8699m | 7.9m/s | 0°C | 0% | 0hPa | 2.9V | 00:00:00 | 00:00:00 | 00:00:00 | |
| OE5DRO-10 | 2026-09-03 23:41:31 | 49.27036 | 17.43619 | 149° | 131km/h | 8681m | 4.9m/s | -32.0°C | 75.9% | 0hPa | 2.9V | 00:00:00 | 00:00:00 | 00:00:00 | |
| OE3JTB-15 | 2026-09-03 23:41:27 | 49.27154 | 17.43511 | 154° | 131km/h | 8655m | 5.7m/s | -31.8°C | 75.8% | 0hPa | 2.9V | 00:00:00 | 00:00:00 | 00:00:00 | |
| PG1ADW-2 | 2026-09-03 23:41:24 | 49.27250 | 17.43452 | 162° | 131km/h | 8637m | 7.5m/s | -31.6°C | 73.4% | 0hPa | 2.9V | 00:00:00 | 00:00:00 | 00:00:00 | |
| PETON7-10 | 2026-09-03 23:41:23 | 49.27282 | 17.43436 | 163° | 131km/h | 8630m | 5.6m/s | -31.5°C | 74.0% | 0hPa | 2.9V | 00:00:00 | 00:47:37 | 00:00:00 | |
| POL2MAQ | 2026-09-03 23:41:19 | 49.27373 | 17.43379 | 154° | 131km/h | 8613m | 4.9m/s | -31.4°C | 65.1% | 0hPa | 2.9V | 00:00:00 | 00:00:00 | 00:00:00 | |
| OE5DRO-10 | 2026-09-03 23:41:12 | 49.27603 | 17.43190 | 159° | 130km/h | 8561m | 8.1m/s | -30.8°C | 68.5% | 0hPa | 2.9V | 00:00:00 | 00:00:00 | 00:00:00 | |
| PETON7-10 | 2026-09-03 23:41:08 | 49.27731 | 17.43115 | 158° | 128km/h | 8536m | 6.2m/s | -30.6°C | 67.5% | 0hPa | 2.9V | 00:00:00 | 00:00:00 | 00:00:00 | |
| PG1ADW-2 | 2026-09-03 23:41:04 | 49.27853 | 17.43036 | 159° | 128km/h | 8506m | 7.0m/s | 0°C | 0% | 0hPa | 2.9V | 00:00:00 | 00:00:00 | 00:00:00 | |
| S52SK | 2026-09-03 23:40:59 | 49.27973 | 17.42962 | 159° | 135km/h | 8484m | 5.1m/s | 0°C | 0% | 0hPa | 2.9V | 00:00:00 | 00:00:00 | 00:00:00 | |
| OE3JTB-15 | 2026-09-03 23:40:58 | 49.28037 | 17.42924 | 161° | 128km/h | 8470m | 8.9m/s | -30.2°C | 72.5% | 0hPa | 2.9V | 00:00:00 | 00:47:12 | 00:00:00 | |
| PETON7-10 | 2026-09-03 23:40:53 | 49.28180 | 17.42836 | 156° | 131km/h | 8436m | 8.4m/s | -30.1°C | 75.6% | 0hPa | 2.9V | 00:00:00 | 00:00:00 | 00:00:00 | |
| S52SK | 2026-09-03 23:40:52 | 49.28180 | 17.42836 | 156° | 120km/h | 8436m | 8.4m/s | 0°C | 0% | 0hPa | 2.9V | 00:00:00 | 00:00:00 | 00:00:00 | |
| POL2MAQ | 2026-09-03 23:40:40 | 49.28555 | 17.42513 | 150° | 130km/h | 8352m | 6.8m/s | -29.8°C | 78.7% | 0hPa | 2.9V | 00:00:00 | 00:00:00 | 00:00:00 | |
| PETON7-10 | 2026-09-03 23:40:38 | 49.28612 | 17.42463 | 151° | 120km/h | 8338m | 4.8m/s | -29.7°C | 90.7% | 0hPa | 2.9V | 00:00:00 | 00:46:52 | 00:00:00 | |
| OE5DRO-10 | 2026-09-03 23:40:34 | 49.28721 | 17.42358 | 143° | 122km/h | 8316m | 4.8m/s | -29.8°C | 95.9% | 0hPa | 2.9V | 00:00:00 | 00:00:00 | 00:00:00 | |
| OE3JTB-15 | 2026-09-03 23:40:29 | 49.28848 | 17.42228 | 154° | 124km/h | 8292m | 5.7m/s | -29.6°C | 96.4% | 0hPa | 2.9V | 00:00:00 | 00:00:00 | 00:00:00 | |
| PG1ADW-2 | 2026-09-03 23:40:24 | 49.28970 | 17.42120 | 142° | 128km/h | 8259m | 5.8m/s | 0°C | 0% | 0hPa | 2.9V | 00:00:00 | 00:46:38 | 00:00:00 | |
| PETON7-10 | 2026-09-03 23:40:23 | 49.28994 | 17.42091 | 143° | 128km/h | 8253m | 6.6m/s | -29.3°C | 93.0% | 0hPa | 2.9V | 00:00:00 | 00:00:00 | 08:30:00 | |
| POL2MAQ | 2026-09-03 23:40:18 | 49.29104 | 17.41977 | 150° | 131km/h | 8227m | 7.0m/s | -29.1°C | 83.0% | 0hPa | 2.7V | 00:00:00 | 00:00:00 | 00:00:00 | |
| OE5DRO-10 | 2026-09-03 23:40:15 | 49.29216 | 17.41873 | 150° | 119km/h | 8200m | 4.6m/s | 0°C | 0% | 0hPa | 2.7V | 00:00:00 | 00:00:00 | 00:00:00 | |
| PETON7-10 | 2026-09-03 23:40:08 | 49.29412 | 17.41715 | 151° | 124km/h | 8163m | 7.3m/s | -28.5°C | 92.5% | 0hPa | 2.7V | 00:00:00 | 00:00:00 | 00:00:00 | |
| OE3OSB-13 | 2026-09-03 23:40:07 | 49.29470 | 17.41667 | 152° | 131km/h | 8150m | 6.9m/s | -28.4°C | 82.6% | -1.0hPa | 2.7V | 00:00:00 | 00:00:00 | 00:00:00 | |
| PG1ADW-2 | 2026-09-03 23:40:04 | 49.29528 | 17.41623 | 155° | 117km/h | 8137m | 6.0m/s | 0°C | 0% | 0hPa | 2.7V | 00:00:00 | 00:00:00 | 00:00:00 | |
| OE3JTB-15 | 2026-09-03 23:40:00 | 49.29634 | 17.41538 | 150° | 120km/h | 8118m | 7.2m/s | -28.1°C | 90.9% | 0hPa | 2.7V | 00:00:00 | 00:00:00 | 00:00:00 | |
| POL2MAQ | 2026-09-03 23:39:58 | 49.29661 | 17.41514 | 151° | 126km/h | 8110m | 9.5m/s | -28.1°C | 80.8% | 0hPa | 2.7V | 00:00:00 | 00:00:00 | 00:00:00 | |
| PETON7-10 | 2026-09-03 23:39:53 | 49.29820 | 17.41360 | 143° | 115km/h | 8068m | 6.2m/s | -27.6°C | 87.1% | 0hPa | 2.7V | 00:00:00 | 00:46:07 | 00:00:00 | |
| OE5DRO-10 | 2026-09-03 23:39:42 | 49.30084 | 17.41069 | 147° | 119km/h | 8010m | 5.1m/s | 0°C | 0% | 0hPa | 2.7V | 00:00:00 | 00:00:00 | 00:00:00 | |
| PETON7-10 | 2026-09-03 23:39:38 | 49.30176 | 17.40964 | 141° | 124km/h | 7987m | 5.2m/s | -26.9°C | 86.4% | 0hPa | 2.7V | 00:00:00 | 00:00:00 | 00:00:00 | |
| OE3OSB-13 | 2026-09-03 23:39:36 | 49.30247 | 17.40873 | 141° | 117km/h | 7967m | 9.4m/s | -26.7°C | 76.1% | -1.0hPa | 2.7V | 00:00:00 | 00:00:00 | 00:00:00 | |
| PG1ADW-2 | 2026-09-03 23:39:32 | 49.30320 | 17.40800 | 152° | 124km/h | 7941m | 7.8m/s | 0°C | 0% | 0hPa | 2.7V | 00:00:00 | 00:00:00 | 00:00:00 | |
| OE3JTB-15 | 2026-09-03 23:39:31 | 49.30346 | 17.40779 | 153° | 128km/h | 7934m | 7.3m/s | -26.4°C | 83.9% | 0hPa | 2.7V | 00:00:00 | 00:45:45 | 00:00:00 | |
| S52SK | 2026-09-03 23:39:29 | 49.30374 | 17.40756 | 153° | 128km/h | 7927m | 7.0m/s | 0°C | 0% | 0hPa | 2.7V | 00:00:00 | 00:00:00 | 00:00:00 | |
| PETON7-10 | 2026-09-03 23:39:23 | 49.30564 | 17.40559 | 143° | 122km/h | 7885m | 5.5m/s | -26.1°C | 86.6% | 0hPa | 2.7V | 00:00:00 | 00:00:00 | 00:00:00 | |
| POL2MAQ | 2026-09-03 23:39:18 | 49.30691 | 17.40449 | 153° | 126km/h | 7858m | 5.8m/s | -26.1°C | 86.1% | 0hPa | 2.7V | 00:00:00 | 00:00:00 | 00:00:00 | |
| PETON7-10 | 2026-09-03 23:39:08 | 49.30966 | 17.40203 | 158° | 128km/h | 7788m | 7.1m/s | -25.6°C | 92.0% | 0hPa | 2.7V | 00:00:00 | 00:45:22 | 00:00:00 | |
| OE3OSB-13 | 2026-09-03 23:39:05 | 49.31079 | 17.40133 | 158° | 115km/h | 7768m | 4.4m/s | -25.5°C | 82.9% | -1.0hPa | 2.7V | 00:00:00 | 00:00:00 | 00:00:00 | |
| OE5DRO-10 | 2026-09-03 23:39:04 | 49.31079 | 17.40133 | 159° | 128km/h | 7768m | 4.4m/s | 0°C | 0% | 0hPa | 2.7V | 00:00:00 | 00:00:00 | 00:00:00 | |
| OE3JTB-15 | 2026-09-03 23:39:00 | 49.31197 | 17.40050 | 152° | 124km/h | 7748m | 6.1m/s | -25.2°C | 90.3% | 0hPa | 2.7V | 00:00:00 | 00:00:00 | 00:00:00 | |
| POL2MAQ | 2026-09-03 23:38:55 | 49.31346 | 17.39912 | 149° | 122km/h | 7716m | 6.5m/s | -24.9°C | 80.9% | 0hPa | 2.9V | 00:00:00 | 00:00:00 | 00:00:00 | |
| PETON7-10 | 2026-09-03 23:38:53 | 49.31395 | 17.39866 | 151° | 120km/h | 7703m | 8.2m/s | -24.7°C | 87.0% | 0hPa | 2.9V | 00:00:00 | 00:00:00 | 00:00:00 | |
| OE5DRO-10 | 2026-09-03 23:38:45 | 49.31601 | 17.39714 | 153° | 130km/h | 7659m | 4.3m/s | 0°C | 0% | 0hPa | 2.9V | 00:00:00 | 00:00:00 | 00:00:00 | |
| PETON7-10 | 2026-09-03 23:38:38 | 49.31792 | 17.39516 | 146° | 137km/h | 7613m | 8.3m/s | -24.1°C | 88.7% | 0hPa | 2.9V | 00:00:00 | 00:00:00 | 00:00:00 | |
| POL2MAQ | 2026-09-03 23:38:34 | 49.31872 | 17.39439 | 151° | 117km/h | 7594m | 5.6m/s | -24.0°C | 81.0% | 0hPa | 2.9V | 00:00:00 | 00:00:00 | 00:00:00 | |
| OE3OSB-13 | 2026-09-03 23:38:33 | 49.31924 | 17.39395 | 152° | 124km/h | 7580m | 8.8m/s | -23.9°C | 80.8% | -1.0hPa | 2.9V | 00:00:00 | 00:00:00 | 00:00:00 | |
| OE3JTB-15 | 2026-09-03 23:38:29 | 49.32048 | 17.39289 | 150° | 135km/h | 7549m | 7.2m/s | -23.6°C | 87.1% | 0hPa | 2.9V | 00:00:00 | 00:00:00 | 00:00:00 | |
| PETON7-10 | 2026-09-03 23:38:23 | 49.32235 | 17.39092 | 144° | 135km/h | 7518m | 5.4m/s | -23.3°C | 85.9% | 0hPa | 2.9V | 00:00:00 | 00:44:37 | 00:00:00 | |
| POL2MAQ | 2026-09-03 23:38:14 | 49.32453 | 17.38836 | 145° | 124km/h | 7466m | 8.0m/s | -23.1°C | 80.8% | 0hPa | 2.9V | 00:00:00 | 00:00:00 | 00:00:00 | |
| PETON7-10 | 2026-09-03 23:38:08 | 49.32662 | 17.38662 | 153° | 135km/h | 7422m | 5.8m/s | -22.9°C | 92.1% | 0hPa | 2.9V | 00:00:00 | 00:00:00 | 08:30:00 | |
| OE3OSB-13 | 2026-09-03 23:38:02 | 49.32821 | 17.38524 | 155° | 126km/h | 7380m | 7.0m/s | -22.6°C | 81.2% | -1.0hPa | 2.9V | 00:00:00 | 00:00:00 | 00:00:00 | |
| OE3JTB-15 | 2026-09-03 23:38:00 | 49.32883 | 17.38479 | 153° | 115km/h | 7367m | 7.0m/s | -22.4°C | 87.1% | 0hPa | 2.9V | 00:00:00 | 00:44:14 | 00:00:00 | |
| PETON7-10 | 2026-09-03 23:37:53 | 49.33109 | 17.38270 | 148° | 137km/h | 7327m | 5.7m/s | -22.1°C | 84.9% | 0hPa | 2.9V | 00:00:00 | 00:00:00 | 00:00:00 | |
| PETON7-10 | 2026-09-03 23:37:38 | 49.33546 | 17.37852 | 141° | 131km/h | 7245m | 6.9m/s | -21.3°C | 81.1% | 0hPa | 2.9V | 00:00:00 | 00:43:52 | 00:00:00 | |
| POL2MAQ | 2026-09-03 23:37:33 | 49.33647 | 17.37731 | 145° | 124km/h | 7223m | 4.6m/s | -21.1°C | 75.1% | 0hPa | 2.9V | 00:00:00 | 00:00:00 | 00:00:00 | |
| OE3OSB-13 | 2026-09-03 23:37:31 | 49.33729 | 17.37644 | 144° | 141km/h | 7205m | 6.9m/s | -20.9°C | 73.0% | -1.0hPa | 2.9V | 00:00:00 | 00:00:00 | 00:00:00 | |
| PETON7-10 | 2026-09-03 23:37:23 | 49.33953 | 17.37417 | 152° | 133km/h | 7150m | 4.1m/s | -20.3°C | 76.6% | 0hPa | 2.9V | 00:00:00 | 00:00:00 | 00:00:00 | |
| POL2MAQ | 2026-09-03 23:37:13 | 49.34237 | 17.37157 | 152° | 148km/h | 7099m | 4.2m/s | -19.9°C | 70.0% | 0hPa | 2.9V | 00:00:00 | 00:00:00 | 00:00:00 | |
| PETON7-10 | 2026-09-03 23:37:08 | 49.34382 | 17.37021 | 146° | 122km/h | 7072m | 9.9m/s | -19.6°C | 76.4% | 0hPa | 2.9V | 00:00:00 | 00:00:00 | 00:00:00 | |
| OE3OSB-13 | 2026-09-03 23:37:00 | 49.34579 | 17.36799 | 145° | 130km/h | 7013m | 7.2m/s | -19.3°C | 73.0% | -1.0hPa | 2.9V | 00:00:00 | 00:00:00 | 00:00:00 | |
| PETON7-10 | 2026-09-03 23:36:53 | 49.34772 | 17.36623 | 144° | 120km/h | 6968m | 6.3m/s | -19.0°C | 78.1% | 0hPa | 2.9V | 00:00:00 | 00:43:07 | 00:00:00 | |
| PETON7-10 | 2026-09-03 23:36:38 | 49.35140 | 17.36219 | 155° | 111km/h | 6880m | 4.7m/s | -19.4°C | 0% | 0hPa | 2.9V | 00:00:00 | 00:00:00 | 00:00:00 | |
| POL2MAQ | 2026-09-03 23:36:32 | 49.35299 | 17.36105 | 156° | 110km/h | 6848m | 6.8m/s | -19.1°C | 90.3% | 0hPa | 2.9V | 00:00:00 | 00:00:00 | 00:00:00 | |
| OE3OSB-13 | 2026-09-03 23:36:30 | 49.35374 | 17.36051 | 154° | 106km/h | 6831m | 4.2m/s | -19.0°C | 89.0% | -1.0hPa | 2.9V | 00:00:00 | 00:00:00 | 00:00:00 | |
| PETON7-10 | 2026-09-03 23:36:23 | 49.35517 | 17.35928 | 150° | 122km/h | 6796m | 8.4m/s | -18.5°C | 95.8% | 0hPa | 2.9V | 00:00:00 | 00:00:00 | 00:00:00 | |
| POL2MAQ | 2026-09-03 23:36:11 | 49.35834 | 17.35647 | 146° | 131km/h | 6716m | 6.8m/s | -17.8°C | 84.5% | 0hPa | 2.9V | 00:00:00 | 00:00:00 | 00:00:00 | |
| PETON7-10 | 2026-09-03 23:36:08 | 49.35920 | 17.35562 | 150° | 111km/h | 6693m | 4.7m/s | -17.6°C | 90.7% | 0hPa | 2.9V | 00:00:00 | 00:42:22 | 00:00:00 | |
| OE3OSB-13 | 2026-09-03 23:35:58 | 49.36147 | 17.35329 | 139° | 100km/h | 6639m | 4.2m/s | -17.2°C | 82.4% | -1.0hPa | 2.9V | 00:00:00 | 00:00:00 | 00:00:00 | |
| PETON7-10 | 2026-09-03 23:35:53 | 49.36267 | 17.35202 | 148° | 113km/h | 6612m | 5.1m/s | -17.0°C | 88.1% | 0hPa | 2.9V | 00:00:00 | 00:00:00 | 08:30:00 | |
| POL2MAQ | 2026-09-03 23:35:50 | 49.36346 | 17.35114 | 141° | 120km/h | 6595m | 4.1m/s | -16.9°C | 82.5% | 0hPa | 2.9V | 00:00:00 | 00:00:00 | 00:00:00 | |
| PETON7-10 | 2026-09-03 23:35:38 | 49.36609 | 17.34813 | 144° | 108km/h | 6519m | 6.5m/s | -16.3°C | 87.2% | 0hPa | 2.9V | 00:00:00 | 00:00:00 | 00:00:00 | |
| POL2MAQ | 2026-09-03 23:35:29 | 49.36792 | 17.34601 | 146° | 100km/h | 6464m | 7.0m/s | -16.0°C | 81.1% | 0hPa | 2.9V | 00:00:00 | 00:00:00 | 00:00:00 | |
| OE3OSB-13 | 2026-09-03 23:35:27 | 49.36867 | 17.34505 | 139° | 91km/h | 6439m | 8.6m/s | -16.0°C | 78.5% | -1.0hPa | 2.9V | 00:00:00 | 00:00:00 | 00:00:00 | |
| PETON7-10 | 2026-09-03 23:35:23 | 49.36927 | 17.34439 | 148° | 108km/h | 6419m | 4.3m/s | -16.1°C | 84.0% | 0hPa | 2.9V | 00:00:00 | 00:41:37 | 00:00:00 | |
| PETON7-10 | 2026-09-03 23:35:08 | 49.37265 | 17.34087 | 142° | 100km/h | 6333m | 7.9m/s | -15.8°C | 77.5% | 0hPa | 2.9V | 00:00:00 | 00:00:00 | 00:00:00 | |
| OE3OSB-13 | 2026-09-03 23:34:56 | 49.37507 | 17.33750 | 131° | 97km/h | 6269m | 7.0m/s | -15.6°C | 68.1% | -1.0hPa | 2.9V | 00:00:00 | 00:00:00 | 00:00:00 | |
| PETON7-10 | 2026-09-03 23:34:53 | 49.37540 | 17.33697 | 137° | 108km/h | 6257m | 4.2m/s | -15.5°C | 76.8% | 0hPa | 2.9V | 00:00:00 | 00:00:00 | 00:00:00 | |
| POL2MAQ | 2026-09-03 23:34:48 | 49.37618 | 17.33598 | 144° | 113km/h | 6231m | 5.3m/s | -15.4°C | 64.7% | 0hPa | 2.9V | 00:00:00 | 00:00:00 | 00:00:00 | |
| PETON7-10 | 2026-09-03 23:34:38 | 49.37861 | 17.33312 | 135° | 104km/h | 6169m | 7.0m/s | -15.2°C | 61.6% | 0hPa | 2.9V | 00:00:00 | 00:40:52 | 00:00:00 | |
| OE3JTB-15 | 2026-09-03 23:34:28 | 49.38045 | 17.33034 | 136° | 91km/h | 6118m | 3.2m/s | -14.8°C | 61.6% | 0hPa | 2.9V | 00:00:00 | 00:00:00 | 08:30:00 | |
| OE3OSB-13 | 2026-09-03 23:34:25 | 49.38129 | 17.32922 | 144° | 100km/h | 6091m | 5.4m/s | -14.8°C | 58.5% | -1.0hPa | 2.7V | 00:00:00 | 00:00:00 | 00:00:00 | |
| PETON7-10 | 2026-09-03 23:34:23 | 49.38149 | 17.32901 | 147° | 91km/h | 6086m | 4.4m/s | -14.7°C | 63.3% | 0hPa | 2.7V | 00:00:00 | 00:00:00 | 00:00:00 | |
| POL2MAQ | 2026-09-03 23:34:17 | 49.38250 | 17.32798 | 142° | 106km/h | 6059m | 4.6m/s | -14.6°C | 60.6% | 0hPa | 2.7V | 00:00:00 | 00:00:00 | 00:00:00 | |
| PETON7-10 | 2026-09-03 23:34:08 | 49.38416 | 17.32567 | 142° | 89km/h | 6002m | 5.1m/s | -14.4°C | 61.4% | 0hPa | 2.7V | 00:00:00 | 00:00:00 | 00:00:00 | |
| OE3OSB-13 | 2026-09-03 23:33:54 | 49.38658 | 17.32203 | 139° | 102km/h | 5919m | 5.8m/s | -14.1°C | 55.3% | -1.0hPa | 2.7V | 00:00:00 | 00:00:00 | 00:00:00 | |
| PETON7-10 | 2026-09-03 23:33:53 | 49.38658 | 17.32203 | 140° | 95km/h | 5920m | 5.8m/s | -14.1°C | 59.5% | 0hPa | 2.7V | 00:00:00 | 00:40:07 | 00:00:00 | |
| PETON7-10 | 2026-09-03 23:33:38 | 49.38933 | 17.31843 | 147° | 93km/h | 5831m | 7.0m/s | -13.5°C | 59.5% | 0hPa | 2.7V | 00:00:00 | 00:00:00 | 08:30:00 | |
| POL2MAQ | 2026-09-03 23:33:35 | 49.38970 | 17.31804 | 143° | 80km/h | 5820m | 4.6m/s | -13.5°C | 55.9% | 0hPa | 2.9V | 00:00:00 | 00:00:00 | 00:00:00 | |
| PETON7-10 | 2026-09-03 23:33:23 | 49.39188 | 17.31473 | 134° | 86km/h | 5756m | 7.4m/s | -13.1°C | 57.3% | 0hPa | 2.9V | 00:00:00 | 00:00:00 | 00:00:00 | |
| OE3OSB-13 | 2026-09-03 23:33:22 | 49.39205 | 17.31445 | 130° | 95km/h | 5749m | 6.1m/s | -13.1°C | 53.6% | -1.0hPa | 2.9V | 00:00:00 | 00:00:00 | 00:00:00 | |
| POL2MAQ | 2026-09-03 23:33:14 | 49.39314 | 17.31260 | 133° | 80km/h | 5707m | 7.7m/s | -13.1°C | 49.1% | 0hPa | 2.9V | 00:00:00 | 00:00:00 | 00:00:00 | |
| PETON7-10 | 2026-09-03 23:33:08 | 49.39418 | 17.31132 | 143° | 75km/h | 5665m | 5.4m/s | -13.3°C | 38.0% | 0hPa | 2.9V | 00:00:00 | 00:39:22 | 00:00:00 | |
| OE3OSB-13 | 2026-09-03 23:32:53 | 49.39636 | 17.30791 | 122° | 64km/h | 5585m | 6.4m/s | -13.0°C | 28.8% | -1.0hPa | 2.9V | 00:00:00 | 00:00:00 | 00:00:00 | |
| PETON7-10 | 2026-09-03 23:32:38 | 49.39812 | 17.30494 | 132° | 69km/h | 5519m | 4.4m/s | -12.7°C | 33.5% | 0hPa | 2.9V | 00:00:00 | 00:00:00 | 00:00:00 | |
| POL2MAQ | 2026-09-03 23:32:33 | 49.39856 | 17.30407 | 132° | 60km/h | 5500m | 5.5m/s | -12.6°C | 31.2% | 0hPa | 2.9V | 00:00:00 | 00:00:00 | 00:00:00 | |
| PETON7-10 | 2026-09-03 23:32:23 | 49.39972 | 17.30187 | 122° | 64km/h | 5438m | 3.8m/s | -12.0°C | 32.5% | 0hPa | 2.9V | 00:00:00 | 00:38:37 | 00:00:00 | |
| OE3OSB-13 | 2026-09-03 23:32:20 | 49.39995 | 17.30133 | 119° | 58km/h | 5423m | 5.5m/s | -11.9°C | 29.5% | -1.0hPa | 2.9V | 00:00:00 | 00:00:00 | 00:00:00 | |
| OE3JTB-15 | 2026-09-03 23:32:15 | 49.40049 | 17.30017 | 135° | 69km/h | 5399m | 5.7m/s | -11.7°C | 31.2% | 0hPa | 2.9V | 00:00:00 | 00:38:29 | 00:00:00 | |
| POL2MAQ | 2026-09-03 23:32:12 | 49.40075 | 17.29978 | 138° | 62km/h | 5389m | 4.7m/s | -11.7°C | 28.7% | 0hPa | 2.9V | 00:00:00 | 00:00:00 | 00:00:00 | |
| PETON7-10 | 2026-09-03 23:32:08 | 49.40119 | 17.29885 | 126° | 75km/h | 5362m | 5.5m/s | -11.4°C | 32.1% | 0hPa | 2.9V | 00:00:00 | 00:00:00 | 00:00:00 | |
| OE3OSB-13 | 2026-09-03 23:31:49 | 49.40336 | 17.29466 | 115° | 57km/h | 5264m | 7.0m/s | -10.6°C | 28.3% | -1.0hPa | 2.9V | 00:00:00 | 00:00:00 | 00:00:00 | |
| OE3JTB-15 | 2026-09-03 23:31:46 | 49.40358 | 17.29395 | 120° | 68km/h | 5249m | 4.4m/s | -10.4°C | 30.7% | 0hPa | 2.9V | 00:00:00 | 00:00:00 | 00:00:00 | |
| PETON7-10 | 2026-09-03 23:31:38 | 49.40455 | 17.29222 | 129° | 68km/h | 5215m | 4.0m/s | -10.2°C | 29.5% | 0hPa | 2.9V | 00:00:00 | 00:37:52 | 00:00:00 | |
| POL2MAQ | 2026-09-03 23:31:30 | 49.40521 | 17.29038 | 126° | 82km/h | 5174m | 7.9m/s | -10.1°C | 27.1% | 0hPa | 2.9V | 00:00:00 | 00:00:00 | 00:00:00 | |
| PETON7-10 | 2026-09-03 23:31:23 | 49.40605 | 17.28906 | 137° | 58km/h | 5136m | 5.1m/s | -10.0°C | 24.1% | 0hPa | 2.9V | 00:00:00 | 00:00:00 | 08:30:00 | |
| OE3OSB-13 | 2026-09-03 23:31:18 | 49.40654 | 17.28822 | 120° | 47km/h | 5111m | 4.5m/s | -9.8°C | 22.1% | -1.0hPa | 2.9V | 00:00:00 | 00:00:00 | 00:00:00 | |
| OE3JTB-15 | 2026-09-03 23:31:17 | 49.40659 | 17.28805 | 115° | 58km/h | 5107m | 3.2m/s | -9.8°C | 22.4% | 0hPa | 2.9V | 00:00:00 | 00:00:00 | 00:00:00 | |
| POL2MAQ | 2026-09-03 23:31:09 | 49.40717 | 17.28685 | 135° | 66km/h | 5072m | 4.3m/s | -9.5°C | 17.9% | 0hPa | 2.9V | 00:00:00 | 00:00:00 | 00:00:00 | |
| PETON7-10 | 2026-09-03 23:31:08 | 49.40740 | 17.28645 | 129° | 62km/h | 5065m | 3.3m/s | -9.4°C | 19.1% | 0hPa | 2.9V | 00:00:00 | 00:00:00 | 00:00:00 | |
| OE3OSB-13 | 2026-09-03 23:30:47 | 49.40919 | 17.28268 | 111° | 58km/h | 4942m | 4.3m/s | -8.5°C | 16.2% | -1.0hPa | 2.9V | 00:00:00 | 00:00:00 | 00:00:00 | |
| PETON7-10 | 2026-09-03 23:30:38 | 49.40967 | 17.28081 | 133° | 64km/h | 4907m | 5.1m/s | -8.2°C | 16.8% | 0hPa | 2.9V | 00:00:00 | 00:00:00 | 00:00:00 | |
| POL1PZ | 2026-09-03 23:30:36 | 49.40977 | 17.28064 | 134° | 62km/h | 4902m | 5.0m/s | 0°C | 0% | 0hPa | 2.9V | 00:00:00 | 00:00:00 | 00:00:00 | |
| POL2MAQ | 2026-09-03 23:30:28 | 49.41051 | 17.27872 | 125° | 51km/h | 4856m | 5.9m/s | -7.9°C | 0% | 0hPa | 2.9V | 00:00:00 | 00:00:00 | 00:00:00 | |
| PETON7-10 | 2026-09-03 23:30:23 | 49.41103 | 17.27773 | 128° | 62km/h | 4830m | 3.6m/s | -7.8°C | 14.9% | 0hPa | 2.9V | 00:00:00 | 00:00:00 | 00:00:00 | |
| OE3JTB-15 | 2026-09-03 23:30:19 | 49.41144 | 17.27702 | 132° | 60km/h | 4810m | 5.6m/s | -7.6°C | 14.4% | 0hPa | 2.9V | 00:00:00 | 00:00:00 | 00:00:00 | |
| POL1PZ | 2026-09-03 23:30:16 | 49.41163 | 17.27652 | 110° | 58km/h | 4792m | 5.2m/s | 0°C | 0% | 0hPa | 3.0V | 00:00:00 | 00:00:00 | 00:00:00 | |
| PETON7-10 | 2026-09-03 23:30:08 | 49.41229 | 17.27477 | 131° | 58km/h | 4754m | 5.6m/s | -7.2°C | 14.2% | 0hPa | 3.0V | 00:00:00 | 00:36:22 | 00:00:00 | |
| POL2MAQ | 2026-09-03 23:30:07 | 49.41229 | 17.27477 | 132° | 60km/h | 4754m | 5.6m/s | -7.2°C | 0% | 0hPa | 3.0V | 00:00:00 | 00:00:00 | 00:00:00 | |
| OE3OSB-13 | 2026-09-03 23:29:45 | 49.41369 | 17.27005 | 134° | 47km/h | 4631m | 7.3m/s | -6.8°C | 14.5% | -1.0hPa | 3.0V | 00:00:00 | 00:00:00 | 00:00:00 | |
| POL2MAQ | 2026-09-03 23:29:40 | 49.41390 | 17.26941 | 107° | 55km/h | 4611m | 5.0m/s | -6.7°C | 0% | 0hPa | 3.0V | 00:00:00 | 00:00:00 | 00:00:00 | |
| PETON7-10 | 2026-09-03 23:29:38 | 49.41406 | 17.26873 | 115° | 64km/h | 4598m | 5.4m/s | -6.5°C | 15.1% | 0hPa | 3.0V | 00:00:00 | 00:00:00 | 00:00:00 | |
| POL1PZ | 2026-09-03 23:29:28 | 49.41499 | 17.26673 | 119° | 68km/h | 4558m | 4.5m/s | 0°C | 0% | 0hPa | 3.0V | 00:00:00 | 00:00:00 | 00:00:00 | |
| PETON7-10 | 2026-09-03 23:29:23 | 49.41531 | 17.26568 | 133° | 53km/h | 4529m | 4.5m/s | -6.3°C | 13.2% | 0hPa | 3.0V | 00:00:00 | 00:35:37 | 00:00:00 | |
| OE3JTB-15 | 2026-09-03 23:29:21 | 49.41550 | 17.26540 | 138° | 55km/h | 4518m | 6.1m/s | -6.2°C | 12.7% | 0hPa | 3.0V | 00:00:00 | 00:35:35 | 00:00:00 | |
| POL2MAQ | 2026-09-03 23:29:20 | 49.41561 | 17.26523 | 134° | 62km/h | 4513m | 4.8m/s | 0°C | 0% | 0hPa | 3.0V | 00:00:00 | 00:00:00 | 00:00:00 | |
| OE3OSB-13 | 2026-09-03 23:29:14 | 49.41613 | 17.26409 | 118° | 40km/h | 4483m | 6.0m/s | -6.0°C | 12.6% | -1.0hPa | 3.0V | 00:00:00 | 00:00:00 | 00:00:00 | |
| POL1PZ | 2026-09-03 23:29:08 | 49.41642 | 17.26309 | 116° | 64km/h | 4458m | 4.6m/s | 0°C | 0% | 0hPa | 3.0V | 00:00:00 | 00:00:00 | 00:00:00 | |
| POL2MAQ | 2026-09-03 23:29:00 | 49.41693 | 17.26143 | 131° | 49km/h | 4410m | 5.0m/s | 0°C | 0% | 0hPa | 3.0V | 00:00:00 | 00:00:00 | 00:00:00 | |
| PETON7-10 | 2026-09-03 23:28:53 | 49.41751 | 17.26066 | 142° | 51km/h | 4378m | 3.5m/s | -5.4°C | 22.7% | 0hPa | 3.0V | 00:00:00 | 00:00:00 | 00:00:00 | |
| OE3JTB-15 | 2026-09-03 23:28:52 | 49.41760 | 17.26055 | 145° | 57km/h | 4375m | 4.0m/s | -5.4°C | 26.7% | 0hPa | 3.0V | 00:00:00 | 00:00:00 | 08:30:00 | |
| POL1PZ | 2026-09-03 23:28:47 | 49.41809 | 17.25990 | 132° | 62km/h | 4352m | 5.3m/s | 0°C | 0% | 0hPa | 3.0V | 00:00:00 | 00:00:00 | 00:00:00 | |
| OE3OSB-13 | 2026-09-03 23:28:43 | 49.41839 | 17.25912 | 111° | 51km/h | 4333m | 5.2m/s | -5.6°C | 46.6% | -1.0hPa | 3.0V | 00:00:00 | 00:00:00 | 00:00:00 | |
| POL2MAQ | 2026-09-03 23:28:40 | 49.41855 | 17.25867 | 129° | 42km/h | 4318m | 5.8m/s | 0°C | 0% | 0hPa | 3.0V | 00:00:00 | 00:00:00 | 00:00:00 | |
| PETON7-10 | 2026-09-03 23:28:38 | 49.41871 | 17.25839 | 135° | 57km/h | 4306m | 7.5m/s | -5.4°C | 58.1% | 0hPa | 3.0V | 00:00:00 | 00:34:52 | 00:00:00 | |
| PETON7-10 | 2026-09-03 23:28:23 | 49.41988 | 17.25553 | 109° | 60km/h | 4219m | 3.7m/s | -4.8°C | 74.8% | 0hPa | 3.0V | 00:00:00 | 00:00:00 | 00:00:00 | |
| POL2MAQ | 2026-09-03 23:28:17 | 49.42030 | 17.25431 | 117° | 77km/h | 4189m | 6.4m/s | 0°C | 0% | 0hPa | 3.0V | 00:00:00 | 00:00:00 | 00:00:00 | |
| OE3OSB-13 | 2026-09-03 23:28:12 | 49.42062 | 17.25283 | 106° | 49km/h | 4158m | 4.7m/s | -4.5°C | 84.2% | -1.0hPa | 3.0V | 00:00:00 | 00:00:00 | 00:00:00 | |
| PETON7-10 | 2026-09-03 23:28:08 | 49.42077 | 17.25232 | 122° | 60km/h | 4144m | 4.4m/s | -4.4°C | 89.7% | 0hPa | 3.0V | 00:00:00 | 00:00:00 | 00:00:00 | |
| OE3JTB-15 | 2026-09-03 23:27:54 | 49.42155 | 17.24915 | 109° | 55km/h | 4075m | 6.5m/s | -3.8°C | 92.5% | 0hPa | 3.0V | 00:00:00 | 00:34:08 | 00:00:00 | |
| PETON7-10 | 2026-09-03 23:27:52 | 49.42164 | 17.24871 | 109° | 58km/h | 4065m | 3.7m/s | -3.8°C | 91.7% | 0hPa | 3.0V | 00:00:00 | 00:34:06 | 00:00:00 | |
| OE3OSB-13 | 2026-09-03 23:27:41 | 49.42241 | 17.24634 | 103° | 57km/h | 4005m | 3.5m/s | -3.3°C | 85.3% | -1.0hPa | 3.0V | 00:00:00 | 00:00:00 | 00:00:00 | |
| OE3JTB-15 | 2026-09-03 23:27:25 | 49.42337 | 17.24342 | 130° | 55km/h | 3922m | 4.1m/s | -2.5°C | 87.0% | 0hPa | 3.0V | 00:00:00 | 00:00:00 | 00:00:00 | |
| PETON7-10 | 2026-09-03 23:27:22 | 49.42365 | 17.24277 | 115° | 55km/h | 3908m | 3.9m/s | -2.4°C | 88.7% | 0hPa | 3.0V | 00:00:00 | 00:00:00 | 00:00:00 | |
| OE3OSB-13 | 2026-09-03 23:27:10 | 49.42445 | 17.24039 | 103° | 58km/h | 3838m | 5.4m/s | -1.9°C | 85.1% | -1.0hPa | 3.0V | 00:00:00 | 00:00:00 | 00:00:00 | |
| PETON7-10 | 2026-09-03 23:27:07 | 49.42453 | 17.23994 | 108° | 57km/h | 3829m | 6.8m/s | -1.8°C | 88.8% | 0hPa | 3.0V | 00:00:00 | 00:33:21 | 00:00:00 | |
| OE3JTB-15 | 2026-09-03 23:26:56 | 49.42532 | 17.23798 | 114° | 58km/h | 3765m | 6.1m/s | -1.2°C | 85.5% | 0hPa | 3.0V | 00:00:00 | 00:00:00 | 00:00:00 | |
| PETON7-10 | 2026-09-03 23:26:52 | 49.42560 | 17.23706 | 113° | 49km/h | 3746m | 4.9m/s | -1.0°C | 84.1% | 0hPa | 3.0V | 00:00:00 | 00:00:00 | 08:30:00 | |
| OE3OSB-13 | 2026-09-03 23:26:39 | 49.42641 | 17.23469 | 122° | 40km/h | 3663m | 4.0m/s | -0.3°C | 77.3% | -1.0hPa | 3.0V | 00:00:00 | 00:00:00 | 00:00:00 | |
| PETON7-10 | 2026-09-03 23:26:37 | 49.42648 | 17.23455 | 126° | 55km/h | 3658m | 5.4m/s | -0.2°C | 80.2% | 0hPa | 3.0V | 00:00:00 | 00:00:00 | 00:00:00 | |
| OE3JTB-15 | 2026-09-03 23:26:27 | 49.42732 | 17.23272 | 118° | 46km/h | 3598m | 5.5m/s | 0.3°C | 77.0% | 0hPa | 3.0V | 00:00:00 | 00:32:41 | 00:00:00 | |
| PETON7-10 | 2026-09-03 23:26:22 | 49.42762 | 17.23186 | 116° | 51km/h | 3569m | 7.5m/s | 0.5°C | 77.7% | 0hPa | 3.0V | 00:00:00 | 00:32:36 | 00:00:00 | |
| PETON7-10 | 2026-09-03 23:26:07 | 49.42846 | 17.22920 | 119° | 47km/h | 3477m | 4.5m/s | 1.0°C | 88.2% | 0hPa | 3.0V | 00:00:00 | 00:00:00 | 00:00:00 | |
| OE3JTB-15 | 2026-09-03 23:25:53 | 49.42922 | 17.22697 | 112° | 47km/h | 3391m | 8.7m/s | 1.2°C | 87.9% | 0hPa | 3.0V | 00:00:00 | 00:00:00 | 00:00:00 | |
| PETON7-10 | 2026-09-03 23:25:52 | 49.42926 | 17.22678 | 106° | 42km/h | 3383m | 7.4m/s | 1.2°C | 87.6% | 0hPa | 3.0V | 00:00:00 | 00:00:00 | 00:00:00 | |
| PETON7-10 | 2026-09-03 23:25:37 | 49.42959 | 17.22447 | 103° | 44km/h | 3302m | 4.4m/s | 1.2°C | 85.5% | 0hPa | 3.0V | 00:00:00 | 00:31:51 | 00:00:00 | |
| OE3OSB-13 | 2026-09-03 23:25:36 | 49.42960 | 17.22436 | 101° | 26km/h | 3297m | 4.4m/s | 1.2°C | 84.6% | -1.0hPa | 3.0V | 00:00:00 | 00:00:00 | 00:00:00 | |
| PETON7-10 | 2026-09-03 23:25:22 | 49.43011 | 17.22200 | 92° | 51km/h | 3226m | 5.2m/s | 1.6°C | 90.9% | 0hPa | 3.0V | 00:00:00 | 00:00:00 | 00:00:00 | |
| PETON7-10 | 2026-09-03 23:25:07 | 49.43011 | 17.21901 | 87° | 51km/h | 3148m | 6.5m/s | 2.0°C | 91.1% | 0hPa | 3.0V | 00:00:00 | 00:00:00 | 00:00:00 | |
| OE3OSB-13 | 2026-09-03 23:25:05 | 49.43008 | 17.21855 | 81° | 57km/h | 3137m | 5.2m/s | 0°C | -1.0% | -1.0hPa | 3.0V | 00:00:00 | 00:00:00 | 00:00:00 | |
| PETON7-10 | 2026-09-03 23:24:49 | 49.43011 | 17.21538 | 93° | 51km/h | 3041m | 6.1m/s | 2.8°C | 90.6% | 0hPa | 3.0V | 00:00:00 | 00:31:03 | 00:00:00 | |
| OE3JTB-15 | 2026-09-03 23:24:48 | 49.43012 | 17.21514 | 97° | 53km/h | 3034m | 8.3m/s | 2.8°C | 90.0% | 0hPa | 3.0V | 00:00:00 | 00:31:02 | 00:00:00 | |
| PETON7-10 | 2026-09-03 23:24:34 | 49.43048 | 17.21253 | 114° | 53km/h | 2948m | 5.4m/s | 3.5°C | 87.8% | 0hPa | 3.0V | 00:00:00 | 00:00:00 | 08:30:00 | |
| PETON7-10 | 2026-09-03 23:24:19 | 49.43072 | 17.20949 | 99° | 51km/h | 2868m | 4.8m/s | 4.1°C | 86.3% | 0hPa | 3.0V | 00:00:00 | 00:00:00 | 00:00:00 | |
| OE3JTB-15 | 2026-09-03 23:24:18 | 49.43074 | 17.20932 | 103° | 51km/h | 2862m | 5.9m/s | 4.1°C | 86.6% | 0hPa | 3.0V | 00:00:00 | 00:00:00 | 08:30:00 | |
| PETON7-10 | 2026-09-03 23:24:04 | 49.43119 | 17.20661 | 104° | 53km/h | 2779m | 6.4m/s | 4.6°C | 91.2% | 0hPa | 3.0V | 00:00:00 | 00:30:18 | 00:00:00 | |
| PETON7-10 | 2026-09-03 23:23:49 | 49.43145 | 17.20357 | 96° | 55km/h | 2688m | 5.0m/s | 5.4°C | 85.7% | 0hPa | 3.0V | 00:00:00 | 00:00:00 | 00:00:00 | |
| PETON7-10 | 2026-09-03 23:23:34 | 49.43191 | 17.20052 | 97° | 51km/h | 2600m | 6.2m/s | 6.1°C | 81.5% | 0hPa | 3.0V | 00:00:00 | 00:00:00 | 00:00:00 | |
| OE3JTB-15 | 2026-09-03 23:23:24 | 49.43220 | 17.19873 | 90° | 57km/h | 2539m | 7.6m/s | 6.6°C | 78.1% | 0hPa | 3.0V | 00:00:00 | 00:00:00 | 00:00:00 | |
| PETON7-10 | 2026-09-03 23:23:19 | 49.43232 | 17.19760 | 108° | 47km/h | 2506m | 6.0m/s | 6.8°C | 75.1% | 0hPa | 3.0V | 00:00:00 | 00:29:33 | 00:00:00 | |
| PETON7-10 | 2026-09-03 23:23:04 | 49.43248 | 17.19490 | 95° | 55km/h | 2420m | 6.3m/s | 0°C | 0% | 0hPa | 3.0V | 00:00:00 | 00:00:00 | 00:00:00 | |
| PETON7-10 | 2026-09-03 23:22:49 | 49.43264 | 17.19175 | 92° | 58km/h | 2335m | 5.3m/s | 0°C | 0% | 0hPa | 3.0V | 00:00:00 | 00:00:00 | 00:00:00 | |
| OE3JTB-15 | 2026-09-03 23:22:44 | 49.43264 | 17.19067 | 100° | 58km/h | 2305m | 5.9m/s | 7.9°C | 80.3% | 0hPa | 3.0V | 00:00:00 | 00:28:58 | 00:00:00 | |
| PETON7-10 | 2026-09-03 23:22:34 | 49.43286 | 17.18842 | 101° | 58km/h | 2244m | 7.4m/s | 0°C | 0% | 0hPa | 3.0V | 00:00:00 | 00:28:48 | 00:00:00 | |
| PETON7-10 | 2026-09-03 23:22:19 | 49.43358 | 17.18520 | 116° | 60km/h | 2157m | 5.4m/s | 0°C | 0% | 0hPa | 3.0V | 00:00:00 | 00:00:00 | 00:00:00 | |
| OE3JTB-15 | 2026-09-03 23:22:15 | 49.43391 | 17.18442 | 124° | 60km/h | 2135m | 5.8m/s | 8.6°C | 81.4% | 0hPa | 3.0V | 00:00:00 | 00:00:00 | 00:00:00 | |
| OE3JTB-15 | 2026-09-03 23:21:46 | 49.43572 | 17.17840 | 132° | 69km/h | 1968m | 6.1m/s | 8.8°C | 82.2% | 0hPa | 3.0V | 00:00:00 | 00:00:00 | 00:00:00 | |
| OE3JTB-15 | 2026-09-03 23:21:17 | 49.43873 | 17.17223 | 130° | 62km/h | 1796m | 5.4m/s | 9.8°C | 84.9% | 0hPa | 3.0V | 00:00:00 | 00:27:31 | 00:00:00 | |
| OE3JTB-15 | 2026-09-03 23:20:48 | 49.44157 | 17.16673 | 119° | 60km/h | 1641m | 3.9m/s | 10.7°C | 84.2% | 0hPa | 3.0V | 00:00:00 | 00:00:00 | 00:00:00 | |
| OE3JTB-15 | 2026-09-03 23:20:19 | 49.44409 | 17.16130 | 138° | 58km/h | 1489m | 7.0m/s | 11.1°C | 89.1% | 0hPa | 0V | 00:00:00 | 00:00:00 | 00:00:00 | |
| OE3JTB-15 | 2026-09-03 23:19:50 | 49.44681 | 17.15617 | 127° | 60km/h | 1338m | 3.7m/s | 0°C | 0% | 0hPa | 0V | 00:00:00 | 00:26:04 | 00:00:00 | |
| OE3JTB-15 | 2026-09-03 23:19:21 | 49.44928 | 17.15067 | 115° | 57km/h | 1192m | 4.4m/s | 0°C | 0% | 0hPa | 0V | 00:00:00 | 00:00:00 | 00:00:00 |